# Wetter Temperatur Luftdruck Luftfeuchtigkeit Sichtweite Windgeschwindigkeit Windrichtung Zeit
1 Clouds 12 1023 87 10000 1.5 20 22:25 24.01.2020
2 Clouds 12 1022 93 10000 0.5 90 21:43 24.01.2020
3 Clouds 12 1022 93 10000 2.1 70 21:21 24.01.2020
4 Clouds 12 1023 93 10000 1.5 50 20:57 24.01.2020
5 Clouds 12 1023 87 10000 1 50 20:39 24.01.2020
6 Clouds 12 1023 87 10000 1 50 20:20 24.01.2020
7 Clouds 12 1023 93 10000 1 0 19:57 24.01.2020
8 Clouds 13 1022 81 10000 1.5 70 19:38 24.01.2020
9 Clouds 12 1022 81 10000 1.5 70 19:20 24.01.2020
10 Clouds 13 1021 82 10000 1.5 230 18:43 24.01.2020
11 Clouds 14 1022 82 10000 2.6 200 18:23 24.01.2020
12 Clouds 14 1022 76 10000 2.1 200 17:46 24.01.2020
13 Clear 15 1021 67 10000 1.5 210 17:23 24.01.2020
14 Clear 16 1021 72 10000 2.1 210 16:59 24.01.2020
15 Clouds 16 1020 67 10000 1.5 260 16:39 24.01.2020
16 Clear 16 1021 67 10000 2.1 200 16:20 24.01.2020
17 Clouds 16 1021 67 10000 3.1 220 15:43 24.01.2020
18 Clear 16 1021 63 10000 3.1 230 15:22 24.01.2020
19 Clear 16 1022 63 10000 4.1 220 14:57 24.01.2020
20 Clouds 16 1021 67 10000 4.6 230 14:38 24.01.2020
21 Clear 16 1022 63 10000 3.1 210 14:20 24.01.2020
22 Clear 16 1022 59 10000 1 0 13:42 24.01.2020
23 Clear 17 1021 59 10000 0.5 0 13:23 24.01.2020
24 Clear 16 1023 59 10000 0.5 170 12:44 24.01.2020
25 Clear 15 1022 77 10000 1.5 80 12:22 24.01.2020
26 Clear 15 1023 67 10000 1 0 11:57 24.01.2020
27 Clear 15 1023 71 10000 1 0 11:38 24.01.2020
28 Clear 13 1022 87 10000 1.5 60 11:18 24.01.2020
29 Clear 14 1023 71 10000 1 0 11:18 24.01.2020
30 Clouds 11 1022 93 10000 0.5 0 10:41 24.01.2020
31 Clear 10 1023 87 10000 1 0 10:20 24.01.2020
32 Clear 8 1023 87 10000 2.1 20 09:54 24.01.2020
33 Clear 7 1023 93 10000 2.1 360 09:36 24.01.2020
34 Clear 9 1023 93 10000 2.1 360 09:18 24.01.2020
35 Fog 8 1022 100 6000 1.5 40 08:39 24.01.2020
36 Rain 7 1022 93 10000 2.6 360 08:19 24.01.2020
37 Clouds 7 1021 100 6000 2.6 60 07:47 24.01.2020
38 Clouds 7 1022 93 10000 2.1 360 07:22 24.01.2020
39 Clouds 7 1021 100 6000 2.1 30 06:45 24.01.2020
40 Clouds 8 1022 93 10000 2.1 360 06:24 24.01.2020
41 Clouds 8 1022 87 10000 1.5 10 05:33 24.01.2020
42 Clouds 8 1023 93 10000 1.5 10 03:47 24.01.2020
43 Clouds 8 1023 93 10000 2.1 360 02:41 24.01.2020
44 Clouds 8 1023 93 10000 2.1 360 02:22 24.01.2020
45 Clouds 8 1022 100 8000 1 0 01:39 24.01.2020
46 Clouds 9 1023 93 10000 1.5 340 00:52 24.01.2020
47 Clouds 9 1022 100 8000 2.1 20 00:19 24.01.2020
48 Clouds 10 1024 93 10000 2.6 340 23:42 23.01.2020
49 Clouds 10 1024 93 10000 2.6 340 23:23 23.01.2020
50 Clouds 10 1024 87 10000 1 0 22:58 23.01.2020
51 Clouds 10 1024 93 10000 1.5 0 22:37 23.01.2020
52 Clouds 10 1024 93 10000 1.5 0 22:37 23.01.2020
53 Clouds 10 1024 93 10000 1.5 0 22:18 23.01.2020
54 Clouds 10 1023 87 10000 0.5 320 21:55 23.01.2020
55 Clouds 10 1023 87 10000 2.6 360 21:37 23.01.2020
56 Clouds 10 1023 87 10000 2.6 360 21:19 23.01.2020
57 Clouds 11 1023 93 10000 3.1 350 20:55 23.01.2020
58 Clouds 11 1022 93 8000 2.62 63 20:37 23.01.2020
59 Clouds 11 1023 93 10000 1.5 340 20:18 23.01.2020
60 Clouds 12 1022 93 10000 1 40 19:44 23.01.2020
61 Clouds 12 1023 87 10000 1 60 19:23 23.01.2020
62 Clouds 12 1022 87 10000 0.5 0 18:58 23.01.2020
63 Clouds 13 1022 82 10000 1 200 18:39 23.01.2020
64 Clouds 13 1022 82 10000 1 200 18:20 23.01.2020
65 Clouds 14 1022 76 10000 1.5 200 17:56 23.01.2020
66 Clouds 15 1022 76 10000 2.1 200 17:38 23.01.2020
67 Clouds 15 1021 82 10000 2.1 250 17:18 23.01.2020
68 Clouds 16 1022 67 10000 1.5 210 16:39 23.01.2020
69 Clouds 16 1022 67 10000 1.5 210 16:20 23.01.2020
70 Clouds 16 1022 72 10000 2.1 220 15:58 23.01.2020
71 Clouds 16 1021 77 10000 3.1 240 15:40 23.01.2020
72 Clouds 16 1021 77 10000 2.6 250 15:19 23.01.2020
73 Clouds 17 1022 63 10000 1.5 220 14:59 23.01.2020
74 Clouds 16 1021 72 10000 2.1 250 14:41 23.01.2020
75 Clear 16 1022 63 10000 2.6 220 14:23 23.01.2020
76 Clear 16 1022 59 10000 1.5 0 13:59 23.01.2020
77 Clear 16 1023 59 10000 1 0 13:38 23.01.2020
78 Clear 16 1023 59 10000 1 0 13:19 23.01.2020
79 Clouds 16 1022 67 10000 0.5 0 12:46 23.01.2020
80 Clear 16 1023 72 10000 1 160 12:25 23.01.2020
81 Clear 15 1023 77 10000 0.5 130 11:57 23.01.2020
82 Clouds 14 1023 93 10000 1 0 11:38 23.01.2020
83 Clouds 13 1023 93 10000 1 0 11:19 23.01.2020
84 Clear 12 1022 100 10000 0.5 10 10:44 23.01.2020
85 Clear 11 1022 100 10000 0.5 10 10:22 23.01.2020
86 Clear 11 1022 100 9000 1 0 09:57 23.01.2020
87 Clear 10 1022 100 10000 2.1 340 09:36 23.01.2020
88 Clear 10 1022 100 10000 2.1 340 09:18 23.01.2020
89 Rain 10 1022 100 10000 0.5 0 08:41 23.01.2020
90 Rain 10 1022 100 10000 0.5 0 08:22 23.01.2020
91 Rain 10 1020 93 10000 1 350 07:45 23.01.2020
92 Rain 10 1021 93 9000 2.6 310 07:26 23.01.2020
93 Rain 10 1020 93 10000 1.5 40 06:53 23.01.2020
94 Rain 10 1020 100 2600 1 0 06:23 23.01.2020
95 Rain 10 1019 93 6000 1 0 05:57 23.01.2020
96 Rain 11 1019 93 6000 1 0 04:24 23.01.2020
97 Rain 13 1019 87 10000 2.6 110 02:34 23.01.2020
98 Drizzle 13 1019 93 6000 0.5 230 01:41 23.01.2020
99 Rain 14 1019 87 9000 1 0 00:28 23.01.2020
100 Drizzle 14 1019 87 8000 2.6 70 23:48 22.01.2020
101 Rain 14 1019 87 8000 2.1 60 23:30 22.01.2020
102 Drizzle 14 1019 87 8000 1 0 22:59 22.01.2020
103 Rain 14 1018 87 10000 1.5 350 22:41 22.01.2020
104 Rain 14 1018 87 10000 1.5 350 22:23 22.01.2020
105 Mist 14 1017 87 4500 4.1 40 21:42 22.01.2020
106 Rain 14 1018 87 10000 2.1 60 21:22 22.01.2020
107 Rain 14 1018 87 10000 3.1 60 20:59 22.01.2020
108 Rain 14 1018 87 10000 3.6 60 20:41 22.01.2020
109 Clouds 14 1018 87 10000 3.6 60 20:23 22.01.2020
110 Clouds 14 1018 87 10000 3.6 60 19:57 22.01.2020
111 Mist 14 1017 87 4500 2.6 40 19:39 22.01.2020
112 Mist 14 1016 87 4500 2.6 40 19:19 22.01.2020
113 Clouds 15 1017 87 10000 3.1 90 18:57 22.01.2020
114 Clouds 15 1017 82 10000 3.1 90 18:38 22.01.2020
115 Clouds 15 1017 82 10000 3.1 90 18:20 22.01.2020
116 Clouds 15 1017 82 10000 3.6 100 17:55 22.01.2020
117 Clouds 15 1017 82 10000 2.1 100 17:37 22.01.2020
118 Mist 16 1016 82 4500 2.1 110 17:19 22.01.2020
119 Mist 17 1016 72 4500 2.6 120 16:43 22.01.2020
120 Clouds 17 1017 67 10000 3.6 110 16:23 22.01.2020
121 Clouds 17 1017 67 10000 4.1 120 15:59 22.01.2020
122 Clouds 17 1017 72 10000 3.1 110 15:40 22.01.2020
123 Clouds 17 1017 72 10000 3.1 110 15:22 22.01.2020
124 Clouds 17 1018 77 10000 2.1 130 14:57 22.01.2020
125 Clouds 17 1018 82 10000 3.1 60 14:37 22.01.2020
126 Mist 16 1017 82 4500 3.6 130 14:18 22.01.2020
127 Clouds 16 1018 82 10000 3.6 60 13:54 22.01.2020
128 Clouds 16 1019 82 10000 3.1 60 13:36 22.01.2020
129 Mist 16 1018 87 4500 3.6 70 13:18 22.01.2020
130 Clouds 16 1019 77 10000 5.1 70 12:55 22.01.2020
131 Mist 15 1018 87 4500 4.1 60 12:37 22.01.2020
132 Mist 15 1019 82 4500 3.6 60 12:18 22.01.2020
133 Clouds 15 1020 82 10000 3.6 60 11:56 22.01.2020
134 Clouds 15 1020 77 10000 4.6 50 11:37 22.01.2020
135 Clouds 14 1019 87 6000 4.1 70 11:18 22.01.2020
136 Clouds 13 1019 87 6000 4.6 60 10:44 22.01.2020
137 Clouds 12 1020 76 7000 2.6 360 10:20 22.01.2020
138 Clouds 11 1020 81 7000 1.5 360 09:44 22.01.2020
139 Clouds 11 1020 81 7000 1.5 360 09:25 22.01.2020
140 Clouds 10 1020 81 7000 2.6 20 08:59 22.01.2020
141 Mist 10 1019 93 4500 0.5 0 08:40 22.01.2020
142 Clouds 10 1019 87 7000 3.1 350 08:21 22.01.2020
143 Clouds 10 1020 81 7000 2.6 330 07:58 22.01.2020
144 Clouds 10 1020 81 7000 2.6 330 07:58 22.01.2020
145 Clouds 9 1019 100 10000 3.1 70 07:40 22.01.2020
146 Clouds 9 1020 87 8000 1.5 330 07:21 22.01.2020
147 Fog 9 1019 100 8000 2.1 10 06:31 22.01.2020
148 Fog 9 1019 93 4000 2.6 50 05:42 22.01.2020
149 Clear 11 1020 87 10000 3.1 350 04:23 22.01.2020
150 Clear 11 1020 87 10000 3.1 340 03:26 22.01.2020
151 Clouds 11 1019 100 7000 2.1 80 02:38 22.01.2020
152 Clear 12 1020 93 8000 2.6 70 00:46 22.01.2020
153 Clear 12 1020 93 8000 2.6 70 00:27 22.01.2020
154 Clear 12 1021 93 8000 3.1 60 23:55 21.01.2020
155 Thunderstorm 12 1020 93 9000 3.1 60 23:36 21.01.2020
156 Thunderstorm 12 1020 93 9000 3.1 60 23:18 21.01.2020
157 Thunderstorm 12 1020 93 9000 3.1 60 23:18 21.01.2020
158 Thunderstorm 12 1020 93 9000 3.1 60 23:18 21.01.2020
159 Clouds 12 1019 100 10000 2.6 80 22:40 21.01.2020
160 Clear 12 1020 93 10000 3.6 70 22:20 21.01.2020
161 Clear 12 1020 93 10000 3.6 70 21:57 21.01.2020
162 Clear 13 1020 87 10000 3.6 70 21:38 21.01.2020
163 Clouds 13 1018 93 10000 2.6 80 21:20 21.01.2020
164 Clear 13 1019 87 10000 3.1 60 20:56 21.01.2020
165 Clear 13 1019 82 10000 4.1 80 20:37 21.01.2020
166 Rain 13 1019 82 10000 4.1 80 20:19 21.01.2020
167 Rain 14 1019 87 10000 3.1 90 19:56 21.01.2020
168 Rain 14 1019 87 10000 3.1 90 19:56 21.01.2020
169 Clouds 14 1018 87 10000 3.1 80 19:38 21.01.2020
170 Rain 14 1018 82 10000 3.6 110 19:20 21.01.2020
171 Rain 14 1018 82 10000 3.1 110 18:55 21.01.2020
172 Rain 14 1017 82 10000 3.6 100 18:37 21.01.2020
173 Rain 14 1016 82 6000 4.1 110 18:18 21.01.2020
174 Rain 14 1016 82 6000 4.6 120 17:45 21.01.2020
175 Thunderstorm 15 1017 82 10000 4.6 110 17:20 21.01.2020
176 Rain 15 1017 82 1900 5.7 120 16:59 21.01.2020
177 Rain 14 1016 82 4000 5.7 120 16:37 21.01.2020
178 Rain 14 1017 76 10000 6.7 100 16:19 21.01.2020
179 Rain 15 1016 82 2000 8.2 130 15:54 21.01.2020
180 Rain 15 1017 82 6000 8.2 100 15:36 21.01.2020
181 Rain 15 1017 82 6000 8.2 100 15:18 21.01.2020
182 Drizzle 15 1017 77 10000 7.7 100 14:38 21.01.2020
183 Drizzle 15 1017 77 10000 7.7 100 14:20 21.01.2020
184 Drizzle 15 1018 82 8000 8.7 90 13:40 21.01.2020
185 Drizzle 15 1018 82 8000 8.7 90 13:19 21.01.2020
186 Drizzle 15 1018 77 10000 10.8 90 12:56 21.01.2020
187 Rain 15 1018 77 10000 8.7 90 12:37 21.01.2020
188 Rain 15 1018 77 10000 8.7 90 12:19 21.01.2020
189 Rain 15 1017 82 9000 7.7 110 11:40 21.01.2020
190 Rain 15 1019 77 10000 8.2 90 11:21 21.01.2020
191 Rain 15 1019 87 4600 6.7 100 10:57 21.01.2020
192 Rain 15 1019 87 4600 6.7 100 10:57 21.01.2020
193 Rain 15 1018 82 10000 7.7 90 10:39 21.01.2020
194 Rain 15 1018 82 10000 7.7 90 10:20 21.01.2020
195 Rain 15 1017 82 9000 7.7 90 09:42 21.01.2020
196 Rain 15 1017 87 9000 6.2 80 09:23 21.01.2020
197 Rain 15 1018 82 10000 7.2 80 08:54 21.01.2020
198 Rain 14 1017 87 9000 7.2 80 08:36 21.01.2020
199 Rain 14 1018 87 6000 6.7 80 08:18 21.01.2020
200 Rain 14 1019 87 10000 7.2 90 07:41 21.01.2020
201 Rain 14 1019 87 10000 7.2 90 07:22 21.01.2020
202 Rain 14 1017 87 10000 6.7 90 06:49 21.01.2020
203 Rain 14 1018 82 10000 7.7 90 06:30 21.01.2020
204 Clouds 14 1017 82 10000 6.2 90 05:43 21.01.2020
205 Clouds 15 1017 82 10000 5.7 90 04:41 21.01.2020
206 Rain 14 1019 82 10000 9.3 90 02:57 21.01.2020
207 Clouds 14 1018 82 10000 7.2 90 02:19 21.01.2020
208 Drizzle 14 1020 87 10000 6.7 70 01:26 21.01.2020
209 Clouds 14 1019 87 10000 5.1 70 00:38 21.01.2020
210 Rain 14 1020 87 10000 7.7 60 23:59 20.01.2020
211 Clouds 14 1019 87 10000 5.7 60 23:41 20.01.2020
212 Clouds 14 1019 87 10000 6.2 60 23:19 20.01.2020
213 Thunderstorm 13 1021 82 10000 6.2 50 22:58 20.01.2020
214 Clouds 13 1020 87 10000 5.7 70 22:38 20.01.2020
215 Rain 13 1021 82 10000 4.6 60 22:20 20.01.2020
216 Clouds 13 1020 87 10000 3.1 70 22:20 20.01.2020
217 Rain 13 1021 82 7000 5.7 60 21:58 20.01.2020
218 Clouds 13 1020 87 10000 3.1 80 21:37 20.01.2020
219 Clouds 12 1020 93 10000 3.6 80 21:19 20.01.2020
220 Rain 12 1021 87 10000 4.6 60 20:57 20.01.2020
221 Rain 12 1020 87 10000 4.1 70 20:38 20.01.2020
222 Rain 12 1021 87 10000 5.1 60 20:19 20.01.2020
223 Rain 12 1021 93 10000 5.1 60 19:56 20.01.2020
224 Rain 12 1021 93 10000 5.1 60 19:56 20.01.2020
225 Rain 11 1020 93 10000 4.1 80 19:38 20.01.2020
226 Rain 11 1020 87 10000 4.1 50 19:18 20.01.2020
227 Clouds 11 1019 87 10000 3.6 70 18:44 20.01.2020
228 Rain 12 1020 87 10000 5.1 50 18:23 20.01.2020
229 Rain 12 1019 93 10000 4.6 60 17:58 20.01.2020
230 Rain 12 1019 93 10000 4.1 70 17:36 20.01.2020
231 Rain 12 1019 93 10000 4.1 70 17:36 20.01.2020
232 Rain 12 1019 93 10000 4.1 70 17:18 20.01.2020
233 Rain 13 1019 87 10000 3.6 70 16:43 20.01.2020
234 Rain 12 1019 93 10000 4.1 70 16:25 20.01.2020
235 Rain 13 1019 93 10000 7.2 60 15:58 20.01.2020
236 Rain 13 1019 93 10000 7.2 60 15:39 20.01.2020
237 Rain 13 1019 93 10000 7.2 60 15:21 20.01.2020
238 Rain 12 1018 93 10000 6.7 60 14:55 20.01.2020
239 Rain 13 1018 93 4000 2.6 50 14:36 20.01.2020
240 Rain 13 1018 93 4000 2.6 50 14:18 20.01.2020
241 Clouds 14 1018 82 10000 6.2 70 13:41 20.01.2020
242 Rain 14 1019 82 10000 6.7 80 13:22 20.01.2020
243 Rain 13 1019 82 10000 7.7 50 12:56 20.01.2020
244 Clouds 13 1018 87 10000 7.2 60 12:38 20.01.2020
245 Rain 13 1019 82 10000 9.8 60 12:19 20.01.2020
246 Rain 13 1018 87 10000 9.8 70 11:43 20.01.2020
247 Rain 12 1019 87 6000 11.3 60 11:24 20.01.2020
248 Rain 11 1019 93 2400 3.1 50 10:57 20.01.2020
249 Rain 10 1019 93 4600 3.6 80 10:39 20.01.2020
250 Rain 11 1018 93 8000 6.2 80 10:19 20.01.2020
251 Rain 11 1017 93 8000 6.7 60 09:41 20.01.2020
252 Rain 11 1017 93 8000 6.7 60 09:41 20.01.2020
253 Drizzle 11 1018 87 10000 9.3 70 09:21 20.01.2020
254 Rain 11 1017 87 9000 8.7 70 08:49 20.01.2020
255 Rain 11 1017 87 5000 7.7 60 08:30 20.01.2020
256 Rain 11 1017 87 3700 10.3 50 07:54 20.01.2020
257 Rain 11 1017 81 10000 10.3 50 07:30 20.01.2020
258 Rain 11 1017 81 10000 11.8 50 06:59 20.01.2020
259 Drizzle 11 1017 93 5000 12.3 60 06:34 20.01.2020
260 Rain 11 1016 87 10000 13.4 60 05:49 20.01.2020
261 Rain 11 1016 87 3900 11.8 50 05:30 20.01.2020
262 Rain 10 1016 87 4400 12.9 50 04:58 20.01.2020
263 Rain 10 1017 87 3900 10.8 50 03:30 20.01.2020
264 Rain 10 1016 87 5000 11.3 50 01:58 20.01.2020
265 Rain 10 1017 87 3200 12.3 50 01:38 20.01.2020
266 Rain 10 1017 81 8000 12.3 50 00:46 20.01.2020
267 Rain 10 1017 87 3000 13.9 60 00:26 20.01.2020
268 Rain 10 1017 87 3600 12.9 50 23:54 19.01.2020
269 Rain 10 1016 81 5000 11.8 50 23:36 19.01.2020
270 Rain 10 1016 81 5000 11.8 50 23:18 19.01.2020
271 Rain 10 1016 81 8000 12.9 50 22:54 19.01.2020
272 Drizzle 10 1017 81 8000 11.8 40 22:36 19.01.2020
273 Drizzle 10 1017 81 8000 11.8 40 22:18 19.01.2020
274 Rain 10 1017 81 10000 9.8 50 21:54 19.01.2020
275 Drizzle 10 1017 81 10000 11.8 50 21:36 19.01.2020
276 Drizzle 10 1017 81 10000 11.8 50 21:18 19.01.2020
277 Rain 10 1017 81 7000 14.9 50 20:54 19.01.2020
278 Rain 10 1016 81 7000 11.8 50 20:36 19.01.2020
279 Rain 10 1016 81 7000 11.8 50 20:18 19.01.2020
280 Drizzle 10 1016 81 8000 11.3 50 19:54 19.01.2020
281 Drizzle 10 1016 81 10000 9.8 50 19:36 19.01.2020
282 Drizzle 10 1016 81 10000 9.8 50 19:18 19.01.2020
283 Rain 10 1016 81 9000 10.8 50 18:54 19.01.2020
284 Rain 10 1016 87 4600 12.9 60 18:36 19.01.2020
285 Rain 10 1016 87 4600 12.9 60 18:36 19.01.2020
286 Rain 11 1015 87 5000 12.9 60 18:18 19.01.2020
287 Rain 11 1015 81 5000 12.3 50 17:55 19.01.2020
288 Rain 11 1015 81 8000 11.3 50 17:37 19.01.2020
289 Rain 11 1015 81 8000 11.3 50 17:18 19.01.2020
290 Rain 11 1015 87 8000 10.8 50 16:54 19.01.2020
291 Rain 11 1014 93 5000 11.3 50 16:36 19.01.2020
292 Rain 11 1015 87 7000 11.8 60 16:18 19.01.2020
293 Rain 11 1014 87 5000 11.8 50 15:40 19.01.2020
294 Rain 11 1015 87 6000 9.3 50 15:22 19.01.2020
295 Rain 11 1015 87 7000 8.7 50 14:59 19.01.2020
296 Rain 11 1015 87 7000 8.7 50 14:59 19.01.2020
297 Rain 11 1014 87 6000 10.3 50 14:40 19.01.2020
298 Rain 11 1014 87 6000 9.8 50 14:19 19.01.2020
299 Rain 11 1016 93 5000 8.2 50 13:58 19.01.2020
300 Rain 12 1016 87 10000 7.2 50 13:39 19.01.2020
301 Rain 12 1016 87 10000 7.2 50 13:21 19.01.2020
302 Drizzle 12 1016 87 10000 8.2 50 12:58 19.01.2020
303 Drizzle 12 1016 87 10000 8.2 50 12:58 19.01.2020
304 Drizzle 12 1017 87 10000 7.7 70 12:40 19.01.2020
305 Drizzle 12 1017 87 10000 7.7 70 12:21 19.01.2020
306 Rain 12 1017 93 5000 8.2 60 11:57 19.01.2020
307 Rain 12 1017 93 7000 5.7 60 11:37 19.01.2020
308 Rain 12 1017 93 7000 5.7 60 11:18 19.01.2020
309 Rain 12 1015 100 8000 3.1 70 10:40 19.01.2020
310 Rain 12 1016 93 10000 4.6 60 10:20 19.01.2020
311 Drizzle 12 1016 93 10000 4.6 60 09:57 19.01.2020
312 Rain 12 1015 93 8000 5.7 60 09:38 19.01.2020
313 Rain 12 1016 93 10000 5.1 60 09:20 19.01.2020
314 Rain 12 1015 87 6000 4.6 70 08:55 19.01.2020
315 Drizzle 11 1016 93 10000 5.1 50 08:33 19.01.2020
316 Rain 11 1016 93 10000 4.1 50 07:58 19.01.2020
317 Rain 11 1016 93 10000 4.1 50 07:29 19.01.2020
318 Rain 11 1016 93 10000 3.1 50 06:55 19.01.2020
319 Drizzle 11 1017 93 10000 2.6 60 06:23 19.01.2020
320 Rain 11 1017 93 10000 0.5 50 04:19 19.01.2020
321 Rain 11 1020 93 10000 1 0 02:35 19.01.2020
322 Clouds 10 1020 93 10000 0.5 40 01:45 19.01.2020
323 Clouds 10 1021 87 10000 0.5 0 01:22 19.01.2020
324 Clouds 10 1022 93 10000 1.5 20 00:45 19.01.2020
325 Clouds 9 1021 100 10000 1.5 360 00:25 19.01.2020
326 Clouds 9 1022 93 10000 1.5 320 23:55 18.01.2020
327 Clouds 9 1022 87 10000 1.5 330 23:36 18.01.2020
328 Clouds 9 1021 100 10000 0.5 70 23:18 18.01.2020
329 Clouds 9 1023 93 10000 1.5 20 22:54 18.01.2020
330 Clouds 8 1023 87 10000 2.1 350 22:36 18.01.2020
331 Clouds 8 1023 87 10000 2.1 350 22:36 18.01.2020
332 Clouds 9 1023 87 10000 2.1 350 22:18 18.01.2020
333 Clouds 9 1023 87 10000 2.1 350 21:55 18.01.2020
334 Clouds 9 1023 87 10000 1.5 360 21:36 18.01.2020
335 Clouds 9 1022 93 10000 1.5 60 21:18 18.01.2020
336 Clouds 10 1023 87 10000 2.6 60 20:41 18.01.2020
337 Clouds 10 1023 87 10000 1.5 50 20:19 18.01.2020
338 Clouds 11 1024 87 10000 2.1 360 19:54 18.01.2020
339 Clouds 11 1025 76 10000 1.5 40 19:36 18.01.2020
340 Clouds 11 1025 76 10000 1.5 40 19:18 18.01.2020
341 Clouds 12 1024 87 10000 1 0 18:40 18.01.2020
342 Clouds 12 1025 81 10000 2.6 210 18:21 18.01.2020
343 Clouds 14 1026 62 10000 2.6 200 17:41 18.01.2020
344 Clouds 15 1026 62 10000 2.6 200 17:21 18.01.2020
345 Clouds 15 1026 62 10000 3.6 220 16:59 18.01.2020
346 Clouds 15 1025 62 10000 1.5 210 16:41 18.01.2020
347 Clouds 16 1026 62 10000 4.6 210 16:22 18.01.2020
348 Clouds 15 1027 58 10000 3.6 210 15:58 18.01.2020
349 Clouds 16 1026 59 10000 2.6 250 15:40 18.01.2020
350 Clouds 16 1027 58 10000 3.1 210 15:21 18.01.2020
351 Clouds 15 1026 51 10000 1.5 260 14:44 18.01.2020
352 Clouds 15 1028 51 10000 1.5 0 14:21 18.01.2020
353 Clouds 14 1029 62 10000 2.1 230 13:59 18.01.2020
354 Clouds 14 1028 67 10000 2.3 159 13:41 18.01.2020
355 Clouds 14 1029 62 10000 1 0 13:21 18.01.2020
356 Clouds 13 1030 66 10000 1 0 12:55 18.01.2020
357 Clouds 13 1031 71 10000 1 0 12:37 18.01.2020
358 Clouds 12 1031 71 10000 1 0 12:19 18.01.2020
359 Clouds 11 1031 81 10000 1 124 11:44 18.01.2020
360 Clouds 10 1031 81 10000 0.5 320 11:21 18.01.2020
361 Clouds 9 1032 81 10000 2.1 340 10:54 18.01.2020
362 Clouds 8 1032 81 10000 1.5 340 10:36 18.01.2020
363 Clouds 9 1031 100 10000 2.04 95 10:18 18.01.2020
364 Clouds 9 1031 93 10000 1 0 09:42 18.01.2020
365 Clouds 7 1031 100 10000 0.5 0 09:20 18.01.2020
366 Clouds 7 1032 87 10000 1.5 10 08:55 18.01.2020
367 Clouds 7 1032 93 10000 2.1 350 08:36 18.01.2020
368 Clouds 7 1031 100 10000 0.5 0 08:18 18.01.2020
369 Clouds 6 1031 100 10000 1 20 07:40 18.01.2020
370 Clouds 6 1031 86 10000 2.1 340 07:20 18.01.2020
371 Clouds 6 1031 86 10000 1.5 0 06:45 18.01.2020
372 Clouds 7 1031 87 10000 2.1 20 05:53 18.01.2020
373 Clouds 7 1032 93 10000 2.6 10 04:28 18.01.2020
374 Clouds 8 1032 81 10000 1.5 0 02:49 18.01.2020
375 Clouds 9 1032 76 10000 2.6 130 01:47 18.01.2020
376 Clouds 9 1031 81 10000 2.6 360 00:40 18.01.2020
377 Clouds 8 1030 93 10000 2.1 110 00:21 18.01.2020
378 Clouds 10 1031 81 10000 3.1 350 23:59 17.01.2020
379 Clouds 9 1030 87 10000 1.5 60 23:40 17.01.2020
380 Clouds 10 1031 81 10000 1 0 23:19 17.01.2020
381 Clouds 11 1030 87 10000 0.5 0 22:43 17.01.2020
382 Clouds 11 1031 76 10000 1 0 22:21 17.01.2020
383 Clouds 11 1031 76 10000 0.5 0 21:58 17.01.2020
384 Clouds 11 1030 87 10000 3.81 316 21:40 17.01.2020
385 Clouds 11 1031 76 10000 1 0 21:22 17.01.2020
386 Clouds 12 1031 76 10000 0.5 0 20:55 17.01.2020
387 Clouds 12 1030 71 10000 0.5 0 20:37 17.01.2020
388 Clear 12 1030 71 10000 0.5 0 20:19 17.01.2020
389 Clear 12 1030 71 10000 1.5 50 19:54 17.01.2020
390 Clear 13 1030 66 10000 1.5 330 19:36 17.01.2020
391 Clouds 13 1028 66 10000 0.5 190 19:18 17.01.2020
392 Clear 13 1030 66 10000 1.5 330 19:18 17.01.2020
393 Clouds 14 1028 62 10000 0.5 330 18:45 17.01.2020
394 Clear 14 1028 54 10000 2.6 320 18:27 17.01.2020
395 Clear 15 1028 51 10000 3.1 300 17:56 17.01.2020
396 Clear 16 1027 48 10000 2.6 270 17:38 17.01.2020
397 Clear 17 1027 48 10000 2.6 270 17:20 17.01.2020
398 Clear 17 1027 45 10000 4.6 310 16:42 17.01.2020
399 Clear 17 1026 48 10000 3.6 280 16:42 17.01.2020
400 Clouds 17 1026 45 10000 5.1 240 16:20 17.01.2020
401 Clear 17 1027 45 10000 4.6 310 15:49 17.01.2020
402 Clear 17 1027 45 10000 4.1 300 15:28 17.01.2020
403 Clear 17 1027 51 10000 5.1 280 14:59 17.01.2020
404 Clear 17 1027 51 10000 4.6 270 14:40 17.01.2020
405 Clear 17 1027 51 10000 4.6 270 14:22 17.01.2020
406 Clouds 17 1026 59 10000 9.3 250 13:42 17.01.2020
407 Clear 17 1028 51 10000 5.7 250 13:22 17.01.2020
408 Clouds 17 1027 72 10000 6.2 230 12:46 17.01.2020
409 Clouds 17 1028 77 10000 6.2 230 12:23 17.01.2020
410 Clear 17 1029 51 10000 6.7 240 12:23 17.01.2020
411 Clear 16 1029 87 10000 3.6 210 11:41 17.01.2020
412 Clear 16 1029 87 10000 3.6 210 11:20 17.01.2020
413 Clear 15 1029 87 10000 2.6 240 10:56 17.01.2020
414 Clear 15 1029 93 10000 2.6 250 10:38 17.01.2020
415 Clear 14 1029 93 10000 2.6 250 10:20 17.01.2020
416 Clear 14 1029 93 10000 1 0 09:44 17.01.2020
417 Clear 13 1029 93 10000 1 0 09:21 17.01.2020
418 Clear 13 1028 93 10000 1.5 320 08:58 17.01.2020
419 Clouds 13 1028 87 10000 3.1 220 08:40 17.01.2020
420 Clouds 12 1029 93 10000 0.5 0 08:21 17.01.2020
421 Clouds 13 1027 87 10000 3.6 230 07:48 17.01.2020
422 Clouds 11 1028 93 10000 0.5 50 07:29 17.01.2020
423 Clouds 11 1028 93 10000 1 0 06:56 17.01.2020
424 Clouds 11 1028 93 10000 1 340 06:36 17.01.2020
425 Clouds 10 1027 100 10000 1.5 50 05:19 17.01.2020
426 Clear 12 1027 10 0 4.87 222 03:38 17.01.2020
427 Clouds 12 1028 93 10000 0.5 50 02:42 17.01.2020
428 Clear 12 1025 91 0 0.45 76 01:45 17.01.2020
429 Clear 12 1028 10 0 4.12 216 01:27 17.01.2020
430 Clear 12 1028 10 0 4.12 216 00:43 17.01.2020
431 Clear 11 1029 93 8000 0.5 310 00:19 17.01.2020
432 Clear 11 1029 93 8000 0.5 310 23:41 16.01.2020
433 Clear 11 1029 93 8000 0.5 310 23:41 16.01.2020
434 Clear 11 1029 93 8000 0.5 310 23:23 16.01.2020
435 Clear 11 1029 93 6000 1 0 22:43 16.01.2020
436 Clouds 11 1028 100 10000 1 0 22:22 16.01.2020
437 Clear 11 1029 93 7000 1 350 21:57 16.01.2020
438 Clouds 11 1028 100 10000 1 0 21:39 16.01.2020
439 Clear 11 1029 93 8000 0.5 10 21:19 16.01.2020
440 Clear 11 1029 93 9000 1 0 20:59 16.01.2020
441 Clouds 11 1028 93 10000 1.5 60 20:39 16.01.2020
442 Clear 12 1029 93 10000 1 30 20:20 16.01.2020
443 Clear 12 1029 87 10000 1.5 10 19:57 16.01.2020
444 Clear 13 1029 87 10000 0.5 0 19:39 16.01.2020
445 Clear 13 1029 87 10000 0.5 0 19:20 16.01.2020
446 Clear 13 1029 87 10000 0.5 180 18:56 16.01.2020
447 Clear 14 1028 87 10000 1.5 170 18:37 16.01.2020
448 Clear 14 1028 87 10000 1.5 170 18:18 16.01.2020
449 Clear 14 1028 87 10000 1.5 170 18:18 16.01.2020
450 Clear 14 1028 87 10000 1.5 170 18:18 16.01.2020
451 Clear 14 1028 82 10000 2.1 190 17:56 16.01.2020
452 Clear 15 1028 77 10000 3.6 200 17:38 16.01.2020
453 Clear 15 1028 77 10000 3.6 200 17:19 16.01.2020
454 Clouds 16 1027 77 10000 3.6 220 16:40 16.01.2020
455 Clear 16 1028 77 10000 4.6 210 16:21 16.01.2020
456 Clear 16 1028 72 10000 4.1 210 15:56 16.01.2020
457 Clouds 16 1027 77 10000 3.6 220 15:38 16.01.2020
458 Clouds 16 1027 77 10000 3.1 210 15:19 16.01.2020
459 Clear 16 1028 72 10000 3.6 200 14:42 16.01.2020
460 Clouds 16 1028 72 10000 3.6 200 14:23 16.01.2020
461 Clouds 16 1028 77 10000 2.6 210 13:47 16.01.2020
462 Clouds 16 1029 72 10000 2.6 210 13:29 16.01.2020
463 Clouds 16 1029 72 10000 1 0 12:59 16.01.2020
464 Clouds 15 1028 77 10000 1.5 270 12:40 16.01.2020
465 Clouds 15 1030 72 10000 1 320 12:21 16.01.2020
466 Clouds 15 1029 72 10000 0.5 0 11:43 16.01.2020
467 Clouds 14 1030 71 10000 1.5 340 11:24 16.01.2020
468 Clouds 12 1030 71 10000 1.5 350 10:57 16.01.2020
469 Clouds 10 1030 81 10000 1.5 340 10:38 16.01.2020
470 Fog 10 1029 81 10000 2.12 108 10:20 16.01.2020
471 Clouds 9 1030 81 10000 2.6 350 09:54 16.01.2020
472 Clouds 7 1030 87 10000 3.1 350 09:36 16.01.2020
473 Clouds 7 1030 87 10000 3.1 350 09:18 16.01.2020
474 Clouds 6 1029 100 10000 1 60 08:42 16.01.2020
475 Clouds 7 1029 100 10000 1 30 08:23 16.01.2020
476 Clouds 6 1028 100 10000 2.1 360 07:43 16.01.2020
477 Clouds 6 1029 86 10000 2.6 340 07:25 16.01.2020
478 Clouds 6 1029 86 10000 2.1 340 06:56 16.01.2020
479 Clouds 7 1029 86 10000 2.1 360 06:37 16.01.2020
480 Clouds 7 1029 86 10000 2.1 360 05:56 16.01.2020
481 Clouds 7 1029 87 10000 2.6 10 05:31 16.01.2020
482 Clouds 7 1028 93 10000 1 50 04:37 16.01.2020
483 Clouds 7 1029 81 10000 1.5 340 03:28 16.01.2020
484 Clouds 7 1028 87 10000 2.6 330 02:29 16.01.2020
485 Clouds 7 1029 87 10000 2.1 350 00:48 16.01.2020
486 Clouds 8 1029 87 10000 1 350 00:24 16.01.2020
487 Clouds 8 1029 87 10000 2.1 340 23:48 15.01.2020
488 Clouds 8 1028 87 10000 1.5 50 23:23 15.01.2020
489 Clouds 9 1028 87 10000 2.1 350 22:57 15.01.2020
490 Clouds 9 1028 87 10000 2.1 350 22:57 15.01.2020
491 Clouds 9 1028 87 10000 0.5 0 22:39 15.01.2020
492 Clouds 9 1028 87 10000 0.5 0 22:19 15.01.2020
493 Clouds 9 1028 87 10000 1.5 20 21:57 15.01.2020
494 Clouds 9 1028 87 10000 1.5 20 21:57 15.01.2020
495 Clouds 10 1028 81 10000 1.5 10 21:38 15.01.2020
496 Clouds 10 1028 81 10000 1.5 10 21:20 15.01.2020
497 Clouds 10 1028 81 10000 1 0 20:57 15.01.2020
498 Clouds 10 1028 81 10000 1 0 20:57 15.01.2020
499 Clouds 10 1028 81 10000 1 0 20:57 15.01.2020
500 Clouds 10 1027 87 10000 0.5 0 20:39 15.01.2020
501 Clouds 10 1028 87 10000 2.1 320 20:20 15.01.2020
502 Clouds 10 1028 87 10000 1.5 340 19:55 15.01.2020
503 Clouds 11 1027 87 10000 1.5 40 19:37 15.01.2020
504 Clouds 11 1026 81 10000 2.6 250 19:19 15.01.2020
505 Clouds 12 1027 76 10000 1.5 270 18:56 15.01.2020
506 Clouds 12 1027 76 10000 1.5 270 18:56 15.01.2020
507 Clouds 12 1026 81 10000 3.1 260 18:38 15.01.2020
508 Clouds 12 1027 76 10000 1.5 200 18:19 15.01.2020
509 Clouds 13 1026 71 10000 2.1 220 17:58 15.01.2020
510 Clouds 13 1026 66 10000 2.1 200 17:38 15.01.2020
511 Clouds 13 1026 66 10000 2.1 200 17:20 15.01.2020
512 Clouds 14 1025 71 10000 3.1 240 16:42 15.01.2020
513 Clouds 14 1026 62 10000 3.6 220 16:23 15.01.2020
514 Clouds 14 1026 58 10000 4.1 210 15:59 15.01.2020
515 Clouds 14 1025 67 10000 5.1 250 15:41 15.01.2020
516 Clouds 14 1026 62 10000 4.6 240 15:20 15.01.2020
517 Clouds 15 1026 58 10000 5.7 230 14:44 15.01.2020
518 Clouds 15 1026 62 10000 5.1 230 14:21 15.01.2020
519 Clouds 15 1026 58 10000 5.1 220 13:56 15.01.2020
520 Clouds 15 1025 63 10000 5.1 250 13:38 15.01.2020
521 Clouds 15 1026 58 10000 5.1 220 13:20 15.01.2020
522 Clouds 15 1026 58 10000 5.1 220 12:54 15.01.2020
523 Clouds 14 1026 67 10000 4.1 230 12:36 15.01.2020
524 Clouds 14 1026 67 10000 4.1 230 12:18 15.01.2020
525 Clouds 14 1026 67 10000 3.6 240 11:38 15.01.2020
526 Clouds 14 1026 72 10000 3.6 240 11:20 15.01.2020
527 Clouds 13 1025 87 10000 0.5 0 10:47 15.01.2020
528 Clouds 13 1026 87 10000 0.5 0 10:28 15.01.2020
529 Clouds 11 1026 87 10000 0.5 0 09:58 15.01.2020
530 Clouds 11 1025 87 10000 1 0 09:39 15.01.2020
531 Clouds 11 1025 87 10000 1 0 09:19 15.01.2020
532 Clouds 10 1024 93 10000 1.5 50 08:44 15.01.2020
533 Clouds 10 1025 93 10000 1.5 360 08:24 15.01.2020
534 Clouds 10 1025 93 10000 1.5 360 07:54 15.01.2020
535 Clouds 10 1024 87 10000 1.5 360 07:33 15.01.2020
536 Clouds 10 1024 87 10000 1 0 06:53 15.01.2020
537 Clouds 10 1024 81 10000 1.5 40 06:28 15.01.2020
538 Clouds 12 1024 76 10000 1.5 220 04:57 15.01.2020
539 Clouds 13 1024 76 10000 3.1 220 03:20 15.01.2020
540 Clouds 11 1023 81 10000 2.6 170 01:48 15.01.2020
541 Clouds 11 1025 76 10000 2.1 100 01:22 15.01.2020
542 Clouds 10 1025 81 10000 2.1 100 00:37 15.01.2020
543 Clouds 11 1025 81 10000 2.1 100 00:19 15.01.2020
544 Clouds 12 1025 76 10000 2.1 120 23:46 14.01.2020
545 Clouds 12 1025 76 10000 2.1 120 23:28 14.01.2020
546 Clouds 11 1025 76 10000 2.6 130 22:57 14.01.2020
547 Clouds 11 1025 76 10000 2.1 130 22:39 14.01.2020
548 Clouds 10 1025 76 10000 2.1 130 22:18 14.01.2020
549 Clouds 10 1025 81 10000 2.6 110 21:57 14.01.2020
550 Clouds 10 1025 81 10000 2.6 100 21:38 14.01.2020
551 Clouds 11 1025 81 10000 2.6 100 21:19 14.01.2020
552 Clouds 10 1025 81 10000 2.1 80 20:54 14.01.2020
553 Clouds 11 1025 76 10000 1.5 100 20:36 14.01.2020
554 Clear 11 1025 76 10000 1.5 100 20:18 14.01.2020
555 Clear 12 1025 76 10000 1.5 100 19:54 14.01.2020
556 Clear 12 1024 71 10000 1 0 19:36 14.01.2020
557 Clear 13 1024 71 10000 1 0 19:18 14.01.2020
558 Clouds 13 1023 71 10000 2.1 160 18:40 14.01.2020
559 Clear 13 1024 71 10000 2.6 180 18:20 14.01.2020
560 Clear 14 1024 71 10000 2.6 180 17:56 14.01.2020
561 Clear 14 1024 62 10000 3.6 190 17:36 14.01.2020
562 Clouds 14 1023 62 10000 3.1 210 17:18 14.01.2020
563 Clear 15 1023 58 10000 5.7 220 16:42 14.01.2020
564 Clear 15 1023 58 10000 5.7 220 16:22 14.01.2020
565 Clear 15 1023 58 10000 5.1 220 15:58 14.01.2020
566 Clear 15 1023 67 10000 5.7 210 15:40 14.01.2020
567 Clouds 15 1022 63 10000 4.6 210 15:19 14.01.2020
568 Clear 15 1023 62 10000 6.7 210 14:44 14.01.2020
569 Clouds 15 1023 62 10000 6.7 210 14:21 14.01.2020
570 Clouds 15 1024 62 10000 6.2 210 13:57 14.01.2020
571 Clouds 15 1023 67 10000 5.7 210 13:38 14.01.2020
572 Clouds 15 1024 62 10000 6.2 210 13:18 14.01.2020
573 Clouds 15 1023 63 10000 6.2 200 13:18 14.01.2020
574 Clouds 15 1024 67 10000 5.1 210 12:42 14.01.2020
575 Clouds 15 1024 67 10000 6.2 210 12:21 14.01.2020
576 Clouds 15 1025 58 10000 5.7 220 11:56 14.01.2020
577 Clouds 14 1025 67 10000 6.2 210 11:36 14.01.2020
578 Clouds 14 1025 67 10000 6.2 210 11:18 14.01.2020
579 Clouds 13 1024 67 10000 4.6 210 10:40 14.01.2020
580 Clouds 14 1025 71 10000 1 0 10:20 14.01.2020
581 Clouds 12 1024 87 10000 1 0 09:59 14.01.2020
582 Clouds 12 1024 87 10000 1.5 20 09:40 14.01.2020
583 Clouds 11 1024 87 10000 1.5 20 09:21 14.01.2020
584 Clouds 11 1024 87 10000 1 0 08:56 14.01.2020
585 Clouds 11 1023 76 10000 3.6 230 08:38 14.01.2020
586 Clouds 11 1023 76 10000 3.6 230 08:19 14.01.2020
587 Clouds 11 1023 76 10000 3.6 230 07:37 14.01.2020
588 Clouds 11 1023 87 10000 1.5 350 06:59 14.01.2020
589 Clouds 12 1023 81 10000 1 0 06:40 14.01.2020
590 Clouds 11 1023 87 10000 0.5 0 05:35 14.01.2020
591 Clouds 11 1023 87 10000 1 360 04:23 14.01.2020
592 Clouds 11 1022 71 10000 4.1 230 03:43 14.01.2020
593 Clouds 11 1024 87 10000 1.5 340 02:26 14.01.2020
594 Clouds 10 1023 71 10000 4.6 220 01:18 14.01.2020
595 Clouds 10 1023 76 10000 3.6 220 00:42 14.01.2020
596 Clouds 10 1024 87 10000 1 10 00:21 14.01.2020
597 Clouds 11 1023 71 10000 4.6 230 23:42 13.01.2020
598 Clouds 11 1024 87 10000 1.5 10 23:18 13.01.2020
599 Clouds 10 1025 87 10000 1 0 22:56 13.01.2020
600 Clouds 10 1025 81 10000 1.5 360 22:37 13.01.2020
601 Clouds 10 1025 81 10000 1.5 360 22:19 13.01.2020
602 Clouds 10 1025 87 10000 1 30 21:54 13.01.2020
603 Clouds 10 1024 87 10000 0.5 350 21:36 13.01.2020
604 Clouds 10 1025 87 10000 1.5 80 21:18 13.01.2020
605 Clouds 11 1025 81 10000 1 0 20:42 13.01.2020
606 Clouds 11 1025 81 10000 1 0 20:23 13.01.2020
607 Clouds 11 1025 76 10000 1 360 19:59 13.01.2020
608 Clouds 11 1024 76 10000 1 0 19:41 13.01.2020
609 Clouds 12 1025 71 10000 0.5 0 19:20 13.01.2020
610 Clouds 12 1025 71 10000 1.5 230 18:58 13.01.2020
611 Clouds 12 1025 71 10000 1.5 230 18:58 13.01.2020
612 Clouds 12 1024 71 10000 2.6 230 18:38 13.01.2020
613 Clouds 12 1024 71 10000 2.6 230 18:38 13.01.2020
614 Clouds 12 1024 71 10000 3.1 230 18:19 13.01.2020
615 Clouds 12 1024 71 10000 3.1 230 18:19 13.01.2020
616 Clouds 13 1025 66 10000 3.1 210 17:58 13.01.2020
617 Clouds 13 1025 66 10000 4.1 230 17:38 13.01.2020
618 Clouds 13 1025 66 10000 4.1 230 17:20 13.01.2020
619 Clouds 14 1024 71 10000 3.1 230 16:42 13.01.2020
620 Clouds 14 1024 71 10000 3.1 230 16:42 13.01.2020
621 Clouds 14 1025 72 0 4.02 200 16:23 13.01.2020
622 Clouds 15 1025 71 0 2.68 211 15:59 13.01.2020
623 Clouds 15 1024 10 0 4.69 223 15:41 13.01.2020
624 Clouds 15 1024 10 0 4.69 223 15:21 13.01.2020
625 Clouds 15 1024 10 0 4.69 223 14:43 13.01.2020
626 Clear 15 1024 10 0 3.83 222 14:24 13.01.2020
627 Clear 14 1026 72 0 4.47 205 13:59 13.01.2020
628 Clear 15 1021 65 0 2.24 171 13:40 13.01.2020
629 Clear 14 1025 10 0 3.87 222 13:22 13.01.2020
630 Clear 14 1028 76 10000 2.6 200 12:58 13.01.2020
631 Clear 13 1028 76 10000 2.6 200 12:40 13.01.2020
632 Clear 12 1028 76 10000 2.6 200 12:21 13.01.2020
633 Clouds 13 1027 76 10000 1 0 11:40 13.01.2020
634 Clouds 11 1027 87 10000 1.03 237 11:20 13.01.2020
635 Clear 12 1028 71 10000 1 0 11:20 13.01.2020
636 Clear 11 1028 76 10000 1 0 10:58 13.01.2020
637 Clear 11 1028 76 10000 1 0 10:58 13.01.2020
638 Fog 9 1027 87 10000 1.03 237 10:39 13.01.2020
639 Fog 9 1027 87 10000 1.03 237 10:39 13.01.2020
640 Fog 9 1027 87 10000 1.03 237 10:39 13.01.2020
641 Fog 8 1027 93 10000 1.03 237 10:21 13.01.2020
642 Clear 8 1028 93 10000 0.5 0 09:59 13.01.2020
643 Fog 7 1027 93 10000 1.03 237 09:40 13.01.2020
644 Clear 6 1027 93 10000 2.1 10 09:22 13.01.2020
645 Fog 5 1027 69 10000 1.03 237 08:41 13.01.2020
646 Clear 5 1027 93 10000 2.1 340 08:21 13.01.2020
647 Clear 5 1027 70 10000 1.5 350 07:54 13.01.2020
648 Clear 6 1027 70 10000 1.5 30 07:35 13.01.2020
649 Clouds 5 1026 70 10000 1.5 80 06:44 13.01.2020
650 Clouds 5 1026 70 10000 0.5 0 06:22 13.01.2020
651 Clear 5 1028 93 10000 1 0 05:36 13.01.2020
652 Clear 4 1028 86 10000 1.5 350 04:25 13.01.2020
653 Clear 5 1028 86 10000 2.1 10 03:26 13.01.2020
654 Clouds 5 1028 100 10000 1 0 02:47 13.01.2020
655 Clear 5 1029 86 10000 1.5 10 02:29 13.01.2020
656 Clear 5 1029 93 10000 1.5 10 01:22 13.01.2020
657 Clouds 5 1028 100 10000 1 0 01:22 13.01.2020
658 Clouds 6 1029 93 10000 1 0 00:42 13.01.2020
659 Clouds 6 1029 100 10000 1.16 327 00:24 13.01.2020
660 Clear 6 1030 86 10000 2.1 360 23:55 12.01.2020
661 Clear 6 1030 87 10000 1.5 20 23:36 12.01.2020
662 Clouds 6 1029 100 10000 0.37 84 23:18 12.01.2020
663 Clear 6 1030 87 10000 1.5 20 23:18 12.01.2020
664 Clear 7 1030 87 10000 2.1 10 22:42 12.01.2020
665 Clouds 7 1029 93 10000 1.5 60 22:24 12.01.2020
666 Clear 7 1030 93 10000 2.6 360 21:57 12.01.2020
667 Clouds 7 1029 100 10000 1 0 21:38 12.01.2020
668 Clouds 8 1029 93 10000 0.37 84 21:19 12.01.2020
669 Clear 8 1030 87 10000 2.1 360 20:57 12.01.2020
670 Clouds 9 1029 93 10000 2.1 340 20:38 12.01.2020
671 Clear 9 1030 81 10000 3.1 350 20:20 12.01.2020
672 Clear 9 1030 81 10000 1.5 330 19:56 12.01.2020
673 Clear 9 1030 81 10000 1.5 360 19:38 12.01.2020
674 Clear 9 1030 81 10000 1.5 360 19:19 12.01.2020
675 Clear 10 1030 76 10000 1 0 18:57 12.01.2020
676 Clouds 11 1029 81 10000 1.5 170 18:39 12.01.2020
677 Clear 11 1029 71 10000 1.5 120 18:21 12.01.2020
678 Clear 12 1029 66 10000 2.1 350 17:56 12.01.2020
679 Clear 13 1029 62 10000 2.6 310 17:37 12.01.2020
680 Clear 13 1029 62 10000 2.6 310 17:18 12.01.2020
681 Clear 14 1028 58 10000 3.1 300 16:55 12.01.2020
682 Clear 14 1028 58 10000 3.6 310 16:37 12.01.2020
683 Clouds 15 1027 55 10000 1.5 80 16:18 12.01.2020
684 Clear 15 1028 54 10000 2.1 0 15:42 12.01.2020
685 Clear 15 1028 54 10000 2.1 0 15:24 12.01.2020
686 Clear 15 1028 54 10000 2.1 0 15:24 12.01.2020
687 Clear 15 1028 54 10000 2.1 190 14:57 12.01.2020
688 Clear 15 1028 54 10000 1 200 14:38 12.01.2020
689 Clear 15 1028 54 10000 1 200 14:19 12.01.2020
690 Clouds 15 1028 54 10000 0.5 110 13:43 12.01.2020
691 Clear 14 1029 54 10000 1 0 13:24 12.01.2020
692 Clear 14 1030 58 10000 1 210 12:58 12.01.2020
693 Clouds 14 1029 62 10000 0.5 20 12:39 12.01.2020
694 Clouds 14 1029 58 10000 3.05 331 12:20 12.01.2020
695 Clear 13 1031 58 10000 1 0 11:58 12.01.2020
696 Clouds 13 1030 66 10000 1 0 11:38 12.01.2020
697 Clear 12 1031 66 10000 1 0 11:19 12.01.2020
698 Clouds 10 1030 87 10000 1.6 13 10:41 12.01.2020
699 Clouds 10 1030 87 10000 1.6 13 10:41 12.01.2020
700 Clear 9 1031 81 10000 0.5 0 10:22 12.01.2020
701 Clear 7 1030 87 10000 1 0 09:57 12.01.2020
702 Clear 6 1030 93 10000 2.1 40 09:38 12.01.2020
703 Clear 5 1030 93 10000 2.1 40 09:19 12.01.2020
704 Clouds 4 1029 67 10000 1.5 70 08:45 12.01.2020
705 Clear 5 1030 93 10000 2.1 10 08:20 12.01.2020
706 Clouds 5 1029 100 10000 1.68 20 07:41 12.01.2020
707 Clear 5 1030 86 10000 1 10 07:23 12.01.2020
708 Clear 5 1029 93 10000 1 350 06:48 12.01.2020
709 Clear 5 1029 86 10000 1.5 10 06:30 12.01.2020
710 Clear 5 1030 93 10000 1.5 350 05:32 12.01.2020
711 Clear 5 1030 86 10000 0.5 0 04:30 12.01.2020
712 Clear 5 1030 86 10000 1 0 03:25 12.01.2020
713 Clear 6 1030 86 10000 2.1 30 02:34 12.01.2020
714 Clear 6 1030 86 10000 1.5 40 01:55 12.01.2020
715 Clear 6 1030 86 10000 1.5 20 01:29 12.01.2020
716 Clouds 6 1029 100 10000 2.01 25 00:42 12.01.2020
717 Clear 6 1030 86 10000 1.5 310 00:20 12.01.2020
718 Clear 7 1031 86 10000 1 0 23:55 11.01.2020
719 Clear 7 1031 81 10000 1.5 350 23:37 11.01.2020
720 Clear 7 1031 81 10000 1.5 350 23:18 11.01.2020
721 Clouds 7 1030 93 10000 0.5 0 22:42 11.01.2020
722 Clear 7 1031 87 10000 1.5 10 22:21 11.01.2020
723 Clear 7 1031 87 10000 1 0 21:59 11.01.2020
724 Clouds 8 1030 86 10000 1 80 21:41 11.01.2020
725 Clear 8 1031 81 10000 1 0 21:18 11.01.2020
726 Clear 8 1030 81 10000 1 100 20:55 11.01.2020
727 Clear 8 1030 75 10000 1 140 20:36 11.01.2020
728 Clear 9 1030 75 10000 0.5 0 20:18 11.01.2020
729 Clear 9 1030 75 10000 0.5 0 19:54 11.01.2020
730 Clear 10 1030 70 10000 1.5 80 19:36 11.01.2020
731 Clear 10 1030 70 10000 1.5 80 19:18 11.01.2020
732 Clear 10 1030 66 10000 3.1 340 18:54 11.01.2020
733 Clear 11 1029 62 10000 4.1 340 18:36 11.01.2020
734 Clear 11 1029 62 10000 4.1 340 18:18 11.01.2020
735 Clear 11 1029 62 10000 4.1 350 17:54 11.01.2020
736 Clear 12 1029 58 10000 4.6 340 17:36 11.01.2020
737 Clouds 12 1028 58 10000 3.1 50 17:18 11.01.2020
738 Clouds 13 1028 54 10000 3.1 60 16:41 11.01.2020
739 Clear 13 1029 54 10000 4.1 350 16:22 11.01.2020
740 Clear 13 1029 54 10000 4.1 350 16:22 11.01.2020
741 Clear 14 1029 50 10000 2.6 10 15:42 11.01.2020
742 Clear 13 1029 50 10000 2.6 10 15:24 11.01.2020
743 Clear 13 1029 50 10000 4.6 40 14:58 11.01.2020
744 Clouds 13 1028 58 10000 8.2 60 14:40 11.01.2020
745 Clear 13 1029 50 10000 6.2 60 14:22 11.01.2020
746 Clear 13 1029 50 10000 6.7 60 13:55 11.01.2020
747 Clear 13 1030 50 10000 7.2 70 13:37 11.01.2020
748 Clear 13 1030 50 10000 7.2 70 13:18 11.01.2020
749 Clouds 14 1029 54 10000 8.2 50 12:44 11.01.2020
750 Clear 14 1031 58 10000 6.7 60 12:25 11.01.2020
751 Clear 13 1031 58 10000 7.7 60 11:55 11.01.2020
752 Clear 13 1031 62 10000 6.7 60 11:37 11.01.2020
753 Clouds 13 1030 62 10000 7.7 50 11:18 11.01.2020
754 Clear 13 1031 62 10000 6.7 60 11:18 11.01.2020
755 Clouds 12 1030 66 10000 5.1 50 10:43 11.01.2020
756 Clear 12 1030 66 10000 6.2 60 10:24 11.01.2020
757 Clouds 12 1029 71 10000 5.1 50 09:40 11.01.2020
758 Clear 12 1030 71 10000 4.6 60 09:21 11.01.2020
759 Clouds 11 1029 76 10000 6.2 50 08:43 11.01.2020
760 Clear 11 1029 76 10000 3.1 40 08:23 11.01.2020
761 Clear 11 1029 76 10000 4.6 50 07:45 11.01.2020
762 Clear 11 1029 71 10000 4.6 50 07:26 11.01.2020
763 Clouds 11 1028 76 10000 4.6 30 06:56 11.01.2020
764 Clear 11 1028 76 10000 3.1 40 06:37 11.01.2020
765 Clear 11 1028 76 10000 4.6 50 05:18 11.01.2020
766 Clouds 11 1027 76 10000 4.6 50 04:37 11.01.2020
767 Clear 12 1028 76 10000 4.1 50 04:19 11.01.2020
768 Clear 11 1028 66 10000 2.6 50 02:45 11.01.2020
769 Clouds 12 1027 71 10000 6.2 50 01:45 11.01.2020
770 Clouds 12 1028 62 10000 4.6 50 01:22 11.01.2020
771 Clouds 12 1028 62 10000 4.1 50 00:51 11.01.2020
772 Clouds 12 1028 71 10000 3.6 50 00:24 11.01.2020
773 Clouds 12 1028 71 10000 3.6 50 23:58 10.01.2020
774 Clouds 12 1027 76 10000 6.2 50 23:38 10.01.2020
775 Clouds 12 1028 76 10000 3.6 50 23:20 10.01.2020
776 Clouds 12 1026 76 10000 4.1 50 22:41 10.01.2020
777 Rain 12 1027 71 10000 5.1 50 22:22 10.01.2020
778 Rain 13 1027 71 10000 6.7 40 21:59 10.01.2020
779 Rain 13 1027 71 10000 4.6 50 21:41 10.01.2020
780 Clouds 12 1026 71 10000 5.7 40 21:20 10.01.2020
781 Clouds 13 1027 71 10000 3.6 40 20:57 10.01.2020
782 Clouds 12 1026 71 10000 4.1 50 20:38 10.01.2020
783 Clouds 12 1026 71 10000 4.1 50 20:38 10.01.2020
784 Rain 12 1026 71 10000 4.1 50 20:20 10.01.2020
785 Rain 12 1026 71 10000 4.1 50 19:41 10.01.2020
786 Rain 12 1026 71 10000 4.1 50 19:21 10.01.2020
787 Rain 12 1025 71 10000 4.1 40 18:57 10.01.2020
788 Rain 12 1025 81 10000 4.1 30 18:39 10.01.2020
789 Rain 12 1025 81 10000 4.1 30 18:18 10.01.2020
790 Rain 12 1025 81 10000 3.6 30 17:56 10.01.2020
791 Rain 12 1024 87 7000 4.6 60 17:38 10.01.2020
792 Drizzle 12 1025 93 10000 3.6 40 17:19 10.01.2020
793 Rain 12 1025 87 10000 1.5 80 16:55 10.01.2020
794 Rain 13 1024 87 10000 3.6 40 16:36 10.01.2020
795 Rain 13 1024 87 10000 3.6 40 16:18 10.01.2020
796 Rain 13 1024 93 10000 2.6 20 15:55 10.01.2020
797 Rain 13 1024 93 2200 4.6 30 15:36 10.01.2020
798 Rain 13 1024 93 2200 4.6 30 15:18 10.01.2020
799 Rain 13 1023 76 10000 4.6 80 14:42 10.01.2020
800 Rain 14 1024 76 10000 6.7 60 14:20 10.01.2020
801 Rain 14 1024 76 10000 4.6 60 13:59 10.01.2020
802 Clouds 14 1023 76 10000 4.1 60 13:41 10.01.2020
803 Rain 13 1024 76 10000 2.1 50 13:23 10.01.2020
804 Rain 13 1025 81 10000 1 0 12:58 10.01.2020
805 Rain 13 1025 87 10000 1 0 12:38 10.01.2020
806 Rain 13 1025 87 10000 1 0 12:19 10.01.2020
807 Rain 13 1026 76 10000 0.5 0 11:55 10.01.2020
808 Rain 12 1026 87 10000 0.5 0 11:37 10.01.2020
809 Rain 12 1026 87 10000 0.5 0 11:18 10.01.2020
810 Clouds 11 1024 93 10000 0.5 0 10:42 10.01.2020
811 Rain 10 1025 87 10000 1.5 10 10:24 10.01.2020
812 Rain 11 1025 93 10000 2.6 350 09:56 10.01.2020
813 Clouds 10 1024 93 10000 1.5 50 09:38 10.01.2020
814 Rain 10 1025 87 10000 3.1 10 09:20 10.01.2020
815 Clouds 10 1024 100 10000 1.5 360 08:42 10.01.2020
816 Clouds 8 1025 93 10000 2.6 350 08:23 10.01.2020
817 Clouds 8 1025 93 10000 2.6 350 08:23 10.01.2020
818 Clouds 9 1025 87 10000 1.5 360 07:46 10.01.2020
819 Clouds 8 1024 93 10000 2.6 330 07:26 10.01.2020
820 Clouds 9 1024 93 10000 2.6 360 06:46 10.01.2020
821 Clouds 10 1024 93 10000 3.1 10 06:26 10.01.2020
822 Clouds 10 1024 93 10000 2.1 330 05:51 10.01.2020
823 Clouds 10 1024 93 10000 1.5 60 03:46 10.01.2020
824 Clouds 9 1024 93 10000 2.1 10 03:27 10.01.2020
825 Clouds 10 1024 93 10000 0.9 63 02:50 10.01.2020
826 Clouds 9 1024 100 10000 4.1 320 01:49 10.01.2020
827 Clear 8 1025 93 10000 3.1 340 01:28 10.01.2020
828 Clouds 8 1024 93 10000 2.1 50 00:47 10.01.2020
829 Clear 8 1026 93 10000 3.1 350 00:29 10.01.2020
830 Clouds 9 1025 93 10000 2.1 100 23:39 09.01.2020
831 Clear 9 1027 93 10000 1.5 40 23:39 09.01.2020
832 Clear 9 1027 93 10000 1.5 40 23:39 09.01.2020
833 Clouds 9 1025 93 10000 2.1 100 23:39 09.01.2020
834 Clouds 9 1025 93 10000 2.1 100 23:39 09.01.2020
835 Clouds 9 1026 93 10000 1 0 23:21 09.01.2020
836 Clear 9 1027 93 10000 2.6 340 22:58 09.01.2020
837 Clouds 9 1026 100 10000 1.5 50 22:39 09.01.2020
838 Clear 9 1027 93 10000 2.1 330 22:19 09.01.2020
839 Clear 9 1027 87 10000 1 0 21:57 09.01.2020
840 Clear 10 1027 87 10000 2.1 360 21:38 09.01.2020
841 Clouds 10 1026 93 10000 1 0 21:20 09.01.2020
842 Clear 10 1027 87 10000 2.6 350 20:58 09.01.2020
843 Clear 10 1027 87 10000 2.6 350 20:39 09.01.2020
844 Clouds 10 1027 87 10000 2.1 20 20:20 09.01.2020
845 Clouds 10 1027 87 10000 2.1 20 20:20 09.01.2020
846 Clouds 11 1027 81 10000 2.1 330 19:59 09.01.2020
847 Clouds 12 1027 76 10000 1 10 19:39 09.01.2020
848 Clouds 12 1027 76 10000 1 10 19:20 09.01.2020
849 Clouds 12 1027 76 10000 1.5 340 18:56 09.01.2020
850 Clouds 13 1027 71 10000 2.1 340 18:38 09.01.2020
851 Clouds 13 1027 71 10000 2.1 340 18:20 09.01.2020
852 Clouds 14 1027 67 10000 2.1 220 17:41 09.01.2020
853 Clouds 15 1027 67 10000 2.1 220 17:19 09.01.2020
854 Clouds 15 1027 67 10000 3.1 210 16:56 09.01.2020
855 Clouds 15 1026 62 10000 3.1 210 16:38 09.01.2020
856 Clouds 15 1026 62 10000 3.1 210 16:20 09.01.2020
857 Clouds 15 1027 62 10000 1 0 15:43 09.01.2020
858 Clouds 15 1027 62 10000 1 0 15:22 09.01.2020
859 Clouds 16 1027 59 10000 1 0 14:58 09.01.2020
860 Clouds 16 1027 51 10000 1 110 14:39 09.01.2020
861 Clear 17 1027 51 10000 1 110 14:19 09.01.2020
862 Clear 16 1027 59 10000 0.5 210 13:55 09.01.2020
863 Clear 16 1028 58 10000 2.1 180 13:37 09.01.2020
864 Clear 16 1028 58 10000 2.1 180 13:18 09.01.2020
865 Clear 16 1028 59 10000 1.5 220 12:55 09.01.2020
866 Clear 16 1029 63 10000 1 0 12:37 09.01.2020
867 Clear 15 1029 67 10000 2.6 80 12:18 09.01.2020
868 Clear 14 1029 71 10000 3.1 60 11:42 09.01.2020
869 Clear 13 1029 71 10000 3.1 60 11:24 09.01.2020
870 Clear 12 1029 76 10000 2.1 20 10:58 09.01.2020
871 Clear 10 1029 76 10000 2.1 350 10:39 09.01.2020
872 Clear 10 1029 76 10000 2.1 350 10:20 09.01.2020
873 Clear 9 1029 81 10000 1.5 360 09:45 09.01.2020
874 Clear 8 1029 81 10000 1.5 360 09:23 09.01.2020
875 Clear 8 1029 87 10000 2.1 360 08:58 09.01.2020
876 Clear 9 1029 93 10000 2.6 360 08:39 09.01.2020
877 Clear 7 1029 93 10000 2.6 360 08:20 09.01.2020
878 Clear 8 1029 86 10000 2.1 360 07:48 09.01.2020
879 Clear 8 1029 87 10000 3.1 360 07:30 09.01.2020
880 Clear 7 1029 86 10000 3.1 350 06:40 09.01.2020
881 Clear 7 1029 86 10000 3.1 350 06:22 09.01.2020
882 Clear 8 1029 87 10000 2.6 10 05:51 09.01.2020
883 Clear 7 1029 81 10000 2.6 360 05:20 09.01.2020
884 Clear 7 1030 93 10000 3.1 350 04:39 09.01.2020
885 Clear 7 1030 87 10000 3.1 360 03:27 09.01.2020
886 Clear 8 1030 87 10000 1.5 360 02:46 09.01.2020
887 Clear 8 1030 93 10000 2.1 350 01:42 09.01.2020
888 Clouds 8 1030 87 10000 2.1 340 01:18 09.01.2020
889 Clouds 8 1031 87 10000 1.5 320 00:38 09.01.2020
890 Clouds 8 1031 87 10000 1.5 320 00:19 09.01.2020
891 Clouds 9 1031 87 10000 2.6 350 23:40 08.01.2020
892 Clouds 9 1031 87 10000 2.6 350 23:22 08.01.2020
893 Clouds 9 1031 93 10000 3.1 360 22:56 08.01.2020
894 Clouds 9 1031 93 10000 2.6 350 22:37 08.01.2020
895 Clouds 9 1031 93 10000 2.6 350 22:18 08.01.2020
896 Clouds 10 1031 87 10000 2.1 360 21:55 08.01.2020
897 Clouds 10 1031 87 10000 2.1 350 21:37 08.01.2020
898 Clouds 10 1031 87 10000 2.1 350 21:18 08.01.2020
899 Clouds 11 1031 81 10000 3.6 40 20:41 08.01.2020
900 Clouds 11 1031 81 10000 3.6 40 20:21 08.01.2020
901 Clouds 12 1031 87 10000 3.1 40 19:59 08.01.2020
902 Clouds 12 1031 81 10000 2.6 50 19:38 08.01.2020
903 Clouds 13 1031 81 10000 2.6 50 19:20 08.01.2020
904 Clouds 13 1031 76 10000 3.1 60 18:58 08.01.2020
905 Clouds 13 1030 76 10000 3.6 60 18:39 08.01.2020
906 Clouds 13 1030 76 10000 3.6 60 18:19 08.01.2020
907 Clouds 13 1030 71 10000 3.1 60 17:57 08.01.2020
908 Clouds 14 1030 67 10000 3.6 80 17:38 08.01.2020
909 Clear 14 1030 67 10000 3.6 80 17:19 08.01.2020
910 Clear 15 1029 62 10000 4.6 70 16:56 08.01.2020
911 Clear 15 1029 67 10000 5.7 70 16:38 08.01.2020
912 Clear 15 1029 67 10000 5.7 70 16:19 08.01.2020
913 Clear 16 1029 59 10000 5.7 80 15:45 08.01.2020
914 Clear 16 1029 59 10000 5.7 80 15:22 08.01.2020
915 Clear 16 1029 59 10000 5.7 80 15:22 08.01.2020
916 Clear 15 1029 59 10000 6.2 80 14:59 08.01.2020
917 Clear 16 1029 63 10000 4.6 80 14:40 08.01.2020
918 Clear 16 1029 63 10000 4.6 70 14:21 08.01.2020
919 Clear 15 1030 59 10000 3.6 70 13:42 08.01.2020
920 Clear 15 1030 59 10000 3.6 70 13:22 08.01.2020
921 Clear 16 1030 59 10000 2.1 150 12:55 08.01.2020
922 Clear 15 1030 59 10000 2.1 60 12:37 08.01.2020
923 Clear 15 1030 59 10000 2.1 60 12:18 08.01.2020
924 Clear 16 1031 51 10000 0.5 230 12:18 08.01.2020
925 Clear 15 1031 51 10000 0.5 230 11:48 08.01.2020
926 Clear 13 1031 62 10000 1.5 280 11:19 08.01.2020
927 Clear 14 1031 66 10000 1.5 110 10:59 08.01.2020
928 Clear 12 1030 71 10000 0.5 50 10:40 08.01.2020
929 Clear 12 1030 71 10000 0.5 50 10:21 08.01.2020
930 Clear 10 1030 81 10000 2.1 350 09:57 08.01.2020
931 Clear 9 1030 81 10000 1 0 09:36 08.01.2020
932 Clear 9 1030 81 10000 1 0 09:18 08.01.2020
933 Clear 8 1029 86 10000 2.1 20 08:41 08.01.2020
934 Clouds 8 1029 86 10000 2.1 20 08:22 08.01.2020
935 Clouds 7 1029 86 10000 2.1 360 07:59 08.01.2020
936 Clouds 7 1029 80 10000 2.1 20 07:40 08.01.2020
937 Clouds 7 1029 80 10000 2.1 20 07:19 08.01.2020
938 Clouds 8 1029 75 10000 2.6 20 06:42 08.01.2020
939 Clouds 8 1029 75 10000 3.1 20 05:56 08.01.2020
940 Clouds 8 1029 75 10000 3.1 10 05:26 08.01.2020
941 Clouds 8 1029 81 10000 3.1 10 04:37 08.01.2020
942 Clouds 8 1028 93 10000 2.1 350 02:46 08.01.2020
943 Clouds 8 1028 93 10000 1.5 70 02:28 08.01.2020
944 Clouds 8 1028 87 10000 1 0 01:58 08.01.2020
945 Clouds 8 1028 87 10000 1.5 20 01:32 08.01.2020
946 Clouds 8 1029 87 10000 1 0 00:52 08.01.2020
947 Clouds 9 1029 93 10000 0.5 0 00:24 08.01.2020
948 Clouds 9 1029 93 10000 0.5 0 23:46 07.01.2020
949 Clear 9 1029 93 10000 0.5 0 23:21 07.01.2020
950 Clear 9 1029 87 10000 1.5 10 22:57 07.01.2020
951 Clear 9 1029 87 10000 1 0 22:38 07.01.2020
952 Clear 9 1029 87 10000 1 0 22:19 07.01.2020
953 Clear 9 1030 87 10000 2.6 350 21:42 07.01.2020
954 Clear 10 1030 87 10000 2.6 350 21:23 07.01.2020
955 Clear 10 1030 76 10000 2.1 330 20:59 07.01.2020
956 Clear 10 1030 81 10000 2.6 340 20:41 07.01.2020
957 Clouds 10 1030 81 10000 2.6 340 20:22 07.01.2020
958 Clouds 11 1030 81 10000 2.6 340 19:58 07.01.2020
959 Clouds 12 1030 76 10000 2.1 320 19:38 07.01.2020
960 Clouds 12 1030 76 10000 2.1 320 19:19 07.01.2020
961 Clouds 12 1030 81 10000 2.1 310 18:56 07.01.2020
962 Clouds 12 1030 76 10000 2.1 310 18:38 07.01.2020
963 Clouds 13 1030 76 10000 2.1 310 18:18 07.01.2020
964 Clouds 13 1029 71 10000 2.1 320 17:57 07.01.2020
965 Clouds 14 1029 67 10000 3.1 320 17:37 07.01.2020
966 Clouds 15 1029 71 10000 3.1 320 17:19 07.01.2020
967 Clouds 15 1029 71 10000 3.1 320 16:55 07.01.2020
968 Clouds 16 1029 67 10000 3.6 310 16:37 07.01.2020
969 Clouds 16 1029 67 10000 3.6 310 16:18 07.01.2020
970 Clouds 17 1029 63 10000 3.1 230 15:43 07.01.2020
971 Clouds 17 1029 63 10000 3.1 230 15:24 07.01.2020
972 Clouds 17 1029 63 10000 2.6 230 14:59 07.01.2020
973 Clouds 16 1029 67 10000 2.6 220 14:40 07.01.2020
974 Clouds 16 1029 67 10000 2.6 220 14:22 07.01.2020
975 Clouds 16 1030 67 10000 1.5 290 13:55 07.01.2020
976 Clouds 16 1030 67 10000 2.6 290 13:37 07.01.2020
977 Clouds 15 1030 67 10000 2.6 290 13:18 07.01.2020
978 Clouds 16 1031 72 10000 3.1 290 12:40 07.01.2020
979 Clouds 16 1031 72 10000 3.1 290 12:19 07.01.2020
980 Clouds 15 1032 76 10000 1 0 11:42 07.01.2020
981 Clouds 14 1032 76 10000 1 0 11:23 07.01.2020
982 Clouds 13 1031 71 10000 1.5 150 10:58 07.01.2020
983 Clouds 13 1031 76 10000 1 0 10:39 07.01.2020
984 Clouds 12 1031 76 10000 1 0 10:21 07.01.2020
985 Clouds 10 1031 87 10000 1 0 09:55 07.01.2020
986 Clouds 9 1031 87 10000 1 10 09:37 07.01.2020
987 Clouds 9 1031 87 10000 1 10 09:19 07.01.2020
988 Clouds 9 1031 87 10000 2.1 340 08:41 07.01.2020
989 Clouds 10 1031 87 10000 2.1 340 08:20 07.01.2020
990 Clear 9 1030 87 10000 2.1 360 07:49 07.01.2020
991 Clear 9 1030 87 10000 2.6 340 07:25 07.01.2020
992 Clear 9 1030 93 10000 2.1 350 06:52 07.01.2020
993 Clear 9 1030 93 10000 1 0 06:32 07.01.2020
994 Clear 10 1030 87 10000 1 0 05:42 07.01.2020
995 Clear 11 1031 87 10000 1 20 03:52 07.01.2020
996 Clear 11 1031 87 10000 1 0 03:25 07.01.2020
997 Clear 11 1030 87 10000 0.5 0 02:21 07.01.2020
998 Clear 11 1030 87 10000 0.5 0 01:45 07.01.2020
999 Clear 11 1030 93 10000 1 0 01:21 07.01.2020
1000 Clear 11 1030 87 10000 1 0 00:22 07.01.2020
1001 Clear 11 1030 87 10000 1 0 23:58 06.01.2020
1002 Clear 10 1030 93 10000 1.5 340 23:39 06.01.2020
1003 Clear 10 1030 93 10000 1.5 340 23:21 06.01.2020
1004 Clear 10 1030 87 10000 1.5 350 22:56 06.01.2020
1005 Clear 10 1030 93 10000 1 20 22:37 06.01.2020
1006 Clear 10 1030 93 10000 1 20 22:19 06.01.2020
1007 Clear 10 1030 87 10000 1.5 360 21:55 06.01.2020
1008 Clear 11 1029 87 10000 1.5 330 21:37 06.01.2020
1009 Clear 11 1029 87 10000 1.5 330 21:18 06.01.2020
1010 Clear 11 1029 87 10000 1 0 20:55 06.01.2020
1011 Clear 11 1029 87 10000 1 0 20:37 06.01.2020
1012 Clouds 12 1029 87 10000 1 0 20:19 06.01.2020
1013 Clear 12 1029 81 10000 2.1 360 19:55 06.01.2020
1014 Clear 12 1029 81 10000 1.5 360 19:36 06.01.2020
1015 Clear 12 1029 81 10000 1.5 360 19:36 06.01.2020
1016 Clear 13 1029 81 10000 1.5 360 19:18 06.01.2020
1017 Clear 13 1028 71 10000 1 320 18:44 06.01.2020
1018 Clear 14 1028 71 10000 1 320 18:20 06.01.2020
1019 Clear 14 1028 71 10000 1 0 17:40 06.01.2020
1020 Clouds 14 1028 71 10000 1 0 17:20 06.01.2020
1021 Clouds 14 1028 71 10000 1 0 17:20 06.01.2020
1022 Clouds 14 1028 67 10000 1.5 330 16:57 06.01.2020
1023 Clouds 14 1028 67 10000 2.6 320 16:39 06.01.2020
1024 Clouds 14 1028 67 10000 2.6 320 16:21 06.01.2020
1025 Clouds 14 1028 67 10000 2.6 330 15:59 06.01.2020
1026 Clouds 15 1028 67 10000 1.5 300 15:36 06.01.2020
1027 Clouds 15 1028 67 10000 1.5 300 15:18 06.01.2020
1028 Clouds 14 1028 71 10000 0.5 0 14:41 06.01.2020
1029 Clouds 14 1028 71 10000 0.5 0 14:41 06.01.2020
1030 Clouds 14 1028 71 10000 0.5 0 14:22 06.01.2020
1031 Clouds 14 1029 71 10000 0.5 140 13:59 06.01.2020
1032 Clouds 14 1029 76 10000 1 0 13:39 06.01.2020
1033 Clouds 14 1029 76 10000 1 0 13:21 06.01.2020
1034 Clouds 14 1029 76 10000 0.5 0 12:56 06.01.2020
1035 Clouds 14 1029 76 10000 0.5 0 12:37 06.01.2020
1036 Clouds 13 1029 76 10000 0.5 0 12:19 06.01.2020
1037 Clouds 12 1030 76 10000 0.5 110 11:42 06.01.2020
1038 Clouds 12 1030 76 10000 0.5 110 11:24 06.01.2020
1039 Clouds 11 1030 81 10000 0.5 0 10:59 06.01.2020
1040 Clouds 10 1030 81 10000 1 60 10:41 06.01.2020
1041 Clouds 10 1030 81 10000 1 60 10:21 06.01.2020
1042 Clouds 9 1029 87 10000 1 100 09:42 06.01.2020
1043 Clouds 9 1029 87 10000 1 0 09:23 06.01.2020
1044 Clouds 8 1029 87 10000 0.5 0 08:55 06.01.2020
1045 Clouds 8 1029 87 10000 0.5 0 08:37 06.01.2020
1046 Clear 7 1029 87 10000 1 0 07:58 06.01.2020
1047 Clear 7 1028 86 10000 1 0 07:39 06.01.2020
1048 Clear 6 1028 86 10000 1 0 06:53 06.01.2020
1049 Clear 6 1028 86 10000 1 0 06:34 06.01.2020
1050 Clear 6 1028 80 10000 2.1 20 05:48 06.01.2020
1051 Clear 6 1028 80 10000 2.1 20 05:23 06.01.2020
1052 Clear 6 1028 86 10000 2.6 350 04:23 06.01.2020
1053 Clear 6 1029 86 10000 1 0 03:51 06.01.2020
1054 Clear 7 1029 80 10000 2.1 30 02:28 06.01.2020
1055 Clear 7 1029 75 10000 2.1 20 01:53 06.01.2020
1056 Clear 6 1029 81 10000 0.5 0 01:30 06.01.2020
1057 Clear 7 1029 81 10000 2.1 360 00:46 06.01.2020
1058 Clear 7 1029 81 10000 2.1 40 00:28 06.01.2020
1059 Clear 7 1029 75 10000 1 20 23:58 05.01.2020
1060 Clear 8 1029 75 10000 2.1 350 23:39 05.01.2020
1061 Clear 7 1029 75 10000 2.1 350 23:21 05.01.2020
1062 Clear 9 1029 70 10000 2.1 360 22:40 05.01.2020
1063 Clear 9 1029 70 10000 2.1 360 22:21 05.01.2020
1064 Clear 9 1029 61 10000 2.6 10 21:58 05.01.2020
1065 Clear 9 1029 61 10000 3.1 360 21:40 05.01.2020
1066 Clear 9 1029 61 10000 3.1 360 21:20 05.01.2020
1067 Clear 10 1029 61 10000 2.6 350 20:58 05.01.2020
1068 Clear 10 1029 66 10000 2.1 340 20:39 05.01.2020
1069 Clear 10 1029 66 10000 2.1 340 20:39 05.01.2020
1070 Clear 10 1029 66 10000 2.1 340 20:19 05.01.2020
1071 Clear 10 1028 61 10000 1.5 350 19:58 05.01.2020
1072 Clear 11 1028 57 10000 2.1 10 19:39 05.01.2020
1073 Clear 11 1028 57 10000 2.1 10 19:39 05.01.2020
1074 Clear 11 1028 57 10000 2.1 10 19:20 05.01.2020
1075 Clear 12 1028 47 10000 3.1 330 18:56 05.01.2020
1076 Clear 12 1028 54 10000 3.1 330 18:37 05.01.2020
1077 Clear 13 1028 54 10000 3.1 330 18:19 05.01.2020
1078 Clear 14 1028 47 10000 3.6 320 17:58 05.01.2020
1079 Clear 15 1028 47 10000 3.1 310 17:39 05.01.2020
1080 Clear 15 1028 47 10000 3.1 310 17:20 05.01.2020
1081 Clear 16 1028 41 10000 3.1 310 16:57 05.01.2020
1082 Clear 16 1028 41 10000 3.1 310 16:57 05.01.2020
1083 Clear 16 1027 44 10000 4.1 320 16:39 05.01.2020
1084 Clear 17 1027 44 10000 4.1 320 16:19 05.01.2020
1085 Clear 17 1027 45 10000 4.6 320 15:40 05.01.2020
1086 Clear 17 1027 45 10000 4.6 320 15:20 05.01.2020
1087 Clear 17 1027 45 10000 4.1 320 14:56 05.01.2020
1088 Clear 16 1028 44 10000 4.6 320 14:38 05.01.2020
1089 Clear 17 1028 44 10000 4.6 320 14:20 05.01.2020
1090 Clear 17 1028 44 10000 4.6 310 13:57 05.01.2020
1091 Clear 17 1028 48 10000 4.6 320 13:38 05.01.2020
1092 Clear 16 1028 48 10000 4.6 320 13:19 05.01.2020
1093 Clear 16 1028 48 10000 4.6 320 13:19 05.01.2020
1094 Clear 16 1029 48 10000 4.1 320 12:56 05.01.2020
1095 Clear 15 1029 58 10000 4.1 330 12:37 05.01.2020
1096 Clear 16 1029 58 10000 4.1 330 12:19 05.01.2020
1097 Clear 14 1029 58 10000 4.1 320 11:44 05.01.2020
1098 Clear 13 1029 67 10000 3.6 320 11:20 05.01.2020
1099 Clear 13 1029 67 10000 3.6 320 11:00 05.01.2020
1100 Clear 12 1029 76 10000 1.5 280 10:40 05.01.2020
1101 Clear 11 1029 81 10000 1.5 270 10:20 05.01.2020
1102 Clear 8 1029 87 10000 1.5 70 09:42 05.01.2020
1103 Clear 7 1029 87 10000 1.5 70 09:22 05.01.2020
1104 Clear 6 1029 86 10000 1.5 10 08:56 05.01.2020
1105 Clear 6 1029 93 10000 1 0 08:38 05.01.2020
1106 Clear 6 1029 93 10000 1 0 08:20 05.01.2020
1107 Clear 7 1029 93 10000 1.5 360 07:39 05.01.2020
1108 Clear 7 1029 93 10000 1.5 360 07:21 05.01.2020
1109 Clear 6 1029 86 10000 1.5 10 06:47 05.01.2020
1110 Clear 6 1029 86 10000 1 0 05:41 05.01.2020
1111 Clear 7 1030 86 10000 1.5 40 04:56 05.01.2020
1112 Clear 7 1030 86 10000 1.5 30 04:19 05.01.2020
1113 Clear 7 1030 93 10000 1.5 20 03:31 05.01.2020
1114 Clear 7 1030 87 10000 1.5 20 02:33 05.01.2020
1115 Clear 8 1030 87 10000 1 50 01:49 05.01.2020
1116 Clear 8 1031 87 10000 1.5 40 01:20 05.01.2020
1117 Clear 9 1031 81 10000 1 0 00:57 05.01.2020
1118 Clear 9 1031 76 10000 1 0 00:39 05.01.2020
1119 Clear 9 1031 76 10000 1 0 00:19 05.01.2020
1120 Clear 10 1031 81 10000 2.1 300 23:41 04.01.2020
1121 Clear 10 1031 81 10000 2.1 300 23:21 04.01.2020
1122 Clear 10 1031 81 10000 3.1 290 22:59 04.01.2020
1123 Clear 11 1031 81 10000 2.6 290 22:39 04.01.2020
1124 Clear 11 1031 81 10000 2.6 290 22:20 04.01.2020
1125 Clear 11 1031 81 10000 2.6 290 21:56 04.01.2020
1126 Clear 11 1031 87 10000 2.6 290 21:37 04.01.2020
1127 Clear 11 1032 81 10000 2.6 290 21:19 04.01.2020
1128 Clear 11 1032 81 10000 2.6 290 20:55 04.01.2020
1129 Clear 11 1032 81 10000 2.6 290 20:36 04.01.2020
1130 Clouds 11 1032 81 10000 2.6 290 20:18 04.01.2020
1131 Clouds 11 1031 81 10000 1.5 310 19:41 04.01.2020
1132 Clouds 12 1031 81 10000 1.5 310 19:41 04.01.2020
1133 Clouds 11 1031 81 10000 1.5 310 19:41 04.01.2020
1134 Clouds 12 1031 81 10000 1.5 310 19:23 04.01.2020
1135 Clouds 12 1032 81 10000 1.5 310 18:58 04.01.2020
1136 Clouds 13 1032 76 10000 2.1 350 18:39 04.01.2020
1137 Clouds 13 1032 76 10000 2.1 350 18:20 04.01.2020
1138 Clouds 14 1031 67 10000 1 0 17:57 04.01.2020
1139 Clouds 14 1031 67 10000 1.5 300 17:39 04.01.2020
1140 Clouds 15 1031 67 10000 1.5 300 17:21 04.01.2020
1141 Clouds 15 1032 71 10000 2.1 300 16:42 04.01.2020
1142 Clouds 15 1032 71 10000 2.1 300 16:24 04.01.2020
1143 Clouds 15 1032 62 10000 3.1 310 15:57 04.01.2020
1144 Clouds 15 1032 62 10000 2.6 310 15:39 04.01.2020
1145 Clouds 16 1032 62 10000 2.6 310 15:19 04.01.2020
1146 Clouds 16 1032 59 10000 3.6 310 14:57 04.01.2020
1147 Clouds 16 1032 59 10000 3.1 300 14:39 04.01.2020
1148 Clouds 16 1032 59 10000 3.1 300 14:19 04.01.2020
1149 Clouds 16 1032 62 10000 2.6 320 13:55 04.01.2020
1150 Clouds 16 1033 59 10000 3.6 320 13:37 04.01.2020
1151 Clouds 16 1033 59 10000 3.6 320 13:37 04.01.2020
1152 Clouds 16 1033 59 10000 3.6 320 13:18 04.01.2020
1153 Clouds 16 1033 62 10000 3.1 320 12:41 04.01.2020
1154 Clouds 16 1033 62 10000 3.1 320 12:20 04.01.2020
1155 Clouds 14 1033 71 10000 2.6 300 11:59 04.01.2020
1156 Clouds 14 1034 71 10000 1.5 320 11:40 04.01.2020
1157 Clouds 13 1034 71 10000 1.5 320 11:19 04.01.2020
1158 Clouds 13 1033 76 10000 1 0 10:55 04.01.2020
1159 Clouds 12 1033 81 10000 0.5 0 10:37 04.01.2020
1160 Clouds 12 1033 81 10000 2.1 330 10:19 04.01.2020
1161 Clouds 11 1033 87 10000 2.6 320 09:42 04.01.2020
1162 Clouds 11 1033 87 10000 2.6 320 09:23 04.01.2020
1163 Clouds 10 1033 81 10000 1 0 08:42 04.01.2020
1164 Clouds 9 1033 81 10000 1 0 08:21 04.01.2020
1165 Clouds 9 1033 81 10000 1.5 350 07:44 04.01.2020
1166 Clouds 9 1033 81 10000 3.1 20 07:26 04.01.2020
1167 Clouds 8 1032 93 10000 2.1 20 06:36 04.01.2020
1168 Clouds 9 1032 93 10000 2.1 360 05:46 04.01.2020
1169 Clouds 9 1032 87 10000 2.1 10 04:47 04.01.2020
1170 Clouds 9 1032 87 10000 1.5 350 04:27 04.01.2020
1171 Clouds 9 1032 87 10000 2.6 340 03:19 04.01.2020
1172 Clouds 9 1032 93 10000 2.1 360 02:36 04.01.2020
1173 Clouds 9 1032 87 10000 1 360 01:58 04.01.2020
1174 Clouds 9 1032 87 10000 1.5 30 01:32 04.01.2020
1175 Clouds 9 1032 87 10000 1.5 30 01:32 04.01.2020
1176 Clouds 9 1032 87 10000 1.5 30 00:58 04.01.2020
1177 Clouds 9 1032 87 10000 1.5 40 00:29 04.01.2020
1178 Clouds 10 1032 87 10000 1.5 360 23:53 03.01.2020
1179 Clouds 10 1032 87 10000 1.5 340 23:28 03.01.2020
1180 Clouds 11 1032 81 10000 2.1 340 22:55 03.01.2020
1181 Clouds 11 1032 81 10000 1.5 10 22:37 03.01.2020
1182 Clouds 11 1032 81 10000 1.5 10 22:18 03.01.2020
1183 Clouds 11 1032 87 10000 2.1 350 21:57 03.01.2020
1184 Clouds 11 1032 87 10000 2.1 350 21:37 03.01.2020
1185 Clouds 11 1032 81 10000 1.5 320 21:18 03.01.2020
1186 Clouds 12 1032 81 10000 1.5 320 20:54 03.01.2020
1187 Clouds 12 1032 81 10000 1.5 320 20:54 03.01.2020
1188 Clouds 12 1032 76 10000 1.5 320 20:36 03.01.2020
1189 Clouds 12 1032 76 10000 1.5 320 20:18 03.01.2020
1190 Clouds 13 1032 76 10000 1.5 320 19:44 03.01.2020
1191 Clouds 13 1031 71 10000 2.1 330 19:23 03.01.2020
1192 Clouds 13 1031 71 10000 1.5 320 18:57 03.01.2020
1193 Clouds 14 1031 71 10000 2.1 320 18:38 03.01.2020
1194 Clouds 14 1031 71 10000 2.1 320 18:20 03.01.2020
1195 Clouds 14 1031 71 10000 2.6 210 17:42 03.01.2020
1196 Clouds 14 1031 71 10000 2.6 210 17:22 03.01.2020
1197 Clouds 15 1031 67 10000 3.1 210 16:59 03.01.2020
1198 Clouds 15 1031 67 10000 3.1 220 16:40 03.01.2020
1199 Clouds 15 1031 67 10000 3.1 220 16:21 03.01.2020
1200 Clouds 15 1031 62 10000 4.1 220 15:42 03.01.2020
1201 Clouds 15 1031 62 10000 4.1 220 15:19 03.01.2020
1202 Clouds 15 1031 67 10000 4.1 210 14:40 03.01.2020
1203 Clouds 15 1031 67 10000 4.1 210 14:40 03.01.2020
1204 Clouds 15 1031 67 10000 4.1 210 14:21 03.01.2020
1205 Clouds 15 1031 67 10000 4.6 200 13:59 03.01.2020
1206 Clouds 15 1032 67 10000 4.6 220 13:40 03.01.2020
1207 Clouds 15 1032 67 10000 4.6 220 13:22 03.01.2020
1208 Clouds 15 1032 62 10000 4.1 220 12:56 03.01.2020
1209 Clouds 15 1032 62 10000 4.1 220 12:38 03.01.2020
1210 Clouds 15 1033 67 10000 1 0 12:19 03.01.2020
1211 Clouds 14 1033 67 10000 0.5 0 11:42 03.01.2020
1212 Clouds 14 1033 67 10000 0.5 0 11:18 03.01.2020
1213 Clouds 13 1033 71 10000 0.5 0 10:43 03.01.2020
1214 Clouds 13 1033 71 10000 0.5 0 10:24 03.01.2020
1215 Clouds 13 1032 81 10000 0.5 0 09:57 03.01.2020
1216 Clouds 12 1032 87 10000 0.5 360 09:38 03.01.2020
1217 Clouds 12 1032 87 10000 0.5 360 09:20 03.01.2020
1218 Clouds 11 1032 81 10000 0.5 0 08:54 03.01.2020
1219 Clouds 11 1032 81 10000 0.5 40 08:36 03.01.2020
1220 Clouds 11 1032 81 10000 0.5 40 08:18 03.01.2020
1221 Clouds 11 1031 81 10000 1.5 10 07:39 03.01.2020
1222 Clouds 12 1031 81 10000 1 0 07:18 03.01.2020
1223 Clouds 12 1031 81 10000 1 0 07:18 03.01.2020
1224 Clouds 12 1031 76 10000 1 10 06:42 03.01.2020
1225 Clouds 12 1031 76 10000 1.5 40 06:24 03.01.2020
1226 Clouds 12 1031 81 10000 1.5 80 05:28 03.01.2020
1227 Clouds 12 1032 76 10000 1 10 03:55 03.01.2020
1228 Clouds 12 1032 76 10000 1 0 02:55 03.01.2020
1229 Clouds 12 1032 76 10000 1 0 02:26 03.01.2020
1230 Clear 12 1032 76 10000 0.5 0 01:38 03.01.2020
1231 Clouds 12 1033 76 10000 0.5 350 00:49 03.01.2020
1232 Clouds 12 1033 76 10000 0.5 350 00:29 03.01.2020
1233 Clouds 12 1033 76 10000 1 0 23:55 02.01.2020
1234 Clouds 12 1033 76 10000 1.5 20 23:37 02.01.2020
1235 Clear 13 1033 71 10000 1 0 23:18 02.01.2020
1236 Clear 13 1033 71 10000 1 0 22:44 02.01.2020
1237 Clear 13 1033 71 10000 1 0 22:21 02.01.2020
1238 Clear 13 1033 71 10000 1 0 22:21 02.01.2020
1239 Clear 13 1033 71 10000 0.5 0 21:57 02.01.2020
1240 Clear 13 1033 66 10000 2.1 140 21:39 02.01.2020
1241 Clear 13 1033 66 10000 2.1 140 21:21 02.01.2020
1242 Clear 13 1033 71 10000 1.5 70 20:57 02.01.2020
1243 Clouds 13 1033 66 10000 1 0 20:39 02.01.2020
1244 Clear 13 1033 66 10000 1 0 20:20 02.01.2020
1245 Clouds 14 1033 62 10000 1 0 19:55 02.01.2020
1246 Clouds 14 1033 62 10000 2.1 270 19:37 02.01.2020
1247 Clouds 14 1033 62 10000 2.1 270 19:37 02.01.2020
1248 Clouds 14 1033 62 10000 2.1 270 19:19 02.01.2020
1249 Clouds 14 1032 62 10000 2.6 230 18:56 02.01.2020
1250 Clouds 14 1032 62 10000 2.1 230 18:38 02.01.2020
1251 Clouds 14 1032 62 10000 2.1 230 18:20 02.01.2020
1252 Clouds 14 1032 62 10000 1.5 240 17:56 02.01.2020
1253 Clouds 14 1032 62 10000 2.1 210 17:36 02.01.2020
1254 Clouds 14 1032 62 10000 3.6 220 17:18 02.01.2020
1255 Clouds 14 1032 62 10000 3.6 220 16:56 02.01.2020
1256 Clouds 15 1032 62 10000 3.6 210 16:38 02.01.2020
1257 Clouds 15 1032 62 10000 3.6 210 16:19 02.01.2020
1258 Clouds 15 1032 62 10000 4.6 220 15:44 02.01.2020
1259 Clouds 15 1031 63 10000 3.6 250 15:24 02.01.2020
1260 Clouds 15 1032 62 10000 4.6 210 14:58 02.01.2020
1261 Clouds 16 1032 63 10000 4.6 210 14:38 02.01.2020
1262 Clouds 16 1031 72 10000 2.6 260 14:20 02.01.2020
1263 Clouds 16 1032 67 10000 3.6 210 13:58 02.01.2020
1264 Clouds 15 1033 67 10000 3.6 210 13:40 02.01.2020
1265 Clouds 15 1033 67 10000 2.1 190 13:19 02.01.2020
1266 Clouds 15 1033 77 10000 2.63 205 12:42 02.01.2020
1267 Clouds 15 1033 77 10000 2.63 205 12:21 02.01.2020
1268 Clouds 14 1034 76 10000 0.5 0 11:42 02.01.2020
1269 Clouds 13 1034 76 10000 0.5 0 11:22 02.01.2020
1270 Clouds 12 1034 81 10000 1 0 10:46 02.01.2020
1271 Clouds 11 1034 87 10000 1 0 10:28 02.01.2020
1272 Clouds 12 1034 87 10000 1 0 09:58 02.01.2020
1273 Clouds 11 1033 87 10000 1.5 10 09:36 02.01.2020
1274 Clouds 11 1033 87 10000 2.1 360 08:59 02.01.2020
1275 Clouds 11 1033 93 10000 1.5 350 08:40 02.01.2020
1276 Clouds 11 1033 93 10000 1.5 350 08:21 02.01.2020
1277 Clouds 11 1033 87 10000 1.5 20 07:47 02.01.2020
1278 Clouds 10 1032 87 10000 1.5 20 07:27 02.01.2020
1279 Clouds 10 1032 87 10000 2.1 0 06:43 02.01.2020
1280 Clouds 11 1032 87 10000 1 0 05:54 02.01.2020
1281 Clouds 9 1032 93 10000 1.5 360 04:37 02.01.2020
1282 Clouds 8 1032 93 10000 1.5 350 03:54 02.01.2020
1283 Clouds 9 1032 93 10000 1.5 350 02:21 02.01.2020
1284 Clouds 9 1032 93 10000 1.5 350 01:57 02.01.2020
1285 Clouds 9 1032 93 10000 1.5 350 01:30 02.01.2020
1286 Clouds 9 1033 93 10000 1 0 00:52 02.01.2020
1287 Clouds 9 1033 93 10000 1.5 10 00:28 02.01.2020
1288 Clouds 10 1033 87 10000 1.5 350 23:47 01.01.2020
1289 Clouds 10 1033 87 10000 1.5 350 23:24 01.01.2020
1290 Clouds 10 1033 93 10000 1.5 360 22:39 01.01.2020
1291 Clouds 10 1033 93 10000 1.5 360 22:21 01.01.2020
1292 Clouds 11 1033 87 10000 1.5 360 21:59 01.01.2020
1293 Clouds 11 1033 87 10000 1.5 330 21:40 01.01.2020
1294 Clouds 11 1033 87 10000 1.5 330 21:21 01.01.2020
1295 Clouds 11 1033 87 10000 1.5 330 20:58 01.01.2020
1296 Clouds 11 1033 81 10000 1.5 340 20:39 01.01.2020
1297 Clouds 11 1033 81 10000 1.5 340 20:20 01.01.2020
1298 Clouds 12 1033 81 10000 1 340 19:57 01.01.2020
1299 Clouds 12 1033 76 10000 1 0 19:39 01.01.2020
1300 Clouds 12 1033 76 10000 1 0 19:20 01.01.2020
1301 Clouds 12 1032 76 10000 1.5 50 18:57 01.01.2020
1302 Clouds 12 1032 76 10000 0.5 0 18:38 01.01.2020
1303 Clouds 13 1032 76 10000 0.5 0 18:20 01.01.2020
1304 Clouds 13 1032 71 10000 2.1 200 17:59 01.01.2020
1305 Clouds 14 1032 67 10000 3.1 200 17:40 01.01.2020
1306 Clouds 14 1032 67 10000 3.1 200 17:20 01.01.2020
1307 Clouds 14 1032 67 10000 2.6 200 16:58 01.01.2020
1308 Clouds 14 1032 67 10000 2.1 170 16:38 01.01.2020
1309 Clouds 15 1032 67 10000 2.1 170 16:19 01.01.2020
1310 Clouds 15 1032 67 10000 3.1 200 15:57 01.01.2020
1311 Clouds 15 1032 67 10000 3.1 200 15:57 01.01.2020
1312 Clouds 15 1032 67 10000 2.6 200 15:37 01.01.2020
1313 Clouds 14 1032 67 10000 2.6 200 15:19 01.01.2020
1314 Clouds 15 1032 58 10000 2.6 200 14:56 01.01.2020
1315 Clouds 15 1032 67 10000 2.1 190 14:37 01.01.2020
1316 Clear 15 1032 67 10000 2.1 190 14:19 01.01.2020
1317 Clear 15 1032 62 10000 1.5 190 13:55 01.01.2020
1318 Clear 15 1033 58 10000 2.1 220 13:36 01.01.2020
1319 Clear 15 1033 58 10000 2.1 220 13:18 01.01.2020
1320 Clear 15 1033 62 10000 0.5 20 12:40 01.01.2020
1321 Clear 14 1033 62 10000 0.5 20 12:20 01.01.2020
1322 Clear 13 1034 71 10000 1.5 50 11:57 01.01.2020
1323 Clear 13 1034 71 10000 1.5 50 11:57 01.01.2020
1324 Clear 12 1034 81 10000 1 0 11:39 01.01.2020
1325 Clear 12 1034 81 10000 1.5 20 11:20 01.01.2020
1326 Clear 11 1034 81 10000 1.5 20 10:55 01.01.2020
1327 Clear 11 1034 81 10000 1.5 20 10:55 01.01.2020
1328 Clear 11 1034 87 10000 1 310 10:37 01.01.2020
1329 Clear 10 1034 87 10000 1 310 10:18 01.01.2020
1330 Clear 11 1033 87 10000 1 360 09:40 01.01.2020
1331 Clear 10 1033 87 10000 1 360 09:22 01.01.2020
1332 Clear 10 1033 87 10000 1.5 310 08:57 01.01.2020
1333 Clear 10 1033 87 10000 2.1 10 08:38 01.01.2020
1334 Clear 9 1033 87 10000 2.1 10 08:20 01.01.2020
1335 Clear 9 1032 87 10000 1.5 20 07:58 01.01.2020
1336 Clear 8 1032 93 10000 2.1 330 07:40 01.01.2020
1337 Clear 8 1032 93 10000 2.1 330 07:19 01.01.2020
1338 Clear 8 1032 93 10000 1 0 06:36 01.01.2020
1339 Clear 8 1032 93 10000 2.1 350 06:18 01.01.2020
1340 Clear 8 1032 93 10000 2.1 360 04:36 01.01.2020
1341 Clear 8 1032 93 10000 2.1 350 03:40 01.01.2020
1342 Clear 9 1032 93 10000 2.1 350 03:21 01.01.2020
1343 Clear 9 1033 87 10000 1.5 50 02:43 01.01.2020
1344 Clear 9 1033 87 10000 1.5 50 02:24 01.01.2020
1345 Clear 8 1033 87 10000 2.1 20 01:45 01.01.2020
1346 Clear 8 1033 87 10000 2.1 20 01:45 01.01.2020
1347 Clear 8 1033 87 10000 2.1 360 01:23 01.01.2020
1348 Clear 8 1033 93 7000 2.1 350 00:54 01.01.2020
1349 Clear 8 1033 87 10000 2.1 360 00:36 01.01.2020
1350 Clear 8 1033 87 10000 2.1 360 00:18 01.01.2020
1351 Clear 8 1033 87 10000 2.1 360 23:38 31.12.2019
1352 Clear 7 1033 87 10000 2.1 360 23:19 31.12.2019
1353 Clear 7 1033 93 10000 2.6 10 22:56 31.12.2019
1354 Clear 8 1033 87 10000 2.1 350 22:37 31.12.2019
1355 Clear 8 1033 87 10000 2.1 350 22:18 31.12.2019
1356 Clear 8 1033 87 10000 1.5 360 21:54 31.12.2019
1357 Clear 9 1033 87 10000 1.5 30 21:36 31.12.2019
1358 Clear 10 1033 87 10000 1.5 30 21:18 31.12.2019
1359 Clear 10 1033 87 10000 1.5 30 21:18 31.12.2019
1360 Clear 10 1033 81 10000 1.5 360 20:40 31.12.2019
1361 Clouds 10 1033 81 10000 1.5 360 20:21 31.12.2019
1362 Clouds 10 1033 81 10000 2.1 350 19:59 31.12.2019
1363 Clouds 11 1033 81 10000 0.5 0 19:40 31.12.2019
1364 Clouds 11 1033 81 10000 0.5 0 19:22 31.12.2019
1365 Clouds 12 1033 76 10000 1.5 330 18:57 31.12.2019
1366 Clouds 12 1033 71 10000 1.5 320 18:39 31.12.2019
1367 Clouds 12 1033 71 10000 1.5 320 18:19 31.12.2019
1368 Clouds 13 1032 66 10000 1.5 210 17:56 31.12.2019
1369 Clouds 14 1032 62 10000 2.6 220 17:37 31.12.2019
1370 Clouds 14 1032 62 10000 2.6 220 17:19 31.12.2019
1371 Clouds 14 1032 62 10000 2.6 220 17:19 31.12.2019
1372 Clouds 14 1032 62 10000 3.6 210 16:56 31.12.2019
1373 Clouds 14 1032 62 10000 3.6 210 16:38 31.12.2019
1374 Clouds 15 1032 62 10000 3.6 210 16:19 31.12.2019
1375 Clouds 15 1032 54 10000 3.6 220 15:56 31.12.2019
1376 Clouds 16 1032 54 10000 3.6 210 15:38 31.12.2019
1377 Clouds 16 1032 54 10000 3.6 210 15:20 31.12.2019
1378 Clouds 16 1032 54 10000 3.6 220 14:57 31.12.2019
1379 Clouds 15 1033 54 10000 2.6 190 14:38 31.12.2019
1380 Clouds 15 1033 54 10000 2.6 190 14:38 31.12.2019
1381 Clouds 15 1033 54 10000 2.6 190 14:19 31.12.2019
1382 Clouds 15 1033 54 10000 1.5 210 13:57 31.12.2019
1383 Clouds 15 1033 51 10000 1 210 13:39 31.12.2019
1384 Clouds 16 1033 51 10000 1 210 13:20 31.12.2019
1385 Clouds 16 1034 54 10000 1.5 0 12:56 31.12.2019
1386 Clouds 15 1034 54 10000 0.5 350 12:38 31.12.2019
1387 Clouds 15 1034 58 10000 1 40 12:19 31.12.2019
1388 Clouds 15 1034 54 10000 0.5 350 12:19 31.12.2019
1389 Clouds 15 1034 58 10000 1 40 11:56 31.12.2019
1390 Clouds 15 1034 58 10000 1 40 11:56 31.12.2019
1391 Clouds 14 1035 62 10000 0.5 0 11:38 31.12.2019
1392 Clouds 13 1035 62 10000 0.5 0 11:19 31.12.2019
1393 Clouds 12 1034 71 10000 1 0 10:57 31.12.2019
1394 Clouds 12 1034 71 10000 1 0 10:57 31.12.2019
1395 Clouds 11 1034 81 10000 1.5 360 10:38 31.12.2019
1396 Clouds 11 1034 81 10000 1.5 360 10:20 31.12.2019
1397 Clouds 9 1034 81 10000 2.1 350 09:58 31.12.2019
1398 Clouds 9 1034 87 10000 2.1 350 09:39 31.12.2019
1399 Clouds 9 1034 87 10000 2.1 350 09:20 31.12.2019
1400 Clouds 8 1033 87 10000 2.1 10 08:57 31.12.2019
1401 Clouds 8 1033 87 10000 2.1 10 08:57 31.12.2019
1402 Clouds 8 1033 87 10000 2.1 20 08:37 31.12.2019
1403 Clouds 8 1033 87 10000 2.1 20 08:37 31.12.2019
1404 Clear 8 1033 87 10000 2.1 20 08:18 31.12.2019
1405 Clear 7 1033 87 10000 2.6 30 07:41 31.12.2019
1406 Clear 8 1033 87 10000 2.6 30 07:19 31.12.2019
1407 Clear 8 1033 87 10000 1.5 350 06:49 31.12.2019
1408 Clear 8 1033 93 10000 3.1 350 05:57 31.12.2019
1409 Clear 7 1033 87 10000 1 0 04:28 31.12.2019
1410 Clear 7 1033 87 10000 2.6 340 03:27 31.12.2019
1411 Clear 7 1033 87 10000 2.1 350 02:54 31.12.2019
1412 Clear 8 1033 87 10000 2.1 350 02:54 31.12.2019
1413 Clear 7 1033 87 10000 2.1 350 01:58 31.12.2019
1414 Clear 7 1033 87 10000 2.1 10 01:40 31.12.2019
1415 Clear 7 1033 87 10000 2.1 10 01:22 31.12.2019
1416 Clear 7 1033 87 10000 2.1 360 00:45 31.12.2019
1417 Clear 7 1033 87 10000 2.6 350 00:22 31.12.2019
1418 Clear 8 1033 93 10000 3.1 340 23:56 30.12.2019
1419 Clear 8 1033 81 10000 2.1 350 23:38 30.12.2019
1420 Clear 8 1033 81 10000 2.1 350 23:20 30.12.2019
1421 Clear 8 1033 87 10000 3.1 350 22:57 30.12.2019
1422 Clear 8 1033 87 10000 3.1 350 22:57 30.12.2019
1423 Clear 7 1033 87 10000 1.5 330 22:38 30.12.2019
1424 Clear 8 1033 87 10000 1.5 330 22:19 30.12.2019
1425 Clear 9 1033 87 10000 2.6 340 21:56 30.12.2019
1426 Clear 9 1033 87 10000 2.6 350 21:38 30.12.2019
1427 Clear 8 1033 87 10000 2.6 350 21:18 30.12.2019
1428 Clear 9 1033 87 10000 1.5 360 20:56 30.12.2019
1429 Clear 9 1033 87 10000 1.5 30 20:38 30.12.2019
1430 Clear 9 1033 87 10000 1.5 30 20:20 30.12.2019
1431 Clear 10 1033 81 10000 2.1 360 19:57 30.12.2019
1432 Clear 10 1033 81 10000 1.5 330 19:37 30.12.2019
1433 Clear 11 1033 81 10000 1.5 330 19:19 30.12.2019
1434 Clear 11 1033 76 10000 2.1 320 18:56 30.12.2019
1435 Clear 12 1032 76 10000 1.5 320 18:38 30.12.2019
1436 Clear 12 1032 76 10000 1.5 320 18:20 30.12.2019
1437 Clear 13 1032 71 10000 1.5 210 17:55 30.12.2019
1438 Clear 13 1032 71 10000 2.6 210 17:36 30.12.2019
1439 Clouds 14 1032 71 10000 2.6 210 17:18 30.12.2019
1440 Clouds 14 1032 62 10000 3.1 210 16:55 30.12.2019
1441 Clouds 14 1032 62 10000 3.1 210 16:55 30.12.2019
1442 Clouds 14 1032 58 10000 3.6 210 16:36 30.12.2019
1443 Clouds 15 1032 58 10000 3.6 210 16:18 30.12.2019
1444 Clouds 15 1032 54 10000 3.6 210 15:55 30.12.2019
1445 Clouds 16 1032 54 10000 3.1 200 15:36 30.12.2019
1446 Clouds 15 1032 54 10000 3.1 200 15:18 30.12.2019
1447 Clouds 15 1033 54 10000 3.1 220 14:42 30.12.2019
1448 Clear 15 1033 54 10000 3.1 220 14:19 30.12.2019
1449 Clear 16 1033 54 10000 3.1 200 13:56 30.12.2019
1450 Clear 15 1033 54 10000 2.6 210 13:37 30.12.2019
1451 Clear 15 1033 54 10000 2.6 210 13:19 30.12.2019
1452 Clear 15 1034 58 10000 1 200 12:43 30.12.2019
1453 Clear 14 1034 58 10000 1.5 200 12:20 30.12.2019
1454 Clear 15 1034 62 10000 1.5 120 11:59 30.12.2019
1455 Clear 14 1034 67 10000 0.5 0 11:40 30.12.2019
1456 Clear 13 1034 67 10000 0.5 0 11:19 30.12.2019
1457 Clear 13 1034 67 10000 0.5 0 11:19 30.12.2019
1458 Clear 11 1034 81 10000 1 330 10:45 30.12.2019
1459 Clear 11 1034 81 10000 1 330 10:22 30.12.2019
1460 Clear 10 1034 81 10000 1 10 09:59 30.12.2019
1461 Clear 8 1034 81 10000 1.5 350 09:41 30.12.2019
1462 Clear 8 1034 81 10000 1.5 350 09:20 30.12.2019
1463 Clear 7 1033 87 10000 2.6 10 08:55 30.12.2019
1464 Clear 8 1033 87 10000 3.1 350 08:36 30.12.2019
1465 Clouds 8 1033 87 10000 3.1 350 08:18 30.12.2019
1466 Clouds 7 1033 87 10000 3.1 350 08:18 30.12.2019
1467 Clouds 7 1033 87 10000 3.1 350 07:40 30.12.2019
1468 Clouds 8 1033 87 10000 2.1 350 06:55 30.12.2019
1469 Clouds 9 1032 81 10000 2.1 360 06:23 30.12.2019
1470 Clouds 10 1032 87 10000 2.1 310 03:58 30.12.2019
1471 Clouds 10 1032 81 10000 1.5 330 03:32 30.12.2019
1472 Clouds 10 1032 81 10000 0.5 0 02:40 30.12.2019
1473 Clouds 10 1032 81 10000 0.5 0 02:20 30.12.2019
1474 Clouds 9 1032 81 10000 1.5 350 01:25 30.12.2019
1475 Clouds 8 1032 87 10000 2.6 350 00:46 30.12.2019
1476 Clouds 8 1032 87 10000 2.6 350 00:23 30.12.2019
1477 Clouds 9 1032 87 10000 1.5 30 23:40 29.12.2019
1478 Clouds 9 1032 87 10000 1.5 30 23:22 29.12.2019
1479 Clouds 10 1032 87 10000 2.1 20 22:56 29.12.2019
1480 Clouds 10 1032 87 10000 1.5 360 22:38 29.12.2019
1481 Clouds 10 1032 87 10000 1.5 360 22:19 29.12.2019
1482 Clouds 10 1032 87 10000 2.1 350 21:45 29.12.2019
1483 Clouds 10 1032 81 10000 1.5 340 21:21 29.12.2019
1484 Clouds 10 1032 81 10000 1.5 340 20:59 29.12.2019
1485 Clouds 11 1032 81 10000 1 320 20:40 29.12.2019
1486 Clear 11 1032 81 10000 1 320 20:22 29.12.2019
1487 Clear 11 1032 81 10000 1 320 19:59 29.12.2019
1488 Clouds 12 1031 76 10000 0.5 0 19:40 29.12.2019
1489 Clouds 12 1031 76 10000 0.5 0 19:22 29.12.2019
1490 Clear 12 1031 76 10000 2.1 320 18:59 29.12.2019
1491 Clear 12 1031 71 10000 2.1 330 18:40 29.12.2019
1492 Clear 12 1031 71 10000 2.1 330 18:21 29.12.2019
1493 Clear 13 1031 66 10000 2.1 320 17:58 29.12.2019
1494 Clear 14 1031 62 10000 3.1 310 17:39 29.12.2019
1495 Clear 14 1031 62 10000 3.1 310 17:20 29.12.2019
1496 Clear 14 1031 58 10000 3.1 320 16:57 29.12.2019
1497 Clear 15 1031 58 10000 4.1 300 16:39 29.12.2019
1498 Clear 15 1031 58 10000 4.1 300 16:39 29.12.2019
1499 Clear 15 1031 58 10000 4.1 300 16:21 29.12.2019
1500 Clear 15 1032 58 10000 3.6 310 15:59 29.12.2019
1501 Clear 15 1032 54 10000 3.6 330 15:40 29.12.2019
1502 Clear 15 1032 54 10000 3.6 330 15:20 29.12.2019
1503 Clear 15 1032 54 10000 4.1 310 14:59 29.12.2019
1504 Clear 15 1032 58 10000 4.1 320 14:41 29.12.2019
1505 Clear 15 1032 58 10000 4.1 320 14:19 29.12.2019
1506 Clear 15 1032 62 10000 4.1 290 13:59 29.12.2019
1507 Clear 14 1032 67 10000 3.6 300 13:40 29.12.2019
1508 Clear 15 1032 67 10000 3.6 300 13:22 29.12.2019
1509 Clear 14 1033 71 10000 3.6 290 12:57 29.12.2019
1510 Clear 15 1033 71 10000 2.1 300 12:38 29.12.2019
1511 Clear 15 1033 71 10000 2.1 300 12:20 29.12.2019
1512 Clear 13 1034 82 10000 2.6 270 11:41 29.12.2019
1513 Clear 12 1034 82 10000 2.6 270 11:22 29.12.2019
1514 Clear 12 1034 87 10000 1 0 10:57 29.12.2019
1515 Clear 11 1034 87 10000 1 0 10:39 29.12.2019
1516 Clear 11 1034 87 10000 1 0 10:18 29.12.2019
1517 Clear 10 1034 87 10000 0.5 0 09:47 29.12.2019
1518 Clear 8 1033 87 10000 1.5 10 09:28 29.12.2019
1519 Clear 10 1033 87 10000 1.5 10 09:28 29.12.2019
1520 Clear 9 1033 93 10000 1 20 08:59 29.12.2019
1521 Clear 9 1033 93 10000 2.1 360 08:40 29.12.2019
1522 Clear 9 1033 93 10000 2.1 360 08:40 29.12.2019
1523 Clouds 9 1033 93 10000 2.1 360 08:21 29.12.2019
1524 Clouds 9 1033 93 10000 2.6 10 07:45 29.12.2019
1525 Clouds 9 1033 93 10000 2.6 360 07:26 29.12.2019
1526 Clouds 9 1033 93 10000 1.5 10 06:52 29.12.2019
1527 Clouds 9 1033 93 10000 2.6 20 06:22 29.12.2019
1528 Clouds 9 1033 93 10000 2.1 10 05:45 29.12.2019
1529 Clouds 9 1033 87 10000 2.1 350 04:33 29.12.2019
1530 Clouds 8 1033 93 10000 2.1 40 03:40 29.12.2019
1531 Clouds 9 1033 87 10000 1.5 340 02:49 29.12.2019
1532 Clear 8 1033 87 10000 1 30 02:19 29.12.2019
1533 Clear 8 1033 93 10000 2.1 340 01:31 29.12.2019
1534 Clear 9 1033 93 10000 1.5 320 00:51 29.12.2019
1535 Clear 9 1033 93 10000 1.5 10 00:27 29.12.2019
1536 Clear 8 1032 93 10000 1.5 360 23:57 28.12.2019
1537 Clear 8 1032 93 10000 1 360 23:39 28.12.2019
1538 Clear 9 1032 93 10000 1 360 23:18 28.12.2019
1539 Clear 10 1032 87 10000 1 0 22:39 28.12.2019
1540 Clear 11 1032 87 10000 1 0 22:19 28.12.2019
1541 Clear 10 1032 93 10000 1.5 350 21:57 28.12.2019
1542 Clear 11 1032 93 10000 0.5 0 21:38 28.12.2019
1543 Clear 11 1032 87 10000 1.5 20 21:20 28.12.2019
1544 Clear 11 1032 87 10000 1.5 20 20:55 28.12.2019
1545 Clear 11 1032 87 10000 2.1 340 20:37 28.12.2019
1546 Clear 12 1032 87 10000 2.1 340 20:18 28.12.2019
1547 Clear 12 1032 87 10000 1 0 19:55 28.12.2019
1548 Clear 12 1031 81 10000 0.5 0 19:37 28.12.2019
1549 Clear 12 1031 81 10000 0.5 0 19:18 28.12.2019
1550 Clear 13 1031 76 10000 1 0 18:56 28.12.2019
1551 Clear 13 1031 76 10000 1.5 90 18:38 28.12.2019
1552 Clear 13 1031 76 10000 1.5 90 18:18 28.12.2019
1553 Clear 14 1031 71 10000 2.1 200 17:42 28.12.2019
1554 Clear 14 1031 71 10000 2.1 200 17:42 28.12.2019
1555 Clear 15 1031 71 10000 2.1 200 17:21 28.12.2019
1556 Clear 15 1030 67 10000 3.1 220 16:59 28.12.2019
1557 Clear 16 1030 63 10000 2.6 210 16:41 28.12.2019
1558 Clear 16 1030 63 10000 2.6 210 16:23 28.12.2019
1559 Clear 16 1030 67 10000 3.1 220 15:43 28.12.2019
1560 Clear 16 1030 67 10000 3.1 220 15:23 28.12.2019
1561 Clear 16 1030 67 10000 3.1 220 14:57 28.12.2019
1562 Clear 16 1030 63 10000 1.5 220 14:38 28.12.2019
1563 Clear 16 1030 63 10000 1.5 220 14:20 28.12.2019
1564 Clear 16 1031 63 10000 1.5 220 13:43 28.12.2019
1565 Clear 16 1031 67 10000 1.5 0 13:22 28.12.2019
1566 Clear 15 1031 72 10000 1.5 170 12:59 28.12.2019
1567 Clear 15 1031 67 10000 1.5 210 12:41 28.12.2019
1568 Clear 15 1031 67 10000 1.5 210 12:22 28.12.2019
1569 Clear 15 1032 67 10000 2.1 230 11:55 28.12.2019
1570 Clear 14 1032 67 10000 0.5 150 11:37 28.12.2019
1571 Clear 14 1032 67 10000 0.5 150 11:18 28.12.2019
1572 Clear 13 1031 76 10000 1.5 20 10:43 28.12.2019
1573 Clear 12 1031 76 10000 1.5 20 10:20 28.12.2019
1574 Clear 9 1031 81 10000 1.5 360 09:56 28.12.2019
1575 Clear 9 1031 87 10000 1.5 360 09:38 28.12.2019
1576 Clear 8 1031 87 10000 1.5 360 09:19 28.12.2019
1577 Clear 8 1031 87 10000 2.1 350 08:43 28.12.2019
1578 Clear 8 1031 87 10000 2.1 350 08:25 28.12.2019
1579 Clear 8 1030 87 10000 2.6 350 07:49 28.12.2019
1580 Clear 8 1030 86 10000 1.5 10 07:27 28.12.2019
1581 Clear 8 1030 87 10000 1.5 20 06:21 28.12.2019
1582 Clear 8 1030 81 10000 2.1 10 03:59 28.12.2019
1583 Clear 8 1030 87 10000 2.1 10 03:38 28.12.2019
1584 Clear 8 1029 87 10000 2.1 20 02:48 28.12.2019
1585 Clear 9 1029 81 10000 0.5 10 01:59 28.12.2019
1586 Clear 9 1029 81 10000 0.5 10 01:59 28.12.2019
1587 Clear 9 1030 87 10000 2.1 50 01:29 28.12.2019
1588 Clear 9 1029 81 10000 1.5 30 00:55 28.12.2019
1589 Clear 9 1030 87 10000 1.5 40 00:37 28.12.2019
1590 Clear 9 1030 87 10000 1.5 40 00:19 28.12.2019
1591 Clear 9 1029 81 10000 1.5 350 23:43 27.12.2019
1592 Clear 9 1029 81 10000 1.5 20 23:19 27.12.2019
1593 Clear 9 1029 87 10000 2.1 340 23:19 27.12.2019
1594 Clear 9 1029 87 10000 2.1 340 22:57 27.12.2019
1595 Clear 10 1029 93 10000 1.5 10 22:38 27.12.2019
1596 Clear 10 1029 93 10000 1.5 10 22:20 27.12.2019
1597 Clear 10 1029 93 10000 1.5 10 21:55 27.12.2019
1598 Clear 11 1029 87 10000 1 0 21:36 27.12.2019
1599 Clear 11 1029 87 10000 1 0 21:18 27.12.2019
1600 Clear 11 1029 81 10000 0.5 0 20:41 27.12.2019
1601 Clear 11 1029 81 10000 0.5 0 20:22 27.12.2019
1602 Clear 13 1029 81 10000 1.5 0 19:42 27.12.2019
1603 Clear 13 1029 81 10000 1.5 0 19:21 27.12.2019
1604 Clear 13 1029 76 10000 4.6 300 18:59 27.12.2019
1605 Clear 13 1029 76 10000 2.6 310 18:39 27.12.2019
1606 Clear 13 1029 76 10000 2.6 310 18:20 27.12.2019
1607 Clear 14 1029 76 10000 3.1 320 17:57 27.12.2019
1608 Clear 15 1028 72 10000 3.6 330 17:39 27.12.2019
1609 Clear 15 1028 72 10000 4.6 330 17:19 27.12.2019
1610 Clear 15 1028 72 10000 4.6 330 16:58 27.12.2019
1611 Clear 16 1028 72 10000 4.6 330 16:38 27.12.2019
1612 Clear 16 1028 72 10000 4.6 330 16:19 27.12.2019
1613 Clear 16 1028 67 10000 4.6 320 15:44 27.12.2019
1614 Clear 16 1028 67 10000 5.7 330 15:22 27.12.2019
1615 Clear 16 1028 67 10000 5.7 330 14:58 27.12.2019
1616 Clear 16 1029 72 10000 5.1 320 14:39 27.12.2019
1617 Clear 16 1029 72 10000 5.1 320 14:20 27.12.2019
1618 Clear 16 1029 67 10000 4.1 320 13:55 27.12.2019
1619 Clear 16 1029 63 10000 4.1 330 13:37 27.12.2019
1620 Clear 16 1029 63 10000 4.1 330 13:18 27.12.2019
1621 Clear 15 1030 72 10000 3.1 300 12:40 27.12.2019
1622 Clear 15 1030 72 10000 3.1 300 12:22 27.12.2019
1623 Clear 15 1031 82 10000 3.1 210 11:46 27.12.2019
1624 Clear 15 1031 82 10000 3.1 210 11:26 27.12.2019
1625 Clear 14 1031 87 10000 1.5 220 10:59 27.12.2019
1626 Fog 13 1031 87 350 1 0 10:40 27.12.2019
1627 Fog 11 1031 87 350 1 0 10:22 27.12.2019
1628 Clear 11 1031 93 10000 1 0 09:46 27.12.2019
1629 Clear 10 1030 93 10000 1.5 350 09:22 27.12.2019
1630 Clear 9 1030 93 10000 1.5 340 08:59 27.12.2019
1631 Clear 9 1030 93 10000 1 350 08:38 27.12.2019
1632 Clear 9 1030 93 10000 1 50 07:57 27.12.2019
1633 Clear 9 1030 100 10000 1 360 07:38 27.12.2019
1634 Clear 9 1030 93 10000 1 30 06:43 27.12.2019
1635 Clear 9 1030 93 10000 1 30 06:22 27.12.2019
1636 Clear 9 1030 93 10000 2.6 360 04:32 27.12.2019
1637 Clear 11 1030 93 10000 2.1 360 02:27 27.12.2019
1638 Clouds 11 1030 87 10000 1 360 01:42 27.12.2019
1639 Clouds 11 1030 87 10000 1 360 01:20 27.12.2019
1640 Clouds 10 1030 87 10000 1.5 350 00:46 27.12.2019
1641 Clouds 11 1030 87 10000 1.5 350 00:25 27.12.2019
1642 Clouds 10 1030 87 10000 1 340 23:54 26.12.2019
1643 Clouds 10 1030 87 10000 1.5 340 23:36 26.12.2019
1644 Clear 12 1030 81 10000 1.5 70 23:18 26.12.2019
1645 Clear 12 1029 81 10000 2.1 70 22:38 26.12.2019
1646 Clear 11 1029 81 10000 2.1 70 22:18 26.12.2019
1647 Clear 12 1029 76 10000 1.5 80 21:40 26.12.2019
1648 Clear 12 1029 76 10000 1.5 80 21:21 26.12.2019
1649 Clear 13 1029 71 10000 1.5 80 20:58 26.12.2019
1650 Clear 12 1028 76 10000 1.5 70 20:38 26.12.2019
1651 Clouds 13 1028 76 10000 1.5 70 20:20 26.12.2019
1652 Clouds 13 1028 76 10000 1 0 19:55 26.12.2019
1653 Clouds 14 1028 76 10000 2.6 60 19:37 26.12.2019
1654 Clouds 14 1028 76 10000 2.6 60 19:19 26.12.2019
1655 Clouds 14 1027 67 10000 1.5 80 18:57 26.12.2019
1656 Clouds 15 1027 59 10000 1 0 18:36 26.12.2019
1657 Clouds 16 1027 59 10000 1 0 18:18 26.12.2019
1658 Clouds 17 1027 52 10000 2.6 330 17:41 26.12.2019
1659 Clouds 17 1027 52 10000 2.6 330 17:22 26.12.2019
1660 Clouds 18 1026 45 10000 2.1 330 16:50 26.12.2019
1661 Clouds 19 1026 49 10000 2.6 40 16:28 26.12.2019
1662 Clouds 20 1025 56 10000 4.1 60 15:58 26.12.2019
1663 Clouds 21 1025 35 10000 6.2 360 15:40 26.12.2019
1664 Clouds 21 1025 35 10000 6.2 360 15:19 26.12.2019
1665 Clouds 21 1024 37 10000 5.7 350 14:42 26.12.2019
1666 Clouds 21 1024 37 10000 5.7 350 14:23 26.12.2019
1667 Clouds 21 1024 37 10000 5.7 320 13:58 26.12.2019
1668 Clouds 21 1024 40 10000 5.1 310 13:39 26.12.2019
1669 Clouds 21 1024 40 10000 5.1 310 13:18 26.12.2019
1670 Clouds 20 1024 45 10000 3.6 310 12:56 26.12.2019
1671 Clouds 20 1024 63 10000 1 0 12:36 26.12.2019
1672 Clouds 18 1024 63 10000 1 0 12:18 26.12.2019
1673 Clouds 17 1025 82 10000 1.5 120 11:42 26.12.2019
1674 Clouds 17 1025 82 10000 1.5 120 11:23 26.12.2019
1675 Clouds 15 1024 93 10000 1.5 130 10:54 26.12.2019
1676 Clouds 14 1024 93 10000 0.5 130 10:36 26.12.2019
1677 Clouds 14 1024 93 10000 0.5 130 10:18 26.12.2019
1678 Clouds 11 1023 93 10000 1 0 09:42 26.12.2019
1679 Clouds 10 1023 93 10000 1 0 09:24 26.12.2019
1680 Clouds 9 1023 100 10000 2.1 350 08:40 26.12.2019
1681 Clouds 9 1023 100 10000 2.1 350 08:22 26.12.2019
1682 Clouds 9 1022 100 10000 1 30 07:46 26.12.2019
1683 Clouds 9 1022 100 10000 1 0 07:26 26.12.2019
1684 Clouds 9 1022 93 10000 1.5 360 06:44 26.12.2019
1685 Clouds 9 1022 93 10000 1.5 360 06:25 26.12.2019
1686 Clouds 10 1022 93 10000 1 20 05:43 26.12.2019
1687 Clouds 10 1022 93 10000 1 20 05:43 26.12.2019
1688 Clouds 9 1022 100 10000 1 340 04:38 26.12.2019
1689 Rain 9 1023 100 10000 1.5 350 03:47 26.12.2019
1690 Fog 10 1023 100 150 1.5 10 02:50 26.12.2019
1691 Fog 10 1023 100 150 1.5 10 02:31 26.12.2019
1692 Fog 11 1023 100 150 1 0 01:46 26.12.2019
1693 Fog 11 1023 100 50 1 0 01:26 26.12.2019
1694 Fog 10 1024 100 200 1.5 360 00:48 26.12.2019
1695 Fog 10 1024 100 200 1.5 360 00:24 26.12.2019
1696 Fog 11 1024 100 100 1.5 340 23:58 25.12.2019
1697 Fog 11 1024 100 50 1.5 20 23:38 25.12.2019
1698 Fog 10 1024 100 50 1.5 20 23:20 25.12.2019
1699 -273 0 0 0 0 0 22:58 25.12.2019
1700 Mist 10 1024 100 4900 0.5 0 22:38 25.12.2019
1701 Mist 10 1024 100 4900 0.5 0 22:19 25.12.2019
1702 Clear 10 1024 93 5000 1.5 360 21:57 25.12.2019
1703 Fog 10 1023 100 9000 2.25 300 21:39 25.12.2019
1704 Fog 11 1023 100 9000 2.25 300 21:19 25.12.2019
1705 Clear 12 1024 93 8000 2.1 350 20:54 25.12.2019
1706 Clear 12 1024 93 8000 1 330 20:36 25.12.2019
1707 Clear 13 1024 93 8000 1 330 20:18 25.12.2019
1708 Clear 13 1023 93 9000 1 90 19:42 25.12.2019
1709 Clear 14 1023 93 9000 1 90 19:22 25.12.2019
1710 Clear 14 1024 93 10000 1.5 60 18:56 25.12.2019
1711 Clear 15 1023 87 10000 1 0 18:36 25.12.2019
1712 Clear 15 1023 87 10000 1 0 18:18 25.12.2019
1713 Clear 17 1023 82 10000 1.5 180 17:40 25.12.2019
1714 Clear 17 1023 82 10000 1.5 180 17:19 25.12.2019
1715 Clear 18 1024 82 10000 2.1 170 16:56 25.12.2019
1716 Clear 18 1024 82 10000 2.1 180 16:37 25.12.2019
1717 Clear 18 1024 82 10000 2.1 180 16:18 25.12.2019
1718 Clear 18 1024 82 10000 2.1 180 16:18 25.12.2019
1719 Clear 18 1024 82 10000 2.6 180 15:56 25.12.2019
1720 Clear 19 1024 82 10000 3.1 210 15:38 25.12.2019
1721 Clear 19 1024 82 10000 3.1 210 15:38 25.12.2019
1722 Clear 18 1024 82 10000 3.1 190 15:19 25.12.2019
1723 Clear 19 1024 82 10000 3.1 210 15:19 25.12.2019
1724 Clear 18 1024 82 10000 3.1 190 14:56 25.12.2019
1725 Clear 18 1024 87 10000 3.1 190 14:37 25.12.2019
1726 Clear 18 1024 87 10000 3.1 190 14:19 25.12.2019
1727 Clear 18 1025 93 8000 3.6 210 13:44 25.12.2019
1728 Clear 18 1025 77 10000 3.1 190 13:21 25.12.2019
1729 Clear 19 1026 72 10000 2.6 200 12:56 25.12.2019
1730 Clear 19 1026 72 10000 2.6 210 12:38 25.12.2019
1731 Clear 18 1026 72 10000 2.6 210 12:19 25.12.2019
1732 Clear 17 1026 67 10000 0.5 0 11:43 25.12.2019
1733 Clear 16 1026 67 10000 0.5 0 11:22 25.12.2019
1734 Clear 15 1026 72 10000 0.5 0 10:58 25.12.2019
1735 Clear 14 1026 81 10000 1 0 10:36 25.12.2019
1736 Clear 13 1026 81 10000 1 0 10:18 25.12.2019
1737 Clear 10 1026 87 10000 1.5 20 09:43 25.12.2019
1738 Clear 9 1026 87 10000 0.5 0 09:25 25.12.2019
1739 Clear 9 1026 87 10000 0.5 0 08:46 25.12.2019
1740 Clear 8 1025 87 10000 1 0 08:26 25.12.2019
1741 Clear 9 1025 87 10000 0.5 0 07:45 25.12.2019
1742 Clear 9 1025 93 10000 1.5 360 07:23 25.12.2019
1743 Clear 9 1025 93 10000 1 30 06:49 25.12.2019
1744 Clear 10 1025 93 10000 1 0 06:22 25.12.2019
1745 Clear 10 1026 93 10000 1 10 04:50 25.12.2019
1746 Clear 10 1026 87 10000 2.6 10 04:26 25.12.2019
1747 Clear 10 1026 93 10000 2.1 30 03:58 25.12.2019
1748 Clear 10 1026 93 10000 1 360 03:40 25.12.2019
1749 Clear 10 1026 93 10000 1.5 350 02:39 25.12.2019
1750 Clouds 10 1027 93 10000 1.5 360 01:58 25.12.2019
1751 Clouds 10 1027 93 10000 1.5 350 01:25 25.12.2019
1752 Clouds 10 1027 93 10000 1.5 20 00:50 25.12.2019
1753 Clouds 10 1027 93 10000 1.5 330 00:29 25.12.2019
1754 Clouds 11 1027 93 10000 1.5 360 23:55 24.12.2019
1755 Clouds 11 1027 93 10000 1.5 10 23:37 24.12.2019
1756 Clouds 11 1027 93 10000 1.5 10 23:19 24.12.2019
1757 Clouds 12 1027 93 10000 1.5 360 22:40 24.12.2019
1758 Clouds 12 1027 93 10000 1.5 360 22:21 24.12.2019
1759 Clouds 12 1027 93 10000 1.5 10 21:43 24.12.2019
1760 Clouds 12 1027 93 10000 1.5 10 21:22 24.12.2019
1761 Clouds 13 1027 87 10000 2.1 360 20:54 24.12.2019
1762 Clouds 13 1027 93 10000 1.5 20 20:36 24.12.2019
1763 Clouds 13 1027 93 10000 1.5 20 20:18 24.12.2019
1764 Clouds 13 1027 93 10000 2.1 60 19:43 24.12.2019
1765 Clouds 14 1027 93 10000 2.1 60 19:19 24.12.2019
1766 Clouds 15 1027 87 10000 1.5 110 18:43 24.12.2019
1767 Clouds 15 1027 87 10000 1.5 110 18:23 24.12.2019
1768 Clouds 15 1026 82 10000 2.1 120 17:58 24.12.2019
1769 Clouds 16 1026 82 10000 2.6 140 17:37 24.12.2019
1770 Clouds 17 1026 82 10000 2.6 140 17:19 24.12.2019
1771 Clouds 18 1026 77 10000 2.1 150 16:55 24.12.2019
1772 Clouds 19 1026 77 10000 2.6 170 16:36 24.12.2019
1773 Clouds 18 1026 77 10000 2.6 170 16:18 24.12.2019
1774 Clouds 18 1026 72 10000 3.1 180 15:54 24.12.2019
1775 Clouds 19 1026 72 10000 3.1 180 15:36 24.12.2019
1776 Clouds 19 1026 72 10000 3.1 180 15:18 24.12.2019
1777 Clouds 18 1026 72 10000 2.6 170 14:54 24.12.2019
1778 Clouds 19 1026 72 10000 3.1 180 14:36 24.12.2019
1779 Clear 19 1026 72 10000 3.1 180 14:18 24.12.2019
1780 Clear 19 1027 72 10000 3.1 180 13:54 24.12.2019
1781 Clear 18 1027 72 10000 2.6 170 13:36 24.12.2019
1782 Clear 18 1028 68 10000 1 0 13:18 24.12.2019
1783 Clear 20 1028 68 10000 1 0 12:54 24.12.2019
1784 Clear 19 1028 72 10000 0.5 200 12:36 24.12.2019
1785 Clear 18 1028 72 10000 0.5 200 12:18 24.12.2019
1786 Clear 18 1028 82 10000 1 0 11:54 24.12.2019
1787 Clear 17 1028 93 10000 0.5 0 11:36 24.12.2019
1788 Clouds 15 1028 93 10000 0.5 0 11:18 24.12.2019
1789 Clouds 15 1028 100 7000 0.5 0 10:54 24.12.2019
1790 Fog 14 1028 93 450 1 20 10:36 24.12.2019
1791 Fog 12 1028 100 150 1 0 10:18 24.12.2019
1792 Fog 12 1028 100 150 1 0 09:54 24.12.2019
1793 Mist 10 1028 100 4500 1.5 350 09:36 24.12.2019
1794 Mist 10 1028 100 4500 1.5 350 09:18 24.12.2019
1795 Clouds 9 1027 93 9000 2.1 360 08:42 24.12.2019
1796 Clear 9 1027 93 9000 2.1 360 08:19 24.12.2019
1797 Clear 9 1027 93 10000 1.5 340 07:44 24.12.2019
1798 Clear 9 1027 93 10000 2.6 350 07:22 24.12.2019
1799 Clear 9 1026 93 10000 2.1 10 06:41 24.12.2019
1800 Clear 9 1026 93 10000 2.1 10 06:22 24.12.2019
1801 Clear 9 1026 87 10000 1 350 05:56 24.12.2019
1802 Clear 9 1026 87 10000 1 350 05:56 24.12.2019
1803 Clear 9 1026 87 10000 2.1 10 05:20 24.12.2019
1804 Clear 10 1026 87 10000 1 0 04:33 24.12.2019
1805 Clear 10 1026 87 10000 1 0 03:50 24.12.2019
1806 Clear 10 1026 81 10000 2.1 350 02:59 24.12.2019
1807 Clear 11 1026 81 10000 2.6 350 02:18 24.12.2019
1808 Clear 11 1027 81 10000 1.5 90 01:42 24.12.2019
1809 Clear 12 1027 81 10000 1.5 90 01:19 24.12.2019
1810 Clear 12 1027 62 10000 2.6 360 00:41 24.12.2019
1811 Clear 12 1027 62 10000 2.6 360 00:22 24.12.2019
1812 Clear 12 1027 71 10000 1.5 0 23:55 23.12.2019
1813 Clear 13 1026 81 10000 3.1 230 23:37 23.12.2019
1814 Clear 13 1026 81 10000 3.1 230 23:37 23.12.2019
1815 Clear 12 1027 76 10000 2.6 340 23:19 23.12.2019
1816 Clear 13 1027 71 10000 1 0 22:54 23.12.2019
1817 Clear 12 1027 66 10000 1 0 22:36 23.12.2019
1818 Clear 12 1027 66 10000 1 0 22:18 23.12.2019
1819 Clear 12 1027 71 10000 1.5 360 21:54 23.12.2019
1820 Clear 12 1027 66 10000 1 0 21:36 23.12.2019
1821 Clear 12 1027 66 10000 1 0 21:18 23.12.2019
1822 Clear 12 1026 62 10000 1 0 20:55 23.12.2019
1823 Clear 13 1026 58 10000 1.5 240 20:37 23.12.2019
1824 Clear 13 1026 58 10000 1.5 240 20:18 23.12.2019
1825 Clear 14 1025 62 10000 2.1 270 19:54 23.12.2019
1826 Clear 13 1026 58 10000 0.5 0 19:36 23.12.2019
1827 Clear 13 1026 58 10000 0.5 0 19:18 23.12.2019
1828 Clear 14 1026 47 10000 1.5 340 18:54 23.12.2019
1829 Clear 14 1026 47 10000 2.1 320 18:36 23.12.2019
1830 Clear 15 1026 44 10000 2.6 340 18:18 23.12.2019
1831 Clear 15 1026 44 10000 2.6 340 17:55 23.12.2019
1832 Clear 15 1025 38 10000 2.6 320 17:37 23.12.2019
1833 Clear 15 1025 38 10000 2.6 320 17:37 23.12.2019
1834 Clear 16 1025 38 10000 2.6 320 17:18 23.12.2019
1835 Clear 17 1025 39 10000 3.6 320 16:42 23.12.2019
1836 Clear 16 1025 39 10000 3.6 320 16:19 23.12.2019
1837 Clear 16 1025 39 10000 3.6 320 16:19 23.12.2019
1838 Clear 17 1025 39 10000 2.6 330 15:58 23.12.2019
1839 Clear 17 1025 45 10000 2.6 320 15:38 23.12.2019
1840 Clear 17 1025 45 10000 2.6 320 15:19 23.12.2019
1841 Clear 17 1025 48 10000 3.6 320 14:58 23.12.2019
1842 Clear 17 1025 55 10000 5.7 330 14:39 23.12.2019
1843 Clear 17 1025 55 10000 5.7 330 14:21 23.12.2019
1844 Clear 17 1025 48 10000 6.2 320 13:58 23.12.2019
1845 Clear 17 1025 48 10000 4.1 300 13:40 23.12.2019
1846 Clear 17 1025 48 10000 4.1 300 13:22 23.12.2019
1847 Clear 17 1025 48 10000 6.2 300 12:56 23.12.2019
1848 Clear 17 1026 45 10000 5.1 300 12:37 23.12.2019
1849 Clear 17 1026 45 10000 5.1 300 12:19 23.12.2019
1850 Clear 16 1026 44 10000 5.1 310 11:44 23.12.2019
1851 Clear 16 1026 44 10000 5.1 310 11:26 23.12.2019
1852 Clear 16 1026 44 10000 3.6 310 10:59 23.12.2019
1853 Clear 16 1026 44 10000 4.6 320 10:40 23.12.2019
1854 Clear 15 1026 47 10000 4.1 0 10:21 23.12.2019
1855 Clear 15 1026 47 10000 4.1 0 09:59 23.12.2019
1856 Clear 15 1025 47 10000 5.1 310 09:40 23.12.2019
1857 Clear 15 1025 47 10000 5.1 310 09:21 23.12.2019
1858 Clear 15 1024 47 10000 3.6 330 08:56 23.12.2019
1859 Clear 14 1024 50 10000 4.1 340 08:38 23.12.2019
1860 Clear 14 1024 50 10000 4.1 340 08:20 23.12.2019
1861 Clear 15 1023 47 10000 6.2 310 07:43 23.12.2019
1862 Clear 15 1023 47 10000 6.2 310 07:20 23.12.2019
1863 Clear 15 1022 51 10000 3.6 300 06:53 23.12.2019
1864 Clear 15 1022 51 10000 3.6 300 06:53 23.12.2019
1865 Clear 15 1021 47 10000 5.7 300 06:26 23.12.2019
1866 Clear 16 1021 47 10000 5.1 290 05:53 23.12.2019
1867 Clear 16 1021 51 10000 7.2 280 05:29 23.12.2019
1868 Clear 16 1020 44 10000 7.2 300 04:31 23.12.2019
1869 Clear 16 1019 48 10000 9.8 320 03:24 23.12.2019
1870 Clear 16 1019 48 10000 8.7 310 02:41 23.12.2019
1871 Clouds 16 1019 48 10000 8.7 310 02:19 23.12.2019
1872 Clouds 16 1018 55 10000 6.7 310 01:43 23.12.2019
1873 Clouds 17 1018 59 10000 4.6 320 01:25 23.12.2019
1874 Clouds 17 1017 63 10000 5.7 300 00:44 23.12.2019
1875 Clouds 17 1017 63 10000 5.7 300 00:23 23.12.2019
1876 Clouds 18 1016 55 10000 9.8 290 23:40 22.12.2019
1877 Clouds 18 1016 55 10000 9.8 290 23:22 22.12.2019
1878 Clouds 18 1015 48 10000 8.7 280 22:58 22.12.2019
1879 Clouds 18 1014 52 10000 8.2 260 22:40 22.12.2019
1880 Clouds 18 1014 52 10000 8.2 260 22:40 22.12.2019
1881 Clouds 18 1014 52 10000 8.2 260 22:22 22.12.2019
1882 Clouds 18 1014 52 10000 10.3 260 21:59 22.12.2019
1883 Clouds 18 1014 48 10000 10.3 260 21:40 22.12.2019
1884 Clouds 19 1014 48 10000 10.3 260 21:21 22.12.2019
1885 Clouds 19 1013 48 10000 10.8 260 20:59 22.12.2019
1886 Clouds 19 1013 48 10000 10.3 260 20:39 22.12.2019
1887 Clouds 19 1013 48 10000 10.3 260 20:19 22.12.2019
1888 Clouds 18 1013 52 10000 9.3 250 19:57 22.12.2019
1889 Clouds 18 1013 52 10000 8.2 250 19:39 22.12.2019
1890 Clouds 18 1013 52 10000 8.2 250 19:20 22.12.2019
1891 Clouds 17 1013 59 10000 8.7 240 18:42 22.12.2019
1892 Clouds 18 1013 52 10000 8.7 240 18:24 22.12.2019
1893 Clouds 17 1013 52 10000 8.7 240 17:57 22.12.2019
1894 Clouds 18 1013 52 10000 7.7 250 17:39 22.12.2019
1895 Clear 18 1013 52 10000 8.7 250 17:19 22.12.2019
1896 Clear 18 1013 52 10000 8.7 250 16:58 22.12.2019
1897 Clear 18 1012 52 10000 6.7 260 16:40 22.12.2019
1898 Clear 18 1012 52 10000 6.7 260 16:40 22.12.2019
1899 Clear 18 1012 52 10000 6.7 260 16:22 22.12.2019
1900 Clear 18 1013 52 10000 8.2 250 15:57 22.12.2019
1901 Clear 18 1013 48 10000 6.2 270 15:38 22.12.2019
1902 Clear 19 1013 48 10000 6.2 270 15:20 22.12.2019
1903 Clear 19 1013 45 10000 8.7 280 14:55 22.12.2019
1904 Clear 18 1013 45 10000 8.2 260 14:37 22.12.2019
1905 Clear 18 1013 45 10000 8.2 260 14:18 22.12.2019
1906 Clear 19 1013 45 10000 6.2 260 13:55 22.12.2019
1907 Clear 19 1013 45 10000 5.1 270 13:37 22.12.2019
1908 Clear 19 1013 45 10000 5.1 270 13:19 22.12.2019
1909 Clear 19 1014 42 10000 7.2 280 12:56 22.12.2019
1910 Clear 18 1014 39 10000 10.8 290 12:37 22.12.2019
1911 Clear 18 1014 39 10000 10.8 290 12:19 22.12.2019
1912 Clear 18 1014 45 10000 10.8 290 11:56 22.12.2019
1913 Clear 18 1013 42 10000 10.3 290 11:38 22.12.2019
1914 Clear 18 1013 42 10000 10.3 290 11:19 22.12.2019
1915 Clear 18 1013 42 10000 10.3 290 10:55 22.12.2019
1916 Clear 18 1012 45 10000 11.8 290 10:37 22.12.2019
1917 Clear 18 1012 45 10000 11.8 290 10:18 22.12.2019
1918 Clear 18 1011 42 10000 13.4 290 09:57 22.12.2019
1919 Clear 18 1010 45 10000 11.8 290 09:39 22.12.2019
1920 Clear 18 1010 45 10000 11.8 290 09:20 22.12.2019
1921 Clear 18 1010 51 10000 6.2 260 08:42 22.12.2019
1922 Clear 17 1010 51 10000 6.2 260 08:22 22.12.2019
1923 Clear 17 1009 51 10000 7.7 260 07:43 22.12.2019
1924 Clear 17 1009 51 10000 7.7 260 07:21 22.12.2019
1925 Clear 17 1008 55 10000 9.3 270 06:52 22.12.2019
1926 Clear 17 1008 55 10000 9.3 270 06:25 22.12.2019
1927 Rain 17 1008 55 10000 9.8 270 05:32 22.12.2019
1928 Rain 17 1007 51 10000 9.8 270 04:46 22.12.2019
1929 Clear 17 1007 48 10000 10.8 270 04:25 22.12.2019
1930 Clear 18 1005 42 10000 10.3 270 02:45 22.12.2019
1931 Clouds 19 1005 42 10000 10.3 270 02:20 22.12.2019
1932 Clouds 19 1004 48 10000 10.8 270 01:31 22.12.2019
1933 Clear 19 1004 45 10000 12.3 260 00:56 22.12.2019
1934 Clear 19 1004 55 10000 11.3 260 00:36 22.12.2019
1935 Rain 19 1004 55 10000 11.3 260 00:18 22.12.2019
1936 Clear 19 1004 63 10000 11.3 250 23:40 21.12.2019
1937 Clouds 18 1004 63 10000 11.3 250 23:21 21.12.2019
1938 Clouds 18 1004 77 10000 4.6 260 22:57 21.12.2019
1939 Clouds 18 1003 77 10000 7.2 250 22:37 21.12.2019
1940 Clouds 18 1003 77 10000 7.2 250 22:18 21.12.2019
1941 Clouds 18 1004 72 10000 5.1 250 21:54 21.12.2019
1942 Clouds 18 1004 72 10000 4.1 260 21:36 21.12.2019
1943 Clouds 18 1004 72 10000 4.1 260 21:18 21.12.2019
1944 Clouds 18 1004 72 10000 3.1 260 20:56 21.12.2019
1945 Clouds 19 1004 77 10000 4.6 240 20:37 21.12.2019
1946 Clouds 19 1004 77 10000 4.6 240 20:19 21.12.2019
1947 Clouds 18 1004 72 10000 4.6 240 19:55 21.12.2019
1948 Clouds 18 1004 82 10000 3.6 200 19:36 21.12.2019
1949 Clouds 18 1004 82 10000 3.6 200 19:18 21.12.2019
1950 Clouds 18 1003 77 10000 4.1 210 18:41 21.12.2019
1951 Clouds 18 1003 77 10000 4.1 210 18:23 21.12.2019
1952 Clouds 18 1004 77 10000 5.1 200 17:56 21.12.2019
1953 Clouds 18 1003 77 10000 5.7 200 17:38 21.12.2019
1954 Clouds 18 1003 77 10000 5.7 200 17:20 21.12.2019
1955 Clouds 18 1004 77 10000 5.7 210 16:57 21.12.2019
1956 Clouds 18 1004 82 10000 5.7 190 16:39 21.12.2019
1957 Clouds 19 1004 82 10000 5.7 190 16:18 21.12.2019
1958 Clouds 19 1004 82 10000 2.6 170 15:56 21.12.2019
1959 Clouds 19 1004 77 10000 5.1 200 15:37 21.12.2019
1960 Clouds 19 1004 77 10000 5.1 200 15:18 21.12.2019
1961 Clouds 19 1005 77 10000 5.7 200 14:43 21.12.2019
1962 Rain 19 1005 77 10000 5.7 200 14:24 21.12.2019
1963 Rain 19 1005 82 10000 6.2 220 13:59 21.12.2019
1964 Rain 18 1005 82 10000 6.2 210 13:40 21.12.2019
1965 Rain 19 1005 82 10000 6.2 210 13:20 21.12.2019
1966 Rain 19 1005 82 10000 6.2 210 13:20 21.12.2019
1967 Clouds 19 1005 88 10000 6.7 200 12:57 21.12.2019
1968 Clouds 19 1006 77 10000 5.7 190 12:39 21.12.2019
1969 Clouds 19 1006 77 10000 5.7 190 12:21 21.12.2019
1970 Clouds 19 1006 77 10000 4.6 180 11:57 21.12.2019
1971 Clouds 20 1007 64 10000 5.7 240 11:39 21.12.2019
1972 Clear 20 1007 64 10000 5.7 240 11:21 21.12.2019
1973 Clear 19 1006 72 10000 2.1 170 10:41 21.12.2019
1974 Clear 19 1006 72 10000 2.1 170 10:23 21.12.2019
1975 Clear 19 1006 68 10000 3.1 230 09:59 21.12.2019
1976 Clear 18 1006 82 10000 2.6 190 09:41 21.12.2019
1977 Clear 18 1006 82 10000 2.6 190 09:20 21.12.2019
1978 Clear 18 1006 68 10000 3.6 250 08:55 21.12.2019
1979 Clear 18 1005 68 10000 5.7 260 08:36 21.12.2019
1980 Clouds 18 1005 68 10000 5.7 260 08:18 21.12.2019
1981 Clouds 18 1004 72 10000 6.2 260 07:41 21.12.2019
1982 Clouds 18 1004 72 10000 6.2 260 07:21 21.12.2019
1983 Clouds 18 1003 82 10000 6.2 240 06:42 21.12.2019
1984 Clouds 17 1003 82 10000 6.2 240 06:24 21.12.2019
1985 Clouds 17 1003 82 10000 4.6 250 05:45 21.12.2019
1986 Rain 17 1003 82 10000 4.6 250 04:56 21.12.2019
1987 Rain 17 1003 88 10000 6.2 250 03:56 21.12.2019
1988 Rain 18 1002 88 4600 9.3 240 02:40 21.12.2019
1989 Rain 17 1002 88 10000 10.3 250 01:55 21.12.2019
1990 Rain 17 1002 88 9000 9.3 240 01:27 21.12.2019
1991 Rain 17 1003 88 9000 9.3 240 00:51 21.12.2019
1992 Rain 18 1003 88 10000 7.2 230 00:31 21.12.2019
1993 Rain 18 1003 88 10000 6.7 230 23:56 20.12.2019
1994 Rain 17 1003 93 10000 6.7 220 23:37 20.12.2019
1995 Rain 17 1004 93 9000 7.2 230 23:18 20.12.2019
1996 Rain 16 1004 93 9000 5.7 230 22:40 20.12.2019
1997 Rain 16 1004 93 9000 5.7 230 22:21 20.12.2019
1998 Rain 16 1004 93 9000 6.7 230 21:57 20.12.2019
1999 Drizzle 17 1005 93 5000 9.8 220 21:39 20.12.2019
2000 Drizzle 17 1005 93 5000 9.8 220 21:19 20.12.2019
2001 Drizzle 17 1005 82 8000 8.2 230 20:39 20.12.2019
2002 Drizzle 17 1005 82 8000 8.2 230 20:20 20.12.2019
2003 Rain 17 1005 82 10000 8.2 230 19:58 20.12.2019
2004 Rain 17 1005 82 9000 6.7 230 19:40 20.12.2019
2005 Rain 17 1005 82 9000 6.7 230 19:19 20.12.2019
2006 Rain 17 1005 87 10000 5.1 240 18:54 20.12.2019
2007 Rain 17 1005 93 8000 6.7 230 18:36 20.12.2019
2008 Rain 17 1005 93 8000 6.7 230 18:18 20.12.2019
2009 Rain 17 1005 82 10000 5.1 230 17:42 20.12.2019
2010 Rain 17 1005 82 10000 5.1 230 17:42 20.12.2019
2011 Clouds 17 1004 93 6000 8.2 250 17:21 20.12.2019
2012 Rain 17 1005 82 10000 7.2 230 16:59 20.12.2019
2013 Clouds 17 1004 93 6000 7.2 260 16:39 20.12.2019
2014 Clouds 17 1004 93 6000 9.8 250 16:20 20.12.2019
2015 Rain 17 1005 82 10000 5.7 230 15:57 20.12.2019
2016 Clouds 18 1004 93 8000 9.3 260 15:38 20.12.2019
2017 Rain 18 1005 77 10000 6.2 220 15:19 20.12.2019
2018 Rain 18 1004 77 10000 6.7 220 14:57 20.12.2019
2019 Rain 18 1004 77 10000 6.7 220 14:57 20.12.2019
2020 Clouds 18 1003 82 9000 7.7 260 14:39 20.12.2019
2021 Rain 18 1004 77 10000 8.7 230 14:20 20.12.2019
2022 Clouds 18 1004 82 9000 6.7 260 13:42 20.12.2019
2023 Rain 18 1005 77 10000 10.3 230 13:21 20.12.2019
2024 Rain 18 1006 82 10000 8.7 230 12:59 20.12.2019
2025 Rain 18 1005 82 9000 7.7 250 12:41 20.12.2019
2026 Rain 17 1005 88 9000 6.7 240 12:19 20.12.2019
2027 Rain 17 1006 82 10000 8.2 230 11:59 20.12.2019
2028 Rain 17 1006 88 9000 6.7 240 11:40 20.12.2019
2029 Rain 17 1007 82 10000 7.2 220 11:21 20.12.2019
2030 Drizzle 17 1007 82 9000 7.7 230 10:59 20.12.2019
2031 Rain 17 1006 88 9000 5.7 240 10:41 20.12.2019
2032 Rain 17 1006 77 9000 6.7 230 10:20 20.12.2019
2033 Rain 17 1006 82 7000 5.7 200 09:56 20.12.2019
2034 Rain 17 1007 82 10000 5.7 200 09:38 20.12.2019
2035 Rain 17 1006 77 9000 6.2 220 09:19 20.12.2019
2036 Rain 17 1006 72 10000 7.2 220 08:43 20.12.2019
2037 Clouds 17 1007 77 10000 6.2 190 08:25 20.12.2019
2038 Clouds 17 1007 82 10000 5.1 200 07:59 20.12.2019
2039 Clouds 17 1008 82 10000 5.1 200 07:41 20.12.2019
2040 Clouds 17 1007 77 10000 6.2 200 07:19 20.12.2019
2041 Clouds 17 1008 72 10000 6.2 200 06:52 20.12.2019
2042 Clouds 17 1008 77 10000 4.6 210 06:33 20.12.2019
2043 Clouds 16 1008 77 10000 5.7 180 05:55 20.12.2019
2044 Clouds 17 1009 77 10000 4.6 180 05:36 20.12.2019
2045 Clouds 17 1010 77 10000 5.7 190 04:33 20.12.2019
2046 Clouds 16 1011 77 10000 4.1 190 03:30 20.12.2019
2047 Clouds 16 1010 77 10000 5.7 200 02:44 20.12.2019
2048 Clouds 16 1012 82 10000 5.7 190 01:54 20.12.2019
2049 Clouds 16 1013 77 10000 5.7 200 01:33 20.12.2019
2050 Clouds 16 1014 82 10000 3.1 180 00:48 20.12.2019
2051 Clouds 16 1014 87 10000 2.1 150 00:29 20.12.2019
2052 Clouds 15 1014 87 10000 1.5 150 23:56 19.12.2019
2053 Clouds 15 1014 87 10000 2.1 100 23:38 19.12.2019
2054 Clouds 15 1014 87 10000 2.1 100 23:18 19.12.2019
2055 Clouds 15 1014 82 10000 1.5 170 22:37 19.12.2019
2056 Clouds 15 1015 82 10000 2.6 190 22:19 19.12.2019
2057 Clouds 15 1016 82 10000 3.6 200 21:56 19.12.2019
2058 Clouds 15 1015 82 10000 2.6 180 21:37 19.12.2019
2059 Clouds 16 1015 82 10000 4.1 200 21:19 19.12.2019
2060 Clouds 16 1016 82 10000 5.1 190 20:56 19.12.2019
2061 Clouds 16 1016 82 10000 5.1 200 20:37 19.12.2019
2062 Clouds 16 1016 82 10000 5.1 200 20:18 19.12.2019
2063 Clouds 16 1016 82 10000 4.1 200 19:57 19.12.2019
2064 Clouds 16 1016 82 10000 4.1 200 19:57 19.12.2019
2065 Clouds 15 1015 82 10000 3.6 200 19:39 19.12.2019
2066 Clouds 15 1016 87 10000 3.6 200 19:19 19.12.2019
2067 Clouds 15 1016 82 10000 3.1 200 18:55 19.12.2019
2068 Clouds 15 1016 82 10000 2.6 220 18:37 19.12.2019
2069 Clouds 15 1016 82 10000 2.6 220 18:18 19.12.2019
2070 Clouds 15 1016 82 10000 2.6 210 17:54 19.12.2019
2071 Clouds 16 1016 82 10000 2.6 200 17:36 19.12.2019
2072 Clouds 16 1016 82 10000 2.6 200 17:18 19.12.2019
2073 Clouds 16 1016 82 10000 4.6 230 16:54 19.12.2019
2074 Clouds 16 1017 82 10000 4.1 210 16:36 19.12.2019
2075 Clouds 16 1017 82 10000 4.1 210 16:18 19.12.2019
2076 Clouds 16 1017 77 10000 6.7 230 15:54 19.12.2019
2077 Clouds 16 1017 67 10000 5.7 230 15:36 19.12.2019
2078 Clouds 16 1017 67 10000 5.7 230 15:18 19.12.2019
2079 Clouds 16 1016 72 10000 5.7 240 14:42 19.12.2019
2080 Clouds 16 1017 77 10000 3.6 220 14:20 19.12.2019
2081 Clouds 16 1018 72 10000 3.6 230 13:58 19.12.2019
2082 Clouds 16 1016 77 10000 4.1 230 13:38 19.12.2019
2083 Clouds 16 1016 72 10000 4.1 210 13:19 19.12.2019
2084 Clouds 16 1017 67 10000 4.1 210 12:57 19.12.2019
2085 Clouds 16 1018 67 10000 4.1 200 12:38 19.12.2019
2086 Clouds 16 1018 67 10000 4.1 200 12:19 19.12.2019
2087 Clouds 16 1018 67 10000 4.1 200 12:19 19.12.2019
2088 Clouds 16 1018 67 10000 4.1 200 12:19 19.12.2019
2089 Clouds 16 1018 77 10000 4.1 200 11:58 19.12.2019
2090 Clouds 15 1019 82 10000 1.5 200 11:39 19.12.2019
2091 Clouds 14 1019 82 10000 1.5 200 11:18 19.12.2019
2092 Clouds 14 1019 82 10000 1.5 200 11:18 19.12.2019
2093 Clouds 13 1019 93 10000 1 0 10:56 19.12.2019
2094 Clouds 12 1019 93 10000 0.5 0 10:37 19.12.2019
2095 Clouds 11 1019 93 10000 0.5 0 10:19 19.12.2019
2096 Clouds 13 1019 93 10000 0.5 0 09:54 19.12.2019
2097 Clouds 11 1019 100 10000 1 0 09:36 19.12.2019
2098 Fog 11 1018 100 9000 3.04 248 09:18 19.12.2019
2099 Fog 11 1018 100 3000 1 0 08:41 19.12.2019
2100 Clouds 10 1018 100 10000 1 0 08:19 19.12.2019
2101 Fog 10 1017 100 3000 3.9 282 07:58 19.12.2019
2102 Fog 10 1017 100 3000 1 60 07:38 19.12.2019
2103 Rain 10 1017 100 3000 1 60 07:20 19.12.2019
2104 Rain 12 1017 93 1800 1.5 80 06:50 19.12.2019
2105 Rain 10 1017 100 10000 1 0 06:30 19.12.2019
2106 Clouds 12 1017 100 10000 1.5 320 05:55 19.12.2019
2107 Clouds 11 1017 93 10000 1 0 05:36 19.12.2019
2108 Clouds 11 1017 93 8000 0.5 0 04:52 19.12.2019
2109 Fog 11 1016 100 3000 3.12 310 03:45 19.12.2019
2110 Clouds 12 1018 93 10000 2.1 290 02:24 19.12.2019
2111 Clear 11 1018 93 10000 2.1 50 01:23 19.12.2019
2112 Clouds 11 1018 100 10000 3.27 321 00:44 19.12.2019
2113 Clear 11 1019 93 10000 1 0 00:25 19.12.2019
2114 Clear 11 1019 93 10000 1.5 340 23:59 18.12.2019
2115 Clear 11 1018 93 10000 1.5 350 23:41 18.12.2019
2116 Clouds 11 1017 100 10000 2.28 298 23:19 18.12.2019
2117 Clear 12 1018 93 10000 1 10 22:56 18.12.2019
2118 Clear 12 1018 87 10000 1.5 350 22:38 18.12.2019
2119 Clouds 13 1017 100 10000 0.5 0 22:20 18.12.2019
2120 Clear 12 1018 87 10000 2.1 10 21:57 18.12.2019
2121 Clear 12 1018 93 10000 1.5 330 21:39 18.12.2019
2122 Clear 12 1018 93 10000 1.5 330 21:20 18.12.2019
2123 Clear 12 1018 93 10000 1.5 30 20:56 18.12.2019
2124 Clear 13 1018 93 9000 1 0 20:38 18.12.2019
2125 Clouds 13 1017 93 10000 0.5 40 20:19 18.12.2019
2126 Clouds 15 1017 93 10000 0.5 0 19:56 18.12.2019
2127 Clouds 15 1017 87 10000 1 290 19:37 18.12.2019
2128 Clouds 15 1016 87 10000 2.85 342 19:18 18.12.2019
2129 Clouds 15 1016 87 10000 1 0 18:45 18.12.2019
2130 Clouds 16 1017 82 10000 3.1 290 18:25 18.12.2019
2131 Clouds 16 1016 82 10000 2.6 300 17:58 18.12.2019
2132 Clouds 16 1015 82 10000 2.85 342 17:40 18.12.2019
2133 Clouds 16 1015 77 10000 3.1 310 17:20 18.12.2019
2134 Clouds 17 1016 72 10000 3.1 300 16:58 18.12.2019
2135 Clouds 17 1016 72 10000 3.6 310 16:40 18.12.2019
2136 Clouds 17 1016 72 10000 3.6 310 16:22 18.12.2019
2137 Clouds 17 1016 72 10000 5.7 320 15:57 18.12.2019
2138 Clouds 18 1016 72 10000 4.6 310 15:38 18.12.2019
2139 Clouds 18 1016 72 10000 4.6 310 15:20 18.12.2019
2140 Clouds 18 1015 72 10000 3.1 310 14:43 18.12.2019
2141 Clouds 18 1015 72 10000 3.1 310 14:22 18.12.2019
2142 Clouds 18 1016 72 10000 1.5 340 13:58 18.12.2019
2143 Clouds 17 1016 77 10000 0.5 240 13:39 18.12.2019
2144 Clouds 17 1016 77 10000 0.5 240 13:21 18.12.2019
2145 Clear 17 1016 72 10000 1 0 12:59 18.12.2019
2146 Clear 17 1016 77 10000 1 0 12:40 18.12.2019
2147 Clear 16 1016 77 10000 1 0 12:21 18.12.2019
2148 Clear 16 1016 82 10000 1 0 11:57 18.12.2019
2149 Clear 17 1016 72 10000 1.5 140 11:39 18.12.2019
2150 Clear 16 1016 77 10000 0.5 80 11:20 18.12.2019
2151 Clear 15 1016 77 10000 0.5 80 10:57 18.12.2019
2152 Clear 15 1015 87 10000 1.5 20 10:39 18.12.2019
2153 Clear 14 1015 87 10000 1.5 20 10:20 18.12.2019
2154 Clear 14 1015 87 10000 1.5 20 10:20 18.12.2019
2155 Clear 14 1015 81 10000 2.1 330 09:57 18.12.2019
2156 Clear 14 1015 87 10000 1.5 340 09:20 18.12.2019
2157 Clear 12 1014 76 10000 2.6 80 08:43 18.12.2019
2158 Clear 12 1014 76 10000 2.6 80 08:24 18.12.2019
2159 Clouds 12 1014 71 10000 1.5 20 07:57 18.12.2019
2160 Clouds 12 1014 66 10000 1.5 90 07:39 18.12.2019
2161 Clouds 12 1014 66 10000 1.5 90 07:20 18.12.2019
2162 Clouds 13 1013 66 10000 2.1 30 06:52 18.12.2019
2163 Clouds 13 1013 59 10000 4.1 320 06:24 18.12.2019
2164 Clouds 12 1013 81 10000 2.1 320 05:35 18.12.2019
2165 Clouds 12 1013 81 10000 2.1 320 05:35 18.12.2019
2166 Clouds 12 1013 81 10000 2.6 350 04:31 18.12.2019
2167 Clouds 13 1012 71 10000 1 0 02:47 18.12.2019
2168 Clouds 13 1012 71 10000 1 0 02:28 18.12.2019
2169 Clouds 14 1012 66 10000 2.6 340 01:45 18.12.2019
2170 Clouds 13 1012 66 10000 2.6 340 01:27 18.12.2019
2171 Clouds 13 1012 71 10000 3.1 350 00:55 18.12.2019
2172 Clouds 14 1012 71 10000 2.1 20 00:37 18.12.2019
2173 Clouds 14 1012 71 10000 2.1 20 00:19 18.12.2019
2174 Clouds 14 1012 76 10000 2.1 30 23:43 17.12.2019
2175 Clouds 14 1012 76 10000 2.1 30 23:24 17.12.2019
2176 Clouds 14 1012 76 10000 1.5 350 22:57 17.12.2019
2177 Clouds 13 1012 76 10000 3.1 350 22:39 17.12.2019
2178 Clouds 13 1012 76 10000 3.1 350 22:20 17.12.2019
2179 Clouds 14 1012 76 10000 1.5 30 21:57 17.12.2019
2180 Clouds 14 1012 71 10000 3.1 20 21:39 17.12.2019
2181 Clouds 14 1012 71 10000 3.1 20 21:20 17.12.2019
2182 Clouds 14 1012 71 10000 3.1 20 21:20 17.12.2019
2183 Clouds 15 1012 71 10000 2.6 350 20:59 17.12.2019
2184 Clouds 15 1011 76 10000 2.6 350 20:40 17.12.2019
2185 Clouds 15 1011 76 10000 2.6 350 20:19 17.12.2019
2186 Rain 15 1011 82 10000 2.1 330 19:57 17.12.2019
2187 Rain 15 1011 72 10000 2.1 70 19:39 17.12.2019
2188 Rain 15 1011 72 10000 2.1 70 19:20 17.12.2019
2189 Rain 16 1010 72 10000 2.1 70 18:57 17.12.2019
2190 Rain 16 1010 67 10000 3.1 60 18:38 17.12.2019
2191 Rain 16 1009 77 10000 3.1 90 18:20 17.12.2019
2192 Rain 16 1009 77 10000 3.1 90 17:55 17.12.2019
2193 Rain 17 1009 72 10000 1 60 17:37 17.12.2019
2194 Clouds 17 1008 67 10000 2.1 20 17:18 17.12.2019
2195 Clouds 17 1008 67 10000 2.1 20 16:55 17.12.2019
2196 Clouds 18 1008 67 10000 1.5 360 16:37 17.12.2019
2197 Clouds 18 1008 67 10000 1.5 360 16:18 17.12.2019
2198 Clouds 18 1008 63 10000 1.5 110 15:38 17.12.2019
2199 Clouds 18 1008 63 10000 1.5 110 15:20 17.12.2019
2200 Clouds 18 1008 63 10000 1.5 170 14:57 17.12.2019
2201 Clouds 18 1008 63 10000 1.5 140 14:39 17.12.2019
2202 Clouds 18 1008 63 10000 1.5 140 14:19 17.12.2019
2203 Clouds 19 1008 63 10000 1.5 190 13:59 17.12.2019
2204 Clouds 18 1008 63 10000 1 190 13:41 17.12.2019
2205 Clouds 18 1008 63 10000 1 190 13:19 17.12.2019
2206 Clouds 18 1008 68 10000 1 0 12:59 17.12.2019
2207 Clouds 18 1008 68 10000 1 0 12:59 17.12.2019
2208 Clouds 18 1008 72 9000 1 80 12:39 17.12.2019
2209 Clouds 17 1008 77 8000 1 0 12:18 17.12.2019
2210 Clouds 17 1007 68 7000 0.5 0 12:18 17.12.2019
2211 Clouds 18 1008 77 8000 1 0 11:58 17.12.2019
2212 Clouds 18 1008 77 8000 1.5 140 11:37 17.12.2019
2213 Clouds 17 1007 72 8000 1.5 190 11:19 17.12.2019
2214 Clouds 17 1008 82 7000 2.6 190 10:58 17.12.2019
2215 Clouds 17 1007 77 8000 3.1 180 10:40 17.12.2019
2216 Clouds 17 1007 77 8000 3.1 180 10:21 17.12.2019
2217 Clouds 17 1007 77 8000 1 180 09:59 17.12.2019
2218 Clouds 17 1007 77 8000 1.5 180 09:40 17.12.2019
2219 Clouds 17 1007 77 8000 1.5 180 09:19 17.12.2019
2220 Clouds 17 1007 72 9000 1 0 08:56 17.12.2019
2221 Clouds 17 1006 67 10000 1.5 10 08:38 17.12.2019
2222 Clouds 17 1006 67 10000 1.5 10 08:19 17.12.2019
2223 Clouds 16 1006 72 9000 1 0 07:45 17.12.2019
2224 Clouds 16 1006 72 9000 1 0 07:26 17.12.2019
2225 Clouds 16 1005 77 9000 4.1 190 06:56 17.12.2019
2226 Clouds 16 1005 63 10000 4.6 190 06:34 17.12.2019
2227 Clouds 15 1004 82 10000 0.5 40 05:52 17.12.2019
2228 Clouds 15 1005 76 10000 2.1 30 05:34 17.12.2019
2229 Clouds 15 1005 76 10000 1.5 50 04:30 17.12.2019
2230 Clouds 15 1006 76 10000 1.5 30 02:33 17.12.2019
2231 Clouds 16 1006 72 10000 2.6 10 01:54 17.12.2019
2232 Clouds 15 1006 72 10000 2.1 60 00:58 17.12.2019
2233 Clouds 15 1006 82 10000 2.6 60 00:37 17.12.2019
2234 Clouds 15 1006 82 10000 2.6 60 00:19 17.12.2019
2235 Clouds 15 1007 82 10000 2.1 50 23:41 16.12.2019
2236 Clouds 15 1007 77 10000 3.1 50 23:19 16.12.2019
2237 Clouds 15 1007 77 10000 3.1 50 23:19 16.12.2019
2238 Clouds 15 1007 77 10000 3.1 50 22:56 16.12.2019
2239 Clouds 15 1007 72 10000 2.6 50 22:37 16.12.2019
2240 Clouds 15 1007 72 10000 2.6 50 22:19 16.12.2019
2241 Clouds 15 1007 72 10000 3.1 50 21:55 16.12.2019
2242 Clouds 15 1007 76 10000 2.1 40 21:37 16.12.2019
2243 Clouds 15 1007 76 10000 3.1 50 21:19 16.12.2019
2244 Clouds 15 1007 76 10000 3.1 50 20:57 16.12.2019
2245 Clouds 15 1007 76 10000 3.6 70 20:37 16.12.2019
2246 Clouds 15 1007 76 10000 3.6 70 20:19 16.12.2019
2247 Clouds 15 1008 72 10000 3.1 60 19:55 16.12.2019
2248 Clouds 15 1008 76 10000 3.1 70 19:37 16.12.2019
2249 Clouds 15 1008 76 10000 2.6 70 19:18 16.12.2019
2250 Clouds 15 1008 76 10000 2.6 70 19:18 16.12.2019
2251 Clouds 16 1007 77 10000 2.1 70 18:56 16.12.2019
2252 Clouds 16 1008 77 10000 2.6 60 18:37 16.12.2019
2253 Clouds 16 1007 72 10000 1 0 18:19 16.12.2019
2254 Clouds 16 1007 72 10000 1 0 18:19 16.12.2019
2255 Clouds 16 1008 72 10000 1.5 70 17:57 16.12.2019
2256 Clouds 17 1008 67 10000 2.1 100 17:37 16.12.2019
2257 Clouds 17 1008 67 10000 2.1 150 17:19 16.12.2019
2258 Clouds 17 1008 67 10000 2.1 150 16:55 16.12.2019
2259 Clouds 18 1009 63 10000 2.6 170 16:37 16.12.2019
2260 Clouds 18 1009 63 10000 2.6 170 16:18 16.12.2019
2261 Clouds 18 1009 68 10000 3.1 200 15:57 16.12.2019
2262 Clouds 18 1009 68 10000 1.5 180 15:38 16.12.2019
2263 Clouds 18 1009 68 10000 1.5 180 15:19 16.12.2019
2264 Clouds 18 1009 68 10000 2.6 140 14:55 16.12.2019
2265 Clouds 19 1009 72 10000 1.5 90 14:36 16.12.2019
2266 Clouds 19 1009 72 10000 1.5 90 14:18 16.12.2019
2267 Clouds 18 1010 72 10000 1.5 110 13:55 16.12.2019
2268 Clouds 19 1010 68 10000 3.1 110 13:37 16.12.2019
2269 Clouds 18 1011 72 10000 2.6 90 13:19 16.12.2019
2270 Clouds 18 1011 72 10000 2.6 90 12:56 16.12.2019
2271 Clouds 18 1012 72 10000 2.1 80 12:38 16.12.2019
2272 Clouds 18 1012 72 10000 2.1 90 12:18 16.12.2019
2273 Clouds 17 1012 72 10000 2.1 90 11:57 16.12.2019
2274 Clouds 17 1012 72 10000 3.1 70 11:38 16.12.2019
2275 Clouds 16 1013 82 5000 2.1 50 11:19 16.12.2019
2276 Clouds 15 1013 82 5000 2.1 50 10:54 16.12.2019
2277 Clouds 15 1013 87 10000 1.5 360 10:36 16.12.2019
2278 Clouds 14 1013 87 10000 1.5 360 10:18 16.12.2019
2279 Clouds 14 1013 87 10000 2.1 20 09:43 16.12.2019
2280 Clouds 13 1013 87 10000 2.1 20 09:24 16.12.2019
2281 Clouds 14 1013 93 10000 2.1 70 08:40 16.12.2019
2282 Clouds 14 1013 93 10000 2.1 70 08:40 16.12.2019
2283 Clouds 13 1013 93 10000 2.1 70 08:20 16.12.2019
2284 Clouds 13 1013 93 10000 2.1 70 08:20 16.12.2019
2285 Clouds 13 1013 87 10000 2.1 60 07:53 16.12.2019
2286 Clouds 13 1013 87 10000 2.1 70 07:31 16.12.2019
2287 Clouds 13 1013 87 10000 2.1 70 07:31 16.12.2019
2288 Clouds 13 1013 93 10000 2.1 80 06:58 16.12.2019
2289 Clouds 13 1013 87 10000 1.5 80 06:40 16.12.2019
2290 Clouds 13 1013 87 10000 1.5 60 06:20 16.12.2019
2291 Clouds 13 1013 87 10000 1 0 05:41 16.12.2019
2292 Clouds 13 1013 87 10000 1 0 05:22 16.12.2019
2293 Clouds 13 1014 87 10000 1 40 03:28 16.12.2019
2294 Clouds 12 1015 87 10000 1 0 01:51 16.12.2019
2295 Clouds 12 1015 87 10000 1 0 01:33 16.12.2019
2296 Clouds 12 1015 93 10000 0.5 310 00:39 16.12.2019
2297 Clouds 12 1015 87 10000 1 0 00:20 16.12.2019
2298 Clouds 12 1015 87 10000 1 0 23:57 15.12.2019
2299 Clouds 12 1015 93 10000 0.5 0 23:37 15.12.2019
2300 Clouds 12 1015 87 10000 1 360 23:19 15.12.2019
2301 Clouds 12 1015 93 10000 1.5 350 22:54 15.12.2019
2302 Clouds 11 1015 93 10000 1.5 350 22:36 15.12.2019
2303 Clouds 12 1015 93 10000 1.5 350 22:18 15.12.2019
2304 Clouds 12 1015 93 10000 1 350 21:54 15.12.2019
2305 Clouds 12 1015 93 10000 1.5 350 21:36 15.12.2019
2306 Clouds 12 1015 93 10000 1.5 350 21:18 15.12.2019
2307 Clouds 13 1015 87 10000 1 350 20:54 15.12.2019
2308 Clouds 13 1015 87 10000 1.5 350 20:36 15.12.2019
2309 Clouds 13 1015 87 10000 1.5 350 20:18 15.12.2019
2310 Clouds 13 1015 87 10000 1.5 20 19:54 15.12.2019
2311 Clouds 14 1015 82 10000 2.6 230 19:36 15.12.2019
2312 Clouds 14 1015 82 10000 3.1 220 19:18 15.12.2019
2313 Clouds 14 1015 82 10000 3.1 220 18:54 15.12.2019
2314 Clouds 14 1015 82 10000 3.1 220 18:36 15.12.2019
2315 Clouds 14 1015 82 10000 2.6 220 18:18 15.12.2019
2316 Clouds 15 1015 77 10000 2.6 210 17:54 15.12.2019
2317 Clouds 15 1015 77 10000 2.6 210 17:36 15.12.2019
2318 Clouds 15 1015 67 10000 3.6 210 17:18 15.12.2019
2319 Clouds 16 1015 67 10000 4.6 220 16:42 15.12.2019
2320 Clouds 16 1015 67 10000 4.6 220 16:22 15.12.2019
2321 Clouds 16 1015 67 10000 5.1 210 15:57 15.12.2019
2322 Clouds 17 1015 63 10000 5.1 210 15:39 15.12.2019
2323 Clouds 17 1015 63 10000 5.1 210 15:19 15.12.2019
2324 Clouds 17 1015 59 10000 5.7 220 14:56 15.12.2019
2325 Clouds 17 1015 55 10000 6.7 210 14:37 15.12.2019
2326 Clouds 17 1015 55 10000 6.7 210 14:19 15.12.2019
2327 Clouds 17 1016 55 10000 5.1 240 13:58 15.12.2019
2328 Clouds 17 1016 63 10000 5.7 220 13:39 15.12.2019
2329 Clouds 17 1016 63 10000 5.7 220 13:20 15.12.2019
2330 Clouds 17 1016 67 10000 4.6 210 12:57 15.12.2019
2331 Clouds 17 1016 63 10000 3.6 210 12:39 15.12.2019
2332 Clouds 17 1015 77 10000 5.1 240 12:21 15.12.2019
2333 Clouds 17 1016 63 10000 4.1 230 11:59 15.12.2019
2334 Clouds 16 1017 72 10000 3.1 230 11:37 15.12.2019
2335 Clouds 16 1016 77 10000 1.5 250 11:19 15.12.2019
2336 Clouds 15 1016 77 10000 1.5 250 10:55 15.12.2019
2337 Clouds 15 1016 87 10000 1 50 10:37 15.12.2019
2338 Clouds 13 1016 93 10000 1 0 10:19 15.12.2019
2339 Clouds 13 1016 93 10000 1 0 09:56 15.12.2019
2340 Clouds 13 1016 93 10000 2.1 340 09:37 15.12.2019
2341 Clouds 13 1016 93 10000 2.1 340 09:18 15.12.2019
2342 Clouds 12 1015 93 10000 1.5 350 08:41 15.12.2019
2343 Clouds 11 1015 93 10000 1.5 350 08:22 15.12.2019
2344 Clouds 11 1015 93 10000 1.5 360 07:57 15.12.2019
2345 Clouds 13 1015 87 10000 1 340 07:37 15.12.2019
2346 Clouds 12 1015 87 10000 2.1 20 06:57 15.12.2019
2347 Clouds 11 1014 100 10000 1.5 60 06:23 15.12.2019
2348 Clouds 11 1015 93 10000 1.5 10 05:39 15.12.2019
2349 Clouds 11 1015 93 10000 0.5 0 05:19 15.12.2019
2350 Clouds 12 1016 87 10000 1 0 04:18 15.12.2019
2351 Clouds 13 1016 87 10000 1 0 02:35 15.12.2019
2352 Clouds 13 1016 87 10000 1.5 10 01:57 15.12.2019
2353 Clouds 13 1017 87 10000 1 0 01:39 15.12.2019
2354 Clouds 13 1017 87 10000 1 0 01:18 15.12.2019
2355 Clouds 13 1017 81 10000 2.1 300 00:44 15.12.2019
2356 Clouds 13 1017 81 10000 2.1 300 00:44 15.12.2019
2357 Clouds 13 1017 81 10000 2.1 300 00:25 15.12.2019
2358 Clouds 14 1017 82 10000 3.6 240 23:41 14.12.2019
2359 Clouds 14 1016 87 10000 2.6 250 23:22 14.12.2019
2360 Clouds 14 1017 82 10000 2.1 250 22:59 14.12.2019
2361 Clouds 14 1016 82 10000 3.6 270 22:41 14.12.2019
2362 Clouds 14 1016 82 10000 3.6 270 22:22 14.12.2019
2363 Clouds 15 1016 82 10000 3.6 260 21:56 14.12.2019
2364 Clouds 15 1016 87 10000 3.6 240 21:38 14.12.2019
2365 Clouds 15 1016 87 10000 4.1 240 21:19 14.12.2019
2366 Clouds 15 1016 87 10000 4.1 240 21:19 14.12.2019
2367 Clouds 14 1017 87 8000 2.1 90 20:59 14.12.2019
2368 Clouds 14 1017 93 7000 1.5 70 20:40 14.12.2019
2369 Clouds 14 1017 87 10000 1 0 20:20 14.12.2019
2370 Clouds 14 1017 87 10000 1 0 19:57 14.12.2019
2371 Clouds 15 1016 82 10000 1.5 320 19:38 14.12.2019
2372 Clouds 14 1016 82 10000 1.5 320 19:20 14.12.2019
2373 Clouds 15 1016 77 10000 1.5 200 18:56 14.12.2019
2374 Clouds 15 1016 67 10000 0.5 0 18:38 14.12.2019
2375 Clouds 16 1016 82 10000 2.6 210 18:19 14.12.2019
2376 Clouds 16 1015 77 10000 2.6 120 17:44 14.12.2019
2377 Clouds 16 1015 77 10000 2.6 120 17:24 14.12.2019
2378 Clouds 17 1015 72 10000 3.1 200 16:59 14.12.2019
2379 Clouds 18 1015 72 10000 4.1 210 16:40 14.12.2019
2380 Clouds 18 1015 72 10000 4.1 210 16:19 14.12.2019
2381 Clouds 18 1015 72 10000 4.1 210 16:19 14.12.2019
2382 Clouds 18 1015 68 10000 3.6 210 15:43 14.12.2019
2383 Clouds 19 1015 68 10000 3.6 210 15:25 14.12.2019
2384 Clouds 19 1015 59 10000 3.1 220 14:59 14.12.2019
2385 Clouds 19 1015 40 10000 4.6 300 14:39 14.12.2019
2386 Clouds 20 1015 40 10000 4.6 300 14:21 14.12.2019
2387 Clouds 20 1015 42 10000 4.1 290 13:59 14.12.2019
2388 Clouds 20 1015 59 10000 4.1 220 13:41 14.12.2019
2389 Clouds 20 1015 59 10000 4.1 220 13:19 14.12.2019
2390 Clouds 20 1015 59 10000 4.1 220 13:19 14.12.2019
2391 Clouds 20 1016 42 10000 4.1 310 12:56 14.12.2019
2392 Clouds 19 1016 45 10000 3.6 310 12:37 14.12.2019
2393 Clouds 19 1016 42 10000 3.6 340 12:19 14.12.2019
2394 Clouds 19 1016 42 10000 3.6 340 11:56 14.12.2019
2395 Clouds 19 1016 48 10000 3.1 280 11:37 14.12.2019
2396 Clouds 18 1016 48 10000 2.6 260 11:18 14.12.2019
2397 Clouds 18 1016 48 10000 2.6 260 10:56 14.12.2019
2398 Clouds 18 1015 52 10000 2.6 280 10:38 14.12.2019
2399 Clouds 17 1015 52 10000 2.6 280 10:19 14.12.2019
2400 Clouds 16 1015 67 10000 2.1 270 09:43 14.12.2019
2401 Clouds 16 1015 67 10000 2.1 270 09:23 14.12.2019
2402 Clouds 16 1014 62 10000 1.5 310 08:57 14.12.2019
2403 Clouds 16 1014 62 10000 1 0 08:38 14.12.2019
2404 Clear 16 1014 62 10000 1 0 08:19 14.12.2019
2405 Clear 16 1013 67 10000 0.5 270 07:40 14.12.2019
2406 Clear 16 1013 67 10000 0.5 270 07:21 14.12.2019
2407 Clear 16 1013 67 10000 0.5 270 07:21 14.12.2019
2408 Clouds 16 1012 59 10000 4.1 230 06:48 14.12.2019
2409 Clear 16 1013 63 10000 3.1 270 06:30 14.12.2019
2410 Clouds 17 1011 52 10000 6.2 300 05:50 14.12.2019
2411 Clear 17 1011 63 10000 7.7 330 03:44 14.12.2019
2412 Clear 18 1011 59 10000 4.1 320 02:24 14.12.2019
2413 Clouds 18 1011 59 10000 5.7 220 01:44 14.12.2019
2414 Clouds 18 1011 59 10000 5.7 220 01:20 14.12.2019
2415 Clouds 18 1011 59 10000 9.8 230 00:43 14.12.2019
2416 Clouds 18 1011 59 10000 9.8 230 00:22 14.12.2019
2417 Clouds 18 1010 63 10000 8.7 230 23:41 13.12.2019
2418 Clouds 18 1010 63 10000 8.2 220 23:20 13.12.2019
2419 Clouds 18 1010 63 10000 8.2 220 22:59 13.12.2019
2420 Clouds 19 1010 63 10000 2.6 170 22:40 13.12.2019
2421 Clouds 19 1010 63 10000 2.6 170 22:18 13.12.2019
2422 Clouds 19 1009 63 10000 8.2 230 21:46 13.12.2019
2423 Clouds 19 1009 63 10000 8.2 230 21:22 13.12.2019
2424 Clouds 19 1008 72 10000 8.2 240 20:59 13.12.2019
2425 Clouds 18 1008 72 10000 8.2 240 20:40 13.12.2019
2426 Clouds 18 1008 72 10000 8.2 240 20:21 13.12.2019
2427 Clouds 19 1009 45 10000 3.1 0 19:58 13.12.2019
2428 Clouds 19 1007 68 10000 7.7 230 19:40 13.12.2019
2429 Clouds 19 1008 55 10000 3.1 200 19:20 13.12.2019
2430 Clouds 19 1007 45 10000 3.1 180 18:57 13.12.2019
2431 Clouds 19 1006 63 10000 8.2 220 18:39 13.12.2019
2432 Clouds 19 1006 63 10000 8.2 220 18:18 13.12.2019
2433 Clouds 19 1006 45 10000 6.7 280 17:41 13.12.2019
2434 Clouds 19 1006 45 10000 6.7 280 17:19 13.12.2019
2435 Clouds 19 1005 63 10000 9.8 230 17:19 13.12.2019
2436 Clouds 19 1005 45 10000 7.7 280 16:59 13.12.2019
2437 Clouds 19 1005 45 10000 5.7 270 16:39 13.12.2019
2438 Clouds 19 1005 59 10000 11.3 240 16:20 13.12.2019
2439 Clouds 19 1004 63 10000 12.3 240 15:43 13.12.2019
2440 Clouds 19 1005 52 10000 6.7 260 15:23 13.12.2019
2441 Clouds 19 1005 52 10000 6.2 260 14:58 13.12.2019
2442 Clouds 19 1004 63 10000 13.4 250 14:40 13.12.2019
2443 Clouds 19 1004 55 10000 5.1 250 14:20 13.12.2019
2444 Clouds 19 1004 55 10000 5.1 250 14:20 13.12.2019
2445 Clouds 19 1004 63 10000 10.3 250 13:56 13.12.2019
2446 Clouds 19 1006 52 10000 4.6 260 13:37 13.12.2019
2447 Clouds 19 1006 52 10000 4.6 260 13:19 13.12.2019
2448 Clouds 19 1005 63 10000 11.8 260 12:42 13.12.2019
2449 Clouds 19 1006 63 10000 7.2 240 12:20 13.12.2019
2450 Clouds 18 1005 68 10000 11.8 260 12:20 13.12.2019
2451 Clouds 18 1006 63 10000 8.2 260 11:57 13.12.2019
2452 Clouds 18 1006 63 10000 7.7 250 11:39 13.12.2019
2453 Clouds 18 1005 72 10000 12.3 260 11:19 13.12.2019
2454 Clouds 18 1005 72 10000 12.3 270 10:41 13.12.2019
2455 Clouds 18 1006 63 10000 8.7 250 10:22 13.12.2019
2456 Clouds 18 1004 72 10000 13.4 270 09:54 13.12.2019
2457 Clouds 17 1004 67 10000 8.2 250 09:36 13.12.2019
2458 Clouds 17 1003 77 10000 12.3 260 09:18 13.12.2019
2459 Clouds 17 1003 77 10000 12.3 260 09:18 13.12.2019
2460 Clouds 17 1004 72 10000 8.7 250 08:40 13.12.2019
2461 Clouds 17 1004 72 10000 8.7 250 08:22 13.12.2019
2462 Clouds 17 1004 72 10000 12.9 260 07:44 13.12.2019
2463 Clouds 17 1005 67 10000 8.7 250 07:20 13.12.2019
2464 Clouds 16 1005 67 10000 8.7 250 06:50 13.12.2019
2465 Clouds 16 1005 67 10000 7.7 240 06:28 13.12.2019
2466 Clouds 16 1004 77 10000 11.8 260 05:44 13.12.2019
2467 Clouds 16 1005 72 10000 8.2 220 05:24 13.12.2019
2468 Clouds 16 1006 72 10000 8.7 230 04:35 13.12.2019
2469 Clouds 16 1007 67 10000 6.7 250 03:31 13.12.2019
2470 Clouds 15 1007 67 10000 6.7 260 02:32 13.12.2019
2471 Clouds 15 1006 67 10000 12.3 260 01:43 13.12.2019
2472 Clouds 15 1008 62 10000 7.2 270 00:55 13.12.2019
2473 Clouds 14 1008 67 10000 7.2 260 00:36 13.12.2019
2474 Clouds 14 1008 62 10000 7.2 260 23:57 12.12.2019
2475 Clouds 14 1009 62 10000 7.2 260 23:37 12.12.2019
2476 Clouds 14 1007 67 10000 9.8 260 23:19 12.12.2019
2477 Clouds 14 1009 62 10000 6.2 260 22:54 12.12.2019
2478 Clouds 14 1009 62 10000 6.7 260 22:36 12.12.2019
2479 Clouds 14 1008 62 10000 7.2 250 22:18 12.12.2019
2480 Clouds 14 1009 62 10000 5.7 280 21:54 12.12.2019
2481 Clouds 14 1009 62 10000 5.1 290 21:36 12.12.2019
2482 Clouds 14 1009 71 10000 5.7 270 21:18 12.12.2019
2483 Clouds 14 1010 71 10000 2.1 240 20:55 12.12.2019
2484 Clouds 14 1010 67 10000 4.6 240 20:37 12.12.2019
2485 Clouds 14 1010 67 10000 4.6 240 20:19 12.12.2019
2486 Clouds 13 1011 71 10000 3.6 230 19:42 12.12.2019
2487 Clouds 13 1011 71 10000 3.6 230 19:22 12.12.2019
2488 Clouds 13 1011 71 10000 2.1 210 18:58 12.12.2019
2489 Clouds 13 1011 71 10000 1 0 18:39 12.12.2019
2490 Clouds 13 1011 71 10000 1 0 18:20 12.12.2019
2491 Clouds 13 1012 71 10000 3.6 250 17:57 12.12.2019
2492 Clouds 14 1012 67 10000 4.1 250 17:39 12.12.2019
2493 Clouds 14 1012 67 10000 4.1 250 17:20 12.12.2019
2494 Clouds 14 1013 62 10000 3.1 250 16:57 12.12.2019
2495 Clouds 14 1013 62 10000 2.6 260 16:39 12.12.2019
2496 Clouds 14 1013 62 10000 2.6 260 16:20 12.12.2019
2497 Clouds 15 1013 54 10000 3.1 0 15:56 12.12.2019
2498 Clouds 15 1013 54 10000 3.1 0 15:56 12.12.2019
2499 Clouds 15 1012 67 10000 5.7 240 15:38 12.12.2019
2500 Clouds 15 1012 67 10000 5.7 260 15:18 12.12.2019
2501 Clouds 15 1013 63 10000 6.2 260 14:38 12.12.2019
2502 Clouds 15 1013 63 10000 6.2 260 14:38 12.12.2019
2503 Clouds 15 1014 51 10000 4.1 270 14:20 12.12.2019
2504 Clouds 16 1015 48 10000 5.1 290 13:58 12.12.2019
2505 Clouds 16 1016 44 10000 5.7 280 13:40 12.12.2019
2506 Clouds 16 1016 44 10000 5.7 280 13:21 12.12.2019
2507 Clouds 16 1016 44 10000 4.6 280 12:59 12.12.2019
2508 Clouds 16 1016 48 10000 4.6 280 12:40 12.12.2019
2509 Clouds 15 1016 51 10000 4.1 290 12:22 12.12.2019
2510 Clouds 15 1017 47 10000 5.1 300 11:57 12.12.2019
2511 Clouds 15 1018 51 10000 4.1 290 11:38 12.12.2019
2512 Clouds 15 1018 51 10000 4.1 290 11:38 12.12.2019
2513 Clouds 15 1018 51 10000 4.1 290 11:20 12.12.2019
2514 Clouds 15 1018 47 10000 5.1 290 10:57 12.12.2019
2515 Clouds 15 1017 51 10000 3.6 290 10:39 12.12.2019
2516 Clouds 14 1018 50 10000 4.1 290 10:21 12.12.2019
2517 Clouds 14 1017 50 10000 3.1 280 09:55 12.12.2019
2518 Clouds 14 1017 50 10000 3.1 280 09:55 12.12.2019
2519 Clouds 14 1017 54 10000 4.6 290 09:37 12.12.2019
2520 Clouds 14 1017 54 10000 4.6 290 09:19 12.12.2019
2521 Clouds 14 1016 54 10000 4.6 290 08:46 12.12.2019
2522 Clouds 14 1018 50 10000 4.1 300 08:27 12.12.2019
2523 Clear 13 1018 54 10000 4.6 300 07:50 12.12.2019
2524 Clear 13 1017 54 10000 5.1 300 07:28 12.12.2019
2525 Clear 13 1017 54 10000 6.2 300 06:57 12.12.2019
2526 Clear 13 1017 54 10000 5.1 300 06:36 12.12.2019
2527 Clear 13 1018 54 10000 5.1 300 05:49 12.12.2019
2528 Clear 14 1018 50 10000 5.1 310 05:25 12.12.2019
2529 Clear 14 1018 54 10000 5.1 300 04:31 12.12.2019
2530 Clouds 13 1018 54 10000 2.6 190 02:41 12.12.2019
2531 Clear 13 1019 54 10000 5.1 310 02:23 12.12.2019
2532 Clear 13 1019 54 10000 5.7 320 01:58 12.12.2019
2533 Clear 13 1019 58 10000 3.6 310 01:35 12.12.2019
2534 Clouds 13 1019 54 10000 3.6 270 00:49 12.12.2019
2535 Clouds 13 1020 54 10000 5.7 310 00:22 12.12.2019
2536 Clouds 13 1020 58 10000 5.7 310 23:58 11.12.2019
2537 Clouds 13 1019 76 10000 0.5 280 23:37 11.12.2019
2538 Clouds 13 1020 62 10000 3.6 310 23:18 11.12.2019
2539 Clouds 13 1019 66 10000 4.6 310 22:56 11.12.2019
2540 Clouds 14 1019 58 10000 3.1 320 22:38 11.12.2019
2541 Clouds 14 1018 67 10000 3.6 30 22:18 11.12.2019
2542 Clouds 14 1018 67 10000 3.6 30 22:18 11.12.2019
2543 Clouds 14 1019 66 10000 2.6 10 21:54 11.12.2019
2544 Clouds 14 1019 62 10000 2.6 340 21:36 11.12.2019
2545 Clouds 14 1017 67 10000 7.2 350 21:18 11.12.2019
2546 Clouds 14 1018 62 10000 4.1 350 20:55 11.12.2019
2547 Clouds 14 1018 62 10000 5.1 340 20:36 11.12.2019
2548 Clouds 14 1017 67 10000 9.3 330 20:18 11.12.2019
2549 Clouds 14 1016 62 10000 7.7 330 19:42 11.12.2019
2550 Clouds 14 1017 62 10000 8.7 330 19:23 11.12.2019
2551 Clouds 14 1017 62 10000 6.2 330 18:59 11.12.2019
2552 Clouds 14 1016 62 10000 6.2 350 18:40 11.12.2019
2553 Clouds 14 1015 67 10000 5.7 330 18:19 11.12.2019
2554 Clouds 15 1016 67 10000 3.1 320 17:56 11.12.2019
2555 Clouds 15 1016 62 10000 5.7 340 17:38 11.12.2019
2556 Clouds 15 1016 62 10000 5.7 340 17:38 11.12.2019
2557 Clouds 15 1016 62 10000 5.7 340 17:18 11.12.2019
2558 Clouds 15 1016 55 10000 2.6 350 16:55 11.12.2019
2559 Clouds 16 1015 63 10000 3.1 250 16:37 11.12.2019
2560 Clouds 16 1014 67 10000 5.1 240 16:18 11.12.2019
2561 Clouds 16 1015 59 10000 4.6 240 15:56 11.12.2019
2562 Clouds 16 1014 72 10000 5.7 240 15:37 11.12.2019
2563 Clouds 16 1016 55 10000 6.7 230 15:19 11.12.2019
2564 Clouds 16 1016 67 10000 4.6 230 14:55 11.12.2019
2565 Clouds 16 1016 67 10000 6.2 220 14:36 11.12.2019
2566 Clouds 17 1016 67 10000 6.2 220 14:18 11.12.2019
2567 Clouds 16 1017 77 10000 3.1 210 13:43 11.12.2019
2568 Clouds 16 1017 77 10000 3.1 210 13:23 11.12.2019
2569 Clouds 16 1018 72 10000 1.5 180 12:59 11.12.2019
2570 Clouds 15 1019 76 10000 2.1 160 12:39 11.12.2019
2571 Clouds 15 1019 76 10000 2.1 160 12:21 11.12.2019
2572 Clouds 14 1020 71 10000 1 0 11:58 11.12.2019
2573 Clouds 13 1020 66 10000 0.5 100 11:39 11.12.2019
2574 Clouds 13 1019 87 10000 4.18 224 11:19 11.12.2019
2575 Clouds 11 1020 71 10000 0.5 110 10:59 11.12.2019
2576 Clouds 10 1020 71 10000 1 0 10:40 11.12.2019
2577 Clouds 10 1019 93 10000 4.18 224 10:21 11.12.2019
2578 Clouds 10 1019 93 10000 4.18 224 10:21 11.12.2019
2579 Clouds 9 1020 70 10000 1.5 360 09:57 11.12.2019
2580 Clouds 8 1020 75 10000 2.1 350 09:38 11.12.2019
2581 Clouds 7 1019 93 10000 0.5 50 09:19 11.12.2019
2582 Clouds 6 1020 75 10000 2.1 10 08:55 11.12.2019
2583 Clouds 6 1020 75 10000 1.5 360 08:36 11.12.2019
2584 Clouds 6 1019 100 10000 1 60 08:18 11.12.2019
2585 Clouds 6 1020 100 10000 3.19 214 07:43 11.12.2019
2586 Clouds 6 1021 80 10000 2.1 360 07:24 11.12.2019
2587 Clouds 6 1020 93 10000 1 0 06:46 11.12.2019
2588 Clouds 6 1021 80 10000 1.5 70 06:25 11.12.2019
2589 Clouds 6 1021 80 10000 1.5 20 05:56 11.12.2019
2590 Clouds 6 1022 81 10000 1 0 05:36 11.12.2019
2591 Clouds 6 1022 81 10000 2.1 20 04:53 11.12.2019
2592 Clouds 6 1023 87 10000 2.6 350 03:37 11.12.2019
2593 Clouds 7 1022 100 10000 0.5 70 02:38 11.12.2019
2594 Clear 9 1024 87 10000 1 0 01:22 11.12.2019
2595 Clouds 9 1023 93 10000 1 70 00:45 11.12.2019
2596 Clouds 9 1023 93 10000 2.12 106 00:19 11.12.2019
2597 Clear 9 1024 81 10000 1.5 330 23:46 10.12.2019
2598 Clear 9 1024 76 10000 1 0 23:27 10.12.2019
2599 Clear 10 1024 81 10000 2.6 240 22:57 10.12.2019
2600 Clouds 10 1023 93 10000 1.5 70 22:39 10.12.2019
2601 Clear 11 1024 76 10000 1.5 0 22:21 10.12.2019
2602 Clear 10 1024 76 10000 1.5 310 21:55 10.12.2019
2603 Clear 11 1024 71 10000 3.6 330 21:37 10.12.2019
2604 Clear 11 1024 71 10000 3.6 330 21:18 10.12.2019
2605 Clear 11 1024 81 10000 3.1 230 20:56 10.12.2019
2606 Clear 12 1024 71 10000 2.6 330 20:37 10.12.2019
2607 Clear 12 1024 71 10000 2.6 330 20:19 10.12.2019
2608 Clouds 13 1024 71 10000 2.6 290 19:54 10.12.2019
2609 Clouds 12 1024 71 10000 4.1 270 19:36 10.12.2019
2610 Clouds 12 1024 71 10000 4.1 270 19:18 10.12.2019
2611 Clouds 12 1022 66 10000 3.6 260 18:40 10.12.2019
2612 Clouds 13 1022 62 10000 1.5 310 18:20 10.12.2019
2613 Clouds 13 1023 62 10000 3.6 260 17:58 10.12.2019
2614 Clouds 14 1023 58 10000 2.1 270 17:39 10.12.2019
2615 Clouds 14 1022 71 10000 3.6 230 17:20 10.12.2019
2616 Clouds 14 1022 67 10000 3.1 230 16:43 10.12.2019
2617 Clouds 15 1023 58 10000 3.6 210 16:21 10.12.2019
2618 Clouds 15 1023 58 10000 4.6 200 15:59 10.12.2019
2619 Clouds 16 1023 58 10000 4.6 210 15:38 10.12.2019
2620 Clouds 16 1022 59 10000 3.6 220 15:18 10.12.2019
2621 Clouds 16 1022 59 10000 3.6 220 15:18 10.12.2019
2622 Clouds 16 1024 58 10000 4.1 200 14:56 10.12.2019
2623 Clouds 16 1024 54 10000 3.1 220 14:37 10.12.2019
2624 Clouds 16 1024 54 10000 3.1 220 14:37 10.12.2019
2625 Clear 15 1024 54 10000 3.1 220 14:19 10.12.2019
2626 Clear 15 1025 54 10000 4.1 220 13:56 10.12.2019
2627 Clear 15 1025 54 10000 4.1 220 13:56 10.12.2019
2628 Clouds 15 1024 59 10000 1.5 180 13:38 10.12.2019
2629 Clouds 16 1025 54 10000 2.1 0 13:19 10.12.2019
2630 Clouds 15 1024 55 10000 1 0 12:47 10.12.2019
2631 Clouds 15 1026 54 10000 1.5 130 12:26 10.12.2019
2632 Clouds 14 1026 54 10000 2.6 100 11:55 10.12.2019
2633 Clouds 14 1026 62 10000 3.6 80 11:36 10.12.2019
2634 Clouds 14 1025 62 10000 4.1 50 11:18 10.12.2019
2635 Clear 14 1026 54 10000 3.6 340 10:42 10.12.2019
2636 Clear 14 1026 54 10000 3.6 340 10:23 10.12.2019
2637 Clear 14 1025 54 10000 2.6 340 09:57 10.12.2019
2638 Clear 14 1025 54 10000 2.1 0 09:38 10.12.2019
2639 Clear 14 1025 54 10000 2.1 0 09:38 10.12.2019
2640 Clear 14 1025 54 10000 2.1 0 09:20 10.12.2019
2641 Clear 13 1025 58 10000 1.5 10 08:57 10.12.2019
2642 Clear 14 1024 62 10000 2.1 0 08:39 10.12.2019
2643 Clouds 13 1023 66 10000 4.1 360 08:39 10.12.2019
2644 Clouds 13 1023 66 10000 6.2 330 08:19 10.12.2019
2645 Clouds 13 1023 62 10000 7.2 320 07:44 10.12.2019
2646 Clear 13 1024 66 10000 1 270 07:26 10.12.2019
2647 Clear 14 1024 62 10000 2.1 130 06:50 10.12.2019
2648 Clear 13 1023 66 10000 2.1 200 06:25 10.12.2019
2649 Clear 13 1024 62 10000 2.1 0 05:56 10.12.2019
2650 Clear 13 1024 66 10000 2.6 110 05:34 10.12.2019
2651 Clear 14 1024 62 10000 2.1 0 03:55 10.12.2019
2652 Clear 14 1024 62 10000 2.1 0 03:55 10.12.2019
2653 Clear 13 1024 62 10000 2.1 0 02:57 10.12.2019
2654 Clouds 14 1024 58 10000 2.1 110 01:55 10.12.2019
2655 Clear 14 1024 58 10000 3.6 10 01:28 10.12.2019
2656 Clear 14 1024 62 10000 2.6 0 00:58 10.12.2019
2657 Clear 14 1024 62 10000 3.6 0 00:25 10.12.2019
2658 Clear 14 1023 58 10000 5.1 360 23:57 09.12.2019
2659 Clear 14 1023 58 10000 4.6 340 23:37 09.12.2019
2660 Clear 14 1023 58 10000 4.6 340 23:18 09.12.2019
2661 Clear 14 1023 58 10000 6.2 340 22:55 09.12.2019
2662 Clouds 14 1023 58 10000 2.1 50 22:37 09.12.2019
2663 Clear 14 1023 58 10000 9.8 330 22:18 09.12.2019
2664 Clear 15 1022 58 10000 8.2 330 21:55 09.12.2019
2665 Clear 15 1022 62 10000 8.2 340 21:37 09.12.2019
2666 Clear 15 1022 62 10000 8.2 340 21:18 09.12.2019
2667 Clear 15 1022 58 10000 10.3 330 20:55 09.12.2019
2668 Clear 15 1022 58 10000 9.8 320 20:37 09.12.2019
2669 Clear 15 1022 58 10000 9.8 320 20:37 09.12.2019
2670 Clear 15 1022 58 10000 9.8 320 20:18 09.12.2019
2671 Clear 15 1021 58 10000 9.8 330 19:55 09.12.2019
2672 Clear 15 1021 58 10000 10.3 320 19:37 09.12.2019
2673 Clear 15 1021 58 10000 10.3 320 19:37 09.12.2019
2674 Clear 15 1021 58 10000 10.3 320 19:18 09.12.2019
2675 Clear 15 1021 54 10000 11.3 320 18:54 09.12.2019
2676 Clear 15 1021 51 10000 11.3 320 18:36 09.12.2019
2677 Clouds 15 1020 51 10000 11.3 320 18:18 09.12.2019
2678 Rain 16 1020 55 10000 11.8 320 17:55 09.12.2019
2679 Rain 15 1021 54 10000 9.8 320 17:37 09.12.2019
2680 Rain 15 1020 59 10000 13.4 330 17:18 09.12.2019
2681 Rain 15 1021 54 10000 10.3 320 16:54 09.12.2019
2682 Clear 15 1021 51 10000 12.3 320 16:36 09.12.2019
2683 Clear 16 1021 51 10000 12.3 320 16:18 09.12.2019
2684 Clear 16 1021 51 10000 10.8 320 15:54 09.12.2019
2685 Clear 16 1020 48 10000 13.4 320 15:36 09.12.2019
2686 Clouds 16 1019 51 10000 16.5 320 15:18 09.12.2019
2687 Clouds 16 1019 48 10000 15.9 320 14:41 09.12.2019
2688 Rain 17 1020 45 10000 13.9 320 14:18 09.12.2019
2689 Rain 17 1020 45 10000 13.9 320 14:18 09.12.2019
2690 Rain 17 1020 45 10000 13.9 320 14:18 09.12.2019
2691 Rain 17 1020 42 10000 13.9 320 13:56 09.12.2019
2692 Rain 17 1020 36 10000 15.9 330 13:38 09.12.2019
2693 Clear 17 1020 36 10000 15.9 330 13:19 09.12.2019
2694 Clear 17 1020 45 10000 12.3 320 12:56 09.12.2019
2695 Clear 17 1021 45 10000 11.3 320 12:37 09.12.2019
2696 Clear 17 1021 45 10000 11.3 320 12:19 09.12.2019
2697 Clear 16 1021 48 10000 10.8 320 11:55 09.12.2019
2698 Clear 16 1021 48 10000 12.9 330 11:36 09.12.2019
2699 Clouds 16 1022 48 10000 5.1 280 11:18 09.12.2019
2700 Clear 16 1022 54 10000 2.6 0 10:40 09.12.2019
2701 Clear 15 1022 54 10000 2.6 0 10:20 09.12.2019
2702 Clear 14 1022 58 10000 3.6 0 09:58 09.12.2019
2703 Clouds 14 1020 62 10000 7.2 320 09:40 09.12.2019
2704 Clear 14 1022 62 10000 2.6 0 09:21 09.12.2019
2705 Clouds 15 1020 76 10000 3.1 260 08:43 09.12.2019
2706 Clouds 14 1021 67 10000 7.2 320 08:25 09.12.2019
2707 Clouds 14 1021 71 10000 6.2 330 07:56 09.12.2019
2708 Clouds 14 1021 76 10000 3.1 310 07:37 09.12.2019
2709 Clouds 14 1021 76 10000 3.1 270 07:19 09.12.2019
2710 Clouds 14 1020 71 10000 5.1 320 06:43 09.12.2019
2711 Clouds 15 1020 72 10000 4.1 300 06:24 09.12.2019
2712 Clouds 15 1021 76 10000 3.1 290 05:26 09.12.2019
2713 Clouds 13 1021 71 10000 3.1 270 04:33 09.12.2019
2714 Clouds 12 1021 87 10000 1.5 300 03:19 09.12.2019
2715 Clouds 12 1021 93 10000 1.5 10 02:19 09.12.2019
2716 Clouds 12 1021 100 10000 2.51 287 01:41 09.12.2019
2717 Clouds 11 1021 100 10000 2.41 277 00:46 09.12.2019
2718 Clouds 11 1022 93 10000 1 340 00:26 09.12.2019
2719 Clouds 10 1022 93 10000 1 0 23:41 08.12.2019
2720 Clouds 10 1021 100 10000 2.19 273 23:23 08.12.2019
2721 Clear 10 1022 93 10000 1 0 22:57 08.12.2019
2722 Clear 10 1022 93 10000 1.5 360 22:38 08.12.2019
2723 Clouds 11 1021 93 10000 2.19 273 22:19 08.12.2019
2724 Clear 11 1022 87 10000 1 0 21:58 08.12.2019
2725 Clear 12 1022 93 10000 1 0 21:40 08.12.2019
2726 Clear 12 1022 93 10000 1 0 21:20 08.12.2019
2727 Clear 12 1022 93 10000 1 0 21:20 08.12.2019
2728 Clear 12 1022 93 10000 1.5 350 20:57 08.12.2019
2729 Clouds 12 1021 93 10000 1.5 310 20:38 08.12.2019
2730 Clear 12 1022 87 10000 1.5 360 20:20 08.12.2019
2731 Clear 13 1022 87 10000 0.5 250 19:59 08.12.2019
2732 Clear 13 1022 82 10000 1 230 19:41 08.12.2019
2733 Clear 13 1022 82 10000 1 230 19:22 08.12.2019
2734 Clear 14 1022 87 10000 1.5 250 18:55 08.12.2019
2735 Clear 14 1022 82 10000 1 0 18:37 08.12.2019
2736 Clear 14 1022 82 10000 1 0 18:19 08.12.2019
2737 Clear 14 1022 76 10000 3.1 240 17:56 08.12.2019
2738 Clear 15 1022 77 10000 4.6 240 17:38 08.12.2019
2739 Clear 15 1022 77 10000 4.6 240 17:38 08.12.2019
2740 Clear 15 1022 77 10000 4.6 240 17:20 08.12.2019
2741 Clear 15 1022 77 10000 5.7 230 16:57 08.12.2019
2742 Clouds 16 1021 77 10000 4.6 240 16:39 08.12.2019
2743 Clouds 16 1021 77 10000 5.7 230 16:20 08.12.2019
2744 Clear 16 1022 63 10000 4.6 240 15:55 08.12.2019
2745 Clouds 16 1021 77 10000 6.2 230 15:36 08.12.2019
2746 Clouds 17 1021 77 10000 5.1 230 15:18 08.12.2019
2747 Clouds 17 1021 77 10000 5.1 230 14:43 08.12.2019
2748 Clear 17 1022 72 10000 3.6 210 14:24 08.12.2019
2749 Clear 17 1022 72 10000 3.6 210 14:24 08.12.2019
2750 Clear 17 1023 67 10000 3.1 210 13:59 08.12.2019
2751 Clear 16 1023 77 10000 3.1 210 13:40 08.12.2019
2752 Clear 16 1023 77 10000 3.1 210 13:21 08.12.2019
2753 Clear 16 1023 77 10000 3.1 210 13:21 08.12.2019
2754 Clear 15 1024 82 10000 3.1 190 12:57 08.12.2019
2755 Clouds 15 1023 87 10000 2.1 210 12:38 08.12.2019
2756 Clear 15 1024 82 10000 2.6 190 12:18 08.12.2019
2757 Clear 14 1024 87 10000 1.5 170 11:57 08.12.2019
2758 Clear 13 1025 87 10000 0.5 0 11:37 08.12.2019
2759 Clear 13 1025 87 10000 0.5 0 11:19 08.12.2019
2760 Fog 12 1024 100 300 0.15 316 10:40 08.12.2019
2761 Mist 11 1024 93 1100 1 0 10:22 08.12.2019
2762 Clear 10 1024 93 9000 1 50 09:58 08.12.2019
2763 Fog 9 1023 100 100 0.15 316 09:39 08.12.2019
2764 Clear 9 1024 93 10000 1.5 30 09:21 08.12.2019
2765 Clear 8 1024 93 10000 2.1 360 08:59 08.12.2019
2766 Clear 8 1024 93 10000 1.5 20 08:41 08.12.2019
2767 Clear 8 1024 93 10000 1.5 20 08:22 08.12.2019
2768 Clear 8 1024 93 10000 2.1 350 07:49 08.12.2019
2769 Clear 8 1024 93 10000 2.1 360 07:21 08.12.2019
2770 Clear 9 1024 100 10000 1.5 10 06:59 08.12.2019
2771 Clear 8 1023 93 10000 1 350 06:39 08.12.2019
2772 Fog 8 1022 100 5000 0.44 35 06:19 08.12.2019
2773 Clear 7 1024 93 10000 2.1 360 05:23 08.12.2019
2774 Clear 7 1024 93 10000 1.5 10 04:23 08.12.2019
2775 Clear 8 1024 93 10000 1 350 03:38 08.12.2019
2776 Fog 8 1023 100 5000 0.5 120 02:42 08.12.2019
2777 Clear 8 1024 93 10000 1.5 10 02:20 08.12.2019
2778 Clouds 8 1023 100 6000 1.54 18 01:40 08.12.2019
2779 Clear 8 1025 93 10000 1.5 350 00:53 08.12.2019
2780 Clear 8 1025 93 10000 1 0 00:24 08.12.2019
2781 Clear 10 1025 93 10000 2.6 20 23:59 07.12.2019
2782 Clouds 10 1024 100 8000 1.5 50 23:38 07.12.2019
2783 Clear 10 1025 93 10000 1.5 10 23:20 07.12.2019
2784 Clear 10 1024 93 10000 1.5 20 22:55 07.12.2019
2785 Clear 10 1024 93 10000 2.6 350 22:37 07.12.2019
2786 Clear 10 1024 93 10000 2.6 350 22:19 07.12.2019
2787 Clear 10 1024 93 10000 2.6 360 21:55 07.12.2019
2788 Clear 10 1024 93 10000 2.1 360 21:37 07.12.2019
2789 Clear 10 1024 93 10000 2.1 360 21:18 07.12.2019
2790 Clouds 11 1023 100 10000 1 80 20:38 07.12.2019
2791 Clouds 11 1024 93 10000 2.1 10 20:20 07.12.2019
2792 Clouds 11 1024 87 10000 2.1 340 19:58 07.12.2019
2793 Clouds 11 1024 87 10000 2.1 340 19:58 07.12.2019
2794 Clouds 11 1024 93 10000 1.5 340 19:39 07.12.2019
2795 Clouds 11 1024 93 10000 1.5 340 19:21 07.12.2019
2796 Clouds 12 1023 93 10000 1.5 340 18:58 07.12.2019
2797 Clouds 12 1022 100 10000 2.02 23 18:40 07.12.2019
2798 Clouds 12 1023 87 10000 1 0 18:40 07.12.2019
2799 Clouds 13 1022 100 10000 0.5 90 18:18 07.12.2019
2800 Clouds 13 1023 87 10000 1 110 17:56 07.12.2019
2801 Clouds 13 1023 82 10000 0.5 0 17:37 07.12.2019
2802 Clouds 14 1023 82 10000 0.5 0 17:19 07.12.2019
2803 Clouds 14 1023 87 10000 1 0 16:56 07.12.2019
2804 Clouds 15 1023 82 10000 1.5 220 16:36 07.12.2019
2805 Clouds 15 1022 87 10000 1.5 220 16:18 07.12.2019
2806 Clouds 16 1022 82 10000 1.5 230 15:41 07.12.2019
2807 Clouds 16 1023 67 10000 1.5 130 15:23 07.12.2019
2808 Clouds 16 1023 72 10000 1 0 14:56 07.12.2019
2809 Clouds 15 1023 77 10000 1.5 60 14:38 07.12.2019
2810 Clouds 15 1023 77 10000 1.5 60 14:18 07.12.2019
2811 Clouds 15 1023 82 10000 1 0 13:40 07.12.2019
2812 Clouds 14 1024 82 10000 1.5 150 13:20 07.12.2019
2813 Clouds 14 1024 87 10000 1.5 100 12:56 07.12.2019
2814 Clouds 13 1024 87 10000 1 0 12:37 07.12.2019
2815 Clouds 13 1024 87 10000 1 0 12:19 07.12.2019
2816 Clouds 11 1025 87 10000 1 0 11:55 07.12.2019
2817 Clouds 11 1025 93 10000 1 330 11:37 07.12.2019
2818 Clouds 11 1025 93 10000 1 330 11:19 07.12.2019
2819 Clouds 10 1024 93 10000 2.1 360 10:37 07.12.2019
2820 Clouds 9 1023 100 10000 1 0 10:19 07.12.2019
2821 Clouds 9 1023 100 10000 1.5 20 09:41 07.12.2019
2822 Clouds 8 1024 93 10000 2.6 360 09:22 07.12.2019
2823 Clouds 8 1023 100 10000 0.5 210 08:47 07.12.2019
2824 Rain 8 1024 100 10000 2.6 340 08:26 07.12.2019
2825 Clouds 8 1024 100 10000 1.5 330 07:58 07.12.2019
2826 Clouds 8 1023 100 10000 2.1 340 07:39 07.12.2019
2827 Clouds 8 1023 100 10000 2.1 340 07:21 07.12.2019
2828 Clouds 8 1023 100 10000 2.1 340 07:21 07.12.2019
2829 Clouds 8 1022 100 10000 2.1 40 06:45 07.12.2019
2830 Clouds 8 1023 93 10000 1 0 06:24 07.12.2019
2831 Clear 8 1024 100 10000 3.1 10 05:19 07.12.2019
2832 Clear 9 1024 100 10000 2.1 360 03:54 07.12.2019
2833 Rain 10 1024 93 10000 2.1 360 02:59 07.12.2019
2834 Rain 10 1023 100 10000 1 0 02:21 07.12.2019
2835 Clear 10 1023 93 10000 1.5 20 01:34 07.12.2019
2836 Clouds 10 1023 100 10000 1 0 00:52 07.12.2019
2837 Clear 10 1024 93 10000 2.1 350 00:19 07.12.2019
2838 Clear 11 1024 93 10000 2.1 360 23:55 06.12.2019
2839 Clear 11 1024 93 10000 2.1 350 23:36 06.12.2019
2840 Clouds 12 1023 100 10000 0.5 0 23:18 06.12.2019
2841 Clear 12 1024 93 10000 1 70 22:37 06.12.2019
2842 Clear 12 1024 93 10000 1 70 22:19 06.12.2019
2843 Clear 12 1024 93 10000 1.5 360 21:57 06.12.2019
2844 Clear 13 1024 93 10000 1.5 340 21:38 06.12.2019
2845 Clear 13 1024 93 10000 1.5 340 21:19 06.12.2019
2846 Clear 14 1024 87 10000 1 0 20:42 06.12.2019
2847 Clouds 13 1023 87 10000 2.1 80 20:42 06.12.2019
2848 Clouds 13 1023 87 10000 2.1 80 20:42 06.12.2019
2849 Clear 14 1024 87 10000 1 0 20:23 06.12.2019
2850 Clear 14 1024 82 10000 2.1 50 19:59 06.12.2019
2851 Clear 14 1023 87 10000 2.1 70 19:40 06.12.2019
2852 Clear 14 1023 87 10000 2.1 70 19:21 06.12.2019
2853 Clear 14 1023 87 10000 2.1 70 19:21 06.12.2019
2854 Clear 14 1023 87 10000 2.6 80 18:56 06.12.2019
2855 Clouds 14 1022 93 10000 1 0 18:38 06.12.2019
2856 Clear 14 1023 87 10000 2.6 90 18:19 06.12.2019
2857 Clear 15 1023 82 10000 2.6 70 17:55 06.12.2019
2858 Clouds 16 1022 82 10000 0.5 230 17:37 06.12.2019
2859 Clear 16 1022 77 10000 1.5 90 17:19 06.12.2019
2860 Clouds 17 1021 82 10000 2.1 250 16:43 06.12.2019
2861 Clear 17 1022 68 10000 1 0 16:24 06.12.2019
2862 Clear 17 1022 68 10000 1.5 200 15:59 06.12.2019
2863 Clear 17 1022 63 10000 0.5 0 15:40 06.12.2019
2864 Clear 18 1022 63 10000 0.5 0 15:18 06.12.2019
2865 Clear 18 1022 63 10000 1 110 14:56 06.12.2019
2866 Clear 18 1023 63 10000 1 0 14:38 06.12.2019
2867 Clouds 18 1023 63 10000 1 0 14:18 06.12.2019
2868 Clouds 17 1022 68 10000 1 0 13:43 06.12.2019
2869 Clouds 17 1023 72 8000 1 0 13:25 06.12.2019
2870 Clouds 16 1023 77 10000 2.6 50 12:43 06.12.2019
2871 Clouds 16 1024 77 10000 2.1 180 12:23 06.12.2019
2872 Clouds 16 1024 77 10000 1 0 11:58 06.12.2019
2873 Clouds 15 1023 87 10000 0.5 0 11:39 06.12.2019
2874 Clouds 14 1024 82 10000 1.5 30 11:21 06.12.2019
2875 Clouds 13 1024 93 10000 2.63 69 10:44 06.12.2019
2876 Clouds 12 1024 87 10000 1.5 10 10:22 06.12.2019
2877 Clouds 12 1024 87 10000 1 0 09:58 06.12.2019
2878 Clouds 11 1024 87 10000 2.1 360 09:37 06.12.2019
2879 Clouds 11 1024 87 10000 2.1 360 09:19 06.12.2019
2880 Clouds 10 1023 93 10000 2.6 360 08:55 06.12.2019
2881 Clouds 10 1023 93 10000 1 350 08:36 06.12.2019
2882 Clouds 10 1022 100 10000 0.5 0 08:18 06.12.2019
2883 Clouds 10 1022 100 10000 1.5 360 07:36 06.12.2019
2884 Clouds 10 1022 100 10000 3.07 46 07:18 06.12.2019
2885 Clouds 10 1022 93 10000 2.6 350 06:30 06.12.2019
2886 Clouds 10 1022 93 10000 2.6 10 05:54 06.12.2019
2887 Clouds 10 1022 93 10000 2.6 10 05:54 06.12.2019
2888 Clouds 10 1022 93 10000 2.1 30 05:34 06.12.2019
2889 Clouds 10 1022 87 10000 2.1 10 02:19 06.12.2019
2890 Clouds 11 1022 87 10000 2.1 10 02:19 06.12.2019
2891 Clouds 11 1022 93 10000 2.1 350 01:34 06.12.2019
2892 Clouds 11 1022 93 10000 2.6 350 00:46 06.12.2019
2893 Clouds 11 1022 93 10000 2.6 360 00:21 06.12.2019
2894 Clouds 10 1022 93 10000 1.5 350 23:49 05.12.2019
2895 Clouds 11 1022 93 10000 2.6 350 23:19 05.12.2019
2896 Clouds 11 1022 93 10000 1.5 340 22:58 05.12.2019
2897 Clouds 11 1021 100 10000 0.5 0 22:38 05.12.2019
2898 Clouds 11 1022 93 10000 2.1 20 22:18 05.12.2019
2899 Clouds 11 1022 93 10000 2.1 20 22:18 05.12.2019
2900 Clouds 11 1022 93 10000 2.1 20 22:18 05.12.2019
2901 Clouds 11 1021 100 10000 2.6 10 21:55 05.12.2019
2902 Clouds 11 1021 100 10000 1.5 20 21:36 05.12.2019
2903 Clouds 11 1021 100 10000 1.5 20 21:18 05.12.2019
2904 Clouds 12 1021 93 10000 1.5 300 20:40 05.12.2019
2905 Clouds 12 1021 93 10000 1.5 300 20:40 05.12.2019
2906 Clear 12 1021 93 10000 1 0 20:21 05.12.2019
2907 Clear 13 1020 93 10000 2.1 350 19:59 05.12.2019
2908 Clear 13 1020 93 10000 2.1 340 19:40 05.12.2019
2909 Clear 13 1020 93 10000 2.1 340 19:21 05.12.2019
2910 Clear 13 1020 87 10000 0.5 0 18:57 05.12.2019
2911 Clear 14 1019 87 10000 1 150 18:38 05.12.2019
2912 Clear 14 1019 87 10000 1 150 18:20 05.12.2019
2913 Clear 15 1019 82 10000 1 190 17:40 05.12.2019
2914 Clear 16 1019 82 10000 1 190 17:20 05.12.2019
2915 Clear 16 1018 77 10000 3.1 190 16:58 05.12.2019
2916 Clear 16 1018 72 10000 1.5 190 16:39 05.12.2019
2917 Clear 16 1018 72 10000 1.5 190 16:39 05.12.2019
2918 Clear 16 1018 72 10000 1.5 190 16:21 05.12.2019
2919 Clouds 17 1017 72 10000 1 0 15:58 05.12.2019
2920 Clear 17 1018 72 10000 3.6 210 15:39 05.12.2019
2921 Clear 17 1018 72 10000 3.6 210 15:20 05.12.2019
2922 Clear 17 1017 72 10000 3.6 210 14:56 05.12.2019
2923 Clear 16 1017 72 10000 5.1 190 14:38 05.12.2019
2924 Clear 16 1017 77 10000 4.1 190 14:19 05.12.2019
2925 Clear 17 1017 77 10000 4.1 190 13:57 05.12.2019
2926 Clear 17 1017 77 10000 3.6 220 13:39 05.12.2019
2927 Clear 17 1017 77 10000 3.6 220 13:20 05.12.2019
2928 Clear 16 1017 77 10000 2.6 200 12:57 05.12.2019
2929 Clear 16 1017 77 10000 2.6 200 12:38 05.12.2019
2930 Clear 15 1017 77 10000 2.6 200 12:20 05.12.2019
2931 Clear 14 1017 72 10000 1 0 11:40 05.12.2019
2932 Clear 14 1017 72 10000 1 0 11:22 05.12.2019
2933 Clear 13 1017 76 10000 0.5 0 10:58 05.12.2019
2934 Clear 12 1016 87 10000 1 0 10:40 05.12.2019
2935 Clear 11 1016 87 10000 1 0 10:19 05.12.2019
2936 Clear 10 1016 93 10000 1.5 20 09:56 05.12.2019
2937 Clear 9 1015 93 10000 2.1 360 09:38 05.12.2019
2938 Clear 8 1015 93 10000 2.1 360 09:19 05.12.2019
2939 Clear 8 1015 93 10000 1.5 30 08:54 05.12.2019
2940 Clouds 8 1014 93 10000 2.1 360 08:36 05.12.2019
2941 Clear 8 1014 93 10000 1.5 350 08:18 05.12.2019
2942 Clear 8 1014 100 10000 1.5 360 07:41 05.12.2019
2943 Clear 8 1014 100 10000 1.5 360 07:21 05.12.2019
2944 Clear 7 1013 100 10000 1.5 360 06:47 05.12.2019
2945 Clear 8 1013 93 10000 1.5 360 06:23 05.12.2019
2946 Clear 8 1012 93 10000 1.5 360 05:53 05.12.2019
2947 Clear 7 1012 93 10000 1 0 05:24 05.12.2019
2948 Clear 8 1012 93 10000 1 0 04:37 05.12.2019
2949 Clear 8 1012 93 10000 2.1 360 03:35 05.12.2019
2950 Clear 9 1011 93 10000 2.1 340 02:41 05.12.2019
2951 Clear 9 1011 93 10000 2.1 340 02:21 05.12.2019
2952 Clear 9 1011 87 10000 1.5 340 01:50 05.12.2019
2953 Clouds 9 1010 93 10000 2.1 360 01:23 05.12.2019
2954 Clouds 9 1010 87 10000 2.6 340 00:44 05.12.2019
2955 Clouds 9 1010 87 10000 2.6 340 00:21 05.12.2019
2956 Clouds 9 1010 93 10000 3.1 10 23:47 04.12.2019
2957 Clouds 9 1010 93 10000 2.6 350 23:47 04.12.2019
2958 Clouds 9 1010 93 10000 2.6 350 23:23 04.12.2019
2959 Clouds 10 1009 93 10000 3.1 350 22:59 04.12.2019
2960 Clouds 11 1009 87 10000 2.6 320 22:38 04.12.2019
2961 Clouds 11 1009 87 10000 2.6 320 22:20 04.12.2019
2962 Clouds 11 1009 87 10000 1.5 320 21:58 04.12.2019
2963 Clouds 11 1008 93 10000 3.1 10 21:38 04.12.2019
2964 Clouds 11 1008 93 10000 3.1 10 21:19 04.12.2019
2965 Clouds 10 1008 93 10000 2.6 350 20:57 04.12.2019
2966 Clouds 10 1008 93 10000 1.5 330 20:39 04.12.2019
2967 Rain 10 1008 93 10000 1.5 330 20:21 04.12.2019
2968 Rain 10 1007 93 10000 1.5 340 19:57 04.12.2019
2969 Rain 11 1007 87 10000 0.5 0 19:38 04.12.2019
2970 Rain 11 1007 87 10000 0.5 0 19:20 04.12.2019
2971 Rain 12 1006 81 10000 4.1 60 18:42 04.12.2019
2972 Rain 12 1006 87 10000 2.6 40 18:24 04.12.2019
2973 Rain 11 1006 87 10000 2.6 40 17:59 04.12.2019
2974 Rain 12 1006 87 10000 3.6 50 17:39 04.12.2019
2975 Rain 12 1006 87 10000 3.6 50 17:39 04.12.2019
2976 Rain 12 1006 87 10000 3.6 50 17:39 04.12.2019
2977 Rain 12 1006 87 10000 3.6 50 17:20 04.12.2019
2978 Rain 12 1005 87 10000 4.6 50 16:56 04.12.2019
2979 Rain 11 1005 87 10000 4.6 40 16:38 04.12.2019
2980 Rain 11 1005 87 10000 4.6 40 16:19 04.12.2019
2981 Rain 11 1005 93 10000 4.1 50 15:55 04.12.2019
2982 Rain 11 1005 93 10000 4.1 50 15:55 04.12.2019
2983 Rain 11 1005 87 10000 3.6 70 15:37 04.12.2019
2984 Rain 11 1004 93 10000 5.1 60 15:19 04.12.2019
2985 Rain 11 1004 93 10000 5.1 60 15:19 04.12.2019
2986 Rain 11 1004 93 10000 4.6 40 14:44 04.12.2019
2987 Rain 12 1004 93 10000 4.6 40 14:23 04.12.2019
2988 Rain 12 1004 93 9000 4.1 40 13:58 04.12.2019
2989 Rain 12 1004 93 10000 2.6 40 13:38 04.12.2019
2990 Rain 12 1004 93 10000 2.6 40 13:38 04.12.2019
2991 Rain 12 1004 93 10000 2.6 40 13:20 04.12.2019
2992 Thunderstorm 12 1004 93 10000 3.6 30 12:45 04.12.2019
2993 Thunderstorm 12 1005 93 10000 4.1 350 12:25 04.12.2019
2994 Thunderstorm 12 1005 93 1500 2.1 70 11:56 04.12.2019
2995 Thunderstorm 12 1006 93 500 2.6 140 11:38 04.12.2019
2996 Thunderstorm 13 1006 93 500 2.6 140 11:20 04.12.2019
2997 Thunderstorm 14 1005 87 0 5.72 99 10:44 04.12.2019
2998 Thunderstorm 14 1005 87 0 5.72 99 10:23 04.12.2019
2999 Rain 14 1003 93 4500 3.6 50 09:57 04.12.2019
3000 Clouds 13 1003 87 10000 2.6 70 09:38 04.12.2019
3001 Clouds 13 1003 87 10000 2.6 70 09:38 04.12.2019
3002 Clouds 13 1004 87 10000 6.7 60 09:19 04.12.2019
3003 Clouds 13 1002 87 10000 2.1 50 08:40 04.12.2019
3004 Clouds 13 1002 87 10000 2.1 50 08:22 04.12.2019
3005 Rain 13 1003 87 10000 3.6 100 07:50 04.12.2019
3006 Rain 14 1003 87 10000 5.1 80 07:30 04.12.2019
3007 Thunderstorm 14 1003 93 10000 4.1 70 06:47 04.12.2019
3008 Thunderstorm 14 1003 93 10000 4.1 70 06:25 04.12.2019
3009 Rain 15 1004 82 9000 7.2 100 05:42 04.12.2019
3010 Rain 16 1004 87 6000 7.2 60 04:31 04.12.2019
3011 Thunderstorm 14 1007 87 3000 3.6 40 03:20 04.12.2019
3012 Thunderstorm 16 1008 93 10000 6.2 50 01:21 04.12.2019
3013 Thunderstorm 15 1008 93 7000 5.7 50 00:40 04.12.2019
3014 Thunderstorm 15 1008 93 7000 5.7 50 00:18 04.12.2019
3015 Thunderstorm 15 1010 93 10000 5.7 50 23:41 03.12.2019
3016 Thunderstorm 15 1010 93 10000 5.7 50 23:19 03.12.2019
3017 Thunderstorm 15 1010 93 3000 6.2 80 22:56 03.12.2019
3018 Thunderstorm 16 1010 87 4000 5.7 60 22:36 03.12.2019
3019 Thunderstorm 16 1010 87 4000 5.7 60 22:18 03.12.2019
3020 Clouds 16 1011 77 10000 7.7 60 21:54 03.12.2019
3021 Thunderstorm 16 1012 77 10000 7.2 50 21:36 03.12.2019
3022 Thunderstorm 16 1012 77 10000 7.2 50 21:18 03.12.2019
3023 Rain 16 1012 82 10000 4.1 70 20:41 03.12.2019
3024 Clouds 16 1012 82 10000 4.1 70 20:19 03.12.2019
3025 Clouds 15 1012 77 10000 5.1 60 19:56 03.12.2019
3026 Clouds 15 1012 72 10000 5.7 60 19:38 03.12.2019
3027 Clouds 15 1012 72 10000 5.7 60 19:20 03.12.2019
3028 Clouds 15 1012 76 10000 6.2 60 18:57 03.12.2019
3029 Clouds 15 1012 82 10000 5.1 50 18:39 03.12.2019
3030 Clouds 15 1012 82 10000 5.1 50 18:21 03.12.2019
3031 Clouds 14 1012 76 10000 5.7 60 17:57 03.12.2019
3032 Clouds 14 1012 76 10000 5.7 60 17:57 03.12.2019
3033 Clouds 14 1012 76 10000 5.7 70 17:38 03.12.2019
3034 Clouds 14 1012 76 10000 5.7 70 17:38 03.12.2019
3035 Clouds 14 1012 76 10000 5.7 70 17:38 03.12.2019
3036 Clouds 14 1012 76 10000 5.7 70 17:18 03.12.2019
3037 Clouds 15 1012 76 10000 8.2 60 16:57 03.12.2019
3038 Clouds 15 1012 72 10000 8.7 60 16:38 03.12.2019
3039 Clouds 15 1012 72 10000 8.7 60 16:20 03.12.2019
3040 Clouds 15 1013 72 10000 8.2 50 15:56 03.12.2019
3041 Clouds 15 1013 72 10000 6.2 40 15:38 03.12.2019
3042 Clouds 15 1013 72 10000 6.2 40 15:19 03.12.2019
3043 Clouds 15 1014 67 10000 7.2 50 14:42 03.12.2019
3044 Rain 15 1014 67 10000 7.2 50 14:20 03.12.2019
3045 Rain 15 1015 71 10000 7.2 60 13:56 03.12.2019
3046 Rain 15 1015 67 10000 6.7 50 13:37 03.12.2019
3047 Clouds 15 1015 67 10000 6.7 50 13:19 03.12.2019
3048 Clouds 13 1016 66 10000 8.7 60 12:41 03.12.2019
3049 Clouds 13 1016 66 10000 8.7 60 12:19 03.12.2019
3050 Clouds 13 1016 66 10000 8.7 60 12:19 03.12.2019
3051 Clouds 13 1016 66 10000 8.7 60 12:19 03.12.2019
3052 Clouds 13 1016 66 10000 8.7 60 11:59 03.12.2019
3053 Clouds 13 1017 66 10000 8.7 60 11:39 03.12.2019
3054 Clouds 14 1017 66 10000 8.7 60 11:21 03.12.2019
3055 Clouds 14 1017 66 10000 7.2 70 10:59 03.12.2019
3056 Clouds 13 1017 66 10000 7.7 60 10:41 03.12.2019
3057 Clouds 13 1017 66 10000 7.7 60 10:21 03.12.2019
3058 Clouds 12 1017 71 10000 7.2 50 09:56 03.12.2019
3059 Clouds 12 1017 71 10000 6.7 50 09:38 03.12.2019
3060 Clouds 12 1017 71 10000 6.7 50 09:19 03.12.2019
3061 Clouds 12 1017 71 10000 6.7 60 08:41 03.12.2019
3062 Rain 12 1017 71 10000 6.7 60 08:22 03.12.2019
3063 Rain 12 1016 71 10000 6.7 50 07:57 03.12.2019
3064 Rain 12 1016 66 10000 6.7 40 07:39 03.12.2019
3065 Rain 12 1016 66 10000 6.7 40 07:20 03.12.2019
3066 Rain 12 1015 71 10000 9.3 50 06:23 03.12.2019
3067 Rain 12 1015 71 10000 8.7 50 05:58 03.12.2019
3068 Rain 12 1017 76 10000 4.1 50 04:49 03.12.2019
3069 Rain 13 1017 71 10000 5.7 50 03:39 03.12.2019
3070 Rain 13 1017 71 10000 5.7 50 03:19 03.12.2019
3071 Rain 13 1017 71 10000 5.7 50 03:19 03.12.2019
3072 Clouds 13 1017 71 10000 5.1 50 02:48 03.12.2019
3073 Clouds 13 1017 71 10000 5.1 40 02:27 03.12.2019
3074 Clouds 13 1017 71 10000 5.7 50 01:43 03.12.2019
3075 Clouds 13 1017 71 10000 4.6 50 01:24 03.12.2019
3076 Clouds 13 1018 71 10000 3.6 40 00:56 03.12.2019
3077 Clouds 13 1018 71 10000 3.6 40 00:37 03.12.2019
3078 Clouds 13 1018 71 10000 3.6 40 00:19 03.12.2019
3079 Clouds 13 1017 71 10000 3.6 40 23:43 02.12.2019
3080 Clouds 13 1017 71 10000 3.6 40 23:20 02.12.2019
3081 Clouds 13 1017 71 10000 3.6 40 23:20 02.12.2019
3082 Clouds 13 1017 71 10000 2.6 50 22:42 02.12.2019
3083 Clouds 13 1017 71 10000 2.6 50 22:23 02.12.2019
3084 Clouds 13 1017 71 10000 1.5 60 21:59 02.12.2019
3085 Clouds 13 1017 71 10000 2.1 40 21:37 02.12.2019
3086 Clouds 13 1017 71 10000 2.1 40 21:19 02.12.2019
3087 Clouds 13 1017 71 10000 2.1 40 21:19 02.12.2019
3088 Clouds 13 1017 71 10000 1.5 40 20:56 02.12.2019
3089 Clouds 13 1017 71 10000 3.6 40 20:38 02.12.2019
3090 Clouds 13 1017 71 10000 3.6 40 20:20 02.12.2019
3091 Clouds 13 1017 71 10000 5.1 50 19:55 02.12.2019
3092 Clouds 13 1016 71 10000 5.1 50 19:37 02.12.2019
3093 Clouds 13 1016 71 10000 5.1 50 19:19 02.12.2019
3094 Clouds 13 1016 71 10000 6.2 60 18:43 02.12.2019
3095 Clouds 13 1016 76 10000 6.7 50 18:20 02.12.2019
3096 Clouds 14 1016 76 10000 6.7 50 17:58 02.12.2019
3097 Clouds 14 1015 71 10000 7.7 60 17:40 02.12.2019
3098 Clouds 14 1015 71 10000 7.7 60 17:40 02.12.2019
3099 Clouds 14 1015 71 10000 7.7 60 17:20 02.12.2019
3100 Clouds 14 1015 71 10000 6.2 50 16:54 02.12.2019
3101 Clouds 14 1015 71 10000 8.2 60 16:36 02.12.2019
3102 Clouds 14 1015 71 10000 8.2 60 16:18 02.12.2019
3103 -273 0 0 0 0 0 15:55 02.12.2019
3104 Clouds 15 1015 67 10000 9.8 50 15:37 02.12.2019
3105 Clouds 15 1015 67 10000 9.8 50 15:18 02.12.2019
3106 Clouds 15 1015 72 10000 8.7 60 14:39 02.12.2019
3107 Clouds 15 1015 72 10000 8.7 60 14:20 02.12.2019
3108 Clouds 15 1015 72 10000 8.2 60 13:58 02.12.2019
3109 Clouds 15 1016 72 10000 8.2 60 13:39 02.12.2019
3110 Clouds 15 1016 72 10000 8.2 60 13:20 02.12.2019
3111 Clouds 15 1016 72 10000 8.2 60 13:20 02.12.2019
3112 Clouds 14 1016 76 10000 8.7 60 12:58 02.12.2019
3113 Rain 14 1016 76 10000 7.7 50 12:40 02.12.2019
3114 Rain 14 1016 76 10000 7.7 50 12:20 02.12.2019
3115 Clouds 14 1016 82 10000 7.7 60 11:56 02.12.2019
3116 Clouds 14 1016 82 10000 7.7 70 11:37 02.12.2019
3117 Clouds 14 1016 82 10000 7.7 70 11:18 02.12.2019
3118 Clouds 14 1015 82 10000 7.7 60 10:55 02.12.2019
3119 Clouds 14 1015 82 10000 8.7 60 10:37 02.12.2019
3120 Clouds 14 1015 82 10000 8.7 60 10:18 02.12.2019
3121 Rain 14 1014 82 10000 8.2 50 09:41 02.12.2019
3122 Rain 14 1014 82 10000 8.2 50 09:19 02.12.2019
3123 Rain 14 1014 87 10000 7.7 60 08:57 02.12.2019
3124 Rain 14 1014 87 10000 7.2 60 08:38 02.12.2019
3125 Rain 14 1014 87 10000 7.2 60 08:20 02.12.2019
3126 Rain 13 1013 93 10000 7.7 60 07:44 02.12.2019
3127 Rain 14 1013 93 10000 7.7 60 07:21 02.12.2019
3128 Rain 14 1013 87 10000 6.7 50 06:56 02.12.2019
3129 Drizzle 14 1013 87 10000 5.7 60 06:37 02.12.2019
3130 Thunderstorm 14 1013 93 6000 3.6 360 05:34 02.12.2019
3131 Rain 14 1013 93 5000 2.6 60 04:27 02.12.2019
3132 Rain 14 1012 82 10000 4.1 50 02:54 02.12.2019
3133 Rain 14 1012 87 10000 3.1 40 02:31 02.12.2019
3134 Rain 14 1013 87 10000 1.5 50 01:26 02.12.2019
3135 Rain 14 1013 87 10000 1 0 00:58 02.12.2019
3136 Rain 14 1013 93 10000 1 0 00:25 02.12.2019
3137 Rain 14 1013 93 10000 1 0 23:56 01.12.2019
3138 Rain 14 1013 93 10000 1.5 50 23:37 01.12.2019
3139 Rain 14 1013 93 10000 1.5 50 23:19 01.12.2019
3140 Rain 14 1013 93 10000 2.1 60 22:55 01.12.2019
3141 Rain 14 1013 93 10000 3.6 50 22:37 01.12.2019
3142 Rain 14 1013 93 10000 3.6 50 22:18 01.12.2019
3143 Rain 14 1013 93 10000 2.6 50 21:55 01.12.2019
3144 Rain 13 1013 87 10000 2.6 340 21:37 01.12.2019
3145 Rain 13 1013 87 10000 2.6 340 21:18 01.12.2019
3146 Rain 14 1013 93 7000 0.5 0 20:55 01.12.2019
3147 Rain 14 1013 87 9000 1.5 30 20:37 01.12.2019
3148 Clouds 14 1012 93 8000 1.5 40 20:19 01.12.2019
3149 Clouds 14 1012 93 8000 1.5 40 19:54 01.12.2019
3150 Clouds 15 1012 93 10000 1 0 19:36 01.12.2019
3151 Clouds 15 1012 93 10000 1 0 19:18 01.12.2019
3152 Clouds 15 1012 87 10000 1 0 18:54 01.12.2019
3153 Clouds 16 1012 87 10000 1 240 18:36 01.12.2019
3154 Clouds 16 1012 87 10000 1 240 18:18 01.12.2019
3155 Clouds 16 1012 82 10000 2.1 210 17:55 01.12.2019
3156 Clouds 16 1012 82 10000 3.6 220 17:37 01.12.2019
3157 Clear 17 1012 82 10000 3.6 220 17:19 01.12.2019
3158 Clear 17 1012 68 10000 1 0 16:43 01.12.2019
3159 Clear 18 1012 68 10000 1 0 16:23 01.12.2019
3160 Clear 18 1012 72 10000 1 0 15:53 01.12.2019
3161 Clear 18 1012 77 10000 5.1 210 15:33 01.12.2019
3162 Clear 18 1012 82 10000 5.7 220 14:58 01.12.2019
3163 Clear 18 1012 82 10000 5.7 220 14:58 01.12.2019
3164 Clear 18 1012 82 10000 5.7 220 14:58 01.12.2019
3165 Clear 18 1012 77 10000 6.2 210 14:37 01.12.2019
3166 Clear 18 1012 77 10000 6.2 210 14:18 01.12.2019
3167 Clear 18 1012 77 10000 5.7 210 13:40 01.12.2019
3168 Clear 18 1012 77 10000 5.7 210 13:21 01.12.2019
3169 Clear 18 1012 77 10000 5.1 220 12:47 01.12.2019
3170 Clear 17 1013 82 10000 5.7 210 12:19 01.12.2019
3171 Clear 17 1013 82 10000 5.7 220 11:44 01.12.2019
3172 Clear 17 1013 82 10000 6.2 220 11:24 01.12.2019
3173 Clear 16 1013 87 10000 4.1 220 10:55 01.12.2019
3174 Clear 17 1013 87 10000 4.6 220 10:37 01.12.2019
3175 Clear 16 1013 87 10000 4.6 220 10:18 01.12.2019
3176 Clear 16 1013 93 10000 2.1 240 09:41 01.12.2019
3177 Clear 15 1013 93 10000 2.1 240 09:21 01.12.2019
3178 Clear 16 1013 93 10000 3.1 220 08:49 01.12.2019
3179 Clouds 16 1013 87 10000 3.1 210 08:22 01.12.2019
3180 Clouds 16 1013 93 10000 3.1 200 07:52 01.12.2019
3181 Clouds 16 1013 93 10000 2.1 200 07:32 01.12.2019
3182 Clouds 16 1013 93 10000 2.1 200 07:32 01.12.2019
3183 Clouds 16 1013 87 10000 2.1 200 06:58 01.12.2019
3184 Clouds 15 1013 87 10000 1 220 06:40 01.12.2019
3185 Clouds 15 1013 87 10000 2.1 220 05:55 01.12.2019
3186 Clear 15 1014 93 10000 1 0 04:53 01.12.2019
3187 Clear 15 1014 87 10000 1.5 240 04:22 01.12.2019
3188 Clear 15 1015 93 10000 0.5 0 02:43 01.12.2019
3189 Clear 15 1015 93 10000 0.5 0 02:24 01.12.2019
3190 Clear 15 1015 93 10000 0.5 0 01:53 01.12.2019
3191 Clear 15 1016 93 10000 1 50 01:29 01.12.2019
3192 Clear 15 1016 93 10000 0.5 0 00:44 01.12.2019
3193 Clear 15 1016 93 10000 0.5 0 00:26 01.12.2019
3194 Clear 15 1016 93 10000 0.5 0 23:45 30.11.2019
3195 Clear 15 1016 93 9000 1 0 23:25 30.11.2019
3196 Clear 15 1017 93 8000 1 0 22:58 30.11.2019
3197 Clear 16 1017 87 9000 1 0 22:39 30.11.2019
3198 Clear 16 1017 87 9000 1 0 22:20 30.11.2019
3199 Clear 16 1017 93 9000 1.5 210 21:47 30.11.2019
3200 Clear 16 1017 93 10000 1 210 21:28 30.11.2019
3201 Clear 16 1017 93 10000 1 230 20:58 30.11.2019
3202 Clear 16 1017 93 10000 1.5 230 20:40 30.11.2019
3203 Clear 16 1017 93 10000 1.5 230 20:20 30.11.2019
3204 Clear 16 1017 87 10000 2.6 210 19:57 30.11.2019
3205 Clear 16 1017 87 10000 2.6 220 19:39 30.11.2019
3206 Clear 16 1017 87 10000 2.6 220 19:39 30.11.2019
3207 Clear 16 1017 87 10000 2.6 220 19:20 30.11.2019
3208 Clear 16 1018 87 10000 2.1 210 18:59 30.11.2019
3209 Clear 16 1018 87 10000 2.6 210 18:39 30.11.2019
3210 Clear 16 1018 87 10000 2.6 210 18:21 30.11.2019
3211 Clear 16 1018 87 10000 3.1 210 17:58 30.11.2019
3212 Clear 17 1018 93 10000 3.1 200 17:40 30.11.2019
3213 Clear 17 1018 93 10000 3.1 200 17:22 30.11.2019
3214 Clear 17 1018 82 10000 3.6 220 16:58 30.11.2019
3215 Clear 17 1018 82 10000 3.6 220 16:58 30.11.2019
3216 Clear 17 1018 82 10000 4.1 210 16:40 30.11.2019
3217 Clear 18 1018 82 10000 4.1 210 16:21 30.11.2019
3218 Clear 18 1018 82 10000 4.1 210 16:21 30.11.2019
3219 Clear 17 1018 82 10000 4.6 210 15:54 30.11.2019
3220 Clear 18 1019 77 10000 4.6 200 15:36 30.11.2019
3221 Clear 18 1019 77 10000 4.6 200 15:18 30.11.2019
3222 Clear 18 1019 77 10000 4.6 200 14:54 30.11.2019
3223 Clear 18 1019 77 10000 4.1 190 14:36 30.11.2019
3224 Clear 18 1019 77 10000 4.1 190 14:18 30.11.2019
3225 Clear 18 1020 77 10000 4.6 210 13:42 30.11.2019
3226 Clear 18 1020 77 10000 4.6 210 13:24 30.11.2019
3227 Clear 18 1021 88 10000 3.1 190 12:47 30.11.2019
3228 Clear 17 1021 82 10000 2.6 190 12:29 30.11.2019
3229 Clear 17 1021 82 10000 1 0 11:59 30.11.2019
3230 Clear 16 1021 82 10000 1 0 11:41 30.11.2019
3231 Clear 16 1021 82 10000 1 0 11:19 30.11.2019
3232 Clear 15 1022 82 10000 1 0 10:55 30.11.2019
3233 Clear 14 1021 87 10000 1 0 10:37 30.11.2019
3234 Clear 13 1021 87 10000 1 0 10:18 30.11.2019
3235 Clear 12 1021 93 10000 1.5 350 09:43 30.11.2019
3236 Clear 12 1021 93 10000 1.5 350 09:21 30.11.2019
3237 Clear 10 1021 93 10000 2.6 360 08:43 30.11.2019
3238 Clouds 10 1021 93 10000 2.6 360 08:20 30.11.2019
3239 Clouds 10 1021 93 10000 1.5 360 07:54 30.11.2019
3240 Clouds 10 1021 93 10000 1 0 07:36 30.11.2019
3241 Fog 11 1020 100 600 1 10 06:55 30.11.2019
3242 Clouds 11 1021 93 10000 1.5 60 06:29 30.11.2019
3243 Clouds 11 1021 93 10000 1.5 360 05:40 30.11.2019
3244 Clouds 12 1022 93 10000 2.6 10 03:44 30.11.2019
3245 Clouds 12 1022 87 10000 2.6 340 02:39 30.11.2019
3246 Clouds 12 1022 87 10000 2.6 340 02:20 30.11.2019
3247 Clouds 11 1022 93 10000 2.6 350 01:25 30.11.2019
3248 Clouds 11 1022 87 10000 1.5 350 00:49 30.11.2019
3249 Clouds 11 1022 87 10000 2.1 350 00:30 30.11.2019
3250 Clouds 11 1022 93 10000 3.1 360 23:58 29.11.2019
3251 Clouds 11 1022 93 10000 2.1 330 23:40 29.11.2019
3252 Clouds 12 1022 93 10000 2.1 330 23:20 29.11.2019
3253 Clouds 12 1022 93 10000 0.5 0 22:42 29.11.2019
3254 Clouds 12 1022 93 10000 0.5 0 22:23 29.11.2019
3255 Clouds 13 1021 93 10000 1 0 21:44 29.11.2019
3256 Clouds 13 1021 93 10000 1 0 21:24 29.11.2019
3257 Clouds 14 1021 93 10000 1 0 20:57 29.11.2019
3258 Clouds 13 1021 93 10000 1.5 340 20:38 29.11.2019
3259 Clouds 14 1021 93 10000 1.5 340 20:19 29.11.2019
3260 Clouds 14 1021 93 10000 1 360 19:57 29.11.2019
3261 Clouds 15 1021 93 10000 2.1 50 19:38 29.11.2019
3262 Clouds 15 1021 87 10000 1 50 19:19 29.11.2019
3263 Clouds 15 1021 87 10000 1 50 18:55 29.11.2019
3264 Clouds 16 1020 87 10000 1 0 18:37 29.11.2019
3265 Clouds 16 1020 87 10000 1 0 18:37 29.11.2019
3266 Clouds 16 1020 87 10000 1 0 18:37 29.11.2019
3267 Clouds 16 1020 87 10000 1 0 18:19 29.11.2019
3268 Clouds 17 1020 82 10000 1.5 140 17:43 29.11.2019
3269 Clouds 18 1020 82 10000 1.5 140 17:24 29.11.2019
3270 Clouds 18 1019 77 10000 2.1 130 16:57 29.11.2019
3271 Clouds 18 1019 77 10000 2.6 170 16:38 29.11.2019
3272 Clouds 18 1019 77 10000 2.6 170 16:18 29.11.2019
3273 Clouds 19 1019 68 10000 2.1 200 15:41 29.11.2019
3274 Clouds 19 1019 68 10000 2.1 200 15:22 29.11.2019
3275 Clouds 19 1019 72 10000 3.6 190 14:56 29.11.2019
3276 Clouds 20 1019 72 10000 4.1 180 14:38 29.11.2019
3277 Clouds 20 1019 72 10000 4.1 180 14:19 29.11.2019
3278 Clouds 20 1019 68 10000 2.1 150 13:41 29.11.2019
3279 Clouds 19 1019 68 10000 2.1 200 13:21 29.11.2019
3280 Clouds 19 1019 68 10000 2.1 200 12:57 29.11.2019
3281 Clouds 19 1019 68 10000 2.1 180 12:39 29.11.2019
3282 Clouds 19 1019 68 10000 2.1 180 12:39 29.11.2019
3283 Clouds 19 1019 68 10000 2.1 180 12:20 29.11.2019
3284 Clouds 18 1019 77 10000 1 0 11:54 29.11.2019
3285 Clouds 18 1019 77 10000 1 0 11:36 29.11.2019
3286 Clouds 16 1019 77 10000 1 0 11:18 29.11.2019
3287 Clouds 16 1019 77 10000 1 0 10:55 29.11.2019
3288 Clouds 16 1019 77 10000 1 0 10:55 29.11.2019
3289 Clouds 15 1018 82 10000 1 0 10:36 29.11.2019
3290 Clouds 13 1018 87 10000 1.5 120 10:18 29.11.2019
3291 Clouds 13 1018 87 10000 1.5 120 09:54 29.11.2019
3292 Clouds 13 1018 87 10000 1 0 09:36 29.11.2019
3293 Clouds 13 1018 87 10000 1 0 09:18 29.11.2019
3294 Clouds 13 1017 87 10000 1 0 08:39 29.11.2019
3295 Clouds 12 1017 87 10000 1 0 08:20 29.11.2019
3296 Clouds 12 1017 93 10000 1.5 310 07:58 29.11.2019
3297 Clouds 12 1016 93 10000 0.5 0 07:39 29.11.2019
3298 Clouds 12 1016 93 10000 0.5 0 07:21 29.11.2019
3299 Clouds 12 1016 93 10000 1 360 06:42 29.11.2019
3300 Clouds 13 1016 93 10000 1.5 350 05:48 29.11.2019
3301 Clear 13 1015 93 10000 1.5 350 05:24 29.11.2019
3302 Clear 15 1015 82 10000 2.1 200 04:31 29.11.2019
3303 Clear 14 1016 76 10000 1.5 210 03:22 29.11.2019
3304 Clouds 14 1016 87 10000 2.1 110 02:30 29.11.2019
3305 Clouds 14 1016 87 10000 1 0 01:52 29.11.2019
3306 Clouds 13 1016 93 10000 0.5 0 01:26 29.11.2019
3307 Clouds 12 1017 93 10000 1.5 70 00:44 29.11.2019
3308 Clouds 12 1017 93 10000 1.5 70 00:21 29.11.2019
3309 Clouds 12 1017 87 10000 1.5 20 23:56 28.11.2019
3310 Clouds 12 1017 87 10000 1 0 23:38 28.11.2019
3311 Clouds 12 1017 87 10000 1 0 23:19 28.11.2019
3312 Clouds 12 1017 87 10000 1.5 340 22:38 28.11.2019
3313 Clouds 13 1017 87 10000 1.5 340 22:20 28.11.2019
3314 Clouds 13 1017 87 10000 2.1 360 21:59 28.11.2019
3315 Clouds 13 1016 87 10000 1 0 21:40 28.11.2019
3316 Clouds 14 1016 87 10000 1 0 21:20 28.11.2019
3317 Clouds 14 1017 82 10000 0.5 0 20:57 28.11.2019
3318 Clouds 15 1017 82 10000 2.1 160 20:38 28.11.2019
3319 Clouds 15 1016 87 10000 2.1 190 20:18 28.11.2019
3320 Clouds 15 1016 87 10000 2.1 190 19:56 28.11.2019
3321 Clouds 16 1017 77 10000 2.6 160 19:36 28.11.2019
3322 Clouds 16 1017 77 10000 2.6 160 19:18 28.11.2019
3323 Clouds 16 1016 72 10000 5.1 190 18:56 28.11.2019
3324 Clouds 16 1016 77 10000 3.1 160 18:38 28.11.2019
3325 Clouds 16 1016 77 10000 3.1 160 18:18 28.11.2019
3326 Clouds 16 1016 59 10000 2.6 270 17:42 28.11.2019
3327 Clouds 17 1016 59 10000 2.6 270 17:24 28.11.2019
3328 Clouds 17 1016 59 10000 2.6 290 16:59 28.11.2019
3329 Clouds 17 1016 59 10000 2.6 290 16:59 28.11.2019
3330 Clouds 17 1015 59 10000 3.1 260 16:40 28.11.2019
3331 Clouds 18 1015 59 10000 3.1 260 16:19 28.11.2019
3332 Clouds 18 1015 59 10000 4.1 250 15:57 28.11.2019
3333 Clouds 18 1015 63 10000 5.7 260 15:38 28.11.2019
3334 Clouds 18 1015 55 10000 5.7 250 15:19 28.11.2019
3335 Clouds 18 1015 55 10000 5.7 250 14:57 28.11.2019
3336 Clouds 19 1015 59 10000 6.7 230 14:38 28.11.2019
3337 Clear 19 1015 59 10000 6.7 230 14:19 28.11.2019
3338 Clear 19 1016 42 10000 3.1 280 13:41 28.11.2019
3339 Clear 19 1016 42 10000 3.1 280 13:23 28.11.2019
3340 Clear 19 1016 45 10000 2.1 290 12:55 28.11.2019
3341 Clear 19 1016 45 10000 2.1 290 12:55 28.11.2019
3342 Clear 19 1016 63 10000 3.6 210 12:36 28.11.2019
3343 Clear 19 1016 63 10000 2.6 230 12:18 28.11.2019
3344 Clear 19 1016 63 10000 2.6 230 11:54 28.11.2019
3345 Clear 18 1016 68 10000 4.1 200 11:36 28.11.2019
3346 Clear 18 1016 68 10000 4.1 200 11:18 28.11.2019
3347 Clear 17 1016 63 10000 2.1 160 10:41 28.11.2019
3348 Clear 17 1016 63 10000 2.1 160 10:20 28.11.2019
3349 -273 0 0 0 0 0 09:55 28.11.2019
3350 Clear 14 1015 71 10000 1 110 09:37 28.11.2019
3351 Clear 14 1015 71 10000 1 110 09:18 28.11.2019
3352 Clear 10 1014 87 10000 1 80 08:40 28.11.2019
3353 Clear 11 1014 87 10000 1 80 08:21 28.11.2019
3354 Clear 10 1014 81 10000 1.5 0 07:55 28.11.2019
3355 Clear 10 1013 93 10000 1.5 130 07:36 28.11.2019
3356 Clear 10 1013 93 10000 1.5 130 07:18 28.11.2019
3357 Clear 9 1013 93 10000 1 0 06:37 28.11.2019
3358 Clear 9 1012 87 10000 1.5 80 05:53 28.11.2019
3359 Clear 9 1012 93 10000 1.5 360 05:33 28.11.2019
3360 Clouds 11 1012 87 10000 1.5 360 03:52 28.11.2019
3361 Clouds 11 1011 87 10000 2.6 340 02:30 28.11.2019
3362 Clear 13 1012 87 10000 0.5 360 01:25 28.11.2019
3363 Clear 14 1012 81 10000 1 0 00:39 28.11.2019
3364 Clear 14 1012 81 10000 1 0 00:18 28.11.2019
3365 Clear 13 1012 87 10000 1.5 160 23:39 27.11.2019
3366 Clear 13 1012 93 10000 1.5 80 23:20 27.11.2019
3367 Clear 12 1012 93 10000 1.5 80 22:56 27.11.2019
3368 Clear 14 1012 93 10000 2.1 60 22:38 27.11.2019
3369 Clear 13 1012 93 10000 2.1 60 22:18 27.11.2019
3370 Clear 14 1012 87 10000 1.5 330 21:55 27.11.2019
3371 Clear 14 1012 87 10000 1.5 320 21:36 27.11.2019
3372 Clear 15 1012 87 10000 1.5 320 21:18 27.11.2019
3373 Clear 15 1012 82 10000 1 0 20:56 27.11.2019
3374 Clear 15 1012 82 10000 1 0 20:56 27.11.2019
3375 Clear 15 1012 87 10000 2.1 350 20:37 27.11.2019
3376 Clouds 15 1012 87 10000 2.1 350 20:19 27.11.2019
3377 Clouds 15 1012 82 10000 2.6 230 19:55 27.11.2019
3378 Clouds 15 1011 77 10000 1 0 19:37 27.11.2019
3379 Clouds 16 1011 77 10000 1 0 19:18 27.11.2019
3380 Clouds 16 1011 77 10000 1.5 0 18:55 27.11.2019
3381 Clouds 16 1011 72 10000 1.5 330 18:36 27.11.2019
3382 Clouds 17 1011 67 10000 2.1 290 18:18 27.11.2019
3383 Clouds 17 1011 67 10000 2.1 290 17:55 27.11.2019
3384 Clouds 17 1010 63 10000 2.6 320 17:36 27.11.2019
3385 Clouds 18 1010 63 10000 2.6 320 17:18 27.11.2019
3386 Clouds 18 1010 63 10000 3.6 310 16:55 27.11.2019
3387 Clouds 19 1010 59 10000 2.6 280 16:36 27.11.2019
3388 Clouds 19 1010 59 10000 2.6 280 16:18 27.11.2019
3389 Clouds 19 1010 63 10000 3.1 250 15:55 27.11.2019
3390 Clouds 19 1010 63 10000 4.1 330 15:37 27.11.2019
3391 Clouds 19 1010 63 10000 4.1 330 15:18 27.11.2019
3392 Clouds 19 1010 63 10000 6.2 320 14:41 27.11.2019
3393 Clouds 19 1010 63 10000 6.2 320 14:23 27.11.2019
3394 Clouds 20 1010 56 10000 4.6 310 13:59 27.11.2019
3395 Clouds 20 1010 56 10000 6.2 310 13:40 27.11.2019
3396 Clouds 20 1010 49 10000 5.7 300 13:19 27.11.2019
3397 Clouds 20 1010 49 10000 5.7 300 12:59 27.11.2019
3398 Clouds 20 1011 52 10000 5.1 290 12:40 27.11.2019
3399 Clouds 20 1011 52 10000 4.1 280 12:20 27.11.2019
3400 Clouds 20 1011 52 10000 4.1 280 11:54 27.11.2019
3401 Clouds 20 1011 52 10000 4.1 280 11:36 27.11.2019
3402 Clear 20 1011 56 10000 4.6 260 11:18 27.11.2019
3403 Clear 19 1010 59 10000 6.2 270 10:42 27.11.2019
3404 Clear 19 1010 59 10000 6.2 270 10:24 27.11.2019
3405 Clear 19 1010 59 10000 5.7 270 09:50 27.11.2019
3406 Clear 18 1009 63 10000 2.6 250 09:27 27.11.2019
3407 Clear 18 1009 68 10000 3.6 250 08:59 27.11.2019
3408 Clear 18 1009 72 10000 2.6 230 08:41 27.11.2019
3409 Clear 18 1009 72 10000 2.6 230 08:41 27.11.2019
3410 Clouds 17 1009 72 10000 2.6 230 08:22 27.11.2019
3411 Clouds 17 1009 77 10000 4.1 210 07:47 27.11.2019
3412 Clouds 17 1008 82 10000 4.1 180 07:28 27.11.2019
3413 Clouds 17 1007 93 10000 4.1 230 06:54 27.11.2019
3414 Clouds 17 1008 82 10000 4.1 190 06:35 27.11.2019
3415 Clouds 17 1008 82 10000 6.7 210 05:46 27.11.2019
3416 Clouds 17 1008 93 10000 6.2 220 05:21 27.11.2019
3417 Clouds 17 1008 87 10000 7.7 230 04:48 27.11.2019
3418 Clouds 17 1008 87 10000 7.7 230 04:29 27.11.2019
3419 Clouds 16 1008 87 10000 5.1 240 03:40 27.11.2019
3420 Clouds 16 1008 87 10000 5.1 240 03:19 27.11.2019
3421 Clouds 16 1009 93 10000 1.5 330 02:28 27.11.2019
3422 Clear 16 1010 87 10000 1.5 220 00:50 27.11.2019
3423 Clear 16 1010 87 10000 2.1 260 00:30 27.11.2019
3424 Clouds 16 1009 93 10000 4.6 240 23:56 26.11.2019
3425 Clear 16 1011 87 10000 2.6 260 23:38 26.11.2019
3426 Clear 16 1011 87 10000 2.6 250 23:19 26.11.2019
3427 Clear 16 1011 93 10000 3.1 250 22:40 26.11.2019
3428 Clear 16 1011 93 10000 3.1 250 22:40 26.11.2019
3429 Clear 16 1011 93 10000 3.1 250 22:40 26.11.2019
3430 Clear 16 1011 93 10000 3.1 250 22:20 26.11.2019
3431 Clear 16 1011 87 10000 2.1 240 21:59 26.11.2019
3432 Clear 16 1012 93 10000 1 0 21:39 26.11.2019
3433 Clear 16 1012 93 10000 1 0 21:21 26.11.2019
3434 Clear 16 1012 93 10000 1 0 21:21 26.11.2019
3435 Clear 16 1012 87 10000 3.1 230 20:57 26.11.2019
3436 Clear 16 1012 87 10000 2.1 300 20:37 26.11.2019
3437 Clear 16 1012 87 10000 2.1 300 20:37 26.11.2019
3438 Clouds 16 1012 87 10000 2.1 300 20:19 26.11.2019
3439 Clouds 16 1012 87 10000 2.1 300 20:19 26.11.2019
3440 Clouds 16 1011 93 10000 2.1 260 19:56 26.11.2019
3441 Clouds 16 1012 87 10000 2.6 310 19:56 26.11.2019
3442 Clouds 16 1011 93 10000 2.1 260 19:38 26.11.2019
3443 Clouds 15 1010 93 10000 4.1 240 19:19 26.11.2019
3444 Clouds 16 1011 93 10000 2.6 230 18:58 26.11.2019
3445 Clouds 16 1011 87 10000 3.6 220 18:39 26.11.2019
3446 Clouds 16 1011 87 10000 3.6 220 18:21 26.11.2019
3447 Clouds 17 1010 88 10000 4.1 210 17:58 26.11.2019
3448 Clouds 17 1011 77 10000 5.1 210 17:40 26.11.2019
3449 Clouds 17 1012 63 10000 5.7 230 17:21 26.11.2019
3450 Clouds 18 1012 63 10000 5.7 230 16:57 26.11.2019
3451 Clouds 18 1012 63 10000 6.7 230 16:37 26.11.2019
3452 Clouds 18 1012 63 10000 6.7 230 16:19 26.11.2019
3453 Clouds 18 1012 63 10000 5.7 220 16:19 26.11.2019
3454 Clouds 18 1012 63 10000 5.7 220 15:59 26.11.2019
3455 Clouds 18 1012 63 10000 5.7 220 15:59 26.11.2019
3456 Clouds 18 1012 68 10000 5.7 210 15:38 26.11.2019
3457 Clouds 18 1012 68 10000 5.7 210 15:20 26.11.2019
3458 Clouds 18 1012 72 10000 5.1 210 14:51 26.11.2019
3459 Clouds 18 1012 77 10000 5.1 210 14:26 26.11.2019
3460 Clouds 18 1013 77 10000 5.1 230 13:57 26.11.2019
3461 Clouds 18 1013 77 10000 4.6 210 13:38 26.11.2019
3462 Clouds 18 1013 77 10000 4.6 210 13:19 26.11.2019
3463 Clouds 18 1013 77 10000 4.6 210 13:19 26.11.2019
3464 Clouds 18 1014 82 10000 3.6 210 12:39 26.11.2019
3465 Clouds 18 1014 82 10000 1 0 12:21 26.11.2019
3466 Clouds 18 1014 82 10000 1 0 11:59 26.11.2019
3467 Clouds 17 1014 77 10000 1 0 11:40 26.11.2019
3468 Clouds 16 1015 72 10000 0.5 0 11:20 26.11.2019
3469 Clouds 16 1015 72 10000 0.5 0 10:59 26.11.2019
3470 Clouds 15 1014 77 10000 1 0 10:41 26.11.2019
3471 Clouds 14 1014 76 10000 1 0 10:21 26.11.2019
3472 Clouds 14 1014 76 10000 1 0 09:58 26.11.2019
3473 Clouds 12 1014 81 10000 2.1 10 09:38 26.11.2019
3474 Clouds 12 1014 81 10000 2.1 10 09:20 26.11.2019
3475 Clouds 10 1014 93 10000 1.5 350 08:44 26.11.2019
3476 Clouds 10 1014 93 10000 1.5 350 08:44 26.11.2019
3477 Clouds 10 1014 93 10000 1.5 350 08:25 26.11.2019
3478 Clouds 10 1014 87 10000 1.5 360 07:47 26.11.2019
3479 Clouds 10 1014 87 10000 1.5 360 07:29 26.11.2019
3480 Clouds 10 1014 87 10000 1.5 360 07:29 26.11.2019
3481 Clouds 9 1013 93 10000 2.39 86 06:56 26.11.2019
3482 Clouds 9 1014 93 10000 2.1 340 06:35 26.11.2019
3483 Clouds 9 1014 87 10000 2.1 20 05:54 26.11.2019
3484 Clouds 10 1014 81 10000 0.5 0 04:47 26.11.2019
3485 Clouds 10 1015 87 10000 2.6 330 02:53 26.11.2019
3486 Clouds 10 1015 87 10000 1.5 360 01:34 26.11.2019
3487 Clouds 10 1015 87 10000 1.5 350 00:53 26.11.2019
3488 Clouds 10 1015 87 10000 1 0 00:31 26.11.2019
3489 Clouds 11 1014 93 10000 0.57 79 23:56 25.11.2019
3490 Clouds 11 1015 81 10000 1.5 20 23:37 25.11.2019
3491 Clouds 12 1015 81 10000 2.1 10 23:18 25.11.2019
3492 Clouds 12 1015 81 10000 1 0 22:39 25.11.2019
3493 Clouds 12 1015 81 10000 1 0 22:19 25.11.2019
3494 Clouds 12 1015 81 10000 1 0 21:59 25.11.2019
3495 Clouds 12 1015 81 10000 1 0 21:59 25.11.2019
3496 Clouds 12 1015 81 10000 1.5 60 21:40 25.11.2019
3497 Clouds 13 1015 81 10000 1.5 60 21:22 25.11.2019
3498 Clouds 13 1015 76 10000 1.5 10 20:58 25.11.2019
3499 Clouds 14 1014 71 10000 1 0 20:40 25.11.2019
3500 Clouds 14 1014 71 10000 1 0 20:40 25.11.2019
3501 Clouds 14 1014 71 10000 2.6 330 20:20 25.11.2019
3502 Clouds 14 1014 71 10000 2.6 330 19:57 25.11.2019
3503 Clouds 15 1014 67 10000 3.1 290 19:38 25.11.2019
3504 Clouds 15 1013 67 10000 3.1 290 19:20 25.11.2019
3505 Clouds 16 1013 67 10000 3.1 290 18:57 25.11.2019
3506 Clouds 16 1013 63 10000 4.1 300 18:39 25.11.2019
3507 Clouds 16 1013 63 10000 3.1 300 18:21 25.11.2019
3508 Clouds 16 1012 63 10000 3.6 310 17:58 25.11.2019
3509 Clouds 17 1013 59 10000 3.6 330 17:40 25.11.2019
3510 Clouds 17 1013 59 10000 3.6 330 17:40 25.11.2019
3511 Clouds 17 1012 59 10000 3.6 330 17:21 25.11.2019
3512 Clouds 17 1012 59 10000 3.6 330 16:59 25.11.2019
3513 Clouds 18 1012 52 10000 5.1 320 16:41 25.11.2019
3514 Clouds 19 1011 48 10000 5.1 320 16:22 25.11.2019
3515 Clouds 19 1011 48 10000 5.1 320 15:56 25.11.2019
3516 Clouds 19 1011 48 10000 4.6 320 15:37 25.11.2019
3517 Clouds 19 1011 48 10000 4.6 310 15:19 25.11.2019
3518 Clouds 19 1011 48 10000 4.6 310 14:44 25.11.2019
3519 Clouds 19 1011 48 10000 3.6 320 14:26 25.11.2019
3520 Clouds 19 1011 48 10000 3.6 320 13:58 25.11.2019
3521 Clouds 19 1011 48 10000 2.1 290 13:38 25.11.2019
3522 Clouds 19 1011 48 10000 2.1 290 13:38 25.11.2019
3523 Clouds 19 1011 48 10000 2.1 290 13:20 25.11.2019
3524 Clouds 18 1012 52 10000 1.5 280 13:20 25.11.2019
3525 Clouds 19 1012 52 10000 1.5 280 12:59 25.11.2019
3526 Clouds 19 1012 52 10000 1.5 280 12:59 25.11.2019
3527 Clouds 18 1012 59 10000 2.6 250 12:39 25.11.2019
3528 Clouds 18 1013 59 10000 1.5 240 12:19 25.11.2019
3529 Clouds 17 1013 63 10000 1 0 11:40 25.11.2019
3530 Clouds 17 1013 63 10000 0.5 0 11:22 25.11.2019
3531 Clouds 17 1012 72 10000 3.6 250 11:22 25.11.2019
3532 Clouds 16 1013 63 10000 0.5 0 10:59 25.11.2019
3533 Clouds 16 1013 72 10000 1.5 270 10:41 25.11.2019
3534 Clouds 16 1012 67 10000 1 0 10:20 25.11.2019
3535 Clouds 14 1012 82 10000 4.26 300 09:45 25.11.2019
3536 Clouds 14 1012 82 10000 4.26 300 09:26 25.11.2019
3537 Clouds 13 1012 81 10000 1 0 08:59 25.11.2019
3538 Clouds 12 1012 87 10000 1 0 08:39 25.11.2019
3539 Clouds 13 1011 82 10000 4.6 270 08:20 25.11.2019
3540 Clouds 13 1010 71 10000 4.6 270 07:41 25.11.2019
3541 Clear 12 1011 87 10000 2.1 300 07:20 25.11.2019
3542 Clear 11 1011 87 10000 2.1 320 06:45 25.11.2019
3543 Clouds 10 1010 87 10000 4.89 272 06:21 25.11.2019
3544 Clear 10 1011 87 10000 2.6 350 05:38 25.11.2019
3545 Clouds 10 1011 81 10000 2.6 350 04:51 25.11.2019
3546 Clouds 13 1012 66 10000 3.1 250 02:51 25.11.2019
3547 Clear 13 1012 62 10000 2.1 260 02:19 25.11.2019
3548 Clear 13 1012 58 10000 5.1 300 01:39 25.11.2019
3549 Clear 13 1012 58 10000 3.1 270 01:20 25.11.2019
3550 Clear 13 1012 62 10000 3.6 290 00:23 25.11.2019
3551 Clear 13 1012 66 10000 3.1 270 23:58 24.11.2019
3552 Clear 13 1012 66 10000 3.6 260 23:38 24.11.2019
3553 Clear 13 1012 66 10000 3.6 270 23:19 24.11.2019
3554 Clear 13 1012 66 10000 3.6 270 22:54 24.11.2019
3555 Clear 13 1012 71 10000 3.1 250 22:36 24.11.2019
3556 Clear 13 1012 71 10000 2.1 230 22:18 24.11.2019
3557 Clear 13 1012 66 10000 3.1 290 21:42 24.11.2019
3558 Clear 14 1012 66 10000 3.1 280 21:21 24.11.2019
3559 Clear 14 1012 66 10000 3.1 280 20:59 24.11.2019
3560 Clear 14 1012 66 10000 3.1 280 20:59 24.11.2019
3561 Clear 14 1012 62 10000 3.1 290 20:39 24.11.2019
3562 Clouds 14 1012 71 10000 4.1 300 20:19 24.11.2019
3563 Clouds 14 1012 71 10000 4.1 300 19:57 24.11.2019
3564 Clouds 14 1012 66 10000 2.6 290 19:39 24.11.2019
3565 Clouds 13 1011 71 10000 3.6 270 19:21 24.11.2019
3566 Clouds 13 1011 71 10000 3.6 270 18:59 24.11.2019
3567 Clouds 13 1011 71 10000 3.6 270 18:59 24.11.2019
3568 Clouds 14 1012 67 10000 3.1 270 18:38 24.11.2019
3569 Clouds 14 1011 62 10000 4.6 300 18:20 24.11.2019
3570 Clouds 14 1010 62 10000 4.6 290 17:58 24.11.2019
3571 Clouds 14 1011 62 10000 4.6 300 17:40 24.11.2019
3572 Clouds 14 1010 67 10000 3.6 290 17:21 24.11.2019
3573 Clouds 14 1010 62 10000 4.1 320 16:58 24.11.2019
3574 Clouds 15 1010 62 10000 4.6 310 16:39 24.11.2019
3575 Clouds 15 1010 62 10000 4.6 310 16:21 24.11.2019
3576 Clouds 15 1010 58 10000 5.1 300 15:46 24.11.2019
3577 Clouds 15 1010 58 10000 6.2 300 15:27 24.11.2019
3578 Clouds 15 1010 55 10000 6.2 300 14:59 24.11.2019
3579 Clouds 15 1009 55 10000 5.1 310 14:39 24.11.2019
3580 Clear 16 1009 55 10000 5.1 310 14:19 24.11.2019
3581 Clear 15 1009 54 10000 7.2 310 13:58 24.11.2019
3582 Clear 15 1009 54 10000 7.2 310 13:37 24.11.2019
3583 Clouds 15 1009 54 10000 7.2 310 13:19 24.11.2019
3584 Clouds 15 1009 54 10000 7.7 310 12:56 24.11.2019
3585 Clouds 15 1010 54 10000 6.7 310 12:37 24.11.2019
3586 Clouds 15 1010 54 10000 6.7 320 12:18 24.11.2019
3587 Clouds 15 1010 58 10000 6.7 320 11:38 24.11.2019
3588 Clouds 15 1010 58 10000 6.2 310 11:19 24.11.2019
3589 Clouds 14 1010 58 10000 6.2 310 10:55 24.11.2019
3590 Clouds 14 1009 58 10000 7.7 320 10:37 24.11.2019
3591 Clouds 14 1009 58 10000 7.7 320 10:19 24.11.2019
3592 Clouds 14 1009 58 10000 6.7 310 09:39 24.11.2019
3593 Clouds 14 1008 54 10000 8.2 310 09:20 24.11.2019
3594 Clouds 14 1008 54 10000 8.2 310 08:57 24.11.2019
3595 Clouds 14 1008 58 10000 6.2 310 08:39 24.11.2019
3596 Clear 14 1008 58 10000 6.2 310 08:20 24.11.2019
3597 Clear 14 1007 58 10000 6.7 310 07:47 24.11.2019
3598 Clear 14 1007 58 10000 6.7 310 07:22 24.11.2019
3599 Clear 14 1006 58 10000 7.7 300 06:52 24.11.2019
3600 Clear 14 1005 54 10000 9.3 320 05:39 24.11.2019
3601 Clear 14 1005 58 10000 8.2 310 04:41 24.11.2019
3602 Clear 14 1004 58 10000 7.7 310 02:43 24.11.2019
3603 Clouds 14 1004 58 10000 7.2 300 01:56 24.11.2019
3604 Clouds 14 1004 58 10000 7.7 310 01:34 24.11.2019
3605 Clouds 14 1004 58 10000 7.7 300 00:57 24.11.2019
3606 Clouds 14 1004 58 10000 6.7 310 00:38 24.11.2019
3607 Clouds 14 1003 58 10000 5.1 310 00:19 24.11.2019
3608 Clouds 15 1003 51 10000 7.7 300 23:43 23.11.2019
3609 Clouds 15 1002 54 10000 6.7 290 23:21 23.11.2019
3610 Clouds 15 1002 54 10000 7.7 310 22:57 23.11.2019
3611 Clouds 15 1002 51 10000 9.8 310 22:37 23.11.2019
3612 Clouds 15 1002 51 10000 9.8 310 22:19 23.11.2019
3613 Clouds 15 1002 51 10000 10.3 310 21:57 23.11.2019
3614 Clouds 15 1002 47 10000 10.8 320 21:39 23.11.2019
3615 Clouds 15 1002 47 10000 10.8 320 21:20 23.11.2019
3616 Clouds 15 1001 47 10000 6.7 290 20:39 23.11.2019
3617 Clouds 15 1001 47 10000 6.7 290 20:20 23.11.2019
3618 Clouds 15 1000 54 10000 4.6 290 19:58 23.11.2019
3619 Clouds 15 1000 51 10000 5.1 290 19:39 23.11.2019
3620 Clouds 15 999 54 10000 10.3 320 19:19 23.11.2019
3621 Clouds 15 1000 47 10000 6.2 310 19:19 23.11.2019
3622 Clouds 15 1000 47 10000 6.2 310 18:59 23.11.2019
3623 Clouds 15 998 54 10000 7.2 290 18:39 23.11.2019
3624 Clouds 15 998 54 10000 7.2 300 18:19 23.11.2019
3625 Clouds 15 997 62 10000 6.2 290 17:45 23.11.2019
3626 Clouds 15 997 58 10000 5.7 280 17:24 23.11.2019
3627 Rain 14 997 58 10000 7.7 310 16:57 23.11.2019
3628 Rain 14 997 62 10000 8.2 300 16:39 23.11.2019
3629 Rain 14 997 62 10000 8.2 300 16:21 23.11.2019
3630 Rain 14 996 62 10000 8.7 310 15:59 23.11.2019
3631 Rain 14 996 67 10000 7.7 310 15:39 23.11.2019
3632 Rain 14 996 67 10000 7.7 310 15:19 23.11.2019
3633 Rain 14 996 67 10000 7.7 310 15:19 23.11.2019
3634 Rain 14 996 71 10000 7.7 300 14:58 23.11.2019
3635 Rain 14 995 82 10000 4.1 290 14:40 23.11.2019
3636 Rain 14 995 82 10000 4.1 290 14:21 23.11.2019
3637 Thunderstorm 13 995 76 8000 3.1 290 13:57 23.11.2019
3638 Thunderstorm 13 995 81 10000 4.1 330 13:38 23.11.2019
3639 Thunderstorm 13 995 81 10000 4.1 330 13:18 23.11.2019
3640 Thunderstorm 16 993 82 8000 4.6 300 12:42 23.11.2019
3641 Rain 15 995 63 10000 6.2 260 12:24 23.11.2019
3642 Rain 15 995 62 10000 7.7 260 11:45 23.11.2019
3643 Clouds 15 994 67 10000 10.8 260 11:24 23.11.2019
3644 Clouds 15 995 58 10000 5.7 260 10:57 23.11.2019
3645 Clouds 15 994 62 10000 5.7 250 10:39 23.11.2019
3646 Clouds 16 994 59 10000 4.6 260 10:18 23.11.2019
3647 Clouds 16 994 63 10000 7.2 240 09:41 23.11.2019
3648 Clouds 16 993 59 10000 4.1 250 09:18 23.11.2019
3649 Clouds 16 993 55 10000 3.6 260 08:41 23.11.2019
3650 Rain 16 993 55 10000 3.6 260 08:41 23.11.2019
3651 Clouds 16 993 58 10000 4.1 240 08:19 23.11.2019
3652 Rain 16 993 55 10000 5.1 270 07:42 23.11.2019
3653 Clouds 16 993 62 10000 4.1 260 06:58 23.11.2019
3654 Clouds 16 993 77 10000 1.5 230 06:38 23.11.2019
3655 Clouds 16 993 77 10000 2.1 260 06:19 23.11.2019
3656 Clouds 16 993 72 10000 3.1 260 05:32 23.11.2019
3657 Rain 16 993 87 10000 4.6 240 04:58 23.11.2019
3658 Rain 16 993 93 10000 4.1 240 04:34 23.11.2019
3659 Rain 17 994 88 6000 8.7 240 03:27 23.11.2019
3660 Rain 17 994 88 10000 7.7 230 02:39 23.11.2019
3661 Rain 17 994 88 10000 7.7 230 02:39 23.11.2019
3662 Rain 16 996 93 10000 8.7 200 01:40 23.11.2019
3663 Rain 16 996 93 5000 11.3 200 00:49 23.11.2019
3664 Rain 16 996 93 10000 10.3 210 00:21 23.11.2019
3665 Rain 16 996 93 10000 10.3 200 23:56 22.11.2019
3666 Rain 16 997 93 6000 11.3 200 23:37 22.11.2019
3667 Rain 16 998 93 2600 8.7 190 23:18 22.11.2019
3668 Rain 15 998 93 2600 8.7 190 22:56 22.11.2019
3669 Rain 15 999 93 4300 9.3 190 22:37 22.11.2019
3670 Rain 15 999 93 4300 9.3 190 22:18 22.11.2019
3671 Rain 15 999 93 4400 10.3 200 21:55 22.11.2019
3672 Rain 16 1000 87 6000 8.7 200 21:36 22.11.2019
3673 Rain 16 1000 87 6000 8.7 200 21:18 22.11.2019
3674 Rain 17 1001 82 10000 7.2 200 20:40 22.11.2019
3675 Rain 17 1001 82 10000 7.2 200 20:22 22.11.2019
3676 Rain 16 1001 82 10000 7.7 190 19:54 22.11.2019
3677 Rain 16 1001 77 10000 8.2 190 19:36 22.11.2019
3678 Rain 16 1001 77 10000 8.2 190 19:18 22.11.2019
3679 Rain 17 1002 82 10000 7.2 200 18:39 22.11.2019
3680 Rain 17 1002 82 10000 7.2 200 18:21 22.11.2019
3681 Rain 16 1002 87 10000 6.2 210 17:43 22.11.2019
3682 Rain 16 1002 87 10000 6.2 210 17:24 22.11.2019
3683 Rain 17 1002 82 10000 7.2 210 16:59 22.11.2019
3684 Rain 17 1002 82 10000 7.2 210 16:40 22.11.2019
3685 Rain 17 1002 82 10000 7.2 210 16:22 22.11.2019
3686 Rain 17 1003 82 10000 8.2 220 15:41 22.11.2019
3687 Rain 17 1003 82 10000 8.2 220 15:23 22.11.2019
3688 Rain 17 1003 82 10000 8.2 220 14:55 22.11.2019
3689 Rain 17 1004 82 10000 8.2 210 14:37 22.11.2019
3690 Rain 17 1004 82 10000 8.2 210 14:19 22.11.2019
3691 Rain 17 1005 82 10000 5.7 230 13:40 22.11.2019
3692 Rain 17 1005 82 10000 5.7 230 13:20 22.11.2019
3693 Rain 17 1005 82 10000 5.7 230 13:20 22.11.2019
3694 Rain 17 1006 88 10000 4.1 230 12:59 22.11.2019
3695 Rain 16 1006 93 10000 1 0 12:40 22.11.2019
3696 Rain 16 1006 93 10000 1 0 12:40 22.11.2019
3697 Rain 16 1006 93 10000 1 0 12:20 22.11.2019
3698 Rain 15 1007 93 5000 0.5 0 11:59 22.11.2019
3699 Rain 15 1007 93 10000 1.5 60 11:38 22.11.2019
3700 Rain 15 1007 93 10000 1.5 60 11:20 22.11.2019
3701 Rain 14 1007 93 10000 0.5 100 10:58 22.11.2019
3702 Rain 14 1007 100 10000 2.1 70 10:39 22.11.2019
3703 Rain 13 1007 100 10000 2.1 70 10:21 22.11.2019
3704 Rain 13 1006 100 6000 2.1 70 09:55 22.11.2019
3705 Rain 13 1007 100 4000 2.6 70 09:37 22.11.2019
3706 Rain 13 1008 93 4600 2.1 50 09:18 22.11.2019
3707 Rain 13 1007 93 10000 2.1 50 08:44 22.11.2019
3708 Rain 12 1007 93 5000 2.1 80 08:24 22.11.2019
3709 Rain 12 1008 93 10000 1.5 40 07:44 22.11.2019
3710 Rain 12 1008 93 10000 1 0 07:22 22.11.2019
3711 Rain 12 1008 93 10000 1.5 70 06:49 22.11.2019
3712 Rain 12 1008 93 10000 1.5 70 06:29 22.11.2019
3713 Rain 12 1008 93 5000 1.5 60 05:45 22.11.2019
3714 Drizzle 11 1008 93 10000 1.5 310 04:22 22.11.2019
3715 Rain 11 1009 93 10000 1 350 02:52 22.11.2019
3716 Rain 11 1009 93 10000 1.5 340 02:30 22.11.2019
3717 Rain 10 1009 93 10000 1.5 350 01:45 22.11.2019
3718 Clouds 10 1010 93 10000 1 0 01:20 22.11.2019
3719 Clouds 10 1010 93 10000 2.1 350 00:50 22.11.2019
3720 Clouds 10 1010 87 10000 1 350 00:24 22.11.2019
3721 Clouds 10 1010 87 10000 1.5 310 23:49 21.11.2019
3722 Clouds 10 1010 87 10000 2.1 350 23:30 21.11.2019
3723 Clouds 11 1010 87 10000 1 0 22:59 21.11.2019
3724 Clouds 11 1010 87 10000 1 0 22:39 21.11.2019
3725 Clouds 11 1010 87 10000 1 0 22:21 21.11.2019
3726 Clouds 12 1010 87 10000 1 0 21:57 21.11.2019
3727 Clouds 12 1010 87 10000 1 0 21:38 21.11.2019
3728 Clouds 11 1010 87 10000 1 0 21:19 21.11.2019
3729 Clouds 12 1010 87 10000 1.5 340 20:58 21.11.2019
3730 Clouds 12 1010 81 10000 1.5 30 20:39 21.11.2019
3731 Clouds 12 1010 81 10000 1 0 20:19 21.11.2019
3732 Clouds 12 1010 81 10000 1 0 19:59 21.11.2019
3733 Clouds 13 1010 76 10000 1 320 19:41 21.11.2019
3734 Clouds 13 1010 76 10000 1 320 19:22 21.11.2019
3735 Clouds 13 1010 71 10000 1 280 18:57 21.11.2019
3736 Clouds 14 1010 71 10000 1.5 270 18:38 21.11.2019
3737 Clouds 14 1010 71 10000 1.5 270 18:19 21.11.2019
3738 Clouds 14 1010 67 10000 2.1 260 17:57 21.11.2019
3739 Clouds 14 1009 67 10000 2.1 260 17:38 21.11.2019
3740 Clouds 14 1009 67 10000 2.1 260 17:19 21.11.2019
3741 Clouds 14 1009 67 10000 2.1 260 17:19 21.11.2019
3742 Clouds 15 1009 58 10000 4.1 270 16:42 21.11.2019
3743 Clouds 15 1009 58 10000 5.7 250 16:22 21.11.2019
3744 Clouds 15 1009 58 10000 5.7 250 15:58 21.11.2019
3745 Clouds 16 1009 59 10000 5.7 250 15:40 21.11.2019
3746 Clouds 15 1009 59 10000 5.7 250 15:20 21.11.2019
3747 Clouds 16 1009 55 10000 6.2 240 14:56 21.11.2019
3748 Clouds 16 1009 55 10000 5.7 250 14:37 21.11.2019
3749 Clouds 16 1009 55 10000 5.7 250 14:18 21.11.2019
3750 Clouds 15 1009 62 10000 5.7 250 13:40 21.11.2019
3751 Clouds 15 1009 62 10000 5.7 250 13:21 21.11.2019
3752 Clouds 15 1009 59 10000 6.7 250 12:59 21.11.2019
3753 Clouds 16 1010 59 10000 5.7 250 12:39 21.11.2019
3754 Clouds 15 1010 67 10000 3.6 230 12:21 21.11.2019
3755 Clouds 15 1010 67 10000 3.6 230 11:54 21.11.2019
3756 Clouds 15 1010 67 10000 3.6 260 11:36 21.11.2019
3757 Rain 15 1010 72 10000 2.1 230 11:18 21.11.2019
3758 Rain 13 1010 87 10000 0.5 180 10:42 21.11.2019
3759 Rain 12 1010 93 10000 1 0 10:23 21.11.2019
3760 Rain 11 1010 93 10000 1 0 09:57 21.11.2019
3761 Rain 10 1010 100 10000 1 0 09:39 21.11.2019
3762 Rain 10 1010 100 10000 1 0 09:20 21.11.2019
3763 Rain 9 1009 100 10000 1.5 350 08:43 21.11.2019
3764 Rain 9 1009 100 10000 1.5 350 08:22 21.11.2019
3765 Rain 9 1009 93 10000 2.1 350 07:44 21.11.2019
3766 Rain 10 1009 93 10000 2.1 350 07:19 21.11.2019
3767 Rain 10 1009 93 10000 1.5 10 06:58 21.11.2019
3768 Rain 10 1009 100 10000 1.5 350 06:34 21.11.2019
3769 Rain 11 1009 93 10000 2.1 50 05:42 21.11.2019
3770 Rain 10 1009 93 10000 1.5 360 03:36 21.11.2019
3771 Rain 9 1010 100 10000 2.1 350 02:42 21.11.2019
3772 Clouds 9 1010 100 10000 2.1 350 02:24 21.11.2019
3773 Clouds 9 1010 93 10000 1 0 01:49 21.11.2019
3774 Rain 9 1010 93 10000 1.5 30 01:20 21.11.2019
3775 Clouds 9 1011 93 10000 3.1 350 00:38 21.11.2019
3776 Clouds 9 1011 93 10000 2.6 360 00:20 21.11.2019
3777 Clouds 9 1011 93 10000 2.6 360 23:46 20.11.2019
3778 Clear 9 1011 93 10000 2.6 350 23:21 20.11.2019
3779 Clear 10 1011 93 10000 2.6 350 22:58 20.11.2019
3780 Clear 10 1011 93 10000 2.1 350 22:38 20.11.2019
3781 Clear 10 1011 93 10000 2.1 350 22:19 20.11.2019
3782 Clear 10 1011 93 10000 2.6 350 21:58 20.11.2019
3783 Clear 10 1011 93 10000 1.5 330 21:39 20.11.2019
3784 Clear 11 1011 93 10000 1.5 330 21:20 20.11.2019
3785 Clear 11 1011 93 10000 1.5 330 21:20 20.11.2019
3786 Clear 11 1011 93 10000 2.1 330 20:57 20.11.2019
3787 Clear 11 1011 93 10000 1.5 350 20:39 20.11.2019
3788 Rain 11 1011 93 10000 1.5 350 20:20 20.11.2019
3789 Rain 11 1011 93 10000 2.1 330 19:56 20.11.2019
3790 Rain 12 1011 93 10000 1.5 350 19:37 20.11.2019
3791 Rain 12 1011 93 10000 1.5 350 19:19 20.11.2019
3792 Rain 12 1011 87 10000 1.5 350 18:58 20.11.2019
3793 Rain 12 1011 81 10000 2.1 60 18:39 20.11.2019
3794 Rain 12 1011 81 10000 2.1 60 18:39 20.11.2019
3795 Rain 12 1011 81 10000 2.1 60 18:21 20.11.2019
3796 Rain 13 1011 81 10000 2.6 30 17:56 20.11.2019
3797 Rain 13 1011 81 10000 3.1 320 17:38 20.11.2019
3798 Rain 13 1011 81 10000 3.1 320 17:38 20.11.2019
3799 Rain 13 1011 76 10000 3.1 0 17:20 20.11.2019
3800 Rain 13 1011 76 10000 3.1 0 16:57 20.11.2019
3801 Rain 13 1011 76 10000 2.6 90 16:38 20.11.2019
3802 Rain 14 1011 76 10000 2.6 90 16:18 20.11.2019
3803 Rain 14 1012 67 10000 2.1 110 15:42 20.11.2019
3804 Rain 14 1012 67 10000 2.1 110 15:22 20.11.2019
3805 Rain 14 1012 62 10000 2.1 130 14:59 20.11.2019
3806 Rain 15 1012 58 10000 1.5 140 14:40 20.11.2019
3807 Clouds 15 1012 58 10000 1.5 140 14:22 20.11.2019
3808 Clouds 14 1013 58 10000 1.5 130 13:58 20.11.2019
3809 Clouds 14 1013 62 10000 1.5 120 13:39 20.11.2019
3810 Clouds 14 1013 62 10000 1.5 120 13:20 20.11.2019
3811 Clouds 14 1013 62 10000 1 0 12:55 20.11.2019
3812 Clouds 14 1014 62 10000 1.5 130 12:37 20.11.2019
3813 Clouds 14 1014 62 10000 1.5 130 12:19 20.11.2019
3814 Clouds 13 1014 76 10000 2.1 350 11:45 20.11.2019
3815 Clouds 11 1014 76 10000 2.1 350 11:22 20.11.2019
3816 Clouds 11 1015 76 10000 1.5 340 10:56 20.11.2019
3817 Clouds 10 1015 81 10000 2.1 350 10:38 20.11.2019
3818 Clouds 9 1015 81 10000 2.1 350 10:20 20.11.2019
3819 Clouds 8 1015 87 10000 1.5 340 09:55 20.11.2019
3820 Clouds 7 1015 87 10000 1.5 350 09:37 20.11.2019
3821 Clouds 7 1015 87 10000 1.5 350 09:18 20.11.2019
3822 Clouds 5 1015 87 10000 2.6 350 08:39 20.11.2019
3823 Clouds 6 1015 87 10000 2.6 350 08:21 20.11.2019
3824 Clouds 5 1015 87 10000 3.1 350 07:48 20.11.2019
3825 Clouds 5 1014 93 10000 2.1 340 07:28 20.11.2019
3826 Clouds 5 1014 93 10000 2.1 340 06:50 20.11.2019
3827 Clouds 6 1014 87 10000 2.6 350 06:22 20.11.2019
3828 Clouds 6 1015 87 10000 2.6 340 05:52 20.11.2019
3829 Clouds 5 1015 87 10000 2.6 360 03:55 20.11.2019
3830 Clouds 6 1016 86 10000 2.6 350 02:22 20.11.2019
3831 Clouds 6 1016 87 10000 2.6 360 01:35 20.11.2019
3832 Clouds 7 1016 86 10000 2.1 350 00:44 20.11.2019
3833 Clouds 7 1017 87 10000 2.1 10 00:18 20.11.2019
3834 Clouds 7 1017 81 10000 2.1 360 23:40 19.11.2019
3835 Clouds 7 1017 81 10000 2.1 360 23:22 19.11.2019
3836 Clouds 7 1017 81 10000 2.1 360 22:54 19.11.2019
3837 Clouds 7 1017 81 10000 2.1 350 22:36 19.11.2019
3838 Clouds 6 1017 87 10000 2.6 340 22:18 19.11.2019
3839 Clouds 7 1017 87 10000 2.6 340 21:54 19.11.2019
3840 Clouds 7 1017 81 10000 2.1 350 21:36 19.11.2019
3841 Clouds 8 1017 81 10000 2.1 350 21:18 19.11.2019
3842 Clouds 8 1017 81 10000 2.6 350 20:54 19.11.2019
3843 Clouds 8 1017 81 10000 2.1 360 20:36 19.11.2019
3844 Clouds 9 1017 81 10000 2.1 360 20:18 19.11.2019
3845 Clouds 10 1016 76 10000 2.6 350 19:41 19.11.2019
3846 Clouds 10 1016 71 10000 2.6 330 19:20 19.11.2019
3847 Clouds 11 1016 71 10000 2.6 330 18:57 19.11.2019
3848 Clouds 11 1016 66 10000 1.5 310 18:39 19.11.2019
3849 Clouds 12 1016 58 10000 2.1 320 18:18 19.11.2019
3850 Clouds 12 1016 58 10000 2.1 320 17:56 19.11.2019
3851 Clouds 12 1016 58 10000 2.1 320 17:56 19.11.2019
3852 Clouds 13 1016 50 10000 2.6 310 17:37 19.11.2019
3853 Clouds 13 1016 50 10000 2.6 310 17:19 19.11.2019
3854 Clouds 14 1016 47 10000 3.1 310 16:57 19.11.2019
3855 Clouds 14 1016 44 10000 4.1 310 16:38 19.11.2019
3856 Clouds 14 1016 47 10000 3.6 320 16:18 19.11.2019
3857 Clouds 15 1016 44 10000 4.1 310 15:44 19.11.2019
3858 Clouds 15 1016 44 10000 4.1 310 15:25 19.11.2019
3859 Clouds 14 1016 50 10000 4.1 330 14:57 19.11.2019
3860 Clouds 14 1016 58 10000 3.1 320 14:39 19.11.2019
3861 Clouds 14 1016 58 10000 3.1 320 14:20 19.11.2019
3862 Rain 14 1016 54 10000 2.6 290 13:42 19.11.2019
3863 Rain 14 1016 54 10000 2.6 290 13:42 19.11.2019
3864 Rain 14 1017 58 10000 3.1 330 13:20 19.11.2019
3865 Clouds 14 1017 58 10000 3.1 330 12:54 19.11.2019
3866 Clouds 14 1017 62 10000 3.6 320 12:36 19.11.2019
3867 Clouds 14 1017 62 10000 3.6 320 12:18 19.11.2019
3868 Clouds 13 1017 71 10000 2.6 0 11:54 19.11.2019
3869 Clouds 13 1017 71 10000 1.5 190 11:36 19.11.2019
3870 Clear 12 1017 76 10000 1 0 11:18 19.11.2019
3871 Clear 11 1017 81 10000 1 0 10:42 19.11.2019
3872 Clear 11 1017 81 10000 1 0 10:20 19.11.2019
3873 Clear 11 1017 81 10000 1 0 10:20 19.11.2019
3874 Clear 9 1017 93 10000 1.5 10 09:43 19.11.2019
3875 Clear 7 1017 93 10000 1.5 10 09:21 19.11.2019
3876 Clear 6 1017 87 10000 1.5 360 08:57 19.11.2019
3877 Clear 6 1017 93 10000 2.1 350 08:39 19.11.2019
3878 Rain 6 1017 93 10000 2.1 350 08:20 19.11.2019
3879 Rain 5 1016 100 10000 2.6 360 07:42 19.11.2019
3880 Rain 5 1016 100 10000 2.6 360 07:24 19.11.2019
3881 Rain 6 1016 93 10000 1.5 10 06:58 19.11.2019
3882 Rain 6 1016 93 10000 2.6 350 06:37 19.11.2019
3883 Rain 6 1016 93 10000 1 0 05:52 19.11.2019
3884 Rain 6 1016 100 10000 2.6 30 05:18 19.11.2019
3885 Rain 8 1016 93 10000 1.5 350 03:39 19.11.2019
3886 Rain 8 1016 93 10000 1.5 350 03:19 19.11.2019
3887 Rain 9 1016 93 10000 1.5 70 02:45 19.11.2019
3888 Rain 10 1016 87 10000 0.5 0 01:48 19.11.2019
3889 Rain 10 1016 81 10000 1.5 50 00:48 19.11.2019
3890 Rain 10 1016 81 10000 2.6 330 00:19 19.11.2019
3891 Drizzle 10 1015 81 10000 3.6 330 23:40 18.11.2019
3892 Drizzle 10 1015 81 10000 3.6 330 23:19 18.11.2019
3893 Clear 10 1014 81 10000 1.5 330 22:46 18.11.2019
3894 Clear 10 1014 81 10000 2.1 70 22:24 18.11.2019
3895 Clear 11 1014 76 10000 1 0 21:59 18.11.2019
3896 Clear 11 1014 76 10000 1 0 21:40 18.11.2019
3897 Clear 11 1014 76 10000 1 0 21:21 18.11.2019
3898 Clear 11 1014 71 10000 1.5 40 20:59 18.11.2019
3899 Clear 11 1014 71 10000 1.5 40 20:59 18.11.2019
3900 Clear 11 1013 62 10000 1.5 10 20:41 18.11.2019
3901 Clouds 11 1013 62 10000 1.5 10 20:19 18.11.2019
3902 Clouds 11 1013 62 10000 2.1 20 19:57 18.11.2019
3903 Clouds 11 1012 66 10000 2.6 20 19:38 18.11.2019
3904 Clouds 11 1012 66 10000 2.6 20 19:38 18.11.2019
3905 Clouds 11 1012 66 10000 2.6 20 19:38 18.11.2019
3906 Clouds 11 1012 66 10000 2.6 20 19:20 18.11.2019
3907 Clouds 11 1012 71 10000 2.1 30 18:56 18.11.2019
3908 Clouds 12 1011 62 10000 2.6 10 18:38 18.11.2019
3909 Clouds 12 1011 62 10000 2.6 10 18:38 18.11.2019
3910 Clouds 12 1011 62 10000 4.1 30 18:19 18.11.2019
3911 Clouds 12 1011 62 10000 4.1 30 17:56 18.11.2019
3912 Clouds 13 1010 62 10000 5.7 20 17:37 18.11.2019
3913 Clouds 13 1010 66 10000 3.1 10 17:19 18.11.2019
3914 Clouds 13 1010 66 10000 3.1 10 17:19 18.11.2019
3915 Clouds 14 1010 62 10000 3.6 20 16:43 18.11.2019
3916 Clouds 13 1010 62 10000 3.6 20 16:24 18.11.2019
3917 Clouds 14 1009 67 10000 2.6 20 15:58 18.11.2019
3918 Rain 13 1009 82 10000 1.5 40 15:40 18.11.2019
3919 Rain 13 1009 82 10000 1.5 40 15:21 18.11.2019
3920 Drizzle 13 1009 76 10000 4.1 350 14:58 18.11.2019
3921 Rain 13 1008 87 7000 6.2 60 14:39 18.11.2019
3922 Rain 13 1008 87 7000 6.2 60 14:20 18.11.2019
3923 Rain 14 1008 58 10000 3.1 0 13:43 18.11.2019
3924 Clouds 14 1008 58 10000 3.6 360 13:25 18.11.2019
3925 Clouds 15 1008 67 10000 3.6 20 12:45 18.11.2019
3926 Clouds 14 1008 67 10000 5.1 350 12:20 18.11.2019
3927 Clouds 14 1009 62 10000 3.6 350 11:58 18.11.2019
3928 Clouds 14 1008 62 10000 4.1 340 11:40 18.11.2019
3929 Rain 13 1008 62 10000 4.6 350 11:22 18.11.2019
3930 Rain 13 1007 81 10000 1 0 10:44 18.11.2019
3931 Rain 13 1007 81 10000 1 0 10:26 18.11.2019
3932 Rain 13 1008 76 10000 1 0 09:59 18.11.2019
3933 Rain 12 1007 76 10000 1 0 09:39 18.11.2019
3934 Rain 12 1007 76 10000 1 0 09:20 18.11.2019
3935 Rain 12 1007 76 10000 3.6 350 08:58 18.11.2019
3936 Rain 12 1007 81 10000 4.6 360 08:40 18.11.2019
3937 Rain 12 1007 81 10000 4.6 360 08:19 18.11.2019
3938 Rain 12 1007 93 10000 2.1 350 07:45 18.11.2019
3939 Rain 11 1007 93 10000 2.1 350 07:26 18.11.2019
3940 Rain 12 1007 93 10000 1 0 06:49 18.11.2019
3941 Rain 11 1007 93 10000 1 0 06:28 18.11.2019
3942 Rain 12 1007 87 10000 2.1 260 05:45 18.11.2019
3943 Rain 12 1007 93 10000 0.5 0 04:28 18.11.2019
3944 Rain 14 1008 82 10000 1.5 280 01:49 18.11.2019
3945 Rain 14 1009 71 10000 2.6 280 01:30 18.11.2019
3946 Rain 13 1009 81 10000 2.1 320 00:21 18.11.2019
3947 Rain 12 1009 81 10000 1 0 23:43 17.11.2019
3948 Rain 12 1009 81 10000 1 0 23:24 17.11.2019
3949 Rain 13 1010 81 10000 2.1 350 22:58 17.11.2019
3950 Rain 12 1010 81 10000 1.5 360 22:40 17.11.2019
3951 Rain 12 1010 81 10000 1.5 360 22:21 17.11.2019
3952 Rain 13 1011 81 10000 1 0 21:57 17.11.2019
3953 Rain 13 1011 76 10000 1 0 21:39 17.11.2019
3954 Rain 13 1011 76 10000 1 0 21:19 17.11.2019
3955 Rain 13 1011 76 10000 1 0 20:56 17.11.2019
3956 Rain 14 1011 71 10000 1.5 70 20:37 17.11.2019
3957 Clouds 14 1011 71 10000 1.5 70 20:19 17.11.2019
3958 Clouds 14 1011 71 10000 1.5 80 19:56 17.11.2019
3959 Clouds 14 1011 76 10000 1.5 70 19:37 17.11.2019
3960 Clouds 14 1011 76 10000 1.5 70 19:19 17.11.2019
3961 Clouds 14 1011 62 10000 1 0 18:55 17.11.2019
3962 Clouds 14 1011 62 10000 2.1 280 18:36 17.11.2019
3963 Clouds 14 1011 62 10000 2.1 270 18:18 17.11.2019
3964 Clouds 14 1011 62 10000 2.1 280 18:18 17.11.2019
3965 Clouds 14 1011 62 10000 2.1 270 17:57 17.11.2019
3966 Clouds 14 1011 58 10000 4.6 260 17:38 17.11.2019
3967 Clear 15 1011 51 10000 4.1 270 17:19 17.11.2019
3968 Clear 15 1011 51 10000 4.1 270 16:57 17.11.2019
3969 Clear 15 1011 47 10000 6.2 250 16:38 17.11.2019
3970 Clear 15 1011 47 10000 6.2 250 16:20 17.11.2019
3971 Clear 15 1011 47 10000 6.2 250 15:55 17.11.2019
3972 Clear 15 1011 54 10000 6.2 250 15:36 17.11.2019
3973 Clear 15 1011 54 10000 6.2 250 15:36 17.11.2019
3974 Clear 14 1011 54 10000 6.2 250 15:18 17.11.2019
3975 Clear 15 1011 54 10000 7.2 250 14:55 17.11.2019
3976 Clear 15 1011 51 10000 6.7 250 14:37 17.11.2019
3977 Clear 15 1011 51 10000 6.7 250 14:18 17.11.2019
3978 Clear 14 1011 54 10000 6.7 250 13:41 17.11.2019
3979 Clear 15 1011 54 10000 6.7 250 13:22 17.11.2019
3980 Clear 15 1012 47 10000 4.1 270 13:00 17.11.2019
3981 Clear 15 1012 50 10000 5.1 290 12:38 17.11.2019
3982 Clear 15 1012 50 10000 5.1 290 12:19 17.11.2019
3983 Clear 15 1012 44 10000 5.1 280 11:56 17.11.2019
3984 Clear 15 1012 44 10000 5.7 280 11:38 17.11.2019
3985 Clear 15 1012 44 10000 4.6 270 11:19 17.11.2019
3986 Clear 14 1012 47 10000 4.1 280 10:41 17.11.2019
3987 Clear 14 1012 47 10000 4.1 280 10:23 17.11.2019
3988 Clear 14 1012 47 10000 3.6 260 09:57 17.11.2019
3989 Clear 13 1012 58 10000 2.6 230 09:39 17.11.2019
3990 Clear 12 1012 58 10000 2.6 230 09:19 17.11.2019
3991 Clear 12 1011 61 10000 2.1 260 08:38 17.11.2019
3992 Clear 11 1011 61 10000 2.1 260 08:19 17.11.2019
3993 Clear 11 1011 61 10000 3.1 230 07:46 17.11.2019
3994 Clear 11 1011 61 10000 3.1 230 07:24 17.11.2019
3995 Clear 12 1011 57 10000 2.6 270 06:57 17.11.2019
3996 Clear 12 1011 54 10000 3.6 300 06:32 17.11.2019
3997 Clear 12 1011 54 10000 4.1 320 05:40 17.11.2019
3998 Clear 12 1011 54 10000 4.1 320 05:40 17.11.2019
3999 Clouds 13 1011 50 10000 7.2 320 04:23 17.11.2019
4000 Rain 13 1011 50 10000 8.2 320 03:45 17.11.2019
4001 Rain 13 1011 50 10000 6.7 320 03:25 17.11.2019
4002 Clouds 13 1011 50 10000 6.7 300 02:28 17.11.2019
4003 Rain 13 1011 58 10000 6.2 300 01:37 17.11.2019
4004 Rain 13 1011 58 10000 6.2 300 00:54 17.11.2019
4005 Rain 13 1012 58 10000 4.1 300 00:22 17.11.2019
4006 Rain 13 1012 58 10000 4.1 300 00:22 17.11.2019
4007 Clouds 13 1012 54 10000 7.2 320 23:46 16.11.2019
4008 Clouds 12 1012 54 10000 7.2 320 23:20 16.11.2019
4009 Clouds 12 1012 62 10000 5.1 330 22:59 16.11.2019
4010 Clouds 12 1012 58 10000 5.7 330 22:40 16.11.2019
4011 Clouds 12 1012 62 10000 3.6 310 22:19 16.11.2019
4012 Clouds 12 1012 62 10000 3.6 310 21:56 16.11.2019
4013 Clouds 12 1012 66 10000 3.6 320 21:37 16.11.2019
4014 Clouds 11 1012 66 10000 3.6 320 21:19 16.11.2019
4015 Clouds 10 1012 87 10000 2.6 70 20:42 16.11.2019
4016 Clouds 10 1012 87 10000 2.6 70 20:21 16.11.2019
4017 Clouds 11 1012 81 10000 2.6 40 19:58 16.11.2019
4018 Clouds 11 1012 81 10000 2.6 40 19:58 16.11.2019
4019 Clouds 11 1011 81 10000 3.1 360 19:40 16.11.2019
4020 Clouds 11 1011 81 10000 3.1 360 19:40 16.11.2019
4021 Clouds 11 1011 81 10000 3.1 360 19:21 16.11.2019
4022 Clouds 11 1011 81 10000 2.6 330 18:47 16.11.2019
4023 Clouds 11 1011 81 10000 2.6 330 18:29 16.11.2019
4024 Rain 11 1010 76 10000 2.1 330 17:57 16.11.2019
4025 Rain 12 1009 71 10000 2.6 350 17:39 16.11.2019
4026 Rain 12 1010 76 10000 3.6 340 17:19 16.11.2019
4027 Rain 12 1010 76 10000 2.6 330 16:48 16.11.2019
4028 Rain 12 1010 76 10000 2.6 330 16:30 16.11.2019
4029 Rain 11 1010 76 10000 2.1 10 15:59 16.11.2019
4030 Rain 11 1010 81 10000 1.5 50 15:41 16.11.2019
4031 Rain 11 1010 81 10000 1.5 50 15:21 16.11.2019
4032 Rain 10 1010 81 10000 1.5 340 14:58 16.11.2019
4033 Thunderstorm 11 1009 81 4000 8.2 360 14:39 16.11.2019
4034 Thunderstorm 12 1010 76 2900 4.6 350 14:21 16.11.2019
4035 Rain 14 1010 54 10000 2.6 350 13:56 16.11.2019
4036 Rain 14 1009 58 10000 1.5 320 13:38 16.11.2019
4037 Rain 13 1009 58 10000 1.5 320 13:18 16.11.2019
4038 Rain 13 1010 62 10000 2.1 320 12:54 16.11.2019
4039 Rain 12 1010 66 10000 1 0 12:36 16.11.2019
4040 Rain 12 1010 71 10000 1.5 330 12:18 16.11.2019
4041 Rain 11 1010 71 10000 1.5 340 11:42 16.11.2019
4042 Rain 11 1010 71 10000 1.5 340 11:23 16.11.2019
4043 Rain 10 1010 76 10000 2.1 330 10:56 16.11.2019
4044 Rain 9 1010 81 10000 2.1 340 10:37 16.11.2019
4045 Rain 9 1010 81 10000 1.5 330 10:18 16.11.2019
4046 Rain 8 1010 81 10000 1 0 09:42 16.11.2019
4047 Rain 8 1009 87 10000 1 0 09:20 16.11.2019
4048 Rain 8 1009 87 10000 1 0 08:57 16.11.2019
4049 Clouds 8 1009 81 10000 1 0 08:37 16.11.2019
4050 Rain 8 1009 81 10000 1 0 08:18 16.11.2019
4051 Rain 8 1008 87 10000 2.6 30 07:41 16.11.2019
4052 Rain 8 1008 87 10000 2.6 30 07:19 16.11.2019
4053 Rain 8 1008 87 10000 1.5 30 06:44 16.11.2019
4054 Rain 8 1008 87 10000 1.5 30 06:25 16.11.2019
4055 Rain 9 1008 87 10000 2.1 110 04:50 16.11.2019
4056 Thunderstorm 10 1008 76 10000 3.6 360 03:27 16.11.2019
4057 Thunderstorm 10 1008 76 10000 3.6 360 03:27 16.11.2019
4058 Rain 10 1008 76 10000 4.1 350 02:55 16.11.2019
4059 Thunderstorm 9 1007 81 10000 4.6 320 01:44 16.11.2019
4060 Thunderstorm 9 1007 81 10000 4.1 20 01:44 16.11.2019
4061 Thunderstorm 8 1007 81 10000 4.1 20 01:18 16.11.2019
4062 Clear 6 1007 93 10000 2.6 340 00:41 16.11.2019
4063 Clear 6 1007 93 10000 2.6 340 00:20 16.11.2019
4064 Clear 6 1006 87 10000 1.5 20 23:39 15.11.2019
4065 Clear 6 1006 87 10000 1.5 20 23:39 15.11.2019
4066 Clear 6 1006 87 10000 1.5 20 23:20 15.11.2019
4067 Clear 7 1006 87 10000 1.5 360 22:55 15.11.2019
4068 Clear 7 1006 87 10000 2.1 340 22:37 15.11.2019
4069 Clear 7 1006 87 10000 1.5 360 22:18 15.11.2019
4070 Clear 7 1006 87 10000 1.5 360 22:18 15.11.2019
4071 Clear 7 1005 87 10000 2.1 340 21:42 15.11.2019
4072 Clear 8 1005 87 10000 2.1 340 21:21 15.11.2019
4073 Clear 9 1005 81 10000 1.5 350 20:59 15.11.2019
4074 Clear 9 1005 76 10000 1.5 10 20:40 15.11.2019
4075 Clouds 9 1005 76 10000 1.5 10 20:22 15.11.2019
4076 Clouds 9 1005 76 10000 1.5 10 20:22 15.11.2019
4077 Clouds 10 1005 76 10000 1 0 19:59 15.11.2019
4078 Clouds 11 1005 71 10000 1.5 360 19:41 15.11.2019
4079 Clouds 10 1005 71 10000 1.5 360 19:21 15.11.2019
4080 Clouds 11 1004 66 10000 0.5 0 18:58 15.11.2019
4081 Clouds 11 1004 66 10000 0.5 0 18:58 15.11.2019
4082 Clouds 11 1004 62 10000 1.5 260 18:40 15.11.2019
4083 Clouds 11 1004 62 10000 1.5 260 18:21 15.11.2019
4084 Clouds 12 1004 62 10000 2.6 280 17:54 15.11.2019
4085 Clouds 12 1004 58 10000 3.1 260 17:36 15.11.2019
4086 Clouds 13 1004 58 10000 3.1 260 17:18 15.11.2019
4087 Clouds 13 1003 50 10000 3.6 290 16:39 15.11.2019
4088 Clouds 13 1003 50 10000 3.6 290 16:20 15.11.2019
4089 Clouds 13 1003 47 10000 3.6 290 15:57 15.11.2019
4090 Clouds 13 1002 50 10000 3.6 280 15:36 15.11.2019
4091 Clouds 14 1002 54 10000 3.1 300 15:18 15.11.2019
4092 Clouds 14 1002 54 10000 3.1 300 14:55 15.11.2019
4093 Clouds 14 1002 50 10000 4.1 320 14:36 15.11.2019
4094 Rain 14 1002 50 10000 4.1 320 14:18 15.11.2019
4095 Rain 13 1002 58 10000 4.1 310 13:54 15.11.2019
4096 Rain 13 1002 58 10000 4.6 310 13:36 15.11.2019
4097 Rain 13 1002 58 10000 4.6 310 13:18 15.11.2019
4098 Rain 13 1003 54 10000 5.1 300 12:55 15.11.2019
4099 Rain 13 1003 62 10000 3.6 330 12:36 15.11.2019
4100 Rain 13 1003 62 10000 3.6 330 12:18 15.11.2019
4101 Rain 12 1003 66 10000 3.6 320 11:39 15.11.2019
4102 Rain 12 1003 66 10000 3.6 320 11:21 15.11.2019
4103 Rain 12 1002 71 10000 3.6 280 10:57 15.11.2019
4104 Rain 12 1002 71 10000 3.1 310 10:39 15.11.2019
4105 Rain 12 1002 71 10000 3.1 310 10:20 15.11.2019
4106 Rain 11 1001 76 10000 3.6 290 09:41 15.11.2019
4107 Rain 11 1001 76 10000 3.6 290 09:20 15.11.2019
4108 Rain 11 1001 76 10000 4.6 320 08:54 15.11.2019
4109 Thunderstorm 11 1001 81 10000 3.6 300 08:36 15.11.2019
4110 Rain 11 1000 76 10000 1.5 310 08:18 15.11.2019
4111 Rain 12 1000 71 10000 1.5 330 07:42 15.11.2019
4112 Rain 12 1000 71 10000 1.5 330 07:22 15.11.2019
4113 Clouds 13 1000 62 10000 4.1 250 06:36 15.11.2019
4114 Rain 13 1000 66 10000 5.7 250 05:52 15.11.2019
4115 Rain 13 1000 66 10000 5.7 250 05:52 15.11.2019
4116 Rain 11 1000 76 10000 1 320 05:28 15.11.2019
4117 Rain 8 1000 93 10000 2.6 50 04:42 15.11.2019
4118 Rain 8 1001 87 10000 1.5 360 03:38 15.11.2019
4119 Rain 8 1001 87 10000 1 0 02:32 15.11.2019
4120 Clouds 7 1001 93 10000 1 0 01:48 15.11.2019
4121 Rain 8 1001 93 10000 1 0 01:24 15.11.2019
4122 Rain 8 1001 93 10000 3.1 350 00:40 15.11.2019
4123 Rain 9 1001 87 10000 1 0 00:20 15.11.2019
4124 Rain 9 1001 87 10000 2.1 340 23:45 14.11.2019
4125 Rain 8 1001 87 10000 2.1 340 23:25 14.11.2019
4126 Clouds 10 1001 87 10000 1.5 60 22:42 14.11.2019
4127 Clouds 10 1001 87 10000 1.5 60 22:22 14.11.2019
4128 Clouds 10 1001 87 10000 1 0 21:58 14.11.2019
4129 Rain 10 1000 87 10000 1 0 21:40 14.11.2019
4130 Rain 10 1000 87 10000 1 0 21:40 14.11.2019
4131 Rain 10 1000 87 10000 1 0 21:40 14.11.2019
4132 Rain 11 1000 87 10000 1 0 21:22 14.11.2019
4133 Rain 11 1000 81 10000 1.5 350 20:55 14.11.2019
4134 Rain 11 1000 87 10000 2.6 10 20:37 14.11.2019
4135 Rain 11 1000 87 10000 2.6 10 20:19 14.11.2019
4136 Rain 12 1000 87 10000 2.1 230 19:55 14.11.2019
4137 Rain 12 1000 87 10000 2.1 280 19:36 14.11.2019
4138 Rain 12 999 81 10000 1 280 19:18 14.11.2019
4139 Rain 12 1000 81 10000 3.1 270 18:42 14.11.2019
4140 Rain 12 1000 81 10000 3.1 270 18:24 14.11.2019
4141 Rain 12 998 87 10000 1.5 340 17:58 14.11.2019
4142 Rain 12 998 87 10000 1.5 340 17:38 14.11.2019
4143 Rain 12 999 76 9000 7.2 320 17:20 14.11.2019
4144 Rain 13 999 76 9000 7.2 320 16:58 14.11.2019
4145 Rain 13 999 76 9000 7.2 320 16:58 14.11.2019
4146 Rain 13 999 76 9000 7.2 320 16:58 14.11.2019
4147 Rain 14 999 71 10000 4.1 320 16:37 14.11.2019
4148 Rain 14 999 71 10000 4.1 320 16:19 14.11.2019
4149 Rain 15 999 76 10000 5.1 320 15:58 14.11.2019
4150 -273 0 0 0 0 0 15:38 14.11.2019
4151 Rain 16 999 67 10000 4.6 300 15:20 14.11.2019
4152 Rain 16 999 63 10000 5.1 280 14:57 14.11.2019
4153 Rain 17 999 63 10000 6.2 270 14:38 14.11.2019
4154 Rain 17 999 63 10000 6.2 270 14:20 14.11.2019
4155 Rain 17 1000 67 10000 5.1 250 13:42 14.11.2019
4156 -273 0 0 0 0 0 13:23 14.11.2019
4157 Clouds 17 999 68 10000 8.2 260 12:57 14.11.2019
4158 Rain 18 1000 82 10000 7.2 230 12:39 14.11.2019
4159 Rain 18 1000 82 10000 7.2 230 12:21 14.11.2019
4160 Thunderstorm 18 1001 82 10000 9.8 220 11:55 14.11.2019
4161 Rain 18 1001 82 10000 8.7 210 11:37 14.11.2019
4162 Rain 18 1001 82 10000 8.7 210 11:37 14.11.2019
4163 Thunderstorm 18 1002 82 10000 7.7 210 11:18 14.11.2019
4164 Thunderstorm 18 1002 82 10000 7.7 210 10:56 14.11.2019
4165 Rain 18 1002 82 10000 9.3 210 10:37 14.11.2019
4166 Rain 18 1002 82 10000 9.3 210 10:19 14.11.2019
4167 Rain 17 1003 82 10000 6.7 210 09:42 14.11.2019
4168 Rain 17 1004 82 10000 7.7 210 09:24 14.11.2019
4169 Rain 17 1004 82 10000 7.7 210 08:59 14.11.2019
4170 Rain 17 1004 82 10000 7.7 210 08:40 14.11.2019
4171 Clouds 17 1004 82 10000 7.7 210 08:22 14.11.2019
4172 Clouds 12 1005 87 10000 1 0 07:42 14.11.2019
4173 Clouds 12 1005 87 10000 1 0 07:24 14.11.2019
4174 Clouds 9 1006 93 10000 1 0 06:46 14.11.2019
4175 Clouds 8 1006 93 10000 1 0 06:21 14.11.2019
4176 Clouds 7 1007 100 10000 1 0 05:40 14.11.2019
4177 Clouds 6 1007 100 10000 1 0 04:38 14.11.2019
4178 Clear 8 1010 93 10000 2.1 360 03:28 14.11.2019
4179 Clear 7 1010 93 10000 2.1 350 02:38 14.11.2019
4180 Clear 7 1010 93 10000 1.5 40 01:41 14.11.2019
4181 Clear 8 1011 93 10000 1.5 330 00:58 14.11.2019
4182 Clear 8 1011 93 10000 1.5 20 00:39 14.11.2019
4183 Clear 8 1011 93 10000 1.5 20 00:20 14.11.2019
4184 Clear 8 1012 87 10000 2.1 20 23:39 13.11.2019
4185 Clear 8 1012 87 10000 2.1 20 23:20 13.11.2019
4186 Clear 9 1012 93 10000 1.5 10 22:55 13.11.2019
4187 Clear 9 1012 93 10000 2.6 340 22:37 13.11.2019
4188 Clear 10 1012 93 10000 2.6 340 22:19 13.11.2019
4189 Clear 10 1012 93 10000 1.5 360 21:55 13.11.2019
4190 Clear 11 1012 87 10000 1 0 21:36 13.11.2019
4191 Clear 11 1012 87 10000 1 0 21:18 13.11.2019
4192 Clear 11 1012 87 10000 2.6 40 20:55 13.11.2019
4193 Clear 11 1011 87 10000 3.1 350 20:37 13.11.2019
4194 Clear 11 1011 87 10000 3.1 350 20:37 13.11.2019
4195 Rain 11 1011 87 10000 3.1 350 20:18 13.11.2019
4196 Rain 12 1011 81 10000 2.1 300 19:42 13.11.2019
4197 Rain 12 1010 87 10000 0.5 0 19:19 13.11.2019
4198 Rain 12 1010 87 10000 0.5 0 18:56 13.11.2019
4199 Rain 12 1010 82 10000 2.1 300 18:38 13.11.2019
4200 Rain 13 1010 82 10000 2.1 300 18:19 13.11.2019
4201 Rain 13 1010 82 10000 2.1 300 18:19 13.11.2019
4202 Rain 13 1009 76 10000 2.1 330 17:57 13.11.2019
4203 Rain 13 1008 71 10000 2.1 340 17:38 13.11.2019
4204 Rain 13 1008 71 10000 2.1 340 17:19 13.11.2019
4205 Rain 14 1008 71 10000 4.1 340 16:58 13.11.2019
4206 Clouds 14 1008 76 10000 0.5 310 16:39 13.11.2019
4207 Clouds 14 1008 76 10000 0.5 310 16:39 13.11.2019
4208 Rain 14 1008 76 10000 0.5 310 16:21 13.11.2019
4209 Rain 14 1007 82 10000 1.5 360 15:57 13.11.2019
4210 Rain 13 1007 82 10000 2.6 40 15:38 13.11.2019
4211 Clouds 13 1006 87 10000 2.1 70 15:20 13.11.2019
4212 Rain 14 1006 87 10000 3.1 70 14:42 13.11.2019
4213 Rain 14 1006 82 10000 2.1 60 14:21 13.11.2019
4214 Clouds 14 1005 87 10000 3.1 70 13:57 13.11.2019
4215 Rain 14 1006 87 10000 3.1 70 13:36 13.11.2019
4216 Rain 14 1006 87 10000 1.5 360 13:18 13.11.2019
4217 Rain 14 1006 93 10000 1 0 12:43 13.11.2019
4218 Rain 14 1006 93 10000 1 0 12:25 13.11.2019
4219 Rain 13 1006 93 10000 1 0 11:59 13.11.2019
4220 Rain 13 1006 87 10000 1 0 11:39 13.11.2019
4221 Rain 13 1006 87 10000 1 0 11:19 13.11.2019
4222 Rain 13 1006 87 10000 1 0 11:19 13.11.2019
4223 Rain 13 1006 93 10000 2.1 20 11:19 13.11.2019
4224 Rain 12 1006 93 10000 2.1 20 10:58 13.11.2019
4225 Rain 13 1006 93 8000 1.5 30 10:39 13.11.2019
4226 Rain 12 1006 93 8000 1.5 30 10:19 13.11.2019
4227 Rain 12 1006 93 3600 0.5 0 09:45 13.11.2019
4228 Rain 12 1005 87 4000 1 0 09:24 13.11.2019
4229 Drizzle 12 1006 81 10000 1.5 350 08:59 13.11.2019
4230 Rain 11 1006 81 10000 1.5 350 08:37 13.11.2019
4231 Clouds 11 1006 81 10000 1.5 350 08:19 13.11.2019
4232 Rain 11 1006 81 10000 0.5 0 07:42 13.11.2019
4233 Rain 11 1006 81 10000 0.5 0 07:20 13.11.2019
4234 Rain 11 1006 81 10000 1 0 06:46 13.11.2019
4235 Rain 11 1005 81 10000 1.5 360 06:19 13.11.2019
4236 Rain 11 1006 81 10000 0.5 0 06:19 13.11.2019
4237 Rain 11 1006 81 10000 0.5 0 05:53 13.11.2019
4238 Rain 11 1006 81 10000 1 0 05:34 13.11.2019
4239 Clouds 11 1006 76 10000 0.5 100 04:43 13.11.2019
4240 Clear 14 1007 62 10000 1.5 280 02:19 13.11.2019
4241 Clear 13 1008 71 10000 1.5 250 01:44 13.11.2019
4242 Clouds 14 1008 62 10000 1 190 00:44 13.11.2019
4243 Clouds 13 1008 66 10000 2.6 230 00:26 13.11.2019
4244 Clouds 14 1008 71 10000 1.5 220 23:42 12.11.2019
4245 Clouds 14 1008 71 10000 1.5 220 23:42 12.11.2019
4246 Clouds 14 1008 71 10000 1.5 220 23:21 12.11.2019
4247 Rain 14 1009 62 10000 1.5 250 22:55 12.11.2019
4248 Rain 14 1009 62 10000 2.1 230 22:37 12.11.2019
4249 Rain 13 1009 66 10000 2.6 250 22:18 12.11.2019
4250 Rain 13 1009 66 10000 2.6 250 21:44 12.11.2019
4251 Rain 14 1008 62 10000 5.1 320 21:25 12.11.2019
4252 Rain 14 1009 66 10000 3.6 270 20:58 12.11.2019
4253 Rain 14 1009 62 10000 3.6 240 20:37 12.11.2019
4254 Rain 13 1009 62 10000 3.6 240 20:19 12.11.2019
4255 Rain 13 1009 62 10000 3.1 280 19:57 12.11.2019
4256 Rain 14 1009 62 10000 2.6 270 19:39 12.11.2019
4257 Rain 14 1009 62 10000 2.6 270 19:19 12.11.2019
4258 Rain 14 1009 58 10000 3.1 270 18:59 12.11.2019
4259 Rain 14 1009 58 10000 4.6 300 18:40 12.11.2019
4260 Rain 14 1009 58 10000 4.6 300 18:22 12.11.2019
4261 Clear 14 1008 58 10000 7.2 310 17:57 12.11.2019
4262 Clear 15 1008 62 10000 5.7 300 17:39 12.11.2019
4263 Clear 15 1008 62 10000 5.7 300 17:21 12.11.2019
4264 Clear 15 1008 62 10000 5.7 300 17:21 12.11.2019
4265 Clear 15 1008 58 10000 5.7 300 16:57 12.11.2019
4266 Clear 16 1008 58 10000 6.7 290 16:39 12.11.2019
4267 Clear 15 1008 58 10000 6.7 290 16:20 12.11.2019
4268 Clear 16 1009 55 10000 5.1 290 15:41 12.11.2019
4269 Clear 16 1009 55 10000 6.2 300 15:21 12.11.2019
4270 Clear 16 1009 55 10000 6.2 300 14:56 12.11.2019
4271 Clear 16 1009 54 10000 5.1 310 14:37 12.11.2019
4272 Clouds 16 1009 54 10000 5.1 310 14:19 12.11.2019
4273 Clouds 16 1009 51 10000 4.6 310 13:56 12.11.2019
4274 Clouds 16 1009 51 10000 5.7 300 13:37 12.11.2019
4275 Clouds 16 1009 51 10000 5.7 300 13:18 12.11.2019
4276 Clouds 16 1010 55 10000 4.1 290 12:42 12.11.2019
4277 Clouds 16 1010 55 10000 4.1 290 12:42 12.11.2019
4278 Clouds 16 1010 55 10000 4.1 290 12:20 12.11.2019
4279 Clouds 16 1010 59 10000 4.1 310 11:59 12.11.2019
4280 Clouds 15 1011 62 10000 1 0 11:40 12.11.2019
4281 Clouds 15 1010 67 10000 2.31 309 11:21 12.11.2019
4282 Clouds 14 1011 67 10000 1 0 10:56 12.11.2019
4283 Clouds 13 1011 71 10000 1 0 10:37 12.11.2019
4284 Clouds 13 1011 76 10000 0.5 0 10:19 12.11.2019
4285 Clouds 12 1011 81 10000 1 0 09:42 12.11.2019
4286 Clouds 11 1011 81 10000 1 0 09:23 12.11.2019
4287 Clouds 10 1011 87 10000 2.1 360 08:57 12.11.2019
4288 Clouds 10 1009 93 10000 2.31 309 08:39 12.11.2019
4289 Clouds 9 1009 93 10000 3.07 43 08:19 12.11.2019
4290 Clouds 10 1010 87 10000 1 100 07:40 12.11.2019
4291 Clouds 10 1010 87 10000 1 100 07:22 12.11.2019
4292 Clouds 10 1010 81 10000 1.5 40 06:45 12.11.2019
4293 Clouds 10 1010 81 10000 1.5 40 06:23 12.11.2019
4294 Clouds 11 1010 81 10000 1 0 05:46 12.11.2019
4295 Clouds 10 1010 81 10000 2.1 60 04:46 12.11.2019
4296 Rain 10 1010 81 10000 1 0 03:48 12.11.2019
4297 Clouds 9 1011 81 10000 1.5 10 01:47 12.11.2019
4298 Clouds 9 1011 76 10000 2.1 40 01:22 12.11.2019
4299 Clouds 9 1011 76 10000 1.5 360 00:48 12.11.2019
4300 Rain 10 1011 76 10000 2.6 360 00:29 12.11.2019
4301 Clouds 10 1011 71 10000 1 0 23:45 11.11.2019
4302 Rain 11 1011 71 10000 1 0 23:24 11.11.2019
4303 Rain 11 1011 71 10000 1 0 22:58 11.11.2019
4304 Rain 12 1011 66 10000 1 0 22:37 11.11.2019
4305 Rain 12 1011 54 10000 0.5 0 22:18 11.11.2019
4306 Rain 12 1011 54 10000 0.5 0 21:57 11.11.2019
4307 Rain 13 1010 58 10000 4.1 340 21:38 11.11.2019
4308 Rain 13 1010 58 10000 4.1 340 21:19 11.11.2019
4309 Clouds 13 1010 58 10000 4.6 340 20:44 11.11.2019
4310 Clouds 13 1010 58 10000 4.6 340 20:21 11.11.2019
4311 Rain 13 1010 62 10000 3.1 340 19:59 11.11.2019
4312 Rain 13 1010 62 10000 1.5 350 19:41 11.11.2019
4313 Rain 13 1010 62 10000 1.5 350 19:19 11.11.2019
4314 Rain 14 1010 66 10000 1 0 18:57 11.11.2019
4315 Clouds 14 1010 58 10000 2.1 350 18:38 11.11.2019
4316 Clouds 14 1010 58 10000 2.1 350 18:19 11.11.2019
4317 Rain 14 1010 58 10000 3.1 360 17:42 11.11.2019
4318 Rain 14 1010 58 10000 3.1 360 17:24 11.11.2019
4319 Clouds 14 1010 58 10000 3.1 360 16:45 11.11.2019
4320 Rain 14 1009 58 10000 5.1 360 16:24 11.11.2019
4321 Rain 14 1009 62 10000 6.7 360 15:59 11.11.2019
4322 -273 0 0 0 0 0 15:41 11.11.2019
4323 Rain 14 1009 67 10000 7.2 350 15:20 11.11.2019
4324 Clouds 14 1009 67 10000 7.2 350 14:54 11.11.2019
4325 Clouds 14 1010 67 10000 7.2 350 14:36 11.11.2019
4326 Clouds 14 1010 67 10000 7.2 350 14:18 11.11.2019
4327 Rain 14 1010 62 10000 5.1 340 13:39 11.11.2019
4328 Rain 14 1010 62 10000 5.1 340 13:21 11.11.2019
4329 Rain 14 1010 62 10000 5.7 350 12:58 11.11.2019
4330 Rain 14 1011 62 10000 4.6 340 12:40 11.11.2019
4331 Rain 14 1011 62 10000 4.6 340 12:22 11.11.2019
4332 Rain 14 1011 62 10000 4.6 350 11:57 11.11.2019
4333 Rain 14 1011 58 10000 6.2 350 11:38 11.11.2019
4334 Rain 14 1011 58 10000 6.2 350 11:20 11.11.2019
4335 Rain 14 1010 47 10000 5.1 10 10:42 11.11.2019
4336 Rain 14 1010 47 10000 6.2 350 10:18 11.11.2019
4337 Rain 14 1010 47 10000 6.2 350 09:58 11.11.2019
4338 Rain 14 1010 58 10000 6.2 350 09:39 11.11.2019
4339 Rain 14 1010 58 10000 6.2 350 09:19 11.11.2019
4340 Clouds 13 1010 58 10000 6.2 360 08:41 11.11.2019
4341 Clouds 13 1010 58 10000 5.1 360 08:22 11.11.2019
4342 Clouds 13 1010 58 10000 7.7 340 07:57 11.11.2019
4343 Clouds 13 1010 62 10000 8.7 330 07:37 11.11.2019
4344 Clouds 13 1010 62 10000 8.7 330 07:19 11.11.2019
4345 Clouds 13 1010 62 10000 8.7 330 07:19 11.11.2019
4346 Clouds 13 1009 62 10000 7.2 330 06:48 11.11.2019
4347 Clouds 13 1010 62 10000 5.7 330 06:23 11.11.2019
4348 Clouds 12 1009 66 10000 6.2 330 05:51 11.11.2019
4349 Clouds 12 1010 71 10000 6.2 320 04:43 11.11.2019
4350 Clouds 12 1010 66 10000 3.6 330 03:24 11.11.2019
4351 Clouds 10 1011 87 10000 2.1 310 02:30 11.11.2019
4352 Clear 10 1011 87 10000 1 0 01:56 11.11.2019
4353 Clouds 10 1011 87 10000 0.5 210 01:35 11.11.2019
4354 Clouds 9 1011 93 10000 1.5 330 00:50 11.11.2019
4355 Clouds 10 1011 93 10000 1.5 330 00:26 11.11.2019
4356 Thunderstorm 10 1011 93 10000 1.5 10 23:56 10.11.2019
4357 Clouds 10 1011 87 10000 2.1 330 23:36 10.11.2019
4358 Rain 10 1011 87 10000 2.1 330 23:18 10.11.2019
4359 Thunderstorm 10 1011 87 10000 2.6 330 22:55 10.11.2019
4360 Thunderstorm 10 1011 76 10000 2.6 280 22:36 10.11.2019
4361 Thunderstorm 10 1011 76 10000 2.6 280 22:18 10.11.2019
4362 Thunderstorm 10 1010 87 10000 1 70 21:40 10.11.2019
4363 Thunderstorm 12 1010 81 10000 1.5 360 21:22 10.11.2019
4364 Rain 12 1009 87 8000 2.1 340 20:59 10.11.2019
4365 Rain 12 1009 81 8000 3.1 310 20:39 10.11.2019
4366 Rain 12 1009 81 8000 3.1 310 20:21 10.11.2019
4367 Thunderstorm 12 1010 71 10000 2.6 350 19:56 10.11.2019
4368 Rain 12 1010 66 10000 3.1 350 19:37 10.11.2019
4369 Rain 12 1010 66 10000 3.1 350 19:18 10.11.2019
4370 Rain 13 1009 58 10000 2.6 330 18:56 10.11.2019
4371 Rain 13 1009 58 10000 3.6 340 18:38 10.11.2019
4372 Rain 13 1009 58 10000 3.6 340 18:19 10.11.2019
4373 Rain 13 1009 62 10000 4.1 330 17:55 10.11.2019
4374 Rain 13 1009 62 10000 4.6 320 17:37 10.11.2019
4375 Rain 13 1009 62 10000 4.6 320 17:37 10.11.2019
4376 Rain 13 1009 62 10000 5.1 320 17:19 10.11.2019
4377 Rain 13 1009 62 10000 5.1 320 16:57 10.11.2019
4378 Rain 13 1008 62 10000 4.1 310 16:37 10.11.2019
4379 Rain 13 1008 62 10000 4.1 310 16:19 10.11.2019
4380 Rain 12 1008 76 10000 4.1 290 15:54 10.11.2019
4381 Rain 12 1008 81 10000 2.6 240 15:36 10.11.2019
4382 Rain 11 1008 81 10000 2.6 240 15:18 10.11.2019
4383 Rain 11 1009 71 10000 1.5 320 14:40 10.11.2019
4384 Rain 11 1009 71 10000 1.5 320 14:22 10.11.2019
4385 Rain 11 1009 71 10000 2.1 270 13:57 10.11.2019
4386 Rain 10 1009 81 10000 2.1 240 13:39 10.11.2019
4387 Rain 10 1009 81 10000 2.1 240 13:19 10.11.2019
4388 Drizzle 10 1010 71 10000 7.2 10 12:42 10.11.2019
4389 Drizzle 10 1010 71 10000 7.2 10 12:20 10.11.2019
4390 Drizzle 9 1011 76 10000 6.2 350 11:57 10.11.2019
4391 Drizzle 9 1011 76 10000 6.2 350 11:38 10.11.2019
4392 Drizzle 9 1011 76 10000 6.2 350 11:20 10.11.2019
4393 Rain 9 1010 87 8000 3.1 10 10:59 10.11.2019
4394 Drizzle 9 1011 81 9000 7.2 350 10:40 10.11.2019
4395 Drizzle 9 1011 81 9000 7.2 350 10:20 10.11.2019
4396 Rain 10 1010 87 4800 7.2 350 09:42 10.11.2019
4397 Rain 11 1008 87 7000 4.6 60 09:23 10.11.2019
4398 Drizzle 12 1008 66 10000 5.7 320 08:41 10.11.2019
4399 Drizzle 12 1008 66 10000 5.7 320 08:21 10.11.2019
4400 Rain 12 1007 76 10000 6.7 340 07:58 10.11.2019
4401 Rain 12 1007 81 10000 6.2 330 07:39 10.11.2019
4402 Rain 12 1007 81 10000 6.2 330 07:18 10.11.2019
4403 Thunderstorm 12 1008 87 10000 6.7 330 06:26 10.11.2019
4404 Rain 14 1007 76 10000 1 70 04:46 10.11.2019
4405 Rain 14 1009 76 10000 1 0 03:22 10.11.2019
4406 Rain 16 1010 62 10000 1 0 01:45 10.11.2019
4407 Rain 16 1011 62 10000 1.5 10 01:19 10.11.2019
4408 Rain 16 1012 55 10000 3.1 250 00:40 10.11.2019
4409 Clouds 16 1012 55 10000 3.6 260 23:46 09.11.2019
4410 Clouds 16 1013 55 10000 3.6 240 23:21 09.11.2019
4411 Clouds 15 1013 62 10000 1.5 280 22:59 09.11.2019
4412 Rain 15 1014 71 10000 1 0 22:41 09.11.2019
4413 Clouds 14 1014 71 10000 1 0 22:20 09.11.2019
4414 Rain 14 1014 66 10000 1 350 21:56 09.11.2019
4415 Rain 14 1014 62 10000 1 310 21:37 09.11.2019
4416 Rain 14 1014 62 10000 1 310 21:19 09.11.2019
4417 Rain 14 1015 62 10000 3.1 240 20:42 09.11.2019
4418 Rain 14 1015 62 10000 3.1 240 20:22 09.11.2019
4419 Rain 14 1015 62 10000 3.1 240 19:58 09.11.2019
4420 Rain 15 1015 62 10000 2.6 230 19:39 09.11.2019
4421 Rain 14 1015 62 10000 2.6 230 19:21 09.11.2019
4422 Rain 15 1015 58 10000 1.5 250 18:55 09.11.2019
4423 Rain 15 1015 58 10000 1.5 250 18:36 09.11.2019
4424 Rain 15 1015 58 10000 1.5 250 18:18 09.11.2019
4425 Rain 15 1015 54 10000 2.6 280 17:41 09.11.2019
4426 Rain 15 1015 54 10000 2.6 280 17:22 09.11.2019
4427 Rain 16 1015 51 10000 4.1 270 16:55 09.11.2019
4428 Clouds 16 1016 51 10000 3.6 290 16:36 09.11.2019
4429 Clouds 16 1016 51 10000 3.6 290 16:18 09.11.2019
4430 Clouds 16 1016 59 10000 5.7 300 15:41 09.11.2019
4431 Rain 16 1016 59 10000 5.7 300 15:23 09.11.2019
4432 Clouds 16 1016 55 10000 6.2 310 14:46 09.11.2019
4433 Rain 16 1016 58 10000 6.2 310 14:22 09.11.2019
4434 Rain 16 1016 63 10000 4.6 310 13:58 09.11.2019
4435 Rain 16 1016 62 10000 5.7 310 13:40 09.11.2019
4436 Rain 15 1016 62 10000 5.7 310 13:21 09.11.2019
4437 Rain 15 1016 58 10000 5.7 310 12:57 09.11.2019
4438 Rain 16 1017 55 10000 5.7 310 12:39 09.11.2019
4439 Rain 15 1017 55 10000 5.7 310 12:21 09.11.2019
4440 Rain 16 1017 59 10000 6.7 310 11:48 09.11.2019
4441 Rain 15 1017 55 10000 5.7 310 11:22 09.11.2019
4442 Rain 15 1017 62 10000 5.7 320 10:58 09.11.2019
4443 Rain 15 1017 62 10000 5.7 320 10:39 09.11.2019
4444 Rain 15 1017 62 10000 5.7 320 10:19 09.11.2019
4445 Rain 14 1017 62 10000 5.1 300 09:45 09.11.2019
4446 Rain 14 1017 62 10000 5.1 300 09:26 09.11.2019
4447 Rain 14 1015 71 10000 5.7 310 08:57 09.11.2019
4448 Rain 14 1016 62 10000 5.7 300 08:39 09.11.2019
4449 Rain 14 1016 62 10000 5.7 300 08:19 09.11.2019
4450 Rain 14 1016 66 10000 5.7 280 07:44 09.11.2019
4451 Rain 13 1016 58 10000 6.7 300 07:22 09.11.2019
4452 Rain 13 1015 66 10000 5.1 310 06:49 09.11.2019
4453 Rain 13 1015 66 10000 6.2 310 06:30 09.11.2019
4454 Drizzle 13 1014 66 10000 6.7 310 05:42 09.11.2019
4455 Drizzle 13 1014 66 10000 7.7 310 04:58 09.11.2019
4456 Rain 13 1014 62 10000 8.2 310 03:37 09.11.2019
4457 Rain 12 1014 66 10000 7.2 320 02:43 09.11.2019
4458 Rain 12 1014 66 10000 7.2 320 01:55 09.11.2019
4459 Rain 12 1013 66 10000 7.7 300 00:51 09.11.2019
4460 Rain 12 1013 66 10000 7.7 300 00:31 09.11.2019
4461 Rain 12 1013 66 10000 7.7 310 23:58 08.11.2019
4462 Rain 13 1013 66 10000 10.3 310 23:39 08.11.2019
4463 Rain 13 1013 66 10000 10.3 310 23:19 08.11.2019
4464 Rain 13 1013 66 10000 10.3 310 23:19 08.11.2019
4465 Rain 13 1013 62 10000 9.8 320 22:48 08.11.2019
4466 Clouds 14 1012 58 10000 6.2 320 22:22 08.11.2019
4467 Rain 14 1012 58 10000 6.2 320 21:57 08.11.2019
4468 Thunderstorm 14 1012 58 10000 5.7 310 21:39 08.11.2019
4469 Thunderstorm 15 1012 58 10000 5.7 310 21:19 08.11.2019
4470 Thunderstorm 15 1012 54 10000 6.2 320 20:43 08.11.2019
4471 Thunderstorm 15 1012 54 10000 6.2 320 20:22 08.11.2019
4472 Thunderstorm 15 1012 54 10000 6.2 320 20:22 08.11.2019
4473 Clouds 15 1012 44 10000 4.1 250 19:59 08.11.2019
4474 Clouds 15 1012 47 10000 4.1 250 19:39 08.11.2019
4475 Clouds 15 1012 47 10000 4.1 250 19:19 08.11.2019
4476 Clouds 15 1012 47 10000 4.1 260 18:56 08.11.2019
4477 Clouds 14 1011 50 10000 4.1 270 18:38 08.11.2019
4478 Rain 15 1011 47 10000 4.6 280 18:20 08.11.2019
4479 Rain 15 1011 47 10000 4.6 280 17:56 08.11.2019
4480 Rain 15 1011 47 10000 4.6 280 17:56 08.11.2019
4481 Rain 15 1011 47 10000 4.6 280 17:56 08.11.2019
4482 Rain 15 1011 44 10000 5.7 290 17:37 08.11.2019
4483 Rain 15 1011 44 10000 6.2 300 17:19 08.11.2019
4484 Rain 15 1011 44 10000 6.2 300 17:19 08.11.2019
4485 Clear 15 1011 44 10000 6.2 300 16:58 08.11.2019
4486 Clear 15 1010 44 10000 7.2 300 16:39 08.11.2019
4487 Clear 15 1010 44 10000 7.2 300 16:39 08.11.2019
4488 Clear 15 1010 44 10000 7.2 300 16:20 08.11.2019
4489 Clear 16 1010 41 10000 6.7 290 15:59 08.11.2019
4490 Clear 16 1010 41 10000 6.2 300 15:40 08.11.2019
4491 Clear 16 1010 41 10000 6.2 300 15:22 08.11.2019
4492 Clear 16 1010 44 10000 7.7 300 14:56 08.11.2019
4493 Clear 16 1010 44 10000 6.2 310 14:37 08.11.2019
4494 Clouds 16 1010 44 10000 6.2 310 14:18 08.11.2019
4495 Clouds 15 1010 47 10000 6.7 300 13:57 08.11.2019
4496 Clouds 16 1010 44 10000 5.1 290 13:38 08.11.2019
4497 Clear 15 1010 44 10000 5.1 290 13:19 08.11.2019
4498 Clear 15 1010 47 10000 4.6 310 12:43 08.11.2019
4499 Clear 15 1010 47 10000 4.6 310 12:24 08.11.2019
4500 Clear 15 1010 47 10000 4.6 310 12:24 08.11.2019
4501 Clear 15 1010 47 10000 5.7 310 11:57 08.11.2019
4502 Clear 15 1010 44 10000 5.1 320 11:39 08.11.2019
4503 Clouds 15 1010 47 10000 5.7 310 11:20 08.11.2019
4504 Clouds 15 1010 47 10000 5.7 310 11:20 08.11.2019
4505 Clouds 14 1010 47 10000 5.7 310 10:57 08.11.2019
4506 Clouds 14 1010 50 10000 4.6 320 10:39 08.11.2019
4507 Clouds 14 1010 50 10000 4.6 320 10:20 08.11.2019
4508 Clouds 11 1010 58 10000 4.6 330 09:42 08.11.2019
4509 Clouds 11 1010 58 10000 4.6 330 09:24 08.11.2019
4510 Clouds 10 1010 62 10000 4.1 330 08:59 08.11.2019
4511 Clouds 10 1009 71 10000 2.1 360 08:38 08.11.2019
4512 Rain 10 1009 71 10000 2.1 360 08:19 08.11.2019
4513 Rain 10 1009 87 10000 1 0 07:41 08.11.2019
4514 Rain 10 1009 87 10000 1 0 07:22 08.11.2019
4515 Rain 10 1008 81 10000 1 0 06:41 08.11.2019
4516 Rain 10 1008 81 10000 1 0 06:23 08.11.2019
4517 Rain 11 1008 81 10000 3.1 350 05:56 08.11.2019
4518 Drizzle 11 1008 87 10000 3.6 330 05:24 08.11.2019
4519 Rain 12 1008 76 10000 5.1 310 03:58 08.11.2019
4520 Rain 12 1008 76 10000 5.1 310 03:58 08.11.2019
4521 Rain 12 1008 76 10000 5.1 310 03:58 08.11.2019
4522 Rain 10 1007 81 10000 1 0 03:36 08.11.2019
4523 Rain 11 1008 71 10000 1 0 02:52 08.11.2019
4524 Clouds 13 1008 66 10000 1.5 10 01:49 08.11.2019
4525 Clouds 14 1009 50 10000 7.2 310 01:31 08.11.2019
4526 Clouds 12 1008 71 10000 1.5 350 00:37 08.11.2019
4527 Clouds 13 1008 71 10000 1.5 350 00:19 08.11.2019
4528 Rain 13 1008 71 10000 2.1 10 23:43 07.11.2019
4529 Rain 13 1008 71 10000 2.1 10 23:24 07.11.2019
4530 Rain 14 1007 76 8000 4.6 350 22:55 07.11.2019
4531 Thunderstorm 14 1008 76 10000 2.1 0 22:36 07.11.2019
4532 Thunderstorm 14 1008 76 10000 2.1 0 22:18 07.11.2019
4533 Thunderstorm 15 1007 82 10000 4.1 330 21:38 07.11.2019
4534 Thunderstorm 15 1007 82 10000 4.1 330 21:20 07.11.2019
4535 Thunderstorm 15 1006 87 10000 3.6 340 20:58 07.11.2019
4536 Thunderstorm 16 1006 82 10000 3.1 330 20:40 07.11.2019
4537 Thunderstorm 17 1006 68 10000 4.1 280 20:21 07.11.2019
4538 Thunderstorm 17 1006 68 10000 4.1 280 19:57 07.11.2019
4539 Thunderstorm 17 1006 68 10000 4.1 280 19:57 07.11.2019
4540 Rain 18 1007 67 10000 2.6 250 19:38 07.11.2019
4541 Rain 18 1007 67 10000 2.6 250 19:20 07.11.2019
4542 Rain 18 1007 63 10000 3.6 260 18:57 07.11.2019
4543 Rain 18 1007 63 10000 3.1 270 18:38 07.11.2019
4544 Clouds 19 1007 63 10000 7.7 270 18:19 07.11.2019
4545 Clouds 19 1007 63 10000 7.7 270 17:55 07.11.2019
4546 Rain 19 1008 59 10000 5.7 260 17:37 07.11.2019
4547 Clouds 19 1007 68 10000 6.2 270 17:19 07.11.2019
4548 Rain 19 1008 59 10000 5.7 260 16:54 07.11.2019
4549 Rain 18 1008 63 10000 5.1 260 16:36 07.11.2019
4550 Clouds 19 1007 63 10000 7.2 260 16:18 07.11.2019
4551 Rain 19 1008 52 10000 6.7 260 15:40 07.11.2019
4552 Clouds 19 1007 60 10000 7.2 260 15:20 07.11.2019
4553 Rain 19 1008 55 10000 6.7 260 14:57 07.11.2019
4554 Rain 19 1008 55 10000 6.7 260 14:37 07.11.2019
4555 Clouds 19 1008 56 10000 7.2 260 14:19 07.11.2019
4556 Clear 19 1009 52 10000 5.7 260 13:55 07.11.2019
4557 Clear 19 1009 59 10000 6.2 250 13:36 07.11.2019
4558 Clear 19 1009 59 10000 6.2 250 13:18 07.11.2019
4559 Clear 19 1009 59 10000 7.2 250 12:55 07.11.2019
4560 Clear 19 1010 55 10000 7.2 230 12:37 07.11.2019
4561 Clouds 19 1009 63 10000 9.3 260 12:18 07.11.2019
4562 Clouds 19 1009 63 10000 9.3 260 12:18 07.11.2019
4563 Clear 18 1010 55 10000 7.7 240 11:41 07.11.2019
4564 Clear 18 1010 55 10000 7.7 240 11:22 07.11.2019
4565 Clear 18 1010 59 10000 5.1 240 10:42 07.11.2019
4566 Clear 17 1010 59 10000 5.1 240 10:19 07.11.2019
4567 Clouds 17 1009 63 10000 8.2 260 10:19 07.11.2019
4568 Clear 17 1010 63 10000 3.6 260 09:55 07.11.2019
4569 Clear 15 1010 76 10000 1 0 09:37 07.11.2019
4570 Clear 13 1010 81 10000 0.5 0 09:19 07.11.2019
4571 Clouds 12 1010 93 10000 0.5 50 08:45 07.11.2019
4572 Clouds 12 1010 93 10000 0.5 50 08:44 07.11.2019
4573 -273 0 0 0 0 0 08:24 07.11.2019
4574 Clouds 11 1010 93 10000 1 10 08:23 07.11.2019
4575 Clear 10 1010 87 10000 1.5 360 07:57 07.11.2019
4576 Clear 10 1010 87 10000 1 360 07:39 07.11.2019
4577 -273 0 0 0 0 0 07:38 07.11.2019
4578 -273 0 0 0 0 0 07:38 07.11.2019
4579 Clear 10 1010 87 10000 1.5 30 07:20 07.11.2019
4580 Clouds 10 1009 87 10000 1 80 07:19 07.11.2019
4581 Clouds 11 1009 93 10000 0.5 0 06:42 07.11.2019
4582 Clear 11 1010 87 10000 1.5 350 06:23 07.11.2019
4583 Clear 11 1010 87 10000 1.5 350 06:22 07.11.2019
4584 Clouds 9 1009 93 10000 0.5 0 05:48 07.11.2019
4585 Clear 9 1010 87 10000 1.5 330 05:29 07.11.2019
4586 Clear 9 1010 87 10000 1.5 330 05:29 07.11.2019
4587 Clouds 9 1009 93 10000 1.5 50 04:42 07.11.2019
4588 Clear 10 1011 81 10000 1.5 10 03:01 07.11.2019
4589 Clear 10 1013 87 10000 1.5 20 00:58 07.11.2019
4590 Clear 11 1013 81 10000 2.1 360 00:23 07.11.2019
4591 Clouds 11 1012 87 10000 0.5 0 23:48 06.11.2019
4592 Clear 11 1013 81 10000 2.1 350 23:23 06.11.2019
4593 Clear 11 1013 81 10000 2.1 350 23:23 06.11.2019
4594 Clear 12 1013 76 10000 1.5 330 22:58 06.11.2019
4595 Clear 12 1013 71 10000 1 0 22:39 06.11.2019
4596 Rain 13 1013 71 10000 1 0 22:19 06.11.2019
4597 Clear 14 1013 67 10000 1 10 21:57 06.11.2019
4598 Clear 14 1013 62 10000 2.1 190 21:38 06.11.2019
4599 Rain 15 1013 71 10000 2.1 190 21:19 06.11.2019
4600 Rain 14 1013 71 10000 2.1 190 20:55 06.11.2019
4601 Rain 14 1013 71 10000 1 60 20:36 06.11.2019
4602 Rain 14 1012 62 10000 1.5 330 20:18 06.11.2019
4603 Rain 16 1012 59 10000 2.1 260 19:40 06.11.2019
4604 Rain 16 1012 62 10000 1.5 320 19:22 06.11.2019
4605 Rain 15 1012 62 10000 0.5 290 18:59 06.11.2019
4606 Rain 16 1012 62 10000 0.5 290 18:59 06.11.2019
4607 Rain 15 1012 62 10000 1.5 270 18:39 06.11.2019
4608 Rain 16 1012 62 10000 1.5 270 18:19 06.11.2019
4609 Clear 16 1012 59 10000 2.6 320 17:59 06.11.2019
4610 Clear 17 1012 55 10000 3.6 330 17:41 06.11.2019
4611 Clear 17 1012 55 10000 3.6 330 17:22 06.11.2019
4612 Clear 17 1012 55 10000 4.1 310 16:57 06.11.2019
4613 Clear 17 1012 55 10000 4.1 310 16:38 06.11.2019
4614 Clear 17 1012 55 10000 4.1 310 16:38 06.11.2019
4615 Clear 17 1012 55 10000 4.1 310 16:19 06.11.2019
4616 Clear 17 1012 55 10000 4.6 300 15:56 06.11.2019
4617 Clear 17 1012 55 10000 4.6 300 15:56 06.11.2019
4618 Clear 18 1012 52 10000 3.6 320 15:37 06.11.2019
4619 Clear 18 1012 52 10000 3.6 320 15:19 06.11.2019
4620 Clear 18 1012 52 10000 5.7 310 14:56 06.11.2019
4621 Clear 18 1012 52 10000 5.1 310 14:38 06.11.2019
4622 Clouds 18 1012 51 10000 4.1 320 14:20 06.11.2019
4623 Clouds 18 1012 51 10000 4.1 320 13:54 06.11.2019
4624 Clouds 18 1012 48 10000 4.1 310 13:36 06.11.2019
4625 Clouds 18 1012 48 10000 4.1 310 13:18 06.11.2019
4626 Clouds 18 1012 52 10000 5.7 320 12:43 06.11.2019
4627 Clouds 18 1012 52 10000 5.7 320 12:23 06.11.2019
4628 Clouds 17 1012 55 10000 4.1 320 11:59 06.11.2019
4629 Rain 17 1012 55 10000 4.6 340 11:38 06.11.2019
4630 Rain 17 1012 55 10000 4.6 340 11:19 06.11.2019
4631 Rain 17 1012 55 10000 6.2 320 10:57 06.11.2019
4632 Rain 17 1012 51 10000 7.2 330 10:39 06.11.2019
4633 Rain 17 1012 51 10000 7.2 330 10:21 06.11.2019
4634 Rain 16 1011 59 10000 5.7 310 09:58 06.11.2019
4635 Rain 16 1011 55 10000 7.7 310 09:38 06.11.2019
4636 Rain 16 1011 55 10000 7.7 310 09:20 06.11.2019
4637 Rain 16 1011 55 10000 6.2 320 08:55 06.11.2019
4638 Rain 16 1011 55 10000 5.7 310 08:37 06.11.2019
4639 Rain 16 1011 55 10000 5.7 310 08:18 06.11.2019
4640 Rain 16 1010 51 10000 5.7 290 07:41 06.11.2019
4641 Rain 16 1010 51 10000 5.7 290 07:22 06.11.2019
4642 Rain 16 1010 51 10000 7.2 300 06:48 06.11.2019
4643 Rain 16 1009 55 10000 5.7 300 06:28 06.11.2019
4644 Clouds 16 1010 51 10000 6.7 310 05:32 06.11.2019
4645 Rain 16 1010 55 10000 4.1 310 02:54 06.11.2019
4646 Rain 16 1010 63 10000 2.1 280 01:41 06.11.2019
4647 Rain 16 1010 63 10000 2.6 320 00:46 06.11.2019
4648 Rain 16 1009 55 10000 1.5 340 23:59 05.11.2019
4649 Rain 17 1009 55 10000 2.6 300 23:40 05.11.2019
4650 Rain 17 1009 55 10000 2.6 300 23:22 05.11.2019
4651 Thunderstorm 17 1009 55 10000 4.6 270 22:57 05.11.2019
4652 Thunderstorm 17 1009 58 10000 3.1 230 22:38 05.11.2019
4653 Thunderstorm 17 1009 58 10000 3.1 230 22:18 05.11.2019
4654 Rain 17 1009 51 10000 3.1 250 21:43 05.11.2019
4655 Rain 16 1009 51 10000 3.1 250 21:22 05.11.2019
4656 Rain 16 1009 55 10000 2.6 240 20:59 05.11.2019
4657 Rain 16 1009 55 10000 2.6 250 20:39 05.11.2019
4658 Rain 17 1009 55 10000 2.6 250 20:21 05.11.2019
4659 Rain 17 1009 51 10000 2.1 250 19:59 05.11.2019
4660 Clear 16 1008 51 10000 2.1 260 19:40 05.11.2019
4661 Clear 16 1008 51 10000 2.1 260 19:22 05.11.2019
4662 Clear 17 1008 48 10000 2.6 260 18:58 05.11.2019
4663 Clear 17 1008 48 10000 2.6 270 18:39 05.11.2019
4664 Rain 18 1008 45 10000 4.6 270 18:20 05.11.2019
4665 Rain 18 1008 45 10000 4.6 270 17:59 05.11.2019
4666 Rain 18 1008 45 10000 5.1 270 17:39 05.11.2019
4667 Rain 18 1008 45 10000 5.1 270 17:19 05.11.2019
4668 Rain 18 1007 45 10000 5.7 290 16:56 05.11.2019
4669 Clear 18 1007 42 10000 6.2 280 16:38 05.11.2019
4670 Clear 18 1007 42 10000 6.2 280 16:19 05.11.2019
4671 Clear 19 1007 45 10000 5.7 280 15:39 05.11.2019
4672 Clear 19 1007 45 10000 5.7 280 15:20 05.11.2019
4673 Clear 19 1007 45 10000 7.7 290 14:58 05.11.2019
4674 Clear 19 1006 45 10000 7.2 300 14:40 05.11.2019
4675 Clouds 19 1006 45 10000 7.2 300 14:21 05.11.2019
4676 Clouds 19 1007 48 10000 6.7 300 13:56 05.11.2019
4677 Clouds 19 1007 48 10000 4.6 300 13:38 05.11.2019
4678 Clouds 19 1007 48 10000 4.6 300 13:20 05.11.2019
4679 Clouds 19 1007 45 10000 5.1 310 12:40 05.11.2019
4680 Clouds 19 1007 45 10000 5.1 310 12:21 05.11.2019
4681 Clouds 19 1007 45 10000 5.1 310 12:21 05.11.2019
4682 Clouds 18 1007 52 10000 4.6 320 11:56 05.11.2019
4683 Rain 18 1007 63 10000 5.1 320 11:37 05.11.2019
4684 Rain 17 1008 63 10000 2.6 330 11:19 05.11.2019
4685 Rain 19 1007 48 10000 6.7 290 10:45 05.11.2019
4686 Clouds 19 1007 48 10000 6.7 290 10:27 05.11.2019
4687 Clouds 19 1006 52 10000 6.7 310 09:59 05.11.2019
4688 Clouds 19 1006 52 10000 6.7 310 09:59 05.11.2019
4689 Clouds 19 1006 59 10000 6.2 300 09:41 05.11.2019
4690 Clouds 18 1006 59 10000 6.2 300 09:20 05.11.2019
4691 Rain 19 1006 55 10000 4.6 260 08:57 05.11.2019
4692 Rain 19 1005 52 10000 6.7 260 08:37 05.11.2019
4693 Rain 19 1005 52 10000 6.7 260 08:19 05.11.2019
4694 Rain 19 1005 52 10000 7.7 270 07:45 05.11.2019
4695 Rain 19 1005 72 10000 2.6 310 07:26 05.11.2019
4696 Rain 19 1005 68 10000 4.1 330 06:52 05.11.2019
4697 Rain 19 1005 68 10000 4.1 330 06:33 05.11.2019
4698 Rain 21 1004 60 10000 7.7 240 05:49 05.11.2019
4699 Rain 21 1004 60 10000 7.7 240 05:21 05.11.2019
4700 Rain 20 1005 52 10000 5.1 250 04:23 05.11.2019
4701 Rain 20 1005 52 10000 6.7 250 03:32 05.11.2019
4702 Rain 20 1005 52 10000 5.7 260 02:43 05.11.2019
4703 Rain 20 1005 56 10000 4.6 260 01:56 05.11.2019
4704 Rain 20 1006 60 10000 4.6 250 00:48 05.11.2019
4705 Rain 21 1006 60 10000 2.1 240 00:27 05.11.2019
4706 Rain 21 1006 52 10000 2.6 260 23:43 04.11.2019
4707 Rain 21 1006 52 10000 2.6 260 23:20 04.11.2019
4708 Rain 21 1007 56 10000 2.6 0 22:59 04.11.2019
4709 Rain 21 1006 68 10000 2.1 160 22:40 04.11.2019
4710 Rain 21 1006 68 10000 2.1 160 22:40 04.11.2019
4711 Rain 21 1006 68 10000 2.1 160 22:21 04.11.2019
4712 Rain 20 1006 68 10000 3.6 220 21:56 04.11.2019
4713 Rain 20 1007 72 10000 3.6 210 21:37 04.11.2019
4714 Rain 20 1007 72 10000 3.6 210 21:19 04.11.2019
4715 Rain 20 1007 77 10000 3.1 220 20:58 04.11.2019
4716 Rain 21 1007 77 10000 4.6 220 20:39 04.11.2019
4717 Clear 20 1007 77 10000 4.6 220 20:21 04.11.2019
4718 Rain 20 1007 82 10000 4.1 230 19:58 04.11.2019
4719 Rain 20 1007 77 10000 4.1 220 19:40 04.11.2019
4720 Rain 20 1007 77 10000 4.1 220 19:21 04.11.2019
4721 Rain 20 1007 72 10000 4.1 230 18:56 04.11.2019
4722 Rain 20 1007 72 10000 4.1 230 18:56 04.11.2019
4723 Rain 21 1007 64 10000 5.1 240 18:38 04.11.2019
4724 Rain 21 1007 64 10000 6.7 240 18:19 04.11.2019
4725 Rain 21 1007 56 10000 6.7 240 17:39 04.11.2019
4726 Rain 21 1007 56 10000 6.7 240 17:39 04.11.2019
4727 Rain 21 1007 56 10000 6.7 240 17:21 04.11.2019
4728 Rain 22 1007 56 10000 7.7 230 16:57 04.11.2019
4729 Clear 22 1008 56 10000 6.7 240 16:39 04.11.2019
4730 Clear 22 1008 56 10000 6.7 240 16:20 04.11.2019
4731 Clear 22 1008 56 10000 6.7 240 16:20 04.11.2019
4732 Clear 22 1008 49 10000 7.7 260 15:55 04.11.2019
4733 Clouds 22 1007 56 10000 12.3 260 15:36 04.11.2019
4734 Clear 22 1008 56 10000 9.3 250 15:18 04.11.2019
4735 Clear 23 1008 49 10000 9.8 260 14:41 04.11.2019
4736 Clear 23 1008 49 10000 9.8 260 14:21 04.11.2019
4737 Clear 22 1008 53 10000 10.8 260 13:59 04.11.2019
4738 Clear 22 1008 53 10000 10.3 250 13:41 04.11.2019
4739 Clear 22 1008 53 10000 10.3 250 13:21 04.11.2019
4740 Clear 22 1008 53 10000 10.3 250 13:21 04.11.2019
4741 Clear 22 1009 53 10000 9.8 260 12:58 04.11.2019
4742 Clear 22 1009 56 10000 9.8 250 12:40 04.11.2019
4743 Clear 22 1009 56 10000 9.8 250 12:21 04.11.2019
4744 Clear 21 1010 60 10000 8.2 250 11:57 04.11.2019
4745 Clear 22 1010 56 10000 8.2 260 11:38 04.11.2019
4746 Clear 21 1010 56 10000 8.2 260 11:20 04.11.2019
4747 Clear 20 1010 60 10000 7.2 260 10:42 04.11.2019
4748 Clear 20 1010 60 10000 7.2 260 10:24 04.11.2019
4749 Rain 20 1010 68 10000 7.7 250 09:47 04.11.2019
4750 Rain 20 1011 72 10000 5.7 260 09:28 04.11.2019
4751 Clear 19 1010 72 10000 2.6 0 08:59 04.11.2019
4752 Clear 17 1010 82 10000 1.5 90 08:41 04.11.2019
4753 Clear 16 1010 82 10000 1.5 90 08:21 04.11.2019
4754 Clear 14 1009 76 10000 1 0 07:45 04.11.2019
4755 Clear 15 1009 76 10000 1 0 07:24 04.11.2019
4756 Clear 15 1009 76 10000 1 0 07:24 04.11.2019
4757 Clear 14 1009 82 10000 1.5 330 06:58 04.11.2019
4758 Clear 14 1009 82 10000 1 0 06:36 04.11.2019
4759 Clear 14 1009 72 10000 0.5 0 05:59 04.11.2019
4760 Clear 14 1009 71 10000 2.6 270 04:45 04.11.2019
4761 Clear 14 1009 71 10000 2.6 270 04:24 04.11.2019
4762 Rain 15 1009 71 10000 1 0 02:59 04.11.2019
4763 Rain 17 1009 67 10000 0.5 0 01:22 04.11.2019
4764 Rain 17 1009 63 10000 1.5 250 00:51 04.11.2019
4765 Rain 18 1009 63 10000 2.6 270 00:21 04.11.2019
4766 Rain 18 1009 63 10000 1.5 0 23:58 03.11.2019
4767 Rain 18 1009 63 10000 2.6 240 23:36 03.11.2019
4768 Clear 17 1009 63 10000 2.1 270 23:18 03.11.2019
4769 Rain 17 1009 63 10000 2.1 270 22:55 03.11.2019
4770 Rain 18 1009 59 10000 2.6 210 22:37 03.11.2019
4771 Rain 18 1009 59 10000 2.6 280 22:18 03.11.2019
4772 Rain 18 1008 52 10000 4.1 300 21:42 03.11.2019
4773 Rain 18 1008 52 10000 4.1 300 21:21 03.11.2019
4774 Rain 18 1008 59 10000 2.1 230 20:57 03.11.2019
4775 Rain 18 1007 52 10000 3.1 300 20:37 03.11.2019
4776 Rain 19 1007 52 10000 3.1 300 20:19 03.11.2019
4777 Rain 19 1007 48 10000 5.7 290 19:57 03.11.2019
4778 Rain 19 1006 48 10000 5.7 280 19:38 03.11.2019
4779 Clouds 19 1006 48 10000 5.7 280 19:20 03.11.2019
4780 Clouds 19 1006 45 10000 3.6 270 18:54 03.11.2019
4781 Clouds 20 1005 48 10000 4.6 270 18:36 03.11.2019
4782 Clouds 20 1005 48 10000 4.6 270 18:18 03.11.2019
4783 Clouds 20 1004 45 10000 4.6 250 17:42 03.11.2019
4784 Rain 20 1004 45 10000 4.6 250 17:20 03.11.2019
4785 Rain 20 1004 42 10000 5.1 300 16:56 03.11.2019
4786 Rain 20 1004 42 10000 4.1 0 16:38 03.11.2019
4787 Rain 20 1004 42 10000 4.1 0 16:38 03.11.2019
4788 Rain 20 1004 42 10000 4.1 0 16:20 03.11.2019
4789 Rain 20 1003 45 10000 5.7 290 15:57 03.11.2019
4790 Rain 20 1003 48 10000 6.2 280 15:39 03.11.2019
4791 Rain 20 1003 48 10000 6.2 280 15:21 03.11.2019
4792 Rain 18 1002 77 10000 3.1 280 14:42 03.11.2019
4793 Rain 18 1002 77 10000 3.1 280 14:20 03.11.2019
4794 Rain 16 1002 72 10000 6.2 320 13:59 03.11.2019
4795 Rain 16 1003 82 10000 8.2 320 13:40 03.11.2019
4796 Rain 16 1003 82 10000 8.2 320 13:18 03.11.2019
4797 Rain 23 1000 44 10000 8.7 270 12:39 03.11.2019
4798 Rain 24 1000 44 10000 8.7 270 12:20 03.11.2019
4799 Rain 23 1000 49 10000 10.3 260 11:59 03.11.2019
4800 Rain 23 1000 49 10000 10.8 250 11:41 03.11.2019
4801 Clouds 23 1000 49 10000 10.8 250 11:21 03.11.2019
4802 Clouds 23 1000 53 10000 10.3 260 10:55 03.11.2019
4803 Clouds 22 1000 53 10000 9.8 250 10:37 03.11.2019
4804 Clouds 22 1000 53 10000 9.8 250 10:18 03.11.2019
4805 Clouds 22 1000 53 10000 9.8 250 10:18 03.11.2019
4806 Clouds 21 1000 56 10000 10.3 250 09:43 03.11.2019
4807 Clouds 22 1000 56 10000 10.3 250 09:43 03.11.2019
4808 Clouds 21 1000 56 10000 10.3 250 09:24 03.11.2019
4809 Clouds 21 1000 56 10000 8.2 250 08:56 03.11.2019
4810 Clouds 21 1000 52 10000 9.8 250 08:37 03.11.2019
4811 Rain 21 1000 52 10000 9.8 250 08:19 03.11.2019
4812 Rain 21 1000 56 10000 9.3 260 07:45 03.11.2019
4813 Rain 21 999 49 10000 10.3 260 07:21 03.11.2019
4814 Rain 21 1000 68 10000 9.3 250 06:39 03.11.2019
4815 Rain 21 1000 64 10000 6.2 250 05:54 03.11.2019
4816 Rain 22 1001 60 10000 6.7 250 05:34 03.11.2019
4817 Rain 22 1001 56 10000 7.7 250 04:53 03.11.2019
4818 Rain 22 1001 60 10000 9.3 240 03:59 03.11.2019
4819 Clouds 22 1002 56 10000 9.3 240 03:23 03.11.2019
4820 Rain 22 1002 64 10000 4.1 230 02:23 03.11.2019
4821 Rain 21 1003 68 10000 4.6 230 01:55 03.11.2019
4822 Rain 21 1003 68 10000 4.6 230 01:36 03.11.2019
4823 Rain 21 1003 68 10000 4.6 230 01:18 03.11.2019
4824 Rain 21 1004 77 10000 3.1 240 00:38 03.11.2019
4825 Rain 21 1004 77 10000 3.1 240 00:20 03.11.2019
4826 Rain 21 1004 77 10000 3.6 200 23:55 02.11.2019
4827 Rain 21 1005 82 10000 2.6 200 23:36 02.11.2019
4828 Clouds 21 1005 82 10000 2.6 200 23:18 02.11.2019
4829 Clouds 21 1005 77 10000 1 0 22:54 02.11.2019
4830 Clouds 21 1006 77 10000 1 0 22:36 02.11.2019
4831 Clouds 21 1006 77 10000 1 0 22:18 02.11.2019
4832 Clouds 21 1006 77 10000 1 0 22:18 02.11.2019
4833 Clouds 21 1006 82 10000 0.5 30 21:55 02.11.2019
4834 Clouds 21 1006 82 10000 1 0 21:36 02.11.2019
4835 Clouds 21 1006 82 10000 1 0 21:18 02.11.2019
4836 Clouds 21 1006 82 10000 1 0 21:18 02.11.2019
4837 Clouds 21 1006 82 10000 1 0 21:18 02.11.2019
4838 Clouds 21 1006 82 10000 1 0 21:18 02.11.2019
4839 Rain 21 1006 77 10000 2.1 220 20:55 02.11.2019
4840 Rain 21 1006 77 10000 1.5 190 20:37 02.11.2019
4841 Rain 20 1006 77 10000 1.5 190 20:18 02.11.2019
4842 Rain 21 1007 77 10000 2.6 220 19:39 02.11.2019
4843 Clear 21 1007 73 10000 2.1 210 19:20 02.11.2019
4844 Clear 21 1007 73 10000 2.1 210 18:55 02.11.2019
4845 Clear 21 1007 73 10000 2.1 210 18:55 02.11.2019
4846 Clear 21 1006 73 10000 4.1 230 18:37 02.11.2019
4847 Clear 21 1006 73 10000 4.1 230 18:18 02.11.2019
4848 Clear 22 1006 68 10000 5.1 240 17:55 02.11.2019
4849 Clear 22 1006 64 10000 6.7 250 17:37 02.11.2019
4850 Clouds 23 1006 73 10000 7.7 240 17:18 02.11.2019
4851 Clear 23 1007 60 10000 5.1 240 16:40 02.11.2019
4852 Clear 23 1007 60 10000 5.1 240 16:40 02.11.2019
4853 Clear 24 1007 60 10000 4.6 260 16:21 02.11.2019
4854 Clear 24 1007 60 10000 4.6 260 15:56 02.11.2019
4855 Clear 24 1007 53 10000 5.1 240 15:37 02.11.2019
4856 Clear 25 1007 53 10000 5.1 240 15:19 02.11.2019
4857 Clear 24 1007 60 10000 6.2 220 14:42 02.11.2019
4858 Rain 24 1007 60 10000 6.2 220 14:23 02.11.2019
4859 Rain 24 1008 60 10000 6.7 220 13:57 02.11.2019
4860 Rain 24 1008 60 10000 6.7 220 13:57 02.11.2019
4861 Clouds 24 1008 65 10000 2.6 200 13:38 02.11.2019
4862 Clouds 24 1008 65 10000 2.6 200 13:18 02.11.2019
4863 Clouds 24 1009 64 10000 4.1 210 12:41 02.11.2019
4864 Clouds 24 1009 64 10000 4.1 210 12:22 02.11.2019
4865 Clouds 24 1009 64 10000 4.1 210 12:22 02.11.2019
4866 Clouds 24 1009 64 10000 1.5 220 11:57 02.11.2019
4867 Clouds 24 1009 69 10000 1.5 320 11:39 02.11.2019
4868 Clouds 23 1010 78 10000 1 0 11:20 02.11.2019
4869 Clouds 22 1010 78 10000 1 0 10:48 02.11.2019
4870 Clouds 22 1010 83 10000 1 0 10:28 02.11.2019
4871 Clouds 21 1010 88 10000 1 0 09:58 02.11.2019
4872 Clouds 21 1010 93 10000 1 0 09:39 02.11.2019
4873 Clouds 20 1010 93 10000 1 0 09:19 02.11.2019
4874 Clouds 20 1010 93 10000 1 0 09:19 02.11.2019
4875 Clouds 19 1010 100 10000 1 0 08:45 02.11.2019
4876 Clouds 19 1010 100 10000 1 0 08:45 02.11.2019
4877 Mist 19 1010 100 4300 1 0 08:22 02.11.2019
4878 Rain 19 1010 93 10000 0.5 0 07:48 02.11.2019
4879 Rain 19 1010 93 10000 1 0 07:29 02.11.2019
4880 Rain 18 1010 93 10000 1 0 06:55 02.11.2019
4881 Rain 20 1010 93 10000 0.5 0 06:37 02.11.2019
4882 Rain 20 1010 93 10000 1.5 20 05:56 02.11.2019
4883 Rain 19 1010 93 10000 1 0 05:20 02.11.2019
4884 Rain 19 1010 93 10000 1.5 90 04:21 02.11.2019
4885 Rain 19 1011 88 10000 2.1 330 03:50 02.11.2019
4886 Rain 19 1012 88 10000 1 20 02:42 02.11.2019
4887 Rain 19 1012 88 10000 0.5 0 01:55 02.11.2019
4888 Rain 19 1013 88 10000 1 0 01:24 02.11.2019
4889 Rain 18 1013 88 10000 0.5 0 00:51 02.11.2019
4890 Rain 18 1014 93 10000 1.5 10 00:26 02.11.2019
4891 Rain 19 1014 88 10000 1.5 360 23:48 01.11.2019
4892 Clouds 19 1014 88 10000 1.5 360 23:23 01.11.2019
4893 Clouds 19 1015 88 10000 1.5 350 22:58 01.11.2019
4894 Clouds 19 1015 88 10000 1.5 10 22:39 01.11.2019
4895 Clouds 19 1015 88 10000 1.5 10 22:20 01.11.2019
4896 Clouds 20 1015 88 10000 0.5 0 21:41 01.11.2019
4897 Clouds 20 1015 88 10000 0.5 0 21:23 01.11.2019
4898 Clouds 20 1015 88 10000 1 240 20:57 01.11.2019
4899 Clouds 21 1015 82 10000 3.1 220 20:39 01.11.2019
4900 Clouds 21 1015 82 10000 3.1 220 20:19 01.11.2019
4901 Clouds 21 1016 83 10000 3.1 220 19:56 01.11.2019
4902 Clouds 21 1016 88 10000 2.6 220 19:37 01.11.2019
4903 Clouds 21 1016 88 10000 2.6 220 19:37 01.11.2019
4904 Clouds 21 1016 88 10000 2.6 220 19:19 01.11.2019
4905 Clouds 21 1016 77 10000 3.6 190 18:39 01.11.2019
4906 Clouds 21 1016 77 10000 3.6 190 18:39 01.11.2019
4907 Clouds 21 1016 77 10000 3.6 190 18:39 01.11.2019
4908 Clouds 21 1016 77 10000 3.6 190 18:20 01.11.2019
4909 Clouds 22 1016 73 10000 3.1 200 17:55 01.11.2019
4910 Clouds 22 1016 73 10000 3.6 210 17:37 01.11.2019
4911 Clouds 23 1016 73 10000 3.6 210 17:19 01.11.2019
4912 Clouds 23 1016 69 10000 3.6 220 16:38 01.11.2019
4913 Clouds 23 1016 69 10000 3.6 220 16:38 01.11.2019
4914 Clouds 23 1016 69 10000 3.6 220 16:19 01.11.2019
4915 Clouds 23 1016 56 10000 2.6 240 15:54 01.11.2019
4916 Clouds 23 1016 56 10000 3.6 260 15:36 01.11.2019
4917 Clouds 23 1016 56 10000 3.6 260 15:18 01.11.2019
4918 Clouds 23 1017 60 10000 6.7 220 14:41 01.11.2019
4919 Clear 23 1017 60 10000 6.7 220 14:23 01.11.2019
4920 Clear 24 1017 57 10000 6.2 230 13:57 01.11.2019
4921 Clear 24 1017 57 10000 6.2 230 13:57 01.11.2019
4922 Clear 23 1018 64 10000 6.2 210 13:38 01.11.2019
4923 Clouds 23 1018 64 10000 6.2 210 13:20 01.11.2019
4924 Clouds 23 1019 73 10000 5.7 220 12:43 01.11.2019
4925 Clouds 23 1019 73 10000 5.7 220 12:25 01.11.2019
4926 Clouds 22 1019 78 10000 5.7 220 11:59 01.11.2019
4927 Clouds 22 1019 73 10000 4.1 210 11:40 01.11.2019
4928 Clear 22 1019 73 10000 4.1 210 11:22 01.11.2019
4929 Clear 21 1019 77 10000 1 0 10:42 01.11.2019
4930 Clear 20 1019 77 10000 1 0 10:22 01.11.2019
4931 Clear 20 1020 77 10000 0.5 0 09:57 01.11.2019
4932 Clear 19 1020 82 10000 1 20 09:39 01.11.2019
4933 Clear 19 1020 82 10000 1 20 09:19 01.11.2019
4934 Clear 17 1020 87 10000 1 0 08:44 01.11.2019
4935 Clouds 16 1020 93 10000 1 0 08:22 01.11.2019
4936 Clouds 15 1019 93 10000 1.5 30 07:56 01.11.2019
4937 Clouds 15 1019 93 10000 1.5 340 07:37 01.11.2019
4938 Clouds 15 1019 93 10000 1.5 30 07:19 01.11.2019
4939 Clouds 15 1020 93 10000 1 40 06:41 01.11.2019
4940 Clouds 15 1020 93 10000 1 40 06:22 01.11.2019
4941 Clouds 15 1020 93 10000 2.1 360 05:43 01.11.2019
4942 Clouds 16 1020 87 10000 1.5 340 03:57 01.11.2019
4943 Clouds 16 1020 87 10000 2.1 350 02:49 01.11.2019
4944 Clouds 16 1020 87 10000 2.6 340 02:49 01.11.2019
4945 Clear 16 1020 87 10000 2.1 10 01:31 01.11.2019
4946 Clear 17 1021 88 10000 2.1 360 00:42 01.11.2019
4947 Clear 18 1021 88 10000 2.1 360 00:18 01.11.2019
4948 Clear 18 1021 82 10000 1.5 300 23:43 31.10.2019
4949 Rain 19 1021 82 10000 1.5 300 23:23 31.10.2019
4950 Rain 18 1021 82 10000 1 350 22:56 31.10.2019
4951 Rain 18 1021 82 10000 0.5 0 22:38 31.10.2019
4952 Rain 18 1021 82 10000 0.5 0 22:19 31.10.2019
4953 Rain 18 1021 77 10000 1 0 21:43 31.10.2019
4954 Rain 19 1021 77 10000 0.5 0 21:20 31.10.2019
4955 Rain 19 1020 72 10000 3.1 50 20:57 31.10.2019
4956 Rain 19 1020 77 10000 2.6 80 20:39 31.10.2019
4957 Clouds 20 1020 77 10000 2.6 80 20:20 31.10.2019
4958 Clouds 20 1019 72 10000 1.5 0 19:42 31.10.2019
4959 Clouds 20 1019 72 10000 1.5 0 19:22 31.10.2019
4960 Clouds 20 1019 72 10000 0.5 90 18:57 31.10.2019
4961 Clouds 20 1019 72 10000 0.5 90 18:57 31.10.2019
4962 Rain 21 1019 72 10000 1 320 18:39 31.10.2019
4963 Rain 21 1019 72 10000 1 320 18:20 31.10.2019
4964 Rain 21 1019 68 10000 1.5 330 17:42 31.10.2019
4965 Rain 22 1019 68 10000 1.5 330 17:42 31.10.2019
4966 Clouds 22 1019 68 10000 1.5 330 17:22 31.10.2019
4967 Clouds 23 1019 64 10000 3.6 320 16:59 31.10.2019
4968 Clouds 23 1018 64 10000 3.1 320 16:40 31.10.2019
4969 Clouds 23 1018 64 10000 3.1 320 16:20 31.10.2019
4970 Clouds 23 1018 64 10000 5.1 320 15:56 31.10.2019
4971 Clouds 23 1018 57 10000 3.6 290 15:38 31.10.2019
4972 Clouds 23 1018 57 10000 3.6 290 15:19 31.10.2019
4973 Clouds 24 1018 60 10000 3.6 290 14:56 31.10.2019
4974 Clouds 24 1019 56 10000 3.6 320 14:38 31.10.2019
4975 Clouds 24 1019 56 10000 3.6 320 14:19 31.10.2019
4976 Clouds 24 1019 60 10000 4.6 300 13:55 31.10.2019
4977 Clouds 23 1019 56 10000 5.7 320 13:37 31.10.2019
4978 Clouds 23 1019 60 10000 3.6 310 13:19 31.10.2019
4979 Clouds 24 1020 56 10000 3.6 300 12:43 31.10.2019
4980 Clouds 23 1020 56 10000 3.6 300 12:23 31.10.2019
4981 Clouds 23 1020 60 10000 2.6 290 11:58 31.10.2019
4982 Clouds 22 1020 64 10000 2.1 210 11:40 31.10.2019
4983 Clouds 22 1020 64 10000 2.1 210 11:18 31.10.2019
4984 Clouds 22 1020 68 10000 2.1 210 10:57 31.10.2019
4985 Clouds 22 1020 68 10000 2.1 210 10:57 31.10.2019
4986 Clouds 22 1020 68 10000 0.5 0 10:38 31.10.2019
4987 Clouds 21 1020 68 10000 0.5 0 10:19 31.10.2019
4988 Clouds 19 1020 88 10000 1.5 10 09:42 31.10.2019
4989 Clouds 19 1020 88 10000 1.5 10 09:18 31.10.2019
4990 Clouds 19 1020 82 10000 2.1 360 08:54 31.10.2019
4991 Clouds 19 1019 82 10000 1 0 08:34 31.10.2019
4992 Clouds 17 1019 87 10000 1.5 350 07:58 31.10.2019
4993 Clouds 17 1019 87 10000 2.1 350 07:39 31.10.2019
4994 Clouds 17 1019 87 10000 2.1 350 07:21 31.10.2019
4995 Clouds 17 1019 87 10000 1.5 30 06:38 31.10.2019
4996 Clouds 18 1019 87 10000 1.5 30 06:19 31.10.2019
4997 Clouds 18 1020 87 10000 2.1 10 04:35 31.10.2019
4998 Clouds 17 1020 87 10000 1.5 10 02:45 31.10.2019
4999 Clouds 17 1021 82 10000 1.5 10 01:53 31.10.2019
5000 Clouds 17 1021 82 10000 1.5 10 01:53 31.10.2019
5001 Clouds 17 1021 87 10000 1.5 360 00:42 31.10.2019
5002 Clouds 17 1021 87 10000 1.5 360 00:23 31.10.2019
5003 Clouds 17 1021 87 10000 1.5 350 23:34 30.10.2019
5004 Clouds 17 1021 93 10000 1.5 360 22:56 30.10.2019
5005 Clouds 18 1021 88 10000 0.5 0 22:38 30.10.2019
5006 Clouds 18 1021 88 10000 0.5 0 22:18 30.10.2019
5007 Clouds 18 1021 88 10000 0.5 0 21:54 30.10.2019
5008 Clouds 19 1021 82 10000 0.5 0 21:36 30.10.2019
5009 Clouds 19 1021 82 10000 0.5 0 21:18 30.10.2019
5010 Clouds 19 1021 82 10000 1 0 20:56 30.10.2019
5011 Clouds 19 1020 82 10000 1.5 340 20:36 30.10.2019
5012 Clouds 19 1020 82 10000 1.5 340 20:18 30.10.2019
5013 Clouds 20 1020 77 10000 2.1 310 19:40 30.10.2019
5014 Clouds 20 1020 77 10000 2.1 310 19:40 30.10.2019
5015 Clouds 20 1020 77 10000 2.1 310 19:22 30.10.2019
5016 Clouds 20 1020 77 10000 2.1 290 18:59 30.10.2019
5017 Clouds 21 1020 68 10000 2.6 320 18:38 30.10.2019
5018 Clouds 21 1020 64 10000 3.1 310 18:18 30.10.2019
5019 Clouds 22 1020 64 10000 3.1 310 17:55 30.10.2019
5020 Clouds 22 1020 60 10000 3.1 310 17:37 30.10.2019
5021 Clouds 23 1020 69 10000 3.6 210 17:18 30.10.2019
5022 Clouds 23 1020 69 10000 5.1 210 16:42 30.10.2019
5023 Clouds 23 1020 69 10000 5.1 210 16:23 30.10.2019
5024 Clouds 23 1020 69 10000 5.1 210 15:59 30.10.2019
5025 Clouds 23 1020 73 10000 5.1 210 15:39 30.10.2019
5026 Clouds 23 1020 73 10000 5.1 210 15:20 30.10.2019
5027 Clouds 24 1020 69 10000 5.7 200 14:58 30.10.2019
5028 Clouds 23 1020 73 10000 5.1 210 14:39 30.10.2019
5029 Clear 23 1020 73 10000 5.1 210 14:21 30.10.2019
5030 Clear 23 1021 78 10000 5.7 210 13:54 30.10.2019
5031 Clear 23 1021 78 10000 5.7 210 13:54 30.10.2019
5032 Clear 23 1021 78 10000 5.7 210 13:36 30.10.2019
5033 Clear 23 1021 78 10000 4.6 210 13:18 30.10.2019
5034 Clear 24 1021 64 10000 3.1 220 12:44 30.10.2019
5035 Clear 23 1021 64 10000 3.1 220 12:25 30.10.2019
5036 Clear 22 1021 68 10000 2.1 220 11:58 30.10.2019
5037 Clear 22 1021 68 10000 1.5 160 11:40 30.10.2019
5038 Clear 21 1021 73 10000 1 160 11:19 30.10.2019
5039 Clear 20 1021 77 10000 1 0 10:43 30.10.2019
5040 Clear 20 1021 77 10000 1 0 10:23 30.10.2019
5041 Clear 18 1021 88 10000 0.5 0 09:42 30.10.2019
5042 Clear 19 1021 88 10000 0.5 0 09:23 30.10.2019
5043 Clear 18 1021 87 10000 1 360 08:57 30.10.2019
5044 Clear 17 1020 93 10000 1 10 08:39 30.10.2019
5045 Clouds 15 1020 93 10000 1 10 08:20 30.10.2019
5046 Clouds 16 1020 93 10000 1 0 07:45 30.10.2019
5047 Clouds 16 1020 93 10000 1.5 20 07:21 30.10.2019
5048 Clouds 16 1020 93 10000 1.5 360 06:42 30.10.2019
5049 Clouds 16 1020 93 10000 1.5 360 06:42 30.10.2019
5050 Clouds 16 1020 93 10000 1.5 360 06:20 30.10.2019
5051 Rain 15 1020 93 10000 1 0 05:41 30.10.2019
5052 Rain 17 1020 93 10000 1.5 10 04:42 30.10.2019
5053 Clouds 16 1020 93 10000 1.5 360 03:43 30.10.2019
5054 Clouds 16 1020 93 10000 1 0 02:52 30.10.2019
5055 Clouds 17 1020 87 10000 1.5 350 01:58 30.10.2019
5056 Clouds 17 1020 93 10000 1.5 10 00:58 30.10.2019
5057 Clouds 17 1020 93 10000 1.5 350 00:28 30.10.2019
5058 Clouds 17 1020 88 10000 2.6 340 23:43 29.10.2019
5059 Clouds 17 1020 88 10000 2.6 340 23:23 29.10.2019
5060 Clouds 17 1020 88 10000 1.5 360 22:48 29.10.2019
5061 Clouds 18 1020 93 10000 1.5 360 22:20 29.10.2019
5062 Clouds 18 1019 93 10000 2.1 20 21:59 29.10.2019
5063 Clouds 18 1019 88 10000 2.1 330 21:41 29.10.2019
5064 Clouds 18 1019 88 10000 2.1 330 21:20 29.10.2019
5065 Clouds 19 1019 88 10000 0.5 0 20:58 29.10.2019
5066 Clouds 19 1019 82 10000 1 10 20:40 29.10.2019
5067 Clouds 19 1019 82 10000 1 10 20:21 29.10.2019
5068 Clouds 19 1019 82 10000 0.5 0 19:56 29.10.2019
5069 Clouds 20 1018 88 10000 1.5 220 19:38 29.10.2019
5070 Clouds 20 1018 82 10000 1.5 190 19:19 29.10.2019
5071 Clouds 20 1018 82 10000 1.5 190 18:55 29.10.2019
5072 Clouds 21 1018 82 10000 2.6 200 18:37 29.10.2019
5073 Clouds 21 1018 82 10000 2.6 200 18:19 29.10.2019
5074 Clouds 21 1018 77 10000 3.1 200 17:54 29.10.2019
5075 Clouds 21 1018 77 10000 4.1 200 17:36 29.10.2019
5076 Clouds 21 1018 77 10000 4.1 200 17:18 29.10.2019
5077 Clouds 22 1017 73 10000 4.6 220 16:39 29.10.2019
5078 Clouds 22 1017 73 10000 4.6 220 16:21 29.10.2019
5079 Clouds 22 1017 77 10000 5.1 210 15:56 29.10.2019
5080 Clouds 22 1017 73 10000 5.1 210 15:38 29.10.2019
5081 Clouds 23 1017 73 10000 5.1 210 15:20 29.10.2019
5082 Clouds 23 1017 69 10000 5.7 220 14:55 29.10.2019
5083 Clouds 23 1017 73 10000 5.1 210 14:37 29.10.2019
5084 Clouds 22 1017 73 10000 5.1 210 14:18 29.10.2019
5085 Clouds 23 1018 64 10000 5.7 230 13:40 29.10.2019
5086 Clouds 23 1018 64 10000 5.7 230 13:22 29.10.2019
5087 Clouds 23 1018 64 10000 5.7 220 12:46 29.10.2019
5088 Clouds 23 1018 64 10000 4.6 210 12:27 29.10.2019
5089 Clouds 22 1018 68 10000 5.1 220 11:59 29.10.2019
5090 Clouds 22 1018 73 10000 3.6 220 11:41 29.10.2019
5091 Clouds 22 1018 73 10000 3.6 220 11:20 29.10.2019
5092 Clouds 21 1018 77 10000 1 0 10:57 29.10.2019
5093 Clouds 20 1018 82 10000 0.5 360 10:39 29.10.2019
5094 Clouds 20 1018 82 10000 0.5 360 10:20 29.10.2019
5095 Clouds 19 1018 93 10000 2.1 360 09:57 29.10.2019
5096 Clouds 18 1018 88 10000 1.5 300 09:39 29.10.2019
5097 Clouds 18 1018 88 10000 1.5 300 09:21 29.10.2019
5098 Clouds 17 1017 93 10000 1 10 08:45 29.10.2019
5099 Clouds 16 1017 93 10000 1 10 08:25 29.10.2019
5100 Clouds 17 1017 93 10000 1 0 07:55 29.10.2019
5101 Clouds 16 1017 93 10000 1 0 07:36 29.10.2019
5102 Clouds 17 1017 93 10000 1 0 07:18 29.10.2019
5103 Clouds 17 1017 87 10000 1 0 06:45 29.10.2019
5104 Clouds 16 1017 93 10000 1.5 340 06:25 29.10.2019
5105 Clouds 16 1017 93 10000 1.5 340 05:50 29.10.2019
5106 Clouds 17 1016 87 10000 1.5 10 05:26 29.10.2019
5107 Clouds 17 1017 93 10000 0.5 0 04:31 29.10.2019
5108 Clouds 17 1017 88 10000 1 0 02:33 29.10.2019
5109 Clouds 17 1017 88 10000 1 30 01:47 29.10.2019
5110 Clouds 17 1018 88 10000 1 330 01:21 29.10.2019
5111 Clouds 17 1018 88 10000 0.5 0 00:48 29.10.2019
5112 Clouds 17 1018 93 10000 1 360 23:44 28.10.2019
5113 Clouds 17 1018 93 10000 1 360 23:21 28.10.2019
5114 Clouds 17 1018 93 10000 1.5 340 22:59 28.10.2019
5115 Clouds 17 1018 88 10000 2.1 350 22:37 28.10.2019
5116 Clouds 17 1018 88 10000 2.1 350 22:18 28.10.2019
5117 Clouds 17 1018 88 10000 2.1 350 21:56 28.10.2019
5118 Clouds 17 1018 88 10000 2.1 350 21:56 28.10.2019
5119 Clouds 17 1018 88 10000 2.1 360 21:38 28.10.2019
5120 Clouds 18 1018 88 10000 2.1 360 21:20 28.10.2019
5121 Clouds 18 1018 82 10000 1.5 340 20:54 28.10.2019
5122 Clouds 19 1018 82 10000 0.5 250 20:36 28.10.2019
5123 Clouds 19 1018 82 10000 0.5 250 20:18 28.10.2019
5124 Clouds 19 1018 82 10000 2.1 240 19:40 28.10.2019
5125 Clouds 19 1018 82 10000 2.1 240 19:21 28.10.2019
5126 Clouds 20 1018 77 10000 2.6 230 18:59 28.10.2019
5127 Clouds 20 1018 77 10000 2.6 220 18:41 28.10.2019
5128 Clouds 20 1018 77 10000 2.6 220 18:22 28.10.2019
5129 Clouds 20 1018 68 10000 3.6 220 17:57 28.10.2019
5130 Clouds 21 1018 73 10000 4.1 210 17:39 28.10.2019
5131 Clouds 22 1018 73 10000 4.1 210 17:20 28.10.2019
5132 Clouds 21 1018 73 10000 4.1 210 16:58 28.10.2019
5133 Clouds 21 1018 77 10000 4.6 210 16:40 28.10.2019
5134 Clouds 22 1018 77 10000 4.6 210 16:21 28.10.2019
5135 Clouds 22 1018 73 10000 4.6 210 15:59 28.10.2019
5136 Clouds 22 1018 68 10000 4.6 210 15:40 28.10.2019
5137 Clouds 22 1018 68 10000 4.6 210 15:21 28.10.2019
5138 Clouds 23 1018 68 10000 4.6 210 14:58 28.10.2019
5139 Clouds 23 1018 68 10000 4.6 210 14:40 28.10.2019
5140 Clouds 23 1018 68 10000 4.6 210 14:19 28.10.2019
5141 Clouds 23 1018 68 10000 4.6 210 13:58 28.10.2019
5142 Clouds 23 1019 60 10000 4.1 200 13:40 28.10.2019
5143 Clouds 23 1019 60 10000 4.1 200 13:18 28.10.2019
5144 Clouds 23 1020 68 10000 3.1 220 12:43 28.10.2019
5145 Clouds 23 1020 68 10000 3.1 220 12:21 28.10.2019
5146 Clouds 22 1020 68 10000 1.5 220 11:57 28.10.2019
5147 Clouds 23 1020 68 10000 1.5 180 11:37 28.10.2019
5148 Clear 22 1020 64 10000 1 200 11:18 28.10.2019
5149 Clear 21 1020 72 10000 1 0 10:41 28.10.2019
5150 Clear 20 1020 72 10000 1 0 10:22 28.10.2019
5151 Clear 20 1020 72 10000 1.5 30 09:57 28.10.2019
5152 Clear 19 1020 82 10000 2.6 340 09:39 28.10.2019
5153 Clear 18 1020 82 10000 2.6 340 09:19 28.10.2019
5154 Clear 18 1019 82 10000 2.1 340 08:57 28.10.2019
5155 Clear 16 1019 87 10000 2.1 330 08:38 28.10.2019
5156 Clear 15 1019 87 10000 2.1 330 08:19 28.10.2019
5157 Clear 15 1019 87 10000 2.1 40 07:56 28.10.2019
5158 Clear 14 1019 87 10000 2.6 360 07:36 28.10.2019
5159 Clear 14 1019 87 10000 2.6 360 07:18 28.10.2019
5160 Rain 15 1019 93 10000 2.1 360 06:40 28.10.2019
5161 Rain 16 1019 87 10000 1.5 360 05:47 28.10.2019
5162 Clear 16 1020 87 10000 1.5 360 03:49 28.10.2019
5163 Clear 15 1020 87 10000 2.6 340 02:54 28.10.2019
5164 Clear 15 1020 82 10000 2.1 350 02:34 28.10.2019
5165 Clouds 15 1021 93 10000 2.6 360 00:57 28.10.2019
5166 Clouds 16 1021 87 10000 1.5 360 00:38 28.10.2019
5167 Clouds 16 1021 87 10000 2.6 360 00:19 28.10.2019
5168 Rain 17 1021 87 10000 2.6 30 23:42 27.10.2019
5169 Rain 17 1021 87 10000 1.5 340 23:18 27.10.2019
5170 Rain 17 1021 87 10000 2.1 20 22:42 27.10.2019
5171 Rain 18 1021 87 10000 2.1 20 22:22 27.10.2019
5172 Rain 18 1021 82 10000 2.1 360 21:58 27.10.2019
5173 Rain 18 1021 88 10000 1 0 21:39 27.10.2019
5174 Rain 18 1021 88 10000 1 0 21:21 27.10.2019
5175 Rain 18 1021 88 10000 2.1 60 20:58 27.10.2019
5176 Rain 18 1021 82 10000 1.5 310 20:39 27.10.2019
5177 Rain 19 1021 82 10000 1.5 310 20:21 27.10.2019
5178 Rain 19 1021 82 10000 2.1 60 19:56 27.10.2019
5179 Rain 19 1021 77 10000 2.6 100 19:36 27.10.2019
5180 Rain 20 1021 77 10000 2.6 100 19:18 27.10.2019
5181 Rain 20 1021 77 10000 1 0 18:55 27.10.2019
5182 Rain 21 1021 68 10000 1.5 200 18:37 27.10.2019
5183 Rain 21 1021 68 10000 1.5 200 18:19 27.10.2019
5184 Rain 21 1021 68 10000 1.5 200 18:19 27.10.2019
5185 Rain 22 1020 64 10000 2.1 200 17:41 27.10.2019
5186 Clouds 22 1020 64 10000 2.1 200 17:21 27.10.2019
5187 Clouds 22 1020 64 10000 3.1 180 16:59 27.10.2019
5188 Clouds 23 1020 60 10000 2.6 190 16:40 27.10.2019
5189 Clouds 23 1020 60 10000 2.6 190 16:22 27.10.2019
5190 Clouds 23 1020 56 10000 3.1 200 15:57 27.10.2019
5191 Clouds 23 1021 56 10000 3.6 210 15:39 27.10.2019
5192 Clouds 23 1021 56 10000 3.6 210 15:39 27.10.2019
5193 Clouds 23 1021 56 10000 3.6 210 15:20 27.10.2019
5194 Clouds 24 1021 50 10000 3.1 230 14:44 27.10.2019
5195 Clear 24 1021 50 10000 3.1 230 14:24 27.10.2019
5196 Clear 24 1021 53 10000 3.1 200 13:59 27.10.2019
5197 Clear 24 1021 56 10000 2.1 210 13:40 27.10.2019
5198 Clear 23 1021 56 10000 2.1 210 13:21 27.10.2019
5199 Clear 24 1022 47 10000 1 210 12:59 27.10.2019
5200 Clear 24 1022 53 10000 1.5 310 12:41 27.10.2019
5201 Clear 23 1022 53 10000 1.5 310 12:23 27.10.2019
5202 Clear 22 1022 64 10000 1.5 0 11:42 27.10.2019
5203 Clear 22 1022 64 10000 1.5 0 11:24 27.10.2019
5204 Clear 22 1022 64 10000 1.5 0 11:24 27.10.2019
5205 Clear 21 1022 68 10000 2.1 130 10:57 27.10.2019
5206 -273 0 0 0 0 0 10:38 27.10.2019
5207 -273 0 0 0 0 0 10:38 27.10.2019
5208 Clear 21 1022 68 10000 1.5 80 10:19 27.10.2019
5209 Clear 19 1022 82 10000 2.1 330 09:43 27.10.2019
5210 Clear 18 1022 82 10000 2.1 340 09:19 27.10.2019
5211 Clear 16 1022 82 10000 2.1 340 08:57 27.10.2019
5212 Clear 15 1022 87 10000 1.5 350 08:37 27.10.2019
5213 Clear 14 1022 87 10000 2.6 350 08:19 27.10.2019
5214 Clear 14 1022 87 10000 2.6 350 07:47 27.10.2019
5215 Rain 14 1021 87 10000 2.1 350 07:27 27.10.2019
5216 Clear 14 1021 87 10000 2.6 360 06:55 27.10.2019
5217 Clear 14 1021 93 10000 2.1 360 06:29 27.10.2019
5218 Clear 14 1021 82 10000 2.6 340 05:57 27.10.2019
5219 Clear 14 1022 87 10000 2.1 10 05:36 27.10.2019
5220 Rain 15 1022 93 10000 2.6 340 04:25 27.10.2019
5221 Clear 15 1022 87 10000 2.6 330 02:41 27.10.2019
5222 Rain 17 1022 82 10000 2.6 360 01:28 27.10.2019
5223 Clear 16 1022 82 10000 1.5 350 00:55 27.10.2019
5224 Clear 16 1022 82 10000 2.1 10 00:36 27.10.2019
5225 Rain 17 1022 82 10000 2.6 10 23:58 26.10.2019
5226 Rain 17 1022 87 10000 2.6 350 23:40 26.10.2019
5227 Rain 17 1022 87 10000 2.6 350 23:21 26.10.2019
5228 Rain 17 1022 82 10000 1.5 10 22:58 26.10.2019
5229 Rain 17 1022 82 10000 1.5 10 22:58 26.10.2019
5230 Rain 18 1022 88 10000 2.1 360 22:39 26.10.2019
5231 Rain 18 1022 88 10000 2.1 360 22:19 26.10.2019
5232 Rain 18 1022 88 10000 1.5 360 21:56 26.10.2019
5233 Rain 18 1021 82 10000 3.1 350 21:38 26.10.2019
5234 Rain 19 1021 82 10000 3.1 350 21:19 26.10.2019
5235 Rain 19 1021 77 10000 1.5 90 20:43 26.10.2019
5236 Rain 20 1021 72 10000 1.5 110 20:20 26.10.2019
5237 Rain 19 1021 77 10000 1.5 90 20:20 26.10.2019
5238 Rain 20 1021 72 10000 2.6 90 19:44 26.10.2019
5239 Rain 20 1021 72 10000 2.6 90 19:21 26.10.2019
5240 Rain 21 1020 64 10000 4.1 70 18:59 26.10.2019
5241 Clear 22 1020 60 10000 3.1 90 18:40 26.10.2019
5242 Clear 22 1020 60 10000 3.1 90 18:20 26.10.2019
5243 Clear 22 1020 60 10000 3.1 100 17:59 26.10.2019
5244 Clear 23 1020 56 10000 3.1 70 17:39 26.10.2019
5245 Clear 23 1020 60 10000 3.6 80 17:20 26.10.2019
5246 Clear 23 1020 60 10000 3.6 80 16:58 26.10.2019
5247 Clear 23 1020 56 10000 3.6 290 16:40 26.10.2019
5248 Clear 23 1020 56 10000 3.6 290 16:20 26.10.2019
5249 Clear 23 1021 56 10000 1.5 300 15:41 26.10.2019
5250 Clear 23 1021 56 10000 1.5 300 15:19 26.10.2019
5251 Clear 23 1021 56 10000 1.5 300 15:19 26.10.2019
5252 Clear 23 1021 43 10000 1.5 160 14:40 26.10.2019
5253 Clear 23 1021 43 10000 1.5 160 14:22 26.10.2019
5254 Clear 23 1022 43 10000 1 0 13:59 26.10.2019
5255 Clear 20 1021 59 0 1.7 272 13:40 26.10.2019
5256 Clear 20 1021 59 0 1.7 272 13:40 26.10.2019
5257 Clear 20 1021 59 0 1.7 272 13:20 26.10.2019
5258 Clouds 22 1021 46 10000 0.5 60 12:46 26.10.2019
5259 Clouds 21 1021 46 10000 0.5 60 12:23 26.10.2019
5260 Clear 19 1022 55 10000 0.5 330 11:48 26.10.2019
5261 Clear 20 1022 55 10000 0.5 330 11:28 26.10.2019
5262 Clear 19 1022 55 10000 0.5 330 11:28 26.10.2019
5263 Clear 20 1022 55 10000 0.5 330 11:28 26.10.2019
5264 Clear 19 1022 55 10000 0.5 0 10:54 26.10.2019
5265 Clear 17 1022 63 10000 1 0 10:36 26.10.2019
5266 Clear 17 1022 63 10000 1 0 10:18 26.10.2019
5267 Clear 12 1022 82 10000 1.5 360 09:41 26.10.2019
5268 Clear 12 1022 82 10000 1.5 360 09:23 26.10.2019
5269 Clear 11 1021 87 10000 1 0 08:43 26.10.2019
5270 Clear 11 1021 87 10000 1 0 08:25 26.10.2019
5271 Clear 11 1021 81 10000 2.1 20 07:46 26.10.2019
5272 Clear 11 1021 81 10000 2.1 20 07:28 26.10.2019
5273 Clear 11 1021 81 10000 1 0 06:43 26.10.2019
5274 Clear 11 1021 81 10000 1 0 06:24 26.10.2019
5275 Clear 12 1021 81 10000 1.5 20 05:19 26.10.2019
5276 Clear 12 1022 81 10000 2.1 40 04:24 26.10.2019
5277 Clouds 14 1022 82 10000 1 0 02:47 26.10.2019
5278 Clouds 15 1022 82 10000 2.1 350 01:55 26.10.2019
5279 Clouds 15 1022 82 10000 2.6 350 01:22 26.10.2019
5280 Clouds 15 1022 82 10000 1.5 10 00:25 26.10.2019
5281 Clouds 15 1022 82 10000 2.1 30 23:44 25.10.2019
5282 Clouds 15 1022 82 10000 2.1 30 23:20 25.10.2019
5283 Clouds 16 1022 72 10000 2.1 320 22:41 25.10.2019
5284 Clouds 16 1022 72 10000 2.1 320 22:23 25.10.2019
5285 Clouds 16 1022 72 10000 2.1 360 21:58 25.10.2019
5286 Clouds 17 1022 72 10000 1.5 350 21:40 25.10.2019
5287 Clear 17 1022 72 10000 1.5 350 21:21 25.10.2019
5288 Clear 18 1022 67 10000 2.1 310 20:56 25.10.2019
5289 Clear 18 1021 72 10000 2.1 330 20:38 25.10.2019
5290 Clear 18 1021 72 10000 2.1 330 20:19 25.10.2019
5291 Clear 19 1021 64 10000 2.6 330 19:44 25.10.2019
5292 Clear 20 1021 64 10000 2.6 330 19:25 25.10.2019
5293 Clear 21 1021 60 10000 2.6 320 18:46 25.10.2019
5294 Clear 21 1021 60 10000 2.6 320 18:24 25.10.2019
5295 Clear 21 1020 60 10000 4.6 310 17:42 25.10.2019
5296 Clear 21 1021 53 10000 4.6 320 17:22 25.10.2019
5297 Clear 22 1021 53 10000 4.6 320 16:58 25.10.2019
5298 Clear 22 1021 53 10000 4.6 320 16:58 25.10.2019
5299 Clear 22 1021 53 10000 5.1 300 16:40 25.10.2019
5300 Clear 21 1021 53 10000 5.1 300 16:19 25.10.2019
5301 Clear 22 1021 56 10000 5.1 300 15:41 25.10.2019
5302 Clear 22 1021 56 10000 5.1 300 15:23 25.10.2019
5303 Clear 22 1021 56 10000 5.1 310 14:59 25.10.2019
5304 Clear 21 1022 56 10000 5.1 310 14:40 25.10.2019
5305 Clear 21 1022 60 10000 4.6 310 14:21 25.10.2019
5306 Clear 21 1022 56 10000 5.1 320 13:44 25.10.2019
5307 Clear 22 1022 56 10000 5.1 320 13:44 25.10.2019
5308 Clear 21 1022 56 10000 5.1 320 13:25 25.10.2019
5309 Clear 21 1023 60 10000 5.7 300 12:58 25.10.2019
5310 Clear 21 1023 60 10000 4.1 310 12:39 25.10.2019
5311 Clear 21 1022 60 10000 4.1 320 12:20 25.10.2019
5312 Clear 20 1022 64 10000 3.6 340 11:42 25.10.2019
5313 Clear 20 1022 64 10000 3.6 340 11:24 25.10.2019
5314 Clear 19 1022 64 10000 3.6 300 10:59 25.10.2019
5315 Clear 18 1022 63 10000 1 170 10:39 25.10.2019
5316 Clear 18 1022 63 10000 1 170 10:21 25.10.2019
5317 Clear 17 1022 77 10000 1 0 09:57 25.10.2019
5318 Clear 14 1022 87 10000 1 360 09:38 25.10.2019
5319 Clear 14 1022 87 10000 1 360 09:19 25.10.2019
5320 Clear 13 1021 87 10000 1 0 08:45 25.10.2019
5321 Clear 13 1021 87 10000 1 0 08:26 25.10.2019
5322 Clear 14 1021 87 10000 1.5 30 07:53 25.10.2019
5323 Clear 14 1021 87 10000 1 0 07:34 25.10.2019
5324 Clear 14 1021 87 10000 1.5 320 06:41 25.10.2019
5325 Clear 13 1021 87 10000 1.5 70 05:51 25.10.2019
5326 Clear 14 1021 77 10000 2.1 360 05:33 25.10.2019
5327 Clear 15 1021 72 10000 1.5 300 04:52 25.10.2019
5328 Clear 16 1021 63 10000 2.1 300 03:30 25.10.2019
5329 Clear 18 1021 67 10000 2.6 240 01:54 25.10.2019
5330 Clear 18 1021 67 10000 2.6 240 01:54 25.10.2019
5331 Clear 17 1021 72 10000 1.5 280 00:50 25.10.2019
5332 Clear 18 1021 72 10000 1 0 00:20 25.10.2019
5333 Clear 17 1020 72 10000 1 0 23:40 24.10.2019
5334 Clear 17 1020 72 10000 1 0 23:22 24.10.2019
5335 Clear 18 1020 77 10000 1.5 110 22:55 24.10.2019
5336 Clear 18 1019 67 10000 3.1 310 22:37 24.10.2019
5337 Clear 18 1019 67 10000 3.1 310 22:18 24.10.2019
5338 Clear 18 1019 67 10000 3.1 310 22:18 24.10.2019
5339 Clear 18 1019 67 10000 3.6 300 21:56 24.10.2019
5340 Clear 18 1019 67 10000 2.6 320 21:37 24.10.2019
5341 Clear 17 1019 67 10000 2.6 320 21:19 24.10.2019
5342 Clear 17 1019 67 10000 2.6 320 20:56 24.10.2019
5343 Clear 17 1018 67 10000 4.1 330 20:38 24.10.2019
5344 Clear 17 1018 67 10000 4.1 330 20:19 24.10.2019
5345 Clear 18 1017 63 10000 5.7 320 19:44 24.10.2019
5346 Clear 18 1017 63 10000 5.7 320 19:23 24.10.2019
5347 Clear 19 1017 63 10000 5.7 330 18:58 24.10.2019
5348 Clear 19 1017 63 10000 2.6 330 18:40 24.10.2019
5349 Clear 19 1017 69 0 4.47 313 18:21 24.10.2019
5350 Clear 19 1016 59 10000 4.1 330 17:57 24.10.2019
5351 Clear 20 1016 49 10000 5.1 320 17:38 24.10.2019
5352 Clear 20 1016 49 10000 5.1 320 17:19 24.10.2019
5353 Clear 20 1015 49 10000 4.1 310 16:54 24.10.2019
5354 Clear 20 1015 52 10000 4.1 310 16:36 24.10.2019
5355 Clear 20 1015 52 10000 4.1 310 16:18 24.10.2019
5356 Clear 20 1015 52 10000 5.1 310 15:54 24.10.2019
5357 Clear 20 1015 52 10000 5.1 310 15:36 24.10.2019
5358 Clouds 20 1015 52 10000 5.1 310 15:18 24.10.2019
5359 Clouds 20 1015 55 10000 3.6 310 14:44 24.10.2019
5360 Clear 20 1015 55 10000 3.6 310 14:26 24.10.2019
5361 Clear 19 1015 59 10000 3.6 310 13:59 24.10.2019
5362 Clear 20 1015 56 10000 3.1 310 13:37 24.10.2019
5363 Clear 20 1015 56 10000 3.1 310 13:18 24.10.2019
5364 Clear 20 1015 52 10000 2.6 270 12:56 24.10.2019
5365 Clear 19 1015 60 10000 2.6 230 12:37 24.10.2019
5366 Clear 19 1015 60 10000 2.6 230 12:18 24.10.2019
5367 Clear 18 1015 59 10000 1.5 270 11:55 24.10.2019
5368 Clear 17 1015 67 10000 1 0 11:36 24.10.2019
5369 Clear 17 1015 77 10000 1.5 30 11:18 24.10.2019
5370 Clear 15 1015 87 10000 2.1 330 10:42 24.10.2019
5371 Clear 15 1015 87 10000 2.1 330 10:23 24.10.2019
5372 Rain 13 1014 87 10000 2.1 320 09:40 24.10.2019
5373 Clouds 13 1014 87 10000 2.1 320 09:19 24.10.2019
5374 Rain 13 1014 93 10000 1.5 10 08:59 24.10.2019
5375 Rain 13 1014 87 10000 2.1 40 08:41 24.10.2019
5376 Rain 13 1014 87 10000 2.1 40 08:20 24.10.2019
5377 Rain 13 1014 87 10000 2.1 40 08:20 24.10.2019
5378 Thunderstorm 13 1012 93 10000 1.5 30 07:48 24.10.2019
5379 Thunderstorm 13 1012 93 10000 1.5 30 07:23 24.10.2019
5380 Thunderstorm 13 1012 93 10000 1.5 30 07:23 24.10.2019
5381 Clouds 13 1013 87 10000 2.1 350 06:56 24.10.2019
5382 Clouds 12 1012 87 10000 2.1 20 06:36 24.10.2019
5383 Clouds 13 1012 93 10000 1.5 360 05:55 24.10.2019
5384 Clouds 13 1012 93 10000 2.6 360 05:33 24.10.2019
5385 Clouds 13 1012 87 10000 2.1 320 04:33 24.10.2019
5386 Clouds 14 1012 93 10000 2.1 360 03:35 24.10.2019
5387 Rain 14 1012 93 10000 1 0 02:41 24.10.2019
5388 Rain 14 1012 93 10000 1 0 02:20 24.10.2019
5389 Rain 14 1012 87 10000 2.1 350 01:31 24.10.2019
5390 Rain 14 1012 87 10000 2.1 350 00:57 24.10.2019
5391 Rain 13 1012 87 10000 2.1 340 00:30 24.10.2019
5392 Clear 13 1012 87 10000 2.1 340 23:57 23.10.2019
5393 Clear 14 1012 87 10000 1.5 330 23:38 23.10.2019
5394 Clear 13 1012 87 10000 1.5 330 23:19 23.10.2019
5395 Clear 14 1012 82 10000 1 0 22:56 23.10.2019
5396 Clear 14 1012 87 10000 1.5 10 22:37 23.10.2019
5397 Clear 14 1011 87 10000 1.5 340 22:18 23.10.2019
5398 Clear 14 1011 87 10000 1.5 340 21:56 23.10.2019
5399 Rain 14 1012 82 10000 0.5 0 21:37 23.10.2019
5400 Clouds 15 1012 82 10000 0.5 0 21:19 23.10.2019
5401 Clouds 15 1012 87 10000 1.5 10 20:54 23.10.2019
5402 Clouds 15 1011 77 10000 2.1 350 20:36 23.10.2019
5403 Clouds 15 1011 77 10000 2.1 350 20:18 23.10.2019
5404 Clouds 16 1011 67 10000 3.1 230 19:43 23.10.2019
5405 Clouds 16 1011 67 10000 3.1 230 19:19 23.10.2019
5406 Clouds 17 1011 63 10000 5.1 230 18:58 23.10.2019
5407 Clouds 17 1010 67 10000 4.6 230 18:39 23.10.2019
5408 Rain 17 1010 67 10000 4.6 230 18:19 23.10.2019
5409 Rain 18 1010 72 10000 4.1 230 17:55 23.10.2019
5410 Rain 18 1010 68 10000 4.6 220 17:37 23.10.2019
5411 Rain 18 1010 68 10000 4.6 220 17:18 23.10.2019
5412 Thunderstorm 17 1010 77 10000 3.6 190 16:41 23.10.2019
5413 Thunderstorm 17 1010 77 10000 3.6 190 16:21 23.10.2019
5414 Thunderstorm 18 1009 77 4000 6.7 250 15:57 23.10.2019
5415 Rain 19 1009 59 10000 5.7 230 15:39 23.10.2019
5416 Rain 19 1009 59 10000 5.7 230 15:21 23.10.2019
5417 Rain 19 1009 55 10000 6.7 220 14:56 23.10.2019
5418 Clouds 19 1009 63 10000 5.7 220 14:37 23.10.2019
5419 Clouds 20 1009 63 10000 5.7 220 14:19 23.10.2019
5420 Clouds 20 1009 64 10000 4.6 230 13:44 23.10.2019
5421 Clouds 20 1009 64 10000 4.6 230 13:25 23.10.2019
5422 Clouds 19 1009 63 10000 5.7 240 12:59 23.10.2019
5423 Clouds 20 1010 60 10000 5.7 220 12:41 23.10.2019
5424 Clouds 19 1010 63 10000 6.2 220 12:19 23.10.2019
5425 Clouds 19 1010 63 10000 6.2 220 11:58 23.10.2019
5426 Clouds 19 1009 72 10000 5.1 230 11:40 23.10.2019
5427 Clouds 19 1009 72 10000 5.1 230 11:21 23.10.2019
5428 Clouds 18 1009 68 10000 4.6 210 10:59 23.10.2019
5429 Clouds 18 1009 82 10000 1.5 70 10:40 23.10.2019
5430 Clouds 18 1009 82 10000 1.5 70 10:22 23.10.2019
5431 Clouds 17 1009 93 10000 1 0 09:41 23.10.2019
5432 Clouds 17 1009 93 10000 1 0 09:23 23.10.2019
5433 Clouds 17 1008 93 10000 1.5 40 08:57 23.10.2019
5434 Clouds 17 1008 93 10000 1.5 360 08:39 23.10.2019
5435 Clouds 17 1008 93 10000 1.5 360 08:18 23.10.2019
5436 Clouds 16 1007 93 10000 1.5 20 07:45 23.10.2019
5437 Clouds 16 1007 93 10000 1.5 20 07:21 23.10.2019
5438 Thunderstorm 16 1007 93 10000 1 0 06:45 23.10.2019
5439 Clouds 16 1007 93 10000 1.5 20 06:20 23.10.2019
5440 Thunderstorm 17 1007 88 10000 0.5 0 05:20 23.10.2019
5441 Thunderstorm 17 1007 88 10000 1 0 04:33 23.10.2019
5442 Rain 16 1006 93 5000 0.5 0 02:45 23.10.2019
5443 Thunderstorm 16 1006 93 10000 2.6 260 02:25 23.10.2019
5444 Thunderstorm 18 1005 93 4000 9.3 260 01:25 23.10.2019
5445 Thunderstorm 18 1006 88 10000 3.1 250 00:38 23.10.2019
5446 Thunderstorm 18 1006 88 10000 3.1 250 00:19 23.10.2019
5447 Thunderstorm 19 1003 93 6000 8.2 320 23:39 22.10.2019
5448 Thunderstorm 20 1003 94 2000 5.1 100 23:18 22.10.2019
5449 Thunderstorm 20 1003 94 2000 5.1 100 23:18 22.10.2019
5450 Thunderstorm 21 1003 94 2000 5.1 100 22:55 22.10.2019
5451 Thunderstorm 21 1004 94 9000 2.6 20 22:37 22.10.2019
5452 Thunderstorm 21 1004 94 9000 2.6 20 22:19 22.10.2019
5453 Thunderstorm 21 1006 88 10000 2.1 80 21:56 22.10.2019
5454 Rain 22 1005 83 7000 3.1 160 21:36 22.10.2019
5455 Thunderstorm 22 1007 88 10000 2.1 110 21:18 22.10.2019
5456 Rain 22 1005 83 10000 2.6 170 20:55 22.10.2019
5457 Rain 22 1005 78 10000 4.6 220 20:37 22.10.2019
5458 Rain 22 1005 78 10000 4.6 220 20:37 22.10.2019
5459 Rain 23 1005 78 10000 4.6 220 20:18 22.10.2019
5460 Clouds 23 1004 83 10000 3.1 30 19:43 22.10.2019
5461 Rain 23 1004 83 10000 3.1 30 19:24 22.10.2019
5462 Rain 23 1005 83 10000 7.7 90 18:57 22.10.2019
5463 Rain 24 1006 73 10000 2.1 120 18:39 22.10.2019
5464 Rain 24 1006 73 10000 2.1 120 18:21 22.10.2019
5465 Rain 24 1006 73 10000 4.1 90 17:56 22.10.2019
5466 Rain 24 1007 73 10000 3.6 190 17:38 22.10.2019
5467 Rain 24 1007 73 10000 3.6 190 17:19 22.10.2019
5468 Rain 25 1008 69 10000 5.1 190 16:57 22.10.2019
5469 Rain 25 1008 65 10000 4.1 160 16:37 22.10.2019
5470 Rain 25 1008 69 10000 5.1 160 16:18 22.10.2019
5471 Rain 26 1008 69 10000 6.2 170 15:43 22.10.2019
5472 Rain 26 1008 69 10000 6.2 170 15:21 22.10.2019
5473 Rain 25 1008 73 10000 4.6 150 14:58 22.10.2019
5474 Rain 25 1009 78 10000 3.6 130 14:39 22.10.2019
5475 Rain 25 1009 78 10000 3.6 130 14:19 22.10.2019
5476 Rain 25 1009 78 10000 2.6 90 13:42 22.10.2019
5477 Rain 25 1009 78 10000 2.6 90 13:42 22.10.2019
5478 Rain 25 1009 78 10000 2.6 90 13:21 22.10.2019
5479 Clouds 24 1009 88 10000 4.1 80 12:58 22.10.2019
5480 Rain 23 1008 83 10000 7.7 70 12:39 22.10.2019
5481 Rain 23 1008 83 10000 7.7 70 12:20 22.10.2019
5482 Rain 23 1008 83 10000 7.7 70 12:20 22.10.2019
5483 Rain 22 1008 88 10000 8.7 60 11:42 22.10.2019
5484 Rain 22 1008 88 10000 8.7 60 11:23 22.10.2019
5485 Rain 20 1009 88 10000 8.2 70 10:59 22.10.2019
5486 Rain 20 1009 82 10000 10.3 60 10:38 22.10.2019
5487 Rain 20 1010 82 10000 9.3 60 10:20 22.10.2019
5488 Rain 19 1010 82 10000 9.3 60 10:00 22.10.2019
5489 Rain 19 1010 82 10000 9.3 60 10:00 22.10.2019
5490 Rain 19 1010 82 10000 9.3 60 10:00 22.10.2019
5491 Rain 19 1010 88 10000 11.3 60 09:41 22.10.2019
5492 Rain 19 1010 88 10000 11.3 60 09:22 22.10.2019
5493 Rain 18 1010 88 10000 10.3 50 08:59 22.10.2019
5494 Rain 18 1010 88 10000 10.3 50 08:59 22.10.2019
5495 Rain 18 1011 88 10000 8.7 50 08:41 22.10.2019
5496 Rain 18 1011 88 10000 8.7 50 08:19 22.10.2019
5497 Rain 18 1011 88 10000 7.2 50 07:45 22.10.2019
5498 Rain 18 1012 88 10000 7.7 50 07:26 22.10.2019
5499 Thunderstorm 18 1011 88 7000 7.2 70 06:47 22.10.2019
5500 Thunderstorm 18 1011 88 7000 7.2 70 06:29 22.10.2019
5501 Rain 17 1013 93 8000 3.6 30 05:49 22.10.2019
5502 Thunderstorm 17 1015 93 4000 1.5 330 05:18 22.10.2019
5503 Rain 17 1015 88 10000 4.6 10 02:33 22.10.2019
5504 Rain 17 1015 82 10000 9.8 50 01:51 22.10.2019
5505 Rain 16 1015 87 10000 10.8 50 01:26 22.10.2019
5506 Rain 16 1017 87 10000 5.7 40 00:57 22.10.2019
5507 Thunderstorm 16 1018 93 10000 4.6 10 00:39 22.10.2019
5508 Thunderstorm 15 1018 93 10000 4.6 10 00:20 22.10.2019
5509 Rain 15 1020 93 4500 2.6 10 23:39 21.10.2019
5510 Rain 15 1020 93 4500 2.6 10 23:20 21.10.2019
5511 Thunderstorm 15 1018 93 800 6.2 0 22:59 21.10.2019
5512 Thunderstorm 15 1019 87 8000 3.6 320 22:40 21.10.2019
5513 Thunderstorm 15 1019 87 8000 3.6 320 22:21 21.10.2019
5514 Thunderstorm 15 1018 87 10000 4.1 50 21:59 21.10.2019
5515 Thunderstorm 15 1018 100 9000 4.6 60 21:40 21.10.2019
5516 Thunderstorm 15 1019 87 10000 3.6 50 21:22 21.10.2019
5517 Rain 15 1019 93 10000 2.6 30 20:58 21.10.2019
5518 Rain 16 1019 93 10000 3.6 60 20:40 21.10.2019
5519 Rain 16 1019 87 10000 2.6 40 20:21 21.10.2019
5520 Rain 16 1019 87 10000 2.6 40 19:59 21.10.2019
5521 Rain 16 1019 93 10000 3.6 80 19:40 21.10.2019
5522 Rain 16 1018 88 3000 1.5 70 19:22 21.10.2019
5523 Rain 16 1018 88 3000 1.5 70 18:56 21.10.2019
5524 Rain 16 1018 88 9000 3.1 70 18:37 21.10.2019
5525 Rain 17 1018 88 9000 3.1 70 18:19 21.10.2019
5526 Rain 17 1019 88 10000 1.5 40 17:56 21.10.2019
5527 Rain 17 1019 82 10000 1.5 50 17:38 21.10.2019
5528 Rain 17 1019 82 10000 1.5 50 17:18 21.10.2019
5529 Rain 17 1019 82 10000 2.1 80 16:56 21.10.2019
5530 Rain 17 1019 88 10000 1.5 90 16:38 21.10.2019
5531 Rain 17 1019 88 10000 1.5 90 16:20 21.10.2019
5532 Rain 17 1019 88 10000 1.5 90 15:46 21.10.2019
5533 Rain 17 1020 88 10000 2.1 110 15:25 21.10.2019
5534 Rain 17 1020 88 10000 1.5 100 14:58 21.10.2019
5535 Rain 17 1019 93 10000 2.1 90 14:39 21.10.2019
5536 Rain 17 1019 93 10000 2.1 90 14:20 21.10.2019
5537 Rain 17 1020 100 10000 2.6 110 13:56 21.10.2019
5538 Rain 17 1020 88 10000 2.1 120 13:38 21.10.2019
5539 Rain 17 1020 88 9000 0.5 250 13:19 21.10.2019
5540 Rain 17 1019 88 4500 1 0 12:42 21.10.2019
5541 Rain 17 1019 88 4500 1 0 12:22 21.10.2019
5542 Rain 16 1020 93 10000 2.6 330 11:57 21.10.2019
5543 Rain 16 1020 93 10000 2.6 330 11:38 21.10.2019
5544 Rain 16 1020 93 10000 2.6 330 11:20 21.10.2019
5545 Rain 16 1018 93 10000 1 0 10:57 21.10.2019
5546 Rain 16 1019 93 10000 1.5 60 10:38 21.10.2019
5547 Rain 16 1019 93 10000 1.5 60 10:19 21.10.2019
5548 Rain 16 1018 88 10000 2.1 20 09:46 21.10.2019
5549 Rain 16 1018 93 10000 2.1 40 09:26 21.10.2019
5550 Rain 16 1017 88 10000 3.1 150 08:57 21.10.2019
5551 Rain 16 1018 93 10000 0.5 0 08:37 21.10.2019
5552 Rain 16 1018 93 10000 0.5 0 08:19 21.10.2019
5553 Rain 16 1017 88 10000 2.1 310 07:39 21.10.2019
5554 Rain 16 1017 88 10000 2.1 310 07:21 21.10.2019
5555 Rain 17 1017 93 10000 2.1 300 06:56 21.10.2019
5556 Rain 17 1017 93 10000 2.1 310 06:36 21.10.2019
5557 Rain 17 1017 93 10000 2.1 310 06:36 21.10.2019
5558 Rain 17 1016 93 10000 1 0 05:57 21.10.2019
5559 Rain 18 1017 93 8000 2.6 340 04:46 21.10.2019
5560 Rain 18 1016 82 10000 2.1 350 03:38 21.10.2019
5561 Rain 18 1016 82 10000 2.1 350 03:38 21.10.2019
5562 Rain 18 1016 82 10000 2.6 260 02:25 21.10.2019
5563 Rain 18 1016 82 10000 2.6 260 02:25 21.10.2019
5564 Rain 18 1016 82 10000 3.6 240 01:59 21.10.2019
5565 Rain 18 1016 93 10000 3.1 270 01:37 21.10.2019
5566 Rain 19 1015 77 10000 4.1 190 00:51 21.10.2019
5567 Rain 19 1015 82 10000 3.6 120 00:27 21.10.2019
5568 Rain 19 1015 93 10000 2.1 110 23:43 20.10.2019
5569 Rain 19 1015 93 10000 2.1 110 23:22 20.10.2019
5570 Rain 19 1015 88 10000 1.5 40 22:58 20.10.2019
5571 Clear 19 1014 88 10000 1 0 22:39 20.10.2019
5572 Clear 20 1014 82 10000 1.5 70 22:19 20.10.2019
5573 Rain 20 1014 82 10000 1.5 70 21:59 20.10.2019
5574 Rain 20 1014 82 10000 2.1 110 21:39 20.10.2019
5575 Rain 20 1014 82 10000 2.1 110 21:21 20.10.2019
5576 Rain 20 1013 82 10000 1.5 20 20:54 20.10.2019
5577 Rain 20 1014 77 10000 1 0 20:36 20.10.2019
5578 Rain 21 1014 77 10000 1 0 20:18 20.10.2019
5579 Rain 20 1013 77 10000 2.1 300 19:55 20.10.2019
5580 Clear 21 1012 68 10000 3.1 320 19:36 20.10.2019
5581 Clear 21 1012 68 10000 3.1 320 19:18 20.10.2019
5582 Rain 22 1012 68 10000 2.6 200 18:40 20.10.2019
5583 Rain 22 1012 68 10000 2.6 200 18:20 20.10.2019
5584 Rain 22 1012 68 10000 4.6 210 17:56 20.10.2019
5585 Clear 23 1012 69 10000 4.6 200 17:38 20.10.2019
5586 Clear 23 1012 69 10000 4.6 200 17:19 20.10.2019
5587 Clear 23 1011 69 10000 5.1 210 16:43 20.10.2019
5588 Clear 23 1011 69 10000 5.1 210 16:24 20.10.2019
5589 Clear 23 1011 69 10000 5.1 210 16:24 20.10.2019
5590 Clear 24 1011 69 10000 4.1 220 15:59 20.10.2019
5591 Rain 24 1011 69 10000 5.1 240 15:40 20.10.2019
5592 Rain 24 1011 69 10000 5.1 240 15:20 20.10.2019
5593 Rain 23 1011 73 10000 5.7 220 14:58 20.10.2019
5594 Rain 24 1010 69 10000 7.7 220 14:38 20.10.2019
5595 Rain 24 1010 69 10000 7.7 220 14:38 20.10.2019
5596 Rain 24 1010 69 10000 7.7 220 14:19 20.10.2019
5597 Rain 24 1011 73 10000 8.2 210 13:56 20.10.2019
5598 Rain 24 1011 69 10000 8.2 210 13:37 20.10.2019
5599 Clouds 24 1011 69 10000 8.2 210 13:18 20.10.2019
5600 Clouds 25 1011 73 10000 8.2 210 12:57 20.10.2019
5601 Clouds 25 1010 73 10000 6.7 210 12:39 20.10.2019
5602 Clouds 25 1010 73 10000 6.7 210 12:21 20.10.2019
5603 Clouds 24 1010 83 10000 5.7 200 11:57 20.10.2019
5604 Clouds 24 1010 83 10000 6.7 200 11:39 20.10.2019
5605 Clouds 23 1010 83 10000 6.7 200 11:21 20.10.2019
5606 Clouds 23 1010 83 10000 7.2 200 10:54 20.10.2019
5607 Clouds 23 1010 83 10000 6.2 200 10:36 20.10.2019
5608 Clouds 23 1010 83 10000 6.2 200 10:18 20.10.2019
5609 Clouds 23 1009 83 10000 6.2 200 09:42 20.10.2019
5610 Clouds 23 1009 83 10000 6.2 200 09:22 20.10.2019
5611 Clear 23 1009 83 10000 5.7 200 08:49 20.10.2019
5612 Clear 23 1009 83 10000 5.1 190 08:27 20.10.2019
5613 Clear 23 1008 83 10000 5.1 190 07:57 20.10.2019
5614 Clear 21 1008 88 10000 1.5 0 07:39 20.10.2019
5615 Clear 21 1008 88 10000 1.5 0 07:20 20.10.2019
5616 Clouds 21 1008 88 10000 2.6 110 06:23 20.10.2019
5617 Clouds 21 1009 88 10000 2.6 130 04:28 20.10.2019
5618 Clouds 20 1009 88 10000 2.6 130 04:28 20.10.2019
5619 Clouds 21 1009 94 10000 2.6 140 03:48 20.10.2019
5620 Clouds 21 1010 88 10000 2.6 150 03:21 20.10.2019
5621 Clouds 21 1010 88 10000 1.5 110 02:44 20.10.2019
5622 Clouds 21 1010 88 10000 2.1 90 02:18 20.10.2019
5623 Clouds 21 1010 88 10000 2.1 120 01:43 20.10.2019
5624 Clouds 21 1010 88 10000 2.1 120 01:19 20.10.2019
5625 Clouds 21 1010 88 10000 2.1 120 00:42 20.10.2019
5626 Clouds 21 1010 88 10000 2.1 120 00:20 20.10.2019
5627 Clouds 21 1010 88 10000 1.5 110 23:43 19.10.2019
5628 Clouds 21 1010 88 10000 1.5 110 23:24 19.10.2019
5629 Clouds 21 1010 83 10000 2.1 140 22:57 19.10.2019
5630 Clouds 22 1010 83 10000 3.6 190 22:39 19.10.2019
5631 Clouds 22 1010 83 10000 3.6 190 22:20 19.10.2019
5632 Clouds 22 1010 78 10000 3.6 200 21:46 19.10.2019
5633 Clouds 22 1010 78 10000 3.6 200 21:25 19.10.2019
5634 Clouds 22 1010 83 10000 4.1 190 20:57 19.10.2019
5635 Clouds 22 1010 83 10000 3.1 190 20:38 19.10.2019
5636 Clouds 22 1010 83 10000 3.1 190 20:20 19.10.2019
5637 Clouds 22 1010 83 10000 4.6 200 19:41 19.10.2019
5638 Clouds 22 1010 83 10000 4.6 200 19:23 19.10.2019
5639 Clouds 23 1011 73 10000 4.6 190 18:44 19.10.2019
5640 Clouds 23 1011 73 10000 4.6 190 18:25 19.10.2019
5641 Clear 24 1011 73 10000 5.1 190 17:59 19.10.2019
5642 Clear 24 1011 69 10000 5.1 200 17:40 19.10.2019
5643 Clear 24 1011 69 10000 5.1 200 17:21 19.10.2019
5644 Clear 24 1011 64 10000 6.2 210 16:55 19.10.2019
5645 Clear 24 1011 69 10000 5.7 200 16:37 19.10.2019
5646 Clear 24 1011 69 10000 5.7 200 16:18 19.10.2019
5647 Clear 24 1011 69 10000 7.7 210 15:40 19.10.2019
5648 Clear 24 1011 69 10000 7.7 210 15:22 19.10.2019
5649 Clear 25 1012 64 10000 6.7 210 14:38 19.10.2019
5650 Clear 24 1012 64 10000 6.7 210 14:20 19.10.2019
5651 Clear 25 1012 64 10000 6.7 210 13:57 19.10.2019
5652 Clear 25 1013 64 10000 6.2 210 13:39 19.10.2019
5653 Clear 25 1013 64 10000 6.2 210 13:18 19.10.2019
5654 Clear 24 1013 69 10000 6.2 210 12:55 19.10.2019
5655 Clear 24 1013 69 10000 5.1 210 12:36 19.10.2019
5656 Clear 24 1013 64 10000 5.7 200 12:18 19.10.2019
5657 Clear 23 1013 69 10000 4.6 210 11:41 19.10.2019
5658 Clear 23 1013 69 10000 4.6 210 11:22 19.10.2019
5659 Clear 23 1013 78 10000 1 0 10:56 19.10.2019
5660 Clouds 22 1012 73 10000 2.6 230 10:38 19.10.2019
5661 Clouds 21 1012 88 10000 4.77 196.645 10:19 19.10.2019
5662 Clouds 20 1012 94 10000 4.77 196.645 09:42 19.10.2019
5663 Clouds 19 1013 93 10000 1 360 09:24 19.10.2019
5664 Clouds 19 1013 93 10000 1.5 70 08:59 19.10.2019
5665 Clouds 18 1012 93 10000 3.63 197.526 08:40 19.10.2019
5666 Clouds 18 1012 100 10000 3.63 197.526 08:21 19.10.2019
5667 Clouds 18 1012 100 10000 3.63 197.526 07:44 19.10.2019
5668 Clouds 18 1012 100 10000 0.5 0 07:25 19.10.2019
5669 Clouds 18 1012 100 10000 1 0 06:47 19.10.2019
5670 Clear 18 1013 93 10000 1 350 05:58 19.10.2019
5671 Clouds 18 1012 100 10000 1 0 05:32 19.10.2019
5672 Clouds 19 1014 93 10000 1.5 10 04:21 19.10.2019
5673 Clouds 19 1015 93 10000 1 350 02:46 19.10.2019
5674 Clouds 19 1015 88 10000 1 0 01:53 19.10.2019
5675 Clouds 20 1015 88 10000 1 340 01:20 19.10.2019
5676 Clouds 19 1015 88 10000 1 0 01:20 19.10.2019
5677 Clouds 20 1015 88 10000 1 340 00:48 19.10.2019
5678 Clouds 19 1015 88 10000 1 340 00:26 19.10.2019
5679 Clear 20 1015 82 10000 1.5 10 23:45 18.10.2019
5680 Clear 20 1016 82 10000 2.1 360 23:26 18.10.2019
5681 Clear 20 1016 77 10000 1 340 22:58 18.10.2019
5682 Clear 20 1016 77 10000 1 10 22:40 18.10.2019
5683 Clear 21 1016 77 10000 1 10 22:20 18.10.2019
5684 Clear 21 1016 77 10000 1 340 21:58 18.10.2019
5685 Clear 21 1015 78 10000 1 0 21:39 18.10.2019
5686 Clear 22 1016 78 10000 2.1 230 21:20 18.10.2019
5687 Clear 22 1016 78 10000 2.1 230 20:56 18.10.2019
5688 Clear 22 1016 78 10000 2.1 230 20:56 18.10.2019
5689 Clear 22 1016 83 10000 1.5 230 20:38 18.10.2019
5690 Clear 22 1016 83 10000 1.5 230 20:20 18.10.2019
5691 Clear 22 1016 83 10000 1.5 230 20:20 18.10.2019
5692 Clear 22 1016 78 10000 2.1 220 19:57 18.10.2019
5693 Clear 22 1016 78 10000 2.1 220 19:57 18.10.2019
5694 Clear 23 1015 73 10000 3.6 220 19:38 18.10.2019
5695 Clear 23 1015 73 10000 3.6 220 19:38 18.10.2019
5696 Clear 23 1015 73 10000 3.6 220 19:20 18.10.2019
5697 Clear 23 1015 73 10000 4.1 210 18:56 18.10.2019
5698 Clear 23 1015 73 10000 5.1 210 18:38 18.10.2019
5699 Clear 24 1015 73 10000 5.1 210 18:20 18.10.2019
5700 Clear 24 1016 69 10000 6.2 210 17:39 18.10.2019
5701 Clear 24 1016 69 10000 6.2 210 17:20 18.10.2019
5702 Clear 25 1016 69 10000 5.7 220 16:59 18.10.2019
5703 Clear 25 1016 57 10000 6.2 220 16:38 18.10.2019
5704 Clear 25 1016 57 10000 6.2 220 16:19 18.10.2019
5705 Clear 25 1016 57 10000 6.2 220 16:19 18.10.2019
5706 Clear 25 1016 61 10000 5.7 210 15:54 18.10.2019
5707 Clear 25 1016 61 10000 6.2 220 15:36 18.10.2019
5708 Clear 25 1016 61 10000 6.2 220 15:18 18.10.2019
5709 Clear 25 1016 64 10000 5.7 210 14:54 18.10.2019
5710 Clear 25 1017 60 10000 5.7 200 14:36 18.10.2019
5711 Clear 25 1017 60 10000 5.7 200 14:36 18.10.2019
5712 Clear 25 1017 60 10000 5.7 200 14:18 18.10.2019
5713 Clear 24 1018 64 10000 4.6 210 13:41 18.10.2019
5714 Clear 25 1018 64 10000 4.6 210 13:23 18.10.2019
5715 Clear 24 1018 73 10000 4.1 220 12:57 18.10.2019
5716 Clouds 24 1018 73 10000 2.6 200 12:39 18.10.2019
5717 Clouds 24 1018 73 10000 2.6 200 12:21 18.10.2019
5718 Clear 24 1018 73 10000 1.5 190 11:56 18.10.2019
5719 Clear 23 1018 69 10000 1 0 11:38 18.10.2019
5720 Clear 23 1018 69 10000 1 0 11:19 18.10.2019
5721 Clear 23 1018 69 10000 1 0 11:19 18.10.2019
5722 Clouds 22 1018 73 10000 0.5 0 10:56 18.10.2019
5723 Clouds 22 1018 73 10000 0.5 0 10:56 18.10.2019
5724 Clouds 22 1018 73 10000 0.5 0 10:55 18.10.2019
5725 -273 0 0 0 0 0 10:55 18.10.2019
5726 Clouds 22 1018 73 10000 0.5 0 10:55 18.10.2019
5727 Clouds 22 1018 72 8000 0.5 0 10:36 18.10.2019
5728 Clouds 21 1018 72 8000 0.5 0 10:18 18.10.2019
5729 Clear 20 1018 82 10000 1.5 10 09:54 18.10.2019
5730 Clear 19 1017 82 10000 1 0 09:36 18.10.2019
5731 Clear 18 1017 82 10000 1 0 09:18 18.10.2019
5732 Clear 17 1017 93 10000 1.5 340 08:42 18.10.2019
5733 Clear 17 1017 87 10000 1.5 20 08:22 18.10.2019
5734 Clear 17 1017 87 10000 1 0 07:43 18.10.2019
5735 Clear 17 1017 87 10000 1 0 07:25 18.10.2019
5736 Clear 17 1017 87 10000 1.5 350 06:40 18.10.2019
5737 Clear 17 1017 87 10000 1.5 350 06:22 18.10.2019
5738 Clear 17 1017 87 10000 1.5 350 06:22 18.10.2019
5739 Clear 17 1017 87 10000 1 0 05:57 18.10.2019
5740 Clear 17 1017 87 10000 1.5 350 05:24 18.10.2019
5741 Clear 17 1017 87 10000 1.5 350 05:24 18.10.2019
5742 Clear 17 1017 87 10000 1.5 350 04:47 18.10.2019
5743 Clear 17 1018 82 10000 1.5 340 03:33 18.10.2019
5744 Clear 17 1018 77 10000 1 0 02:35 18.10.2019
5745 Clear 18 1018 72 10000 1.5 340 01:55 18.10.2019
5746 Clear 18 1019 77 10000 1.5 340 01:30 18.10.2019
5747 Clear 18 1019 77 10000 1.5 350 00:46 18.10.2019
5748 Clear 18 1019 77 10000 1 340 00:21 18.10.2019
5749 Clear 18 1019 77 10000 1 340 23:59 17.10.2019
5750 Clear 18 1019 82 10000 1.5 360 23:38 17.10.2019
5751 Clear 18 1019 82 10000 1.5 360 23:19 17.10.2019
5752 Clear 19 1018 82 10000 2.1 330 22:55 17.10.2019
5753 Clear 19 1018 82 10000 2.1 330 22:55 17.10.2019
5754 Clear 19 1018 77 10000 1 0 22:37 17.10.2019
5755 Clear 19 1018 77 10000 1 0 22:37 17.10.2019
5756 Clear 19 1018 77 10000 1 0 22:18 17.10.2019
5757 Clear 19 1018 72 10000 2.1 300 21:56 17.10.2019
5758 Clear 19 1018 72 10000 2.1 300 21:56 17.10.2019
5759 Clear 20 1018 72 10000 2.1 300 21:37 17.10.2019
5760 Clear 20 1018 72 10000 2.1 300 21:37 17.10.2019
5761 Clear 20 1018 72 10000 2.1 300 21:19 17.10.2019
5762 Clear 21 1018 73 10000 1 290 20:56 17.10.2019
5763 Clear 21 1018 73 10000 2.1 220 20:38 17.10.2019
5764 Clear 21 1018 73 10000 2.1 220 20:18 17.10.2019
5765 Clear 21 1017 73 10000 2.1 220 19:55 17.10.2019
5766 Clouds 22 1017 68 10000 3.6 210 19:37 17.10.2019
5767 Clouds 22 1017 68 10000 3.6 210 19:18 17.10.2019
5768 Clear 23 1017 64 10000 5.7 210 18:39 17.10.2019
5769 Clear 23 1017 64 10000 5.7 210 18:21 17.10.2019
5770 Clear 24 1017 60 10000 5.1 210 17:55 17.10.2019
5771 Clouds 24 1017 60 10000 6.7 210 17:37 17.10.2019
5772 Clouds 24 1017 60 10000 6.7 210 17:19 17.10.2019
5773 Clouds 25 1018 60 10000 6.2 210 16:42 17.10.2019
5774 Clouds 25 1018 60 10000 6.2 210 16:42 17.10.2019
5775 Clouds 24 1018 60 10000 6.2 210 16:19 17.10.2019
5776 Clouds 24 1018 60 10000 7.2 220 15:59 17.10.2019
5777 Clouds 24 1018 57 10000 6.2 210 15:41 17.10.2019
5778 Clouds 24 1018 57 10000 6.2 210 15:21 17.10.2019
5779 Clouds 24 1018 53 10000 6.2 210 14:58 17.10.2019
5780 Clouds 24 1018 64 10000 6.2 200 14:39 17.10.2019
5781 Clouds 24 1018 64 10000 6.2 200 14:21 17.10.2019
5782 Clouds 24 1019 64 10000 5.7 210 13:42 17.10.2019
5783 Clouds 24 1019 64 10000 5.7 210 13:21 17.10.2019
5784 Clouds 23 1019 64 10000 5.1 200 12:59 17.10.2019
5785 Clouds 23 1019 60 10000 5.1 200 12:40 17.10.2019
5786 Clouds 23 1019 60 10000 3.6 200 12:20 17.10.2019
5787 Clouds 23 1019 60 10000 3.6 200 11:58 17.10.2019
5788 Clouds 23 1019 64 10000 2.1 200 11:40 17.10.2019
5789 Clouds 22 1019 64 10000 1 0 11:19 17.10.2019
5790 Clouds 22 1019 64 10000 1 0 10:54 17.10.2019
5791 Clouds 22 1019 64 10000 1 0 10:54 17.10.2019
5792 Clouds 22 1019 64 10000 1 0 10:54 17.10.2019
5793 Clouds 20 1019 68 10000 1 0 10:36 17.10.2019
5794 Clouds 20 1019 68 10000 1 0 10:18 17.10.2019
5795 Clouds 20 1019 77 10000 1 360 10:18 17.10.2019
5796 Clouds 20 1019 68 10000 1 0 10:18 17.10.2019
5797 Clouds 17 1018 82 10000 1.5 350 09:41 17.10.2019
5798 Clouds 16 1018 82 10000 1.5 350 09:22 17.10.2019
5799 Clouds 15 1018 93 10000 1.5 360 08:58 17.10.2019
5800 Clouds 14 1018 93 10000 2.1 350 08:39 17.10.2019
5801 Clouds 14 1018 93 10000 2.1 350 08:21 17.10.2019
5802 Clouds 14 1018 93 10000 2.1 350 08:21 17.10.2019
5803 Clouds 14 1018 93 10000 1.5 360 07:55 17.10.2019
5804 Clouds 14 1018 93 10000 1.5 360 07:55 17.10.2019
5805 Clouds 15 1018 87 10000 2.1 340 07:36 17.10.2019
5806 Clouds 15 1018 87 10000 2.1 340 07:18 17.10.2019
5807 Clouds 15 1018 87 10000 2.1 10 06:40 17.10.2019
5808 Clouds 15 1018 87 10000 2.1 10 06:21 17.10.2019
5809 Clouds 14 1018 87 10000 1.5 340 05:52 17.10.2019
5810 Clouds 15 1018 82 10000 1 350 05:32 17.10.2019
5811 Clouds 15 1018 87 10000 2.1 350 04:53 17.10.2019
5812 Clouds 16 1019 82 10000 1.5 350 03:55 17.10.2019
5813 Clouds 16 1019 77 10000 1 350 02:36 17.10.2019
5814 Clouds 16 1019 72 10000 1 40 01:27 17.10.2019
5815 Clouds 16 1019 72 10000 1.5 340 00:38 17.10.2019
5816 Clear 16 1019 72 10000 1.5 340 00:19 17.10.2019
5817 Clear 17 1019 67 10000 2.1 360 23:42 16.10.2019
5818 Clear 16 1019 67 10000 2.1 360 23:21 16.10.2019
5819 Clear 17 1018 67 10000 1.5 340 22:56 16.10.2019
5820 Clear 17 1018 67 10000 1.5 350 22:37 16.10.2019
5821 Clear 18 1018 67 10000 1.5 350 22:18 16.10.2019
5822 Clear 18 1018 63 10000 2.1 330 21:56 16.10.2019
5823 Clear 18 1018 59 10000 2.1 320 21:37 16.10.2019
5824 Clear 19 1018 59 10000 2.1 320 21:19 16.10.2019
5825 Clear 19 1018 59 10000 2.1 320 21:19 16.10.2019
5826 Clear 19 1018 49 10000 1.5 270 20:57 16.10.2019
5827 Clear 20 1018 49 10000 1 240 20:38 16.10.2019
5828 Clear 20 1018 49 10000 1 240 20:20 16.10.2019
5829 Clear 20 1018 52 10000 3.1 240 19:58 16.10.2019
5830 Clear 21 1018 49 10000 4.1 230 19:38 16.10.2019
5831 Clear 21 1018 49 10000 4.1 230 19:20 16.10.2019
5832 Clear 21 1018 49 10000 4.1 230 19:20 16.10.2019
5833 Clear 22 1018 43 10000 5.1 230 18:39 16.10.2019
5834 Clouds 23 1018 43 10000 5.1 230 18:20 16.10.2019
5835 Clouds 23 1018 46 10000 6.2 220 17:58 16.10.2019
5836 Clouds 23 1018 49 10000 6.2 220 17:39 16.10.2019
5837 Clouds 23 1018 49 10000 6.2 220 17:21 16.10.2019
5838 Clouds 24 1019 44 10000 7.2 220 17:00 16.10.2019
5839 Clouds 24 1019 47 10000 7.7 220 16:41 16.10.2019
5840 Clouds 24 1019 47 10000 7.7 220 16:21 16.10.2019
5841 Clouds 23 1019 53 10000 6.7 200 15:57 16.10.2019
5842 Clouds 24 1018 50 10000 5.7 220 15:38 16.10.2019
5843 Clouds 23 1018 50 10000 5.7 220 15:18 16.10.2019
5844 Clouds 23 1019 47 10000 5.1 210 14:56 16.10.2019
5845 Clear 23 1020 46 10000 6.7 210 14:38 16.10.2019
5846 Clear 23 1020 46 10000 6.7 210 14:18 16.10.2019
5847 Clear 23 1020 43 10000 6.2 200 13:56 16.10.2019
5848 Clear 23 1020 43 10000 6.2 200 13:56 16.10.2019
5849 -273 0 0 0 0 0 13:56 16.10.2019
5850 Clouds 23 1019 44 10000 5.1 210 13:37 16.10.2019
5851 Clear 23 1021 40 10000 6.2 200 13:19 16.10.2019
5852 Clear 22 1021 46 10000 3.6 190 12:41 16.10.2019
5853 Clear 22 1021 46 10000 3.6 190 12:19 16.10.2019
5854 Clear 22 1021 49 10000 2.1 190 11:44 16.10.2019
5855 Clear 21 1021 49 10000 1 0 11:19 16.10.2019
5856 Clear 21 1021 56 10000 0.5 0 10:41 16.10.2019
5857 Clear 19 1021 67 10000 1 0 10:22 16.10.2019
5858 Clear 19 1021 67 10000 1 0 10:22 16.10.2019
5859 Clear 17 1021 72 10000 2.1 340 09:58 16.10.2019
5860 Clear 17 1021 72 10000 2.1 340 09:58 16.10.2019
5861 Clouds 16 1020 82 10000 4.654 207 09:39 16.10.2019
5862 Clouds 15 1021 82 10000 1.5 360 09:39 16.10.2019
5863 Clouds 14 1021 82 10000 1.5 360 09:20 16.10.2019
5864 Fog 13 1020 87 10000 0.5 50 08:44 16.10.2019
5865 Clouds 12 1021 81 10000 3.1 340 08:26 16.10.2019
5866 Clouds 12 1021 81 10000 2.6 350 07:56 16.10.2019
5867 Clouds 12 1021 81 10000 2.6 340 07:38 16.10.2019
5868 Clouds 12 1021 81 10000 2.6 340 07:20 16.10.2019
5869 Clouds 12 1021 81 10000 2.6 350 06:40 16.10.2019
5870 Clear 12 1021 81 10000 2.6 350 06:19 16.10.2019
5871 Clear 12 1021 81 10000 2.1 350 03:46 16.10.2019
5872 Clear 13 1021 76 10000 1.5 360 02:50 16.10.2019
5873 Clear 13 1021 76 10000 2.1 320 01:20 16.10.2019
5874 Clear 13 1021 76 10000 1.5 350 00:57 16.10.2019
5875 Clear 14 1021 71 10000 1.5 360 00:37 16.10.2019
5876 Clear 14 1021 76 10000 2.1 10 23:42 15.10.2019
5877 Clear 14 1021 71 10000 2.1 340 23:23 15.10.2019
5878 Clear 15 1021 62 10000 1.5 330 22:59 15.10.2019
5879 Clear 15 1021 62 10000 1.5 330 22:40 15.10.2019
5880 Clear 15 1021 67 10000 2.6 340 22:21 15.10.2019
5881 Clear 16 1021 67 10000 1.5 340 21:57 15.10.2019
5882 Clear 17 1020 51 10000 2.1 260 21:38 15.10.2019
5883 Clear 17 1020 51 10000 2.1 260 21:20 15.10.2019
5884 Clear 17 1020 51 10000 1 0 20:58 15.10.2019
5885 Clear 17 1020 51 10000 1 0 20:40 15.10.2019
5886 Clear 17 1020 48 10000 2.1 290 20:22 15.10.2019
5887 Clear 18 1020 48 10000 3.1 300 19:59 15.10.2019
5888 Clouds 18 1019 48 10000 2.6 320 19:41 15.10.2019
5889 Clear 19 1019 48 10000 3.1 310 19:20 15.10.2019
5890 Clear 20 1019 42 10000 3.6 310 18:57 15.10.2019
5891 Clear 20 1019 42 10000 3.6 310 18:57 15.10.2019
5892 Clouds 21 1018 49 10000 4.1 310 18:39 15.10.2019
5893 Clear 20 1019 45 10000 4.6 310 18:20 15.10.2019
5894 Clear 20 1019 45 10000 4.6 320 17:42 15.10.2019
5895 Clear 20 1019 42 10000 5.7 310 17:42 15.10.2019
5896 Clear 20 1019 42 10000 5.7 310 17:21 15.10.2019
5897 Clear 20 1019 45 10000 6.2 320 16:59 15.10.2019
5898 Clear 21 1018 40 10000 6.2 320 16:41 15.10.2019
5899 Clear 21 1018 40 10000 6.2 320 16:21 15.10.2019
5900 Clear 21 1018 43 10000 6.2 330 15:55 15.10.2019
5901 Clear 21 1018 46 10000 5.1 310 15:37 15.10.2019
5902 Clouds 21 1018 46 10000 5.1 310 15:19 15.10.2019
5903 Clouds 21 1018 43 10000 6.2 320 14:55 15.10.2019
5904 Clouds 21 1017 49 10000 6.2 330 14:36 15.10.2019
5905 Clear 21 1018 46 10000 5.7 330 14:18 15.10.2019
5906 Clear 21 1018 43 10000 4.6 310 13:43 15.10.2019
5907 Clear 21 1018 43 10000 4.6 310 13:20 15.10.2019
5908 Clear 20 1018 49 10000 5.7 320 12:56 15.10.2019
5909 Clear 20 1018 49 10000 5.7 330 12:37 15.10.2019
5910 Clear 20 1018 49 10000 5.7 330 12:18 15.10.2019
5911 Clear 20 1017 52 10000 6.2 320 11:42 15.10.2019
5912 Clear 20 1017 52 10000 6.2 320 11:20 15.10.2019
5913 Clear 20 1017 52 10000 6.2 320 11:20 15.10.2019
5914 Clear 19 1017 52 10000 6.2 330 10:55 15.10.2019
5915 Clouds 19 1016 60 10000 7.2 320 10:37 15.10.2019
5916 Clouds 20 1016 60 10000 7.2 320 10:18 15.10.2019
5917 Clouds 19 1015 63 10000 5.7 320 09:40 15.10.2019
5918 Clouds 19 1015 63 10000 5.7 320 09:40 15.10.2019
5919 Clouds 19 1015 63 10000 5.7 320 09:21 15.10.2019
5920 Clouds 19 1014 68 10000 4.6 320 08:58 15.10.2019
5921 Clouds 19 1014 68 10000 4.6 320 08:58 15.10.2019
5922 Clouds 19 1014 72 10000 4.1 320 08:40 15.10.2019
5923 Clouds 19 1014 72 10000 4.1 320 08:20 15.10.2019
5924 Clouds 19 1013 82 10000 3.1 300 07:48 15.10.2019
5925 Clouds 19 1013 77 10000 3.1 300 07:23 15.10.2019
5926 Rain 20 1012 77 10000 4.6 290 06:58 15.10.2019
5927 Rain 20 1012 77 10000 4.6 290 06:40 15.10.2019
5928 Rain 20 1012 93 10000 1 40 05:58 15.10.2019
5929 Rain 20 1011 93 10000 0.5 0 05:37 15.10.2019
5930 Rain 19 1011 93 10000 0.5 0 04:54 15.10.2019
5931 Rain 19 1012 93 10000 5 336.41 04:20 15.10.2019
5932 Rain 20 1012 94 10000 1 280 03:35 15.10.2019
5933 Rain 20 1012 94 10000 1 280 03:35 15.10.2019
5934 Thunderstorm 21 1014 88 650 5.1 250 02:22 15.10.2019
5935 Thunderstorm 21 1011 94 10000 2.1 40 01:47 15.10.2019
5936 Rain 21 1013 88 10000 1 0 01:18 15.10.2019
5937 Rain 21 1013 88 10000 1.5 50 00:46 15.10.2019
5938 Clear 21 1014 88 10000 1.5 60 00:20 15.10.2019
5939 Clouds 21 1013 94 10000 5.68 256.343 23:40 14.10.2019
5940 Rain 21 1014 88 10000 1 50 23:19 14.10.2019
5941 Rain 22 1014 83 10000 1.5 20 22:41 14.10.2019
5942 Rain 22 1014 83 10000 1.5 20 22:21 14.10.2019
5943 Clear 23 1013 83 10000 1 0 21:59 14.10.2019
5944 Rain 23 1013 83 10000 1.5 0 21:40 14.10.2019
5945 Rain 23 1013 83 10000 1.5 0 21:22 14.10.2019
5946 Rain 23 1011 83 9000 3.6 110 20:59 14.10.2019
5947 Rain 23 1011 83 9000 2.1 60 20:39 14.10.2019
5948 Rain 23 1011 83 9000 2.1 60 20:21 14.10.2019
5949 Rain 23 1012 78 10000 2.6 330 19:59 14.10.2019
5950 Clouds 24 1011 78 10000 2.6 330 19:40 14.10.2019
5951 Clouds 24 1013 73 10000 3.1 300 19:22 14.10.2019
5952 Clear 25 1013 73 10000 4.1 320 18:58 14.10.2019
5953 Clear 25 1013 73 10000 4.1 320 18:58 14.10.2019
5954 Clear 25 1013 73 10000 4.1 320 18:58 14.10.2019
5955 Clouds 25 1012 78 10000 2.6 260 18:38 14.10.2019
5956 Clear 26 1013 73 10000 4.1 280 18:19 14.10.2019
5957 Clear 27 1012 51 10000 4.1 230 17:44 14.10.2019
5958 Clear 27 1012 51 10000 4.1 230 17:44 14.10.2019
5959 Clear 27 1012 51 10000 4.1 230 17:26 14.10.2019
5960 Clear 28 1012 51 10000 2.1 0 16:59 14.10.2019
5961 Clear 29 1013 45 10000 3.1 220 16:40 14.10.2019
5962 Clear 28 1013 45 10000 3.1 220 16:21 14.10.2019
5963 Clear 28 1013 42 10000 7.2 190 15:42 14.10.2019
5964 Clear 28 1013 42 10000 7.2 190 15:22 14.10.2019
5965 Clear 29 1013 61 10000 6.2 220 14:56 14.10.2019
5966 Clear 29 1013 61 10000 6.2 220 14:56 14.10.2019
5967 Clear 30 1013 48 10000 5.7 200 14:38 14.10.2019
5968 Clear 31 1013 48 10000 5.7 200 14:19 14.10.2019
5969 Clear 30 1014 40 10000 2.6 110 13:44 14.10.2019
5970 Clear 29 1014 45 10000 2.1 120 13:21 14.10.2019
5971 Clear 28 1014 45 10000 2.1 120 12:55 14.10.2019
5972 Clear 27 1015 54 10000 1.5 0 12:37 14.10.2019
5973 Clear 26 1015 65 10000 2.1 70 12:18 14.10.2019
5974 Clear 26 1015 65 10000 2.1 70 12:18 14.10.2019
5975 Clear 26 1015 65 10000 2.1 70 12:18 14.10.2019
5976 Clear 25 1016 69 10000 1.5 0 11:44 14.10.2019
5977 Clear 24 1016 69 10000 1.5 0 11:26 14.10.2019
5978 Clear 24 1016 73 10000 1 0 10:57 14.10.2019
5979 Clear 24 1016 73 10000 1 0 10:57 14.10.2019
5980 Clear 23 1016 78 10000 1.5 340 10:38 14.10.2019
5981 Clear 21 1016 78 10000 1.5 340 10:19 14.10.2019
5982 Clear 21 1016 88 10000 2.1 360 09:42 14.10.2019
5983 Clear 19 1016 88 10000 2.1 360 09:21 14.10.2019
5984 Clear 18 1015 88 10000 1.5 0 08:51 14.10.2019
5985 Clear 19 1015 88 10000 3.1 280 08:23 14.10.2019
5986 Clear 18 1015 88 10000 2.6 30 07:59 14.10.2019
5987 Clear 18 1015 88 10000 3.1 10 07:39 14.10.2019
5988 Clear 18 1015 88 10000 2.6 350 07:18 14.10.2019
5989 Clear 19 1016 82 10000 2.6 10 06:37 14.10.2019
5990 Clear 18 1016 82 10000 2.6 360 06:18 14.10.2019
5991 Clear 19 1016 82 10000 2.1 320 05:42 14.10.2019
5992 Clear 20 1016 82 10000 2.6 350 04:42 14.10.2019
5993 Clear 20 1017 82 10000 2.6 360 03:27 14.10.2019
5994 Clear 21 1017 82 10000 1.5 340 02:42 14.10.2019
5995 Clear 22 1017 83 10000 1.5 360 01:23 14.10.2019
5996 Clear 22 1017 83 10000 1.5 360 00:53 14.10.2019
5997 Clear 22 1017 88 10000 1.5 20 00:19 14.10.2019
5998 Clear 22 1017 83 10000 1.5 30 23:45 13.10.2019
5999 Clear 22 1017 83 10000 1.5 30 23:20 13.10.2019
6000 Clear 23 1017 83 10000 2.1 50 22:58 13.10.2019
6001 Clear 23 1017 83 10000 2.1 50 22:58 13.10.2019
6002 Clear 22 1017 83 10000 2.6 80 22:40 13.10.2019
6003 Clear 23 1017 83 10000 2.6 80 22:21 13.10.2019
6004 Clear 23 1017 78 10000 2.6 80 21:58 13.10.2019
6005 Clear 23 1017 78 10000 2.6 80 21:37 13.10.2019
6006 Clear 24 1017 73 10000 2.6 80 21:19 13.10.2019
6007 Clear 24 1017 73 10000 2.6 80 20:57 13.10.2019
6008 Clear 24 1017 73 10000 2.6 80 20:57 13.10.2019
6009 Clear 24 1017 73 10000 4.1 100 20:39 13.10.2019
6010 Clear 25 1017 73 10000 4.1 100 20:20 13.10.2019
6011 Clear 25 1017 69 10000 3.1 100 19:58 13.10.2019
6012 Clear 25 1016 65 10000 3.6 80 19:39 13.10.2019
6013 Clear 25 1016 65 10000 3.6 80 19:39 13.10.2019
6014 Clear 26 1016 65 10000 3.6 80 19:21 13.10.2019
6015 Clear 26 1016 61 10000 4.1 100 18:57 13.10.2019
6016 Clear 26 1016 61 10000 4.1 100 18:57 13.10.2019
6017 Clear 27 1016 54 10000 4.1 110 18:37 13.10.2019
6018 Clear 27 1016 54 10000 4.1 110 18:19 13.10.2019
6019 Clear 27 1016 54 10000 4.1 110 18:19 13.10.2019
6020 Clear 28 1016 51 10000 3.6 100 17:57 13.10.2019
6021 Clear 28 1016 51 10000 4.1 120 17:38 13.10.2019
6022 Clear 28 1016 51 10000 4.1 120 17:38 13.10.2019
6023 Clear 28 1016 51 10000 4.1 120 17:20 13.10.2019
6024 Clear 29 1016 51 10000 3.1 90 16:41 13.10.2019
6025 Clear 29 1016 51 10000 3.1 90 16:19 13.10.2019
6026 Clear 29 1016 48 10000 3.1 120 15:57 13.10.2019
6027 Clear 29 1016 48 10000 3.1 130 15:38 13.10.2019
6028 Clear 29 1016 48 10000 3.1 130 15:19 13.10.2019
6029 Clear 29 1017 51 10000 3.6 130 14:57 13.10.2019
6030 Clear 29 1017 51 10000 4.1 120 14:38 13.10.2019
6031 Clear 28 1017 51 10000 4.1 120 14:19 13.10.2019
6032 Clear 28 1018 58 10000 5.7 60 13:42 13.10.2019
6033 Clear 28 1018 58 10000 5.7 60 13:42 13.10.2019
6034 Clear 28 1018 58 10000 5.7 60 13:23 13.10.2019
6035 Clear 27 1018 61 10000 4.6 60 12:59 13.10.2019
6036 Clear 27 1018 61 10000 6.2 70 12:39 13.10.2019
6037 Clear 26 1018 69 10000 6.2 60 12:21 13.10.2019
6038 Clear 26 1018 69 10000 6.2 60 11:59 13.10.2019
6039 Clear 25 1018 69 10000 5.1 80 11:39 13.10.2019
6040 Clear 25 1018 69 10000 5.1 80 11:21 13.10.2019
6041 Clear 24 1018 73 10000 5.1 80 10:59 13.10.2019
6042 Clear 24 1018 78 10000 3.6 80 10:39 13.10.2019
6043 Clear 24 1018 78 10000 3.6 80 10:39 13.10.2019
6044 Clear 23 1018 78 10000 3.6 80 10:20 13.10.2019
6045 Clear 21 1018 82 10000 2.1 360 09:39 13.10.2019
6046 Clear 20 1018 82 10000 2.1 350 09:21 13.10.2019
6047 Clear 20 1018 82 10000 2.1 350 09:21 13.10.2019
6048 Clear 20 1018 82 10000 2.1 350 08:51 13.10.2019
6049 Clear 20 1018 82 10000 1.5 340 08:27 13.10.2019
6050 Clear 20 1018 82 10000 1.5 30 07:55 13.10.2019
6051 Clear 20 1018 82 10000 2.6 20 07:35 13.10.2019
6052 Clouds 20 1018 77 10000 2.1 10 06:54 13.10.2019
6053 Clouds 21 1018 77 10000 2.1 10 06:54 13.10.2019
6054 Clouds 21 1018 77 10000 3.1 10 06:26 13.10.2019
6055 Clouds 21 1018 77 10000 3.1 10 05:27 13.10.2019
6056 Clouds 21 1018 77 10000 2.6 30 04:35 13.10.2019
6057 Clouds 21 1019 77 10000 3.6 30 03:35 13.10.2019
6058 Clouds 21 1019 88 10000 1.5 10 02:32 13.10.2019
6059 Clear 21 1019 83 10000 2.1 40 01:47 13.10.2019
6060 Clear 21 1020 83 10000 2.1 60 01:21 13.10.2019
6061 Clear 21 1020 83 10000 2.1 60 01:21 13.10.2019
6062 Clear 22 1020 83 10000 1.5 70 00:43 13.10.2019
6063 Clear 22 1020 83 10000 1.5 70 00:19 13.10.2019
6064 Clear 21 1020 83 10000 2.1 60 23:54 12.10.2019
6065 Clear 22 1020 83 10000 2.6 50 23:54 12.10.2019
6066 Clear 22 1020 83 10000 2.1 60 23:36 12.10.2019
6067 Clear 22 1020 83 10000 2.1 60 23:18 12.10.2019
6068 Clear 22 1020 78 10000 2.6 60 22:54 12.10.2019
6069 Clear 22 1020 78 10000 3.1 60 22:36 12.10.2019
6070 Clear 22 1020 78 10000 3.1 60 22:18 12.10.2019
6071 Clear 22 1020 78 10000 3.1 90 21:41 12.10.2019
6072 Clear 23 1020 78 10000 3.1 90 21:23 12.10.2019
6073 Clear 23 1019 73 10000 1.5 110 20:56 12.10.2019
6074 Clear 23 1019 73 10000 2.6 120 20:38 12.10.2019
6075 Clear 23 1019 73 10000 2.6 120 20:20 12.10.2019
6076 Clear 24 1019 69 10000 3.6 140 19:37 12.10.2019
6077 Clear 24 1019 65 10000 4.6 150 19:19 12.10.2019
6078 Clear 25 1019 65 10000 4.6 150 18:46 12.10.2019
6079 Clear 26 1019 57 10000 4.6 150 18:27 12.10.2019
6080 Clear 26 1019 51 10000 4.1 150 17:58 12.10.2019
6081 Clear 27 1019 51 10000 4.1 170 17:40 12.10.2019
6082 Clear 27 1019 51 10000 4.1 170 17:18 12.10.2019
6083 Clear 28 1019 48 10000 4.1 150 16:41 12.10.2019
6084 Clear 28 1019 48 10000 4.1 150 16:41 12.10.2019
6085 Clear 28 1019 48 10000 4.1 150 16:21 12.10.2019
6086 Clear 28 1019 48 10000 4.1 150 15:59 12.10.2019
6087 Clear 28 1019 51 10000 4.6 160 15:39 12.10.2019
6088 Clear 28 1019 51 10000 4.6 160 15:21 12.10.2019
6089 Clouds 28 1020 51 10000 2.6 110 14:41 12.10.2019
6090 Clouds 28 1020 51 10000 2.6 110 14:21 12.10.2019
6091 Clouds 28 1020 51 10000 2.6 110 14:21 12.10.2019
6092 Clouds 27 1020 54 10000 2.1 130 13:53 12.10.2019
6093 Clouds 27 1020 54 10000 2.1 130 13:53 12.10.2019
6094 Clouds 26 1021 57 10000 3.1 130 13:33 12.10.2019
6095 Clear 26 1021 57 10000 4.1 90 12:59 12.10.2019
6096 Clear 25 1021 61 10000 4.1 80 12:38 12.10.2019
6097 Clear 25 1021 61 10000 4.1 80 12:20 12.10.2019
6098 Clear 24 1021 64 10000 3.6 100 11:56 12.10.2019
6099 Clouds 24 1021 69 10000 4.1 60 11:38 12.10.2019
6100 Clouds 23 1021 69 10000 4.1 60 11:19 12.10.2019
6101 Clear 22 1021 73 10000 4.1 60 10:41 12.10.2019
6102 Clear 22 1021 73 10000 4.1 60 10:23 12.10.2019
6103 Clear 21 1021 77 10000 3.1 50 09:57 12.10.2019
6104 -273 0 0 0 0 0 09:57 12.10.2019
6105 Clear 21 1021 77 10000 3.1 50 09:57 12.10.2019
6106 Clear 20 1021 82 10000 2.6 40 09:38 12.10.2019
6107 Clear 20 1021 82 10000 2.6 40 09:19 12.10.2019
6108 Clear 19 1020 82 10000 2.6 50 08:44 12.10.2019
6109 Clear 19 1020 82 10000 2.6 50 08:44 12.10.2019
6110 Clear 19 1020 82 10000 2.6 50 08:25 12.10.2019
6111 Clouds 19 1021 82 10000 2.6 50 07:57 12.10.2019
6112 Clear 19 1021 82 10000 2.1 50 07:31 12.10.2019
6113 Clear 19 1020 77 10000 3.1 40 06:37 12.10.2019
6114 Clear 19 1021 82 10000 1.5 30 05:44 12.10.2019
6115 Clear 20 1021 82 10000 1.5 10 04:43 12.10.2019
6116 Clear 20 1021 82 10000 2.6 30 03:56 12.10.2019
6117 Clouds 20 1021 82 10000 3.6 40 02:50 12.10.2019
6118 Clouds 20 1022 82 10000 2.6 40 01:35 12.10.2019
6119 Clouds 20 1022 82 10000 2.6 50 00:57 12.10.2019
6120 Clouds 20 1022 82 10000 3.1 40 00:38 12.10.2019
6121 Clear 21 1022 77 10000 2.6 40 23:55 11.10.2019
6122 Clear 21 1022 77 10000 2.1 40 23:37 11.10.2019
6123 Clear 21 1022 77 10000 2.1 40 23:19 11.10.2019
6124 Clear 22 1022 77 10000 2.1 30 22:39 11.10.2019
6125 Clear 22 1022 77 10000 2.1 30 22:20 11.10.2019
6126 Clear 22 1022 77 10000 1.5 60 21:55 11.10.2019
6127 Clear 22 1022 77 10000 1 0 21:36 11.10.2019
6128 Clear 22 1022 77 10000 1 0 21:18 11.10.2019
6129 Clear 22 1021 73 10000 2.6 150 20:43 11.10.2019
6130 Clear 22 1021 73 10000 2.6 150 20:25 11.10.2019
6131 Clear 23 1021 64 10000 3.1 150 19:56 11.10.2019
6132 Clear 24 1021 64 10000 3.1 150 19:38 11.10.2019
6133 Clear 24 1021 64 10000 3.1 160 19:18 11.10.2019
6134 Clear 24 1021 64 10000 3.1 160 18:57 11.10.2019
6135 Clear 25 1021 65 10000 4.6 220 18:37 11.10.2019
6136 Clear 25 1021 65 10000 4.6 220 18:19 11.10.2019
6137 Clear 25 1021 65 10000 5.7 210 17:58 11.10.2019
6138 Clear 26 1021 65 10000 6.7 220 17:37 11.10.2019
6139 Clear 26 1021 65 10000 5.7 220 17:18 11.10.2019
6140 Clear 25 1021 65 10000 5.7 220 16:54 11.10.2019
6141 -273 0 0 0 0 0 16:54 11.10.2019
6142 Clear 25 1022 65 10000 6.7 220 16:36 11.10.2019
6143 Clear 25 1022 65 10000 6.7 220 16:18 11.10.2019
6144 Clear 26 1022 61 10000 5.1 220 15:39 11.10.2019
6145 Clear 27 1022 61 10000 5.1 220 15:19 11.10.2019
6146 Clear 26 1022 65 10000 4.6 230 14:49 11.10.2019
6147 Clear 26 1023 65 10000 3.1 230 14:30 11.10.2019
6148 Clear 25 1023 61 10000 4.1 230 13:58 11.10.2019
6149 Clear 25 1024 61 10000 4.1 210 13:40 11.10.2019
6150 Clear 25 1024 64 10000 2.1 240 13:22 11.10.2019
6151 Clear 25 1024 64 10000 2.1 240 12:56 11.10.2019
6152 Clear 26 1024 64 10000 2.1 220 12:38 11.10.2019
6153 Clear 24 1024 64 10000 2.1 220 12:20 11.10.2019
6154 Clear 24 1024 64 10000 1.5 130 11:55 11.10.2019
6155 Clear 23 1024 64 10000 1.5 130 11:36 11.10.2019
6156 Clear 23 1024 64 10000 1.5 130 11:18 11.10.2019
6157 Clear 22 1024 68 10000 1 0 10:41 11.10.2019
6158 Clear 22 1024 68 10000 1 0 10:23 11.10.2019
6159 Clear 20 1024 77 10000 1.5 20 09:57 11.10.2019
6160 Clear 20 1023 82 10000 2.1 10 09:38 11.10.2019
6161 Clear 19 1023 82 10000 2.1 10 09:20 11.10.2019
6162 Clear 19 1023 82 10000 2.1 10 09:20 11.10.2019
6163 Clear 18 1023 88 10000 2.1 10 08:55 11.10.2019
6164 Clear 17 1023 87 10000 1.5 350 08:37 11.10.2019
6165 Clear 17 1023 93 10000 1 0 08:19 11.10.2019
6166 Clear 17 1023 87 10000 1 0 07:45 11.10.2019
6167 Clear 17 1023 87 10000 1 0 07:27 11.10.2019
6168 Clear 17 1023 87 10000 2.1 350 06:49 11.10.2019
6169 Clouds 17 1023 87 10000 1.5 340 06:24 11.10.2019
6170 Clouds 17 1023 82 10000 2.1 350 05:41 11.10.2019
6171 Clouds 17 1023 82 10000 2.1 350 05:23 11.10.2019
6172 Clear 17 1023 82 10000 1 0 04:38 11.10.2019
6173 Clear 17 1023 82 10000 1.5 360 02:47 11.10.2019
6174 Clear 19 1024 77 10000 2.1 20 00:52 11.10.2019
6175 Clear 19 1024 77 10000 2.1 30 00:30 11.10.2019
6176 Clouds 19 1024 77 10000 1.5 40 23:50 10.10.2019
6177 Clouds 19 1024 77 10000 1.5 70 23:24 10.10.2019
6178 Clouds 20 1024 72 10000 1.5 80 22:59 10.10.2019
6179 Clouds 20 1024 72 10000 1.5 110 22:40 10.10.2019
6180 Clouds 20 1024 72 10000 1.5 110 22:21 10.10.2019
6181 Clouds 20 1024 72 10000 1.5 110 22:21 10.10.2019
6182 Clouds 20 1024 72 10000 1.5 110 22:21 10.10.2019
6183 Clouds 20 1024 72 10000 1.5 110 22:21 10.10.2019
6184 Clouds 21 1023 68 10000 2.1 90 21:59 10.10.2019
6185 Clouds 21 1023 68 10000 1.5 120 21:40 10.10.2019
6186 Clouds 21 1023 68 10000 1.5 120 21:40 10.10.2019
6187 Clouds 21 1023 68 10000 1.5 120 21:22 10.10.2019
6188 Clouds 21 1023 68 10000 2.1 80 20:57 10.10.2019
6189 Clouds 21 1022 68 10000 2.6 70 20:39 10.10.2019
6190 Clouds 22 1022 68 10000 2.6 70 20:18 10.10.2019
6191 Clouds 22 1022 68 10000 2.6 70 20:18 10.10.2019
6192 Clouds 22 1022 64 10000 3.6 70 19:54 10.10.2019
6193 Clouds 22 1022 64 10000 4.6 70 19:36 10.10.2019
6194 Clouds 22 1022 64 10000 3.6 60 19:18 10.10.2019
6195 Clouds 23 1022 60 10000 4.1 50 18:41 10.10.2019
6196 Clouds 23 1022 60 10000 4.1 50 18:20 10.10.2019
6197 Clouds 23 1022 60 10000 4.1 50 17:56 10.10.2019
6198 Clouds 23 1022 56 10000 4.6 70 17:37 10.10.2019
6199 Clouds 24 1022 57 10000 5.1 70 17:18 10.10.2019
6200 Clouds 24 1022 57 10000 5.1 70 16:48 10.10.2019
6201 Clouds 24 1022 57 10000 5.7 80 16:26 10.10.2019
6202 Clouds 24 1022 60 10000 4.6 70 15:59 10.10.2019
6203 Clouds 24 1022 60 10000 3.1 80 15:39 10.10.2019
6204 Clouds 24 1022 60 10000 3.1 80 15:39 10.10.2019
6205 Clouds 24 1022 60 10000 3.1 80 15:20 10.10.2019
6206 Clouds 24 1022 57 10000 3.6 90 14:56 10.10.2019
6207 Clouds 24 1022 60 10000 5.1 80 14:37 10.10.2019
6208 Clouds 24 1022 60 10000 5.1 80 14:18 10.10.2019
6209 Clouds 23 1023 60 10000 4.1 60 13:55 10.10.2019
6210 Clouds 23 1023 60 10000 2.6 60 13:37 10.10.2019
6211 Clouds 24 1023 64 10000 3.1 40 13:18 10.10.2019
6212 Clouds 24 1023 60 10000 3.6 70 12:41 10.10.2019
6213 Clear 24 1023 60 10000 3.6 70 12:20 10.10.2019
6214 Clear 23 1023 64 10000 4.6 80 11:58 10.10.2019
6215 Clear 23 1023 64 10000 4.6 80 11:58 10.10.2019
6216 Clear 23 1023 69 10000 2.6 0 11:39 10.10.2019
6217 Clear 22 1023 73 10000 3.6 70 11:19 10.10.2019
6218 Clear 22 1023 69 10000 2.6 0 11:19 10.10.2019
6219 Clear 21 1023 77 10000 1.5 50 10:45 10.10.2019
6220 Clear 21 1023 77 10000 1.5 50 10:27 10.10.2019
6221 Clear 21 1022 77 10000 1.5 350 09:58 10.10.2019
6222 Clear 19 1022 82 10000 2.1 340 09:40 10.10.2019
6223 Clear 19 1022 82 10000 2.1 340 09:22 10.10.2019
6224 Clear 18 1021 88 10000 1.5 340 08:58 10.10.2019
6225 Clear 18 1021 88 10000 1.5 340 08:38 10.10.2019
6226 Clear 18 1021 88 10000 1.5 340 08:38 10.10.2019
6227 Clear 18 1021 88 10000 1.5 340 08:19 10.10.2019
6228 Clear 18 1021 82 10000 2.1 350 07:46 10.10.2019
6229 Clear 18 1021 82 10000 2.1 350 07:23 10.10.2019
6230 Clear 18 1021 88 10000 2.1 340 06:49 10.10.2019
6231 Clear 18 1021 88 10000 1.5 320 06:29 10.10.2019
6232 Clear 18 1020 82 10000 2.1 360 05:39 10.10.2019
6233 Clear 18 1020 82 10000 2.1 360 05:18 10.10.2019
6234 Clear 18 1021 88 10000 1.5 360 04:34 10.10.2019
6235 Clear 20 1021 77 10000 2.1 70 02:19 10.10.2019
6236 Clear 20 1021 73 10000 2.6 60 01:36 10.10.2019
6237 Clear 20 1021 73 10000 2.6 60 01:18 10.10.2019
6238 Clear 21 1020 73 10000 2.6 60 00:25 10.10.2019
6239 Clear 21 1020 73 10000 3.1 70 23:42 09.10.2019
6240 Clear 21 1020 73 10000 3.1 70 23:23 09.10.2019
6241 Clear 21 1020 73 10000 3.6 70 22:59 09.10.2019
6242 Clear 22 1020 68 10000 2.1 70 22:41 09.10.2019
6243 Clear 22 1020 68 10000 2.1 70 22:22 09.10.2019
6244 Clear 22 1020 68 10000 2.1 70 22:22 09.10.2019
6245 Clear 22 1019 68 10000 1.5 90 21:56 09.10.2019
6246 Clear 22 1019 68 10000 1 90 21:38 09.10.2019
6247 Clear 22 1019 68 10000 2.1 130 21:18 09.10.2019
6248 Clear 22 1019 68 10000 2.1 130 20:54 09.10.2019
6249 Clear 23 1019 64 10000 2.1 170 20:36 09.10.2019
6250 Clear 23 1019 69 10000 2.1 190 20:18 09.10.2019
6251 Clear 23 1019 64 10000 2.1 170 20:18 09.10.2019
6252 Clear 23 1018 64 10000 2.6 200 19:43 09.10.2019
6253 Clear 23 1018 64 10000 2.6 200 19:22 09.10.2019
6254 Clear 24 1018 60 10000 3.6 210 18:39 09.10.2019
6255 Clear 24 1018 60 10000 3.6 210 18:21 09.10.2019
6256 Clear 24 1018 57 10000 4.1 210 17:58 09.10.2019
6257 Clear 24 1017 57 10000 4.1 220 17:40 09.10.2019
6258 Clear 25 1018 57 10000 3.6 220 17:22 09.10.2019
6259 Clear 25 1018 57 10000 3.6 220 16:57 09.10.2019
6260 Clear 25 1018 57 10000 4.1 220 16:39 09.10.2019
6261 Clear 26 1018 57 10000 4.1 220 16:21 09.10.2019
6262 Clear 26 1018 57 10000 4.1 220 16:21 09.10.2019
6263 Clear 25 1018 57 10000 3.6 200 15:57 09.10.2019
6264 Clear 25 1018 50 10000 4.6 210 15:38 09.10.2019
6265 Clear 25 1018 50 10000 4.6 210 15:19 09.10.2019
6266 Clear 25 1018 53 10000 2.6 230 14:55 09.10.2019
6267 Clear 25 1018 57 10000 3.1 230 14:36 09.10.2019
6268 Clear 25 1018 57 10000 3.1 230 14:18 09.10.2019
6269 Clear 25 1019 57 10000 3.6 220 13:38 09.10.2019
6270 Clouds 26 1019 60 10000 3.1 220 13:20 09.10.2019
6271 Clouds 25 1019 60 10000 3.1 220 12:57 09.10.2019
6272 Clouds 24 1019 60 10000 3.1 230 12:37 09.10.2019
6273 Clear 24 1019 57 10000 2.1 0 12:19 09.10.2019
6274 Clear 24 1019 57 10000 2.1 0 11:54 09.10.2019
6275 Clear 24 1019 60 10000 2.1 180 11:36 09.10.2019
6276 Clear 24 1019 60 10000 2.1 180 11:36 09.10.2019
6277 Clear 23 1019 60 10000 1 0 11:18 09.10.2019
6278 Clear 23 1019 64 10000 0.5 350 10:42 09.10.2019
6279 Clear 22 1019 64 10000 0.5 350 10:20 09.10.2019
6280 Clear 20 1019 72 10000 1.5 330 09:56 09.10.2019
6281 Clear 19 1019 72 10000 2.1 340 09:38 09.10.2019
6282 Clear 18 1019 72 10000 2.1 340 09:18 09.10.2019
6283 Clear 16 1018 82 10000 2.1 340 08:39 09.10.2019
6284 Clear 16 1018 82 10000 2.1 340 08:20 09.10.2019
6285 Clear 16 1019 82 10000 2.1 340 07:47 09.10.2019
6286 Clear 16 1019 82 10000 2.1 340 07:47 09.10.2019
6287 Clear 16 1019 82 10000 2.1 340 07:25 09.10.2019
6288 Clear 16 1019 82 10000 2.1 340 07:25 09.10.2019
6289 Clear 16 1019 82 10000 2.6 340 06:59 09.10.2019
6290 Clear 16 1019 82 10000 1.5 330 06:41 09.10.2019
6291 Clear 16 1019 82 10000 1.5 350 05:53 09.10.2019
6292 Clear 16 1019 82 10000 1.5 340 05:18 09.10.2019
6293 Clear 17 1019 82 10000 2.1 340 03:49 09.10.2019
6294 Clear 17 1020 77 10000 2.1 340 02:35 09.10.2019
6295 Clear 17 1020 77 10000 1.5 350 01:39 09.10.2019
6296 Clear 17 1020 77 10000 1.5 350 01:39 09.10.2019
6297 Clear 18 1020 77 10000 1.5 350 01:19 09.10.2019
6298 Clear 18 1020 77 10000 1.5 350 00:55 09.10.2019
6299 Clear 18 1020 72 10000 1.5 360 00:37 09.10.2019
6300 Clear 18 1020 72 10000 1.5 360 00:19 09.10.2019
6301 Clear 19 1020 68 10000 1.5 350 23:39 08.10.2019
6302 Clear 19 1020 68 10000 1.5 350 23:39 08.10.2019
6303 Clear 19 1020 68 10000 1.5 350 23:18 08.10.2019
6304 Clear 19 1020 68 10000 1.5 350 22:55 08.10.2019
6305 Clear 20 1020 64 10000 1.5 60 22:37 08.10.2019
6306 Clear 20 1020 64 10000 1.5 60 22:18 08.10.2019
6307 Clear 21 1020 64 10000 0.5 0 21:56 08.10.2019
6308 Clear 21 1020 60 10000 1.5 210 21:37 08.10.2019
6309 Clear 22 1020 60 10000 1.5 210 21:18 08.10.2019
6310 Clear 21 1019 60 10000 2.1 210 20:55 08.10.2019
6311 Clear 22 1019 60 10000 2.6 210 20:37 08.10.2019
6312 Clear 22 1019 60 10000 2.6 210 20:18 08.10.2019
6313 Clear 22 1019 56 10000 3.6 210 19:56 08.10.2019
6314 Clear 22 1019 60 10000 5.1 210 19:36 08.10.2019
6315 Clear 23 1019 60 10000 5.1 210 19:18 08.10.2019
6316 Clear 23 1019 56 10000 5.7 210 18:45 08.10.2019
6317 Clear 24 1019 56 10000 5.7 210 18:25 08.10.2019
6318 Clear 24 1019 53 10000 6.2 220 17:58 08.10.2019
6319 Clear 24 1019 53 10000 6.2 210 17:39 08.10.2019
6320 Clear 24 1019 53 10000 6.2 210 17:20 08.10.2019
6321 Clear 24 1019 53 10000 5.7 210 16:56 08.10.2019
6322 Clear 24 1019 53 10000 5.7 210 16:56 08.10.2019
6323 Clear 24 1019 53 10000 5.7 210 16:56 08.10.2019
6324 Clear 24 1020 50 10000 6.7 210 16:37 08.10.2019
6325 Clear 24 1020 50 10000 6.7 210 16:18 08.10.2019
6326 Clear 24 1020 50 10000 6.2 210 15:39 08.10.2019
6327 Clear 24 1020 50 10000 6.2 210 15:39 08.10.2019
6328 Clear 24 1020 50 10000 6.2 210 15:20 08.10.2019
6329 Clear 24 1020 50 10000 5.7 210 14:56 08.10.2019
6330 Clear 24 1021 50 10000 5.1 210 14:38 08.10.2019
6331 Clear 24 1021 44 10000 4.1 220 14:19 08.10.2019
6332 Clear 24 1021 50 10000 5.1 210 14:19 08.10.2019
6333 Clear 24 1022 41 10000 3.6 230 13:55 08.10.2019
6334 Clear 25 1021 44 10000 4.1 220 13:55 08.10.2019
6335 Clear 24 1022 41 10000 3.6 230 13:37 08.10.2019
6336 Clear 24 1022 41 10000 3.6 230 13:37 08.10.2019
6337 Clear 24 1022 41 10000 3.1 190 13:18 08.10.2019
6338 Clear 24 1022 43 10000 2.1 150 12:41 08.10.2019
6339 Clear 23 1022 43 10000 2.1 150 12:20 08.10.2019
6340 Clear 23 1022 43 10000 2.1 150 12:20 08.10.2019
6341 Clear 23 1022 46 10000 2.1 150 11:58 08.10.2019
6342 Clear 23 1022 46 10000 1 0 11:39 08.10.2019
6343 Clear 23 1022 46 10000 1 0 11:21 08.10.2019
6344 Clear 22 1022 43 10000 1 0 10:54 08.10.2019
6345 Clear 22 1022 43 10000 1 0 10:54 08.10.2019
6346 Clear 22 1022 45 10000 0.5 0 10:36 08.10.2019
6347 Clear 21 1022 52 10000 1 0 10:18 08.10.2019
6348 Clear 18 1021 59 10000 1 0 09:40 08.10.2019
6349 Clear 17 1021 59 10000 1 0 09:22 08.10.2019
6350 Clear 14 1021 66 10000 1.5 350 08:54 08.10.2019
6351 Clear 14 1021 66 10000 1.5 350 08:36 08.10.2019
6352 Clear 14 1021 62 10000 1.5 350 08:18 08.10.2019
6353 Clear 14 1020 67 10000 1.5 20 07:41 08.10.2019
6354 Clear 14 1020 67 10000 1.5 20 07:19 08.10.2019
6355 Clear 15 1020 67 10000 2.1 10 06:46 08.10.2019
6356 Clear 15 1020 67 10000 2.1 10 06:23 08.10.2019
6357 Clear 15 1020 71 10000 2.1 330 05:44 08.10.2019
6358 Clear 15 1020 71 10000 2.1 330 05:21 08.10.2019
6359 Clear 15 1020 71 10000 2.1 330 05:21 08.10.2019
6360 Clear 17 1020 72 10000 2.1 320 03:32 08.10.2019
6361 Clear 16 1020 77 10000 2.1 320 02:46 08.10.2019
6362 Clear 16 1020 77 10000 2.1 340 02:26 08.10.2019
6363 Clear 16 1020 77 10000 2.1 340 01:42 08.10.2019
6364 Clear 17 1020 77 10000 2.1 340 01:19 08.10.2019
6365 Clear 18 1020 72 10000 2.1 360 00:38 08.10.2019
6366 Clear 18 1020 72 10000 2.1 360 00:19 08.10.2019
6367 Clear 18 1020 72 10000 1 0 23:39 07.10.2019
6368 Clear 19 1020 72 10000 1 0 23:19 07.10.2019
6369 Clear 19 1020 72 10000 0.5 0 22:55 07.10.2019
6370 Clear 19 1019 72 10000 1 0 22:37 07.10.2019
6371 Clear 19 1019 72 10000 1 0 22:19 07.10.2019
6372 Clear 19 1019 68 10000 1 0 21:55 07.10.2019
6373 Clear 20 1018 64 10000 2.1 90 21:37 07.10.2019
6374 Clear 20 1018 64 10000 2.1 90 21:18 07.10.2019
6375 Clear 21 1018 60 10000 2.6 90 20:56 07.10.2019
6376 Clear 21 1018 60 10000 2.6 70 20:38 07.10.2019
6377 Clear 22 1017 56 10000 3.1 60 20:19 07.10.2019
6378 Clear 22 1017 56 10000 3.1 60 19:54 07.10.2019
6379 Clear 22 1017 49 10000 4.6 70 19:36 07.10.2019
6380 Clear 23 1016 41 10000 2.1 0 19:18 07.10.2019
6381 Clouds 24 1016 47 10000 5.7 310 18:43 07.10.2019
6382 Clouds 24 1016 47 10000 6.2 290 18:20 07.10.2019
6383 Clouds 24 1016 47 10000 6.2 290 17:59 07.10.2019
6384 Clouds 24 1016 50 10000 5.7 290 17:41 07.10.2019
6385 Clouds 24 1016 50 10000 5.7 290 17:19 07.10.2019
6386 Clear 25 1016 44 10000 4.6 300 16:55 07.10.2019
6387 Clear 25 1016 44 10000 4.6 300 16:55 07.10.2019
6388 Clouds 24 1016 47 10000 4.6 320 16:37 07.10.2019
6389 Clouds 24 1016 50 10000 5.1 230 16:18 07.10.2019
6390 Clouds 25 1016 50 10000 3.1 210 15:41 07.10.2019
6391 Clouds 25 1016 50 10000 3.1 210 15:41 07.10.2019
6392 Clouds 25 1016 50 10000 3.1 210 15:41 07.10.2019
6393 Clouds 24 1016 50 10000 3.1 210 15:22 07.10.2019
6394 Clouds 24 1016 53 10000 2.1 40 14:42 07.10.2019
6395 Clouds 24 1016 53 10000 2.1 40 14:23 07.10.2019
6396 Clouds 24 1016 50 10000 2.1 0 13:59 07.10.2019
6397 Clouds 24 1016 47 10000 2.1 0 13:40 07.10.2019
6398 Clouds 24 1016 47 10000 2.1 0 13:18 07.10.2019
6399 -273 0 0 0 0 0 12:54 07.10.2019
6400 Clouds 23 1017 49 10000 5.7 70 12:36 07.10.2019
6401 Clouds 23 1017 49 10000 5.7 70 12:36 07.10.2019
6402 Clouds 22 1017 53 10000 6.2 70 12:18 07.10.2019
6403 Clouds 23 1017 53 10000 6.2 70 11:56 07.10.2019
6404 Clear 22 1017 56 10000 5.7 50 11:36 07.10.2019
6405 Clouds 21 1016 60 10000 6.2 60 11:18 07.10.2019
6406 Clouds 21 1016 68 10000 6.2 50 10:40 07.10.2019
6407 Clouds 20 1016 68 10000 6.2 50 10:20 07.10.2019
6408 Clouds 20 1015 60 10000 2.6 0 09:42 07.10.2019
6409 Clouds 20 1015 60 10000 2.6 0 09:23 07.10.2019
6410 Clear 20 1015 60 10000 2.1 60 08:56 07.10.2019
6411 Clear 20 1014 60 10000 6.7 330 08:37 07.10.2019
6412 Clear 20 1014 60 10000 6.7 330 08:18 07.10.2019
6413 Clouds 21 1014 52 10000 7.7 330 07:41 07.10.2019
6414 Clouds 21 1014 52 10000 7.7 330 07:21 07.10.2019
6415 Clear 22 1014 49 10000 7.2 330 06:48 07.10.2019
6416 Clouds 22 1014 46 10000 8.2 320 06:27 07.10.2019
6417 Clear 23 1014 49 10000 6.7 330 05:42 07.10.2019
6418 Clear 22 1014 49 10000 6.7 330 05:21 07.10.2019
6419 Clear 21 1015 68 10000 4.6 320 04:23 07.10.2019
6420 Clear 20 1016 77 10000 1 0 03:44 07.10.2019
6421 Clear 20 1016 77 10000 1 0 03:19 07.10.2019
6422 Clear 20 1017 77 10000 1.5 290 02:20 07.10.2019
6423 Clear 20 1017 77 10000 1.5 360 01:50 07.10.2019
6424 Clear 20 1017 77 10000 1.5 360 01:21 07.10.2019
6425 Clear 20 1017 77 10000 2.1 360 00:39 07.10.2019
6426 Clear 20 1017 77 10000 2.1 360 00:20 07.10.2019
6427 Clear 20 1017 72 10000 1.5 350 23:42 06.10.2019
6428 Clear 20 1017 72 10000 1.5 350 23:42 06.10.2019
6429 Clear 20 1017 72 10000 1.5 350 23:21 06.10.2019
6430 Clear 21 1017 68 10000 2.1 10 22:59 06.10.2019
6431 Clear 21 1017 73 10000 2.1 10 22:41 06.10.2019
6432 Clear 21 1017 73 10000 2.1 10 22:22 06.10.2019
6433 Clear 22 1017 68 10000 2.6 350 21:58 06.10.2019
6434 Clear 22 1017 68 10000 3.6 330 21:38 06.10.2019
6435 Clear 22 1017 68 10000 3.6 330 21:38 06.10.2019
6436 Clear 22 1017 68 10000 3.6 330 21:38 06.10.2019
6437 Clear 22 1017 68 10000 2.1 310 21:19 06.10.2019
6438 Clear 22 1017 68 10000 2.1 310 20:58 06.10.2019
6439 Clear 23 1017 64 10000 1.5 320 20:40 06.10.2019
6440 Clear 23 1017 64 10000 1.5 320 20:20 06.10.2019
6441 Clear 24 1016 60 10000 2.6 320 19:57 06.10.2019
6442 Clouds 24 1016 57 10000 3.1 310 19:37 06.10.2019
6443 Clouds 24 1016 57 10000 3.1 310 19:19 06.10.2019
6444 Clouds 24 1017 57 10000 3.6 320 18:56 06.10.2019
6445 Clouds 25 1017 47 10000 3.6 220 18:38 06.10.2019
6446 Clouds 25 1017 47 10000 3.6 220 18:19 06.10.2019
6447 Clear 26 1016 47 10000 5.1 220 17:57 06.10.2019
6448 Clear 27 1016 47 10000 5.7 220 17:38 06.10.2019
6449 Clear 27 1016 47 10000 5.7 220 17:18 06.10.2019
6450 Clear 27 1017 51 10000 4.1 250 16:42 06.10.2019
6451 Clear 26 1017 54 10000 4.1 230 16:23 06.10.2019
6452 Clear 26 1017 54 10000 4.1 230 15:54 06.10.2019
6453 Clear 26 1018 57 10000 4.1 230 15:36 06.10.2019
6454 Clear 26 1018 57 10000 4.1 230 15:18 06.10.2019
6455 Clear 26 1018 61 10000 5.1 220 14:42 06.10.2019
6456 Clear 26 1018 61 10000 5.1 220 14:42 06.10.2019
6457 Clear 26 1018 61 10000 5.1 220 14:42 06.10.2019
6458 Clear 26 1018 61 10000 5.1 220 14:24 06.10.2019
6459 Clear 26 1019 61 10000 5.1 220 13:56 06.10.2019
6460 Clear 26 1019 57 10000 2.6 220 13:38 06.10.2019
6461 Clouds 26 1019 54 10000 3.1 320 13:19 06.10.2019
6462 Clouds 26 1019 54 10000 3.1 320 12:56 06.10.2019
6463 Clouds 26 1019 54 10000 1 340 12:38 06.10.2019
6464 Clear 26 1019 54 10000 1 340 12:20 06.10.2019
6465 Clear 25 1019 61 10000 1.5 260 11:55 06.10.2019
6466 Clear 25 1019 61 10000 1 0 11:37 06.10.2019
6467 Clear 24 1019 61 10000 1 0 11:18 06.10.2019
6468 Clear 23 1018 73 10000 1.5 10 10:42 06.10.2019
6469 Clear 22 1018 73 10000 1.5 10 10:24 06.10.2019
6470 Clear 20 1018 82 10000 2.1 350 09:56 06.10.2019
6471 Clear 21 1018 88 10000 2.6 340 09:38 06.10.2019
6472 Clear 19 1018 88 10000 2.6 340 09:18 06.10.2019
6473 Clear 18 1018 88 10000 2.6 330 08:43 06.10.2019
6474 Clear 17 1017 93 10000 1.5 340 08:20 06.10.2019
6475 Clear 18 1017 93 10000 2.1 350 07:44 06.10.2019
6476 Clear 19 1017 88 10000 2.1 10 07:19 06.10.2019
6477 Clear 19 1017 88 10000 2.1 360 06:20 06.10.2019
6478 Clear 19 1017 93 10000 2.1 360 05:34 06.10.2019
6479 Clear 18 1017 88 10000 2.6 340 03:42 06.10.2019
6480 Clear 20 1017 88 10000 1.5 350 02:42 06.10.2019
6481 Clear 20 1017 88 10000 1.5 350 02:21 06.10.2019
6482 Clear 20 1017 88 10000 1.5 340 01:44 06.10.2019
6483 Clouds 20 1017 88 10000 1.5 340 01:26 06.10.2019
6484 Clouds 21 1018 83 10000 1 0 00:52 06.10.2019
6485 Clouds 21 1017 83 10000 1.5 20 00:26 06.10.2019
6486 Clouds 21 1017 83 10000 1.5 330 23:45 05.10.2019
6487 Clouds 21 1017 83 10000 1.5 330 23:22 05.10.2019
6488 Clouds 21 1017 78 10000 1 0 22:58 05.10.2019
6489 Clouds 21 1017 78 10000 1 0 22:40 05.10.2019
6490 Clouds 22 1017 78 10000 1 0 22:20 05.10.2019
6491 Clouds 22 1017 78 10000 1.5 120 21:57 05.10.2019
6492 Clouds 22 1017 73 10000 1.5 130 21:38 05.10.2019
6493 Clouds 23 1017 73 10000 1.5 130 21:18 05.10.2019
6494 Clouds 23 1016 73 10000 2.1 110 20:56 05.10.2019
6495 Clouds 23 1016 73 10000 1 0 20:37 05.10.2019
6496 Clouds 23 1016 73 10000 1 0 20:18 05.10.2019
6497 Clouds 24 1016 73 10000 3.6 230 19:38 05.10.2019
6498 Clouds 24 1016 73 10000 3.6 230 19:19 05.10.2019
6499 Clouds 25 1016 69 10000 3.6 230 18:55 05.10.2019
6500 Clouds 26 1016 65 10000 4.1 210 18:37 05.10.2019
6501 Clouds 26 1016 61 10000 3.6 200 18:19 05.10.2019
6502 Clouds 26 1016 65 10000 3.1 130 17:43 05.10.2019
6503 Clouds 25 1016 65 10000 3.1 130 17:25 05.10.2019
6504 Clouds 25 1016 61 10000 2.6 0 16:59 05.10.2019
6505 Clouds 25 1016 61 10000 4.1 220 16:41 05.10.2019
6506 Clouds 26 1016 61 10000 4.1 220 16:21 05.10.2019
6507 Clouds 26 1016 61 10000 4.1 200 15:57 05.10.2019
6508 Clouds 26 1016 61 10000 3.1 210 15:39 05.10.2019
6509 Clear 26 1016 61 10000 3.1 210 15:21 05.10.2019
6510 Clear 26 1016 57 10000 3.1 120 14:56 05.10.2019
6511 Clear 26 1016 57 10000 2.1 180 14:38 05.10.2019
6512 Clear 26 1016 57 10000 2.1 180 14:19 05.10.2019
6513 Clear 26 1016 54 10000 1 0 13:41 05.10.2019
6514 Clouds 26 1016 54 10000 1 0 13:21 05.10.2019
6515 Clouds 25 1016 61 10000 2.1 150 12:46 05.10.2019
6516 Clouds 26 1016 61 10000 2.1 150 12:46 05.10.2019
6517 Clear 26 1016 61 10000 2.1 150 12:21 05.10.2019
6518 Clear 25 1016 65 10000 1 0 11:58 05.10.2019
6519 Clear 25 1016 69 10000 1.5 0 11:37 05.10.2019
6520 Clear 24 1016 69 10000 1.5 110 11:18 05.10.2019
6521 Clear 23 1016 73 10000 1 0 10:44 05.10.2019
6522 Clear 23 1016 73 10000 1 0 10:25 05.10.2019
6523 Clear 21 1016 77 10000 1.5 10 09:58 05.10.2019
6524 Clear 20 1016 77 10000 1.5 350 09:39 05.10.2019
6525 Clear 19 1016 77 10000 1.5 350 09:20 05.10.2019
6526 Clear 17 1015 77 10000 1.5 330 08:40 05.10.2019
6527 Clear 18 1015 77 10000 1.5 330 08:19 05.10.2019
6528 Clear 17 1015 77 10000 3.1 350 07:57 05.10.2019
6529 Clear 18 1015 72 10000 2.6 330 07:34 05.10.2019
6530 Clear 17 1015 72 10000 1.5 340 06:58 05.10.2019
6531 Clear 18 1015 82 10000 2.1 330 06:27 05.10.2019
6532 Clear 18 1015 77 10000 2.1 10 05:40 05.10.2019
6533 Clear 19 1015 77 10000 1.5 350 03:57 05.10.2019
6534 Clear 18 1016 82 10000 2.1 350 03:28 05.10.2019
6535 Clear 19 1016 82 10000 2.1 330 01:41 05.10.2019
6536 Clear 19 1016 82 10000 2.1 330 01:20 05.10.2019
6537 Clear 19 1016 82 10000 2.1 340 00:43 05.10.2019
6538 Clear 19 1016 82 10000 2.1 340 00:23 05.10.2019
6539 Clear 20 1016 82 10000 2.1 340 23:44 04.10.2019
6540 Clear 20 1016 82 10000 2.1 340 23:26 04.10.2019
6541 Clear 20 1016 77 10000 1.5 330 22:59 04.10.2019
6542 Clear 20 1016 77 10000 2.1 360 22:39 04.10.2019
6543 Clear 20 1016 77 10000 2.1 360 22:20 04.10.2019
6544 Clear 22 1016 73 10000 1.5 310 21:57 04.10.2019
6545 Clear 22 1016 73 10000 1.5 270 21:38 04.10.2019
6546 Clear 22 1016 73 10000 1.5 270 21:19 04.10.2019
6547 Clear 22 1016 68 10000 2.6 220 20:55 04.10.2019
6548 Clear 22 1016 68 10000 2.1 210 20:36 04.10.2019
6549 Clear 22 1016 68 10000 3.6 200 20:18 04.10.2019
6550 Clear 23 1016 64 10000 4.6 200 19:45 04.10.2019
6551 Clear 23 1016 64 10000 4.6 200 19:27 04.10.2019
6552 Clear 24 1016 60 10000 5.1 200 18:58 04.10.2019
6553 Clear 24 1016 60 10000 5.1 200 18:38 04.10.2019
6554 Clear 25 1016 60 10000 5.1 200 18:19 04.10.2019
6555 Clear 25 1016 60 10000 5.7 210 17:55 04.10.2019
6556 Clear 24 1016 60 10000 5.7 200 17:36 04.10.2019
6557 Clear 24 1016 60 10000 5.7 200 17:18 04.10.2019
6558 Clear 25 1017 57 10000 5.1 200 16:41 04.10.2019
6559 Clear 25 1017 57 10000 5.1 200 16:19 04.10.2019
6560 Clear 25 1017 60 10000 5.7 200 15:59 04.10.2019
6561 Clear 25 1017 53 10000 5.1 210 15:40 04.10.2019
6562 Clear 25 1017 53 10000 5.1 210 15:21 04.10.2019
6563 Clear 25 1017 57 10000 4.6 210 14:59 04.10.2019
6564 Clear 24 1018 60 10000 4.6 200 14:41 04.10.2019
6565 Clear 25 1018 57 10000 4.1 220 14:22 04.10.2019
6566 Clear 25 1018 57 10000 4.1 220 13:58 04.10.2019
6567 Clear 24 1019 53 10000 4.6 220 13:40 04.10.2019
6568 Clear 24 1019 53 10000 4.6 220 13:19 04.10.2019
6569 Clear 25 1019 56 10000 3.91 191.577 12:45 04.10.2019
6570 Clear 24 1019 56 10000 3.91 191.577 12:27 04.10.2019
6571 Clear 23 1019 64 10000 1.5 120 11:44 04.10.2019
6572 Clear 24 1019 64 10000 1.5 120 11:43 04.10.2019
6573 Clear 24 1019 64 10000 1.5 120 11:43 04.10.2019
6574 Clear 24 1019 64 10000 1.5 120 11:43 04.10.2019
6575 Clear 23 1019 64 10000 1.5 120 11:22 04.10.2019
6576 Clear 23 1019 68 10000 1 0 10:58 04.10.2019
6577 Clear 21 1019 77 10000 1 340 10:38 04.10.2019
6578 Clear 21 1019 77 10000 1 340 10:19 04.10.2019
6579 Clear 19 1018 82 10000 2.1 340 09:44 04.10.2019
6580 Clear 17 1018 82 10000 2.1 340 09:25 04.10.2019
6581 Clear 17 1018 87 10000 2.1 350 08:48 04.10.2019
6582 Clear 16 1018 87 10000 2.6 350 08:29 04.10.2019
6583 Clear 16 1018 87 10000 2.1 350 07:56 04.10.2019
6584 Clear 16 1018 87 10000 2.1 340 07:38 04.10.2019
6585 Clear 16 1018 87 10000 2.1 340 07:19 04.10.2019
6586 Clear 16 1017 87 10000 2.1 340 06:41 04.10.2019
6587 Clear 16 1017 87 10000 2.1 340 06:22 04.10.2019
6588 Clear 16 1017 87 10000 2.1 340 06:22 04.10.2019
6589 Clear 16 1018 93 10000 2.6 330 05:23 04.10.2019
6590 Clear 16 1018 87 10000 2.1 340 04:54 04.10.2019
6591 Clear 16 1018 87 10000 2.6 350 03:42 04.10.2019
6592 Clear 17 1018 87 10000 2.6 340 02:53 04.10.2019
6593 Clear 17 1018 87 10000 2.6 340 02:53 04.10.2019
6594 Clear 16 1018 88 10000 2.6 340 01:55 04.10.2019
6595 Clear 16 1018 88 10000 2.6 340 01:55 04.10.2019
6596 Clear 17 1018 88 10000 2.1 10 01:29 04.10.2019
6597 Clear 17 1018 82 10000 2.1 340 00:50 04.10.2019
6598 Clear 18 1018 77 10000 2.1 340 23:54 03.10.2019
6599 Clear 18 1018 72 10000 1.5 310 23:36 03.10.2019
6600 Clear 18 1018 72 10000 1.5 310 23:18 03.10.2019
6601 Clear 19 1018 77 10000 1 0 22:55 03.10.2019
6602 Clear 19 1018 72 10000 2.1 40 22:36 03.10.2019
6603 Clear 19 1018 72 10000 2.1 40 22:18 03.10.2019
6604 Clear 19 1018 68 10000 1.5 60 21:54 03.10.2019
6605 Clear 20 1017 64 10000 1 0 21:36 03.10.2019
6606 Clear 20 1017 64 10000 1 0 21:18 03.10.2019
6607 Clear 21 1016 56 10000 2.1 290 20:41 03.10.2019
6608 Clear 21 1016 56 10000 2.1 290 20:23 03.10.2019
6609 Clear 22 1016 53 10000 3.6 300 19:59 03.10.2019
6610 Clear 22 1016 49 10000 4.6 290 19:41 03.10.2019
6611 Clear 23 1016 49 10000 4.6 290 19:22 03.10.2019
6612 Clear 23 1016 43 10000 4.6 300 18:58 03.10.2019
6613 Clear 24 1016 44 10000 5.7 300 18:39 03.10.2019
6614 Clear 24 1016 44 10000 4.6 310 18:19 03.10.2019
6615 Clear 25 1016 44 10000 4.6 310 17:56 03.10.2019
6616 Clear 25 1016 47 10000 5.1 320 17:37 03.10.2019
6617 Clear 25 1016 47 10000 5.1 320 17:19 03.10.2019
6618 Clear 26 1016 47 10000 5.1 320 17:19 03.10.2019
6619 Clear 26 1016 47 10000 5.1 320 16:43 03.10.2019
6620 Clear 25 1016 47 10000 5.1 320 16:25 03.10.2019
6621 Clear 26 1016 47 10000 6.2 320 15:56 03.10.2019
6622 Clear 26 1016 50 10000 5.1 310 15:38 03.10.2019
6623 Clear 25 1016 50 10000 5.1 310 15:20 03.10.2019
6624 Clear 27 1016 41 10000 5.7 310 14:46 03.10.2019
6625 Clear 26 1016 41 10000 5.7 310 14:27 03.10.2019
6626 Clear 26 1017 39 10000 6.2 310 13:59 03.10.2019
6627 Clouds 26 1017 39 10000 5.1 320 13:41 03.10.2019
6628 Clouds 25 1017 39 10000 5.1 320 13:19 03.10.2019
6629 Clouds 24 1017 57 10000 2.1 320 12:56 03.10.2019
6630 Clouds 24 1017 64 10000 3.1 200 12:38 03.10.2019
6631 Clouds 24 1017 64 10000 3.1 200 12:19 03.10.2019
6632 Clouds 24 1017 64 10000 3.1 200 12:19 03.10.2019
6633 Clear 23 1017 69 10000 2.1 190 11:41 03.10.2019
6634 Clear 23 1017 69 10000 2.1 190 11:23 03.10.2019
6635 Clear 22 1017 73 10000 1.5 170 10:59 03.10.2019
6636 Clear 21 1017 73 10000 1 0 10:40 03.10.2019
6637 Clear 20 1017 77 10000 1 0 10:19 03.10.2019
6638 Clear 20 1017 77 10000 1 0 10:19 03.10.2019
6639 Clear 20 1017 77 10000 1 0 09:58 03.10.2019
6640 Clear 19 1016 77 10000 1 0 09:40 03.10.2019
6641 Clear 18 1016 88 10000 1 0 09:20 03.10.2019
6642 Clear 18 1016 88 10000 1 0 08:45 03.10.2019
6643 Clear 18 1016 88 10000 1 0 08:27 03.10.2019
6644 Clouds 18 1016 93 10000 1 0 07:57 03.10.2019
6645 Clouds 18 1016 88 10000 1.5 360 07:39 03.10.2019
6646 Clouds 18 1016 88 10000 1.5 360 07:19 03.10.2019
6647 Clouds 18 1016 93 10000 1.5 350 06:49 03.10.2019
6648 -273 0 0 0 0 0 06:24 03.10.2019
6649 Clouds 18 1016 88 10000 2.1 10 05:46 03.10.2019
6650 Clear 17 1016 93 10000 1.5 340 05:19 03.10.2019
6651 Clear 17 1016 88 10000 1.5 340 04:31 03.10.2019
6652 Clear 18 1017 88 10000 1.5 340 03:24 03.10.2019
6653 Clear 18 1017 88 10000 2.6 10 02:39 03.10.2019
6654 Clear 18 1017 88 10000 1.5 340 01:59 03.10.2019
6655 Clear 18 1017 88 10000 1 0 01:35 03.10.2019
6656 Clear 18 1017 88 10000 2.1 350 00:51 03.10.2019
6657 Clear 18 1017 88 10000 2.6 350 00:23 03.10.2019
6658 Clear 19 1017 82 10000 2.1 340 23:44 02.10.2019
6659 Clear 19 1017 82 10000 2.1 340 23:22 02.10.2019
6660 Clear 19 1016 82 10000 1 0 22:46 02.10.2019
6661 Clear 19 1016 82 10000 1 0 22:23 02.10.2019
6662 Clear 20 1016 82 10000 1.5 20 21:58 02.10.2019
6663 Clear 20 1016 82 10000 1.5 20 21:58 02.10.2019
6664 Clear 20 1015 77 10000 1.5 50 21:39 02.10.2019
6665 Clear 20 1015 77 10000 1.5 50 21:20 02.10.2019
6666 Clear 20 1015 82 10000 3.1 70 20:57 02.10.2019
6667 Clear 21 1014 68 10000 2.6 30 20:39 02.10.2019
6668 Clear 21 1014 68 10000 2.6 30 20:20 02.10.2019
6669 Clear 21 1014 56 10000 2.1 340 19:57 02.10.2019
6670 Clouds 22 1013 60 10000 2.6 330 19:39 02.10.2019
6671 Clouds 22 1013 60 10000 2.6 330 19:20 02.10.2019
6672 Clear 23 1014 47 10000 3.6 320 18:57 02.10.2019
6673 Clear 23 1014 47 10000 3.6 320 18:38 02.10.2019
6674 Clear 23 1014 53 10000 4.1 330 18:19 02.10.2019
6675 Clear 23 1014 53 10000 4.1 330 17:56 02.10.2019
6676 Clear 23 1014 53 10000 5.7 330 17:36 02.10.2019
6677 Clear 23 1014 53 10000 5.7 330 17:36 02.10.2019
6678 Clear 23 1014 53 10000 5.7 330 17:18 02.10.2019
6679 Clouds 23 1013 61 10000 4.1 320 16:42 02.10.2019
6680 Clouds 24 1013 61 10000 4.1 320 16:22 02.10.2019
6681 Clear 23 1014 60 10000 2.6 330 15:57 02.10.2019
6682 Clear 23 1014 64 10000 1.5 0 15:38 02.10.2019
6683 Rain 23 1014 64 10000 1.5 0 15:19 02.10.2019
6684 Rain 23 1014 64 10000 2.1 90 14:57 02.10.2019
6685 Rain 22 1014 73 10000 2.6 10 14:39 02.10.2019
6686 Clouds 22 1013 73 10000 1.5 40 14:20 02.10.2019
6687 Clouds 22 1013 73 10000 1.5 40 14:20 02.10.2019
6688 Clouds 22 1013 83 10000 2.1 20 13:43 02.10.2019
6689 Rain 21 1014 73 10000 2.6 50 13:24 02.10.2019
6690 Rain 20 1014 82 10000 2.1 60 12:57 02.10.2019
6691 Rain 20 1013 82 10000 4.6 80 12:37 02.10.2019
6692 Rain 21 1012 77 10000 8.7 360 12:18 02.10.2019
6693 Rain 23 1012 77 10000 8.7 360 11:44 02.10.2019
6694 Thunderstorm 24 1013 56 10000 5.7 80 11:23 02.10.2019
6695 Clear 24 1013 57 10000 5.1 70 10:42 02.10.2019
6696 Clear 24 1013 57 10000 5.1 70 10:20 02.10.2019
6697 Clear 23 1013 60 10000 4.1 60 09:59 02.10.2019